<?xml version='1.0' encoding='UTF-8'?><gpx version="1.1" creator="JPX - https://github.com/jenetics/jpx" xmlns="http://www.topografix.com/GPX/1/1"><trk><trkseg><trkpt lat="44.833808626111896" lon="9.037083525072541"><ele>260.0</ele><time>2026-05-03T09:17:07.999Z</time></trkpt><trkpt lat="44.8337368249736" lon="9.037102916008152"><ele>260.0</ele><time>2026-05-03T09:17:08.999Z</time></trkpt><trkpt lat="44.833655888669064" lon="9.037140806342368"><ele>260.0</ele><time>2026-05-03T09:17:09.999Z</time></trkpt><trkpt lat="44.83358881966977" lon="9.037156336439274"><ele>260.0</ele><time>2026-05-03T09:17:10.999Z</time></trkpt><trkpt lat="44.83350991260286" lon="9.037204460350612"><ele>260.0</ele><time>2026-05-03T09:17:11.999Z</time></trkpt><trkpt lat="44.83342326355588" lon="9.037256588795879"><ele>260.0</ele><time>2026-05-03T09:17:12.999Z</time></trkpt><trkpt lat="44.83333083471416" lon="9.037312114468554"><ele>260.0</ele><time>2026-05-03T09:17:13.999Z</time></trkpt><trkpt lat="44.83323638350703" lon="9.037360389140776"><ele>260.0</ele><time>2026-05-03T09:17:14.999Z</time></trkpt><trkpt lat="44.833135521642255" lon="9.03743597894495"><ele>260.0</ele><time>2026-05-03T09:17:15.999Z</time></trkpt><trkpt lat="44.83303864391482" lon="9.037515052843972"><ele>260.0</ele><time>2026-05-03T09:17:16.999Z</time></trkpt><trkpt lat="44.832954765475485" lon="9.037590661674923"><ele>260.0</ele><time>2026-05-03T09:17:17.999Z</time></trkpt><trkpt lat="44.83286605150827" lon="9.037685193661172"><ele>260.5</ele><time>2026-05-03T09:17:18.999Z</time></trkpt><trkpt lat="44.83278716035943" lon="9.037815408210145"><ele>261.0</ele><time>2026-05-03T09:17:19.999Z</time></trkpt><trkpt lat="44.832734855639856" lon="9.03796054706914"><ele>261.5</ele><time>2026-05-03T09:17:20.999Z</time></trkpt><trkpt lat="44.83267702756976" lon="9.038104831118945"><ele>262.0</ele><time>2026-05-03T09:17:21.999Z</time></trkpt><trkpt lat="44.832639291432024" lon="9.038313548810033"><ele>262.3333333333333</ele><time>2026-05-03T09:17:22.999Z</time></trkpt><trkpt lat="44.83264255924731" lon="9.038543862804598"><ele>262.6666666666667</ele><time>2026-05-03T09:17:23.999Z</time></trkpt><trkpt lat="44.83259344135589" lon="9.038733660139975"><ele>263.0</ele><time>2026-05-03T09:17:24.999Z</time></trkpt><trkpt lat="44.832523226164504" lon="9.038929034470469"><ele>263.25</ele><time>2026-05-03T09:17:25.999Z</time></trkpt><trkpt lat="44.832448154561824" lon="9.039011139588448"><ele>263.5</ele><time>2026-05-03T09:17:26.999Z</time></trkpt><trkpt lat="44.83233839405129" lon="9.03911832069423"><ele>263.75</ele><time>2026-05-03T09:17:27.999Z</time></trkpt><trkpt lat="44.832239260925626" lon="9.039244360601536"><ele>264.0</ele><time>2026-05-03T09:17:28.998Z</time></trkpt><trkpt lat="44.83213353410114" lon="9.039358773183247"><ele>266.25</ele><time>2026-05-03T09:17:29.998Z</time></trkpt><trkpt lat="44.83204626530688" lon="9.039504150645397"><ele>268.5</ele><time>2026-05-03T09:17:30.998Z</time></trkpt><trkpt lat="44.831958011113215" lon="9.039658622712013"><ele>270.75</ele><time>2026-05-03T09:17:31.998Z</time></trkpt><trkpt lat="44.83186717697577" lon="9.039817911944995"><ele>273.0</ele><time>2026-05-03T09:17:32.998Z</time></trkpt><trkpt lat="44.831775758941355" lon="9.03997601491127"><ele>276.5</ele><time>2026-05-03T09:17:33.998Z</time></trkpt><trkpt lat="44.831673316032074" lon="9.04012036959392"><ele>280.0</ele><time>2026-05-03T09:17:34.998Z</time></trkpt><trkpt lat="44.8315614126501" lon="9.04023726207201"><ele>283.5</ele><time>2026-05-03T09:17:35.998Z</time></trkpt><trkpt lat="44.83144950171698" lon="9.040351039768016"><ele>287.0</ele><time>2026-05-03T09:17:36.998Z</time></trkpt><trkpt lat="44.831343963146075" lon="9.040471845219328"><ele>287.0</ele><time>2026-05-03T09:17:37.998Z</time></trkpt><trkpt lat="44.83124838646947" lon="9.04061651194175"><ele>287.0</ele><time>2026-05-03T09:17:38.998Z</time></trkpt><trkpt lat="44.83115434254826" lon="9.04075927187555"><ele>287.0</ele><time>2026-05-03T09:17:39.998Z</time></trkpt><trkpt lat="44.831062096834266" lon="9.040912457800658"><ele>287.0</ele><time>2026-05-03T09:17:40.998Z</time></trkpt><trkpt lat="44.83097233611927" lon="9.041055166002229"><ele>289.25</ele><time>2026-05-03T09:17:41.998Z</time></trkpt><trkpt lat="44.830873722424606" lon="9.041194365786119"><ele>291.5</ele><time>2026-05-03T09:17:42.998Z</time></trkpt><trkpt lat="44.83076962709172" lon="9.041327625226923"><ele>293.75</ele><time>2026-05-03T09:17:43.998Z</time></trkpt><trkpt lat="44.83065947765635" lon="9.0414405910382"><ele>296.0</ele><time>2026-05-03T09:17:44.998Z</time></trkpt><trkpt lat="44.83056056681482" lon="9.041552813901209"><ele>297.0</ele><time>2026-05-03T09:17:45.998Z</time></trkpt><trkpt lat="44.83048698714751" lon="9.041673526253831"><ele>298.0</ele><time>2026-05-03T09:17:46.998Z</time></trkpt><trkpt lat="44.83043349492087" lon="9.041825576214293"><ele>299.0</ele><time>2026-05-03T09:17:47.998Z</time></trkpt><trkpt lat="44.83041113677615" lon="9.042009806327757"><ele>300.0</ele><time>2026-05-03T09:17:48.998Z</time></trkpt><trkpt lat="44.83038563891839" lon="9.042186122310417"><ele>300.0</ele><time>2026-05-03T09:17:49.998Z</time></trkpt><trkpt lat="44.83036400910043" lon="9.042364449567755"><ele>300.0</ele><time>2026-05-03T09:17:50.998Z</time></trkpt><trkpt lat="44.830332787492175" lon="9.042547113206188"><ele>300.0</ele><time>2026-05-03T09:17:51.998Z</time></trkpt><trkpt lat="44.83029725257727" lon="9.042729290838444"><ele>300.0</ele><time>2026-05-03T09:17:52.998Z</time></trkpt><trkpt lat="44.83025931669932" lon="9.042913915137735"><ele>300.6</ele><time>2026-05-03T09:17:53.998Z</time></trkpt><trkpt lat="44.83022055588849" lon="9.043094548634935"><ele>301.2</ele><time>2026-05-03T09:17:54.998Z</time></trkpt><trkpt lat="44.83019114619625" lon="9.043256589951614"><ele>301.8</ele><time>2026-05-03T09:17:55.998Z</time></trkpt><trkpt lat="44.830184651968025" lon="9.043389745490176"><ele>302.4</ele><time>2026-05-03T09:17:56.998Z</time></trkpt><trkpt lat="44.83020151549983" lon="9.043507315448505"><ele>303.0</ele><time>2026-05-03T09:17:57.998Z</time></trkpt><trkpt lat="44.830236747114164" lon="9.04363839281913"><ele>304.75</ele><time>2026-05-03T09:17:58.998Z</time></trkpt><trkpt lat="44.830288855386094" lon="9.043768234102792"><ele>306.5</ele><time>2026-05-03T09:17:59.998Z</time></trkpt><trkpt lat="44.830332550192416" lon="9.043907843241122"><ele>308.25</ele><time>2026-05-03T09:18:00.998Z</time></trkpt><trkpt lat="44.83037134507166" lon="9.044063427402675"><ele>310.0</ele><time>2026-05-03T09:18:02Z</time></trkpt><trkpt lat="44.83039850226034" lon="9.04422843371545"><ele>312.5</ele><time>2026-05-03T09:18:03Z</time></trkpt><trkpt lat="44.830415572569905" lon="9.044407119291195"><ele>315.0</ele><time>2026-05-03T09:18:04Z</time></trkpt><trkpt lat="44.830433175703156" lon="9.044598221101564"><ele>317.5</ele><time>2026-05-03T09:18:05Z</time></trkpt><trkpt lat="44.830444728812985" lon="9.044818883623353"><ele>320.0</ele><time>2026-05-03T09:18:06Z</time></trkpt><trkpt lat="44.83042718619811" lon="9.04505288745587"><ele>322.0</ele><time>2026-05-03T09:18:07Z</time></trkpt><trkpt lat="44.830387715234984" lon="9.045277408746703"><ele>324.0</ele><time>2026-05-03T09:18:08Z</time></trkpt><trkpt lat="44.83037187388303" lon="9.045506446407366"><ele>326.0</ele><time>2026-05-03T09:18:09Z</time></trkpt><trkpt lat="44.83036885113923" lon="9.045724190869473"><ele>328.5</ele><time>2026-05-03T09:18:10Z</time></trkpt><trkpt lat="44.83036821846803" lon="9.045915253516446"><ele>331.0</ele><time>2026-05-03T09:18:11Z</time></trkpt><trkpt lat="44.83038652313478" lon="9.04611935194024"><ele>333.5</ele><time>2026-05-03T09:18:12Z</time></trkpt><trkpt lat="44.83041066751749" lon="9.046340265149269"><ele>336.0</ele><time>2026-05-03T09:18:13Z</time></trkpt><trkpt lat="44.83044646563519" lon="9.046565047148322"><ele>338.20000000000005</ele><time>2026-05-03T09:18:14Z</time></trkpt><trkpt lat="44.83047351948783" lon="9.046750916175101"><ele>340.40000000000003</ele><time>2026-05-03T09:18:15Z</time></trkpt><trkpt lat="44.83049581882801" lon="9.046898990912716"><ele>342.6</ele><time>2026-05-03T09:18:16Z</time></trkpt><trkpt lat="44.830510403519824" lon="9.047003970629431"><ele>344.8</ele><time>2026-05-03T09:18:17Z</time></trkpt><trkpt lat="44.830499467063326" lon="9.047112884830463"><ele>347.0</ele><time>2026-05-03T09:18:18Z</time></trkpt><trkpt lat="44.83043904153229" lon="9.047219675903124"><ele>347.0</ele><time>2026-05-03T09:18:19Z</time></trkpt><trkpt lat="44.83037653559484" lon="9.047373246590507"><ele>347.0</ele><time>2026-05-03T09:18:20Z</time></trkpt><trkpt lat="44.83030745078782" lon="9.04757260003812"><ele>347.0</ele><time>2026-05-03T09:18:21Z</time></trkpt><trkpt lat="44.83021701142875" lon="9.047770781127454"><ele>347.40000000000003</ele><time>2026-05-03T09:18:22Z</time></trkpt><trkpt lat="44.830152532107995" lon="9.047925532688515"><ele>347.8</ele><time>2026-05-03T09:18:23Z</time></trkpt><trkpt lat="44.830094053633076" lon="9.04803331802854"><ele>348.2</ele><time>2026-05-03T09:18:24Z</time></trkpt><trkpt lat="44.830019508089435" lon="9.04812793220477"><ele>348.6</ele><time>2026-05-03T09:18:25Z</time></trkpt><trkpt lat="44.82992772402173" lon="9.048233468481817"><ele>349.0</ele><time>2026-05-03T09:18:26Z</time></trkpt><trkpt lat="44.82983611549988" lon="9.048375923276751"><ele>349.0</ele><time>2026-05-03T09:18:27Z</time></trkpt><trkpt lat="44.829761215376024" lon="9.048483132079228"><ele>349.0</ele><time>2026-05-03T09:18:28Z</time></trkpt><trkpt lat="44.82971763266965" lon="9.048614206678458"><ele>349.0</ele><time>2026-05-03T09:18:29Z</time></trkpt><trkpt lat="44.82968605604946" lon="9.048789905461295"><ele>349.0</ele><time>2026-05-03T09:18:30Z</time></trkpt><trkpt lat="44.82963670608747" lon="9.04899552766457"><ele>348.66666666666663</ele><time>2026-05-03T09:18:31Z</time></trkpt><trkpt lat="44.829544187939625" lon="9.049198534857712"><ele>348.3333333333333</ele><time>2026-05-03T09:18:32Z</time></trkpt><trkpt lat="44.82948044713389" lon="9.049413643138873"><ele>348.0</ele><time>2026-05-03T09:18:33Z</time></trkpt><trkpt lat="44.82940470277649" lon="9.04960061992592"><ele>348.0</ele><time>2026-05-03T09:18:34Z</time></trkpt><trkpt lat="44.829332846015824" lon="9.049801277603718"><ele>348.0</ele><time>2026-05-03T09:18:35Z</time></trkpt><trkpt lat="44.82926780203417" lon="9.050028140759627"><ele>348.0</ele><time>2026-05-03T09:18:36Z</time></trkpt><trkpt lat="44.82919611166161" lon="9.050275575970321"><ele>349.3333333333333</ele><time>2026-05-03T09:18:37Z</time></trkpt><trkpt lat="44.82911837379679" lon="9.05050598090141"><ele>350.66666666666663</ele><time>2026-05-03T09:18:37.999Z</time></trkpt><trkpt lat="44.829022638263" lon="9.050703174283964"><ele>352.0</ele><time>2026-05-03T09:18:38.999Z</time></trkpt><trkpt lat="44.828928270140224" lon="9.050911306177925"><ele>352.5</ele><time>2026-05-03T09:18:39.999Z</time></trkpt><trkpt lat="44.8288521077272" lon="9.051101416142643"><ele>353.0</ele><time>2026-05-03T09:18:40.999Z</time></trkpt><trkpt lat="44.828774993647855" lon="9.051261045492659"><ele>353.5</ele><time>2026-05-03T09:18:41.999Z</time></trkpt><trkpt lat="44.82871474711722" lon="9.051410776643225"><ele>354.0</ele><time>2026-05-03T09:18:42.999Z</time></trkpt><trkpt lat="44.82867426103446" lon="9.0515659592464"><ele>354.75</ele><time>2026-05-03T09:18:43.999Z</time></trkpt><trkpt lat="44.82863673875317" lon="9.051747721109995"><ele>355.5</ele><time>2026-05-03T09:18:44.999Z</time></trkpt><trkpt lat="44.82861470880982" lon="9.051959027212929"><ele>356.25</ele><time>2026-05-03T09:18:45.999Z</time></trkpt><trkpt lat="44.8285922707153" lon="9.052180296465067"><ele>357.0</ele><time>2026-05-03T09:18:46.999Z</time></trkpt><trkpt lat="44.828571663920776" lon="9.052392281836877"><ele>356.75</ele><time>2026-05-03T09:18:47.999Z</time></trkpt><trkpt lat="44.82856210594263" lon="9.052586256261451"><ele>356.5</ele><time>2026-05-03T09:18:48.999Z</time></trkpt><trkpt lat="44.82854402691919" lon="9.052772540925194"><ele>356.25</ele><time>2026-05-03T09:18:49.999Z</time></trkpt><trkpt lat="44.8285320031848" lon="9.052983550265603"><ele>356.0</ele><time>2026-05-03T09:18:50.999Z</time></trkpt><trkpt lat="44.82852848811145" lon="9.05319615512219"><ele>356.6666666666667</ele><time>2026-05-03T09:18:51.999Z</time></trkpt><trkpt lat="44.828514565169016" lon="9.053356535001646"><ele>357.33333333333337</ele><time>2026-05-03T09:18:52.999Z</time></trkpt><trkpt lat="44.82850368678975" lon="9.053484460710713"><ele>358.0</ele><time>2026-05-03T09:18:53.999Z</time></trkpt><trkpt lat="44.82849152898247" lon="9.053576102128543"><ele>358.6666666666667</ele><time>2026-05-03T09:18:54.999Z</time></trkpt><trkpt lat="44.82844413268285" lon="9.053670851767027"><ele>359.3333333333333</ele><time>2026-05-03T09:18:56.999Z</time></trkpt><trkpt lat="44.82837135257126" lon="9.053703690009725"><ele>360.0</ele><time>2026-05-03T09:18:57.999Z</time></trkpt><trkpt lat="44.82831798114378" lon="9.0537580954683"><ele>361.2</ele><time>2026-05-03T09:18:58.999Z</time></trkpt><trkpt lat="44.828255530046484" lon="9.053821756501023"><ele>362.4</ele><time>2026-05-03T09:19:00.999Z</time></trkpt><trkpt lat="44.828196395153014" lon="9.053880310504944"><ele>363.6</ele><time>2026-05-03T09:19:03.999Z</time></trkpt><trkpt lat="44.828090651412126" lon="9.05398546578449"><ele>364.8</ele><time>2026-05-03T09:19:10.999Z</time></trkpt><trkpt lat="44.828002389841004" lon="9.054085998000092"><ele>366.0</ele><time>2026-05-03T09:19:11.999Z</time></trkpt><trkpt lat="44.82790909972249" lon="9.054172297375821"><ele>366.4</ele><time>2026-05-03T09:19:12.999Z</time></trkpt><trkpt lat="44.82781852340649" lon="9.054261216315226"><ele>366.8</ele><time>2026-05-03T09:19:13.999Z</time></trkpt><trkpt lat="44.827725651939005" lon="9.054350424287186"><ele>367.2</ele><time>2026-05-03T09:19:14.999Z</time></trkpt><trkpt lat="44.82764664280924" lon="9.054427753857624"><ele>367.59999999999997</ele><time>2026-05-03T09:19:15.999Z</time></trkpt><trkpt lat="44.82756510218582" lon="9.054512002623227"><ele>368.0</ele><time>2026-05-03T09:19:16.999Z</time></trkpt><trkpt lat="44.82745484476075" lon="9.054608810396255"><ele>368.0</ele><time>2026-05-03T09:19:17.999Z</time></trkpt><trkpt lat="44.82737119979406" lon="9.054744520791873"><ele>368.0</ele><time>2026-05-03T09:19:18.999Z</time></trkpt><trkpt lat="44.82728645113069" lon="9.054857070010735"><ele>368.0</ele><time>2026-05-03T09:19:19.999Z</time></trkpt><trkpt lat="44.82720810859419" lon="9.054995780882363"><ele>368.0</ele><time>2026-05-03T09:19:20.999Z</time></trkpt><trkpt lat="44.82714655317136" lon="9.055180914702616"><ele>368.0</ele><time>2026-05-03T09:19:21.999Z</time></trkpt><trkpt lat="44.82709512695325" lon="9.055375591831769"><ele>368.0</ele><time>2026-05-03T09:19:22.999Z</time></trkpt><trkpt lat="44.82705194934255" lon="9.055593327470211"><ele>368.0</ele><time>2026-05-03T09:19:23.999Z</time></trkpt><trkpt lat="44.82699139894808" lon="9.055804710251167"><ele>368.0</ele><time>2026-05-03T09:19:24.999Z</time></trkpt><trkpt lat="44.826939651410626" lon="9.056023550810885"><ele>368.0</ele><time>2026-05-03T09:19:25.999Z</time></trkpt><trkpt lat="44.8268857614207" lon="9.056233543569695"><ele>368.0</ele><time>2026-05-03T09:19:26.999Z</time></trkpt><trkpt lat="44.82683231679531" lon="9.056433228777598"><ele>368.2</ele><time>2026-05-03T09:19:27.999Z</time></trkpt><trkpt lat="44.82678382571516" lon="9.05661071788812"><ele>368.4</ele><time>2026-05-03T09:19:28.998Z</time></trkpt><trkpt lat="44.826740449827874" lon="9.056762138854829"><ele>368.59999999999997</ele><time>2026-05-03T09:19:29.998Z</time></trkpt><trkpt lat="44.826697773212494" lon="9.05689000763271"><ele>368.79999999999995</ele><time>2026-05-03T09:19:30.998Z</time></trkpt><trkpt lat="44.82665717244284" lon="9.057011290026862"><ele>369.0</ele><time>2026-05-03T09:19:31.998Z</time></trkpt><trkpt lat="44.82661931532714" lon="9.057139702628524"><ele>370.25</ele><time>2026-05-03T09:19:32.998Z</time></trkpt><trkpt lat="44.826579803475035" lon="9.057328518572579"><ele>371.5</ele><time>2026-05-03T09:19:33.998Z</time></trkpt><trkpt lat="44.826580588253" lon="9.057447083418424"><ele>372.75</ele><time>2026-05-03T09:19:34.998Z</time></trkpt><trkpt lat="44.82655503138448" lon="9.05764699232153"><ele>374.0</ele><time>2026-05-03T09:19:35.998Z</time></trkpt><trkpt lat="44.826521428899305" lon="9.05783549441573"><ele>375.0</ele><time>2026-05-03T09:19:36.998Z</time></trkpt><trkpt lat="44.826493818224435" lon="9.05805170890942"><ele>376.0</ele><time>2026-05-03T09:19:37.998Z</time></trkpt><trkpt lat="44.82647558313447" lon="9.05824570086429"><ele>377.0</ele><time>2026-05-03T09:19:38.998Z</time></trkpt><trkpt lat="44.82645710327669" lon="9.058411887723134"><ele>378.0</ele><time>2026-05-03T09:19:39.998Z</time></trkpt><trkpt lat="44.8264340463395" lon="9.058570060128039"><ele>379.59999999999997</ele><time>2026-05-03T09:19:40.998Z</time></trkpt><trkpt lat="44.82641216723388" lon="9.05869708000426"><ele>381.2</ele><time>2026-05-03T09:19:41.998Z</time></trkpt><trkpt lat="44.82638449190907" lon="9.058821674860113"><ele>382.8</ele><time>2026-05-03T09:19:42.998Z</time></trkpt><trkpt lat="44.826330440159346" lon="9.05893054081059"><ele>384.4</ele><time>2026-05-03T09:19:43.998Z</time></trkpt><trkpt lat="44.82627163283995" lon="9.059066471525263"><ele>386.0</ele><time>2026-05-03T09:19:44.998Z</time></trkpt><trkpt lat="44.82620126328635" lon="9.059221821896392"><ele>387.5</ele><time>2026-05-03T09:19:45.998Z</time></trkpt><trkpt lat="44.82612242384784" lon="9.05938126506711"><ele>389.0</ele><time>2026-05-03T09:19:46.998Z</time></trkpt><trkpt lat="44.82605061714297" lon="9.059521376671965"><ele>390.5</ele><time>2026-05-03T09:19:47.998Z</time></trkpt><trkpt lat="44.82599119592245" lon="9.059646455675754"><ele>392.0</ele><time>2026-05-03T09:19:48.998Z</time></trkpt><trkpt lat="44.825935206444875" lon="9.05978317777453"><ele>393.0</ele><time>2026-05-03T09:19:49.998Z</time></trkpt><trkpt lat="44.82587973408671" lon="9.059917858317819"><ele>394.0</ele><time>2026-05-03T09:19:50.998Z</time></trkpt><trkpt lat="44.825815386401175" lon="9.060047777940708"><ele>395.0</ele><time>2026-05-03T09:19:51.998Z</time></trkpt><trkpt lat="44.82573971321609" lon="9.060198457419007"><ele>396.0</ele><time>2026-05-03T09:19:52.998Z</time></trkpt><trkpt lat="44.82568897656762" lon="9.06031090394852"><ele>397.0</ele><time>2026-05-03T09:19:53.998Z</time></trkpt><trkpt lat="44.825649288690144" lon="9.060455836204468"><ele>398.5</ele><time>2026-05-03T09:19:54.998Z</time></trkpt><trkpt lat="44.825598327407455" lon="9.060604616655766"><ele>400.0</ele><time>2026-05-03T09:19:55.998Z</time></trkpt><trkpt lat="44.825560851679" lon="9.060774861446337"><ele>401.5</ele><time>2026-05-03T09:19:56.998Z</time></trkpt><trkpt lat="44.82549391825596" lon="9.060906396703013"><ele>403.0</ele><time>2026-05-03T09:19:57.998Z</time></trkpt><trkpt lat="44.82542324374612" lon="9.061020923739065"><ele>403.5</ele><time>2026-05-03T09:19:58.998Z</time></trkpt><trkpt lat="44.82533389159359" lon="9.061164860940288"><ele>404.0</ele><time>2026-05-03T09:19:59.998Z</time></trkpt><trkpt lat="44.82522209473055" lon="9.061305676412193"><ele>404.5</ele><time>2026-05-03T09:20:00.998Z</time></trkpt><trkpt lat="44.82515466249387" lon="9.061412343098851"><ele>405.0</ele><time>2026-05-03T09:20:01.998Z</time></trkpt><trkpt lat="44.82508748018556" lon="9.061499523959556"><ele>407.8</ele><time>2026-05-03T09:20:02.998Z</time></trkpt><trkpt lat="44.82501711039515" lon="9.061622956093244"><ele>410.6</ele><time>2026-05-03T09:20:03.998Z</time></trkpt><trkpt lat="44.82495068088557" lon="9.061742007974399"><ele>413.4</ele><time>2026-05-03T09:20:04.998Z</time></trkpt><trkpt lat="44.824884671415866" lon="9.061850990125679"><ele>416.2</ele><time>2026-05-03T09:20:05.998Z</time></trkpt><trkpt lat="44.824824894315476" lon="9.061975695991867"><ele>419.0</ele><time>2026-05-03T09:20:07Z</time></trkpt><trkpt lat="44.82480387455109" lon="9.062101557845262"><ele>419.0</ele><time>2026-05-03T09:20:08Z</time></trkpt><trkpt lat="44.82478362939025" lon="9.062219747874074"><ele>419.0</ele><time>2026-05-03T09:20:09Z</time></trkpt><trkpt lat="44.824771816465926" lon="9.062401097886754"><ele>419.0</ele><time>2026-05-03T09:20:10Z</time></trkpt><trkpt lat="44.82473676951458" lon="9.062582420693184"><ele>419.0</ele><time>2026-05-03T09:20:11Z</time></trkpt><trkpt lat="44.8247005226018" lon="9.062752499529996"><ele>420.0</ele><time>2026-05-03T09:20:12Z</time></trkpt><trkpt lat="44.82465545071376" lon="9.062894230075639"><ele>421.0</ele><time>2026-05-03T09:20:13Z</time></trkpt><trkpt lat="44.82460366001513" lon="9.062997898419603"><ele>422.0</ele><time>2026-05-03T09:20:14Z</time></trkpt><trkpt lat="44.824532972649855" lon="9.063067192747964"><ele>423.0</ele><time>2026-05-03T09:20:15Z</time></trkpt><trkpt lat="44.82445055322738" lon="9.063127195052068"><ele>424.0</ele><time>2026-05-03T09:20:16Z</time></trkpt><trkpt lat="44.824339836015206" lon="9.063195192295828"><ele>424.6</ele><time>2026-05-03T09:20:17Z</time></trkpt><trkpt lat="44.824214516692734" lon="9.06326074286176"><ele>425.2</ele><time>2026-05-03T09:20:18Z</time></trkpt><trkpt lat="44.824109867493746" lon="9.063310254351283"><ele>425.80000000000007</ele><time>2026-05-03T09:20:19Z</time></trkpt><trkpt lat="44.824021103190624" lon="9.063360386014697"><ele>426.40000000000003</ele><time>2026-05-03T09:20:20Z</time></trkpt><trkpt lat="44.82396038360556" lon="9.063450760694144"><ele>427.0</ele><time>2026-05-03T09:20:21Z</time></trkpt><trkpt lat="44.82389436344067" lon="9.06351810123945"><ele>429.0</ele><time>2026-05-03T09:20:22Z</time></trkpt><trkpt lat="44.823855191891404" lon="9.063617393657191"><ele>431.00000000000006</ele><time>2026-05-03T09:20:23Z</time></trkpt><trkpt lat="44.82385380595014" lon="9.063743399304911"><ele>433.00000000000006</ele><time>2026-05-03T09:20:24Z</time></trkpt><trkpt lat="44.823876085732216" lon="9.063865683754218"><ele>435.0</ele><time>2026-05-03T09:20:25Z</time></trkpt><trkpt lat="44.82392194525108" lon="9.06399561188934"><ele>437.0</ele><time>2026-05-03T09:20:26Z</time></trkpt><trkpt lat="44.823988169803876" lon="9.064108332120812"><ele>438.20000000000005</ele><time>2026-05-03T09:20:27Z</time></trkpt><trkpt lat="44.82402688958498" lon="9.064243421305838"><ele>439.40000000000003</ele><time>2026-05-03T09:20:28Z</time></trkpt><trkpt lat="44.82407701348246" lon="9.06437047207599"><ele>440.59999999999997</ele><time>2026-05-03T09:20:29Z</time></trkpt><trkpt lat="44.82412690787106" lon="9.064516569704614"><ele>441.79999999999995</ele><time>2026-05-03T09:20:30Z</time></trkpt><trkpt lat="44.82415656522879" lon="9.064653739538016"><ele>443.0</ele><time>2026-05-03T09:20:31Z</time></trkpt><trkpt lat="44.82417078816202" lon="9.064794547292166"><ele>443.0</ele><time>2026-05-03T09:20:32Z</time></trkpt><trkpt lat="44.82417705998308" lon="9.064939994061435"><ele>442.99999999999994</ele><time>2026-05-03T09:20:33Z</time></trkpt><trkpt lat="44.82417210888378" lon="9.065086100295135"><ele>442.99999999999994</ele><time>2026-05-03T09:20:34Z</time></trkpt><trkpt lat="44.82416306459178" lon="9.06521961278752"><ele>443.0</ele><time>2026-05-03T09:20:35Z</time></trkpt><trkpt lat="44.82415067767455" lon="9.065357688547735"><ele>443.0</ele><time>2026-05-03T09:20:36Z</time></trkpt><trkpt lat="44.8241359516936" lon="9.06549089800269"><ele>444.59999999999997</ele><time>2026-05-03T09:20:37Z</time></trkpt><trkpt lat="44.82411626886505" lon="9.065640362939021"><ele>446.19999999999993</ele><time>2026-05-03T09:20:38Z</time></trkpt><trkpt lat="44.824100785393355" lon="9.065766064296096"><ele>447.8</ele><time>2026-05-03T09:20:39Z</time></trkpt><trkpt lat="44.82408742979348" lon="9.065900655211857"><ele>449.4</ele><time>2026-05-03T09:20:40Z</time></trkpt><trkpt lat="44.82409191217886" lon="9.066052306117388"><ele>451.0</ele><time>2026-05-03T09:20:41Z</time></trkpt><trkpt lat="44.824094753845884" lon="9.066190335673493"><ele>452.8</ele><time>2026-05-03T09:20:42Z</time></trkpt><trkpt lat="44.824117900908924" lon="9.066323525277186"><ele>454.6</ele><time>2026-05-03T09:20:43Z</time></trkpt><trkpt lat="44.824151957756854" lon="9.066450394030282"><ele>456.4</ele><time>2026-05-03T09:20:43.999Z</time></trkpt><trkpt lat="44.824147889533805" lon="9.066578803457325"><ele>458.2</ele><time>2026-05-03T09:20:44.999Z</time></trkpt><trkpt lat="44.82413726514873" lon="9.066692249574855"><ele>460.0</ele><time>2026-05-03T09:20:45.999Z</time></trkpt><trkpt lat="44.82412061732226" lon="9.066819771245445"><ele>461.6666666666667</ele><time>2026-05-03T09:20:46.999Z</time></trkpt><trkpt lat="44.824095828345236" lon="9.066920030982502"><ele>463.33333333333337</ele><time>2026-05-03T09:20:47.999Z</time></trkpt><trkpt lat="44.82407499639947" lon="9.067030540545648"><ele>465.0</ele><time>2026-05-03T09:20:48.999Z</time></trkpt><trkpt lat="44.82403215361643" lon="9.067157188555496"><ele>466.66666666666663</ele><time>2026-05-03T09:20:49.999Z</time></trkpt><trkpt lat="44.82398124606081" lon="9.067239971394933"><ele>468.3333333333333</ele><time>2026-05-03T09:20:50.999Z</time></trkpt><trkpt lat="44.823941828015855" lon="9.067338082811942"><ele>470.0</ele><time>2026-05-03T09:20:51.999Z</time></trkpt><trkpt lat="44.82389190613175" lon="9.067410826396076"><ele>472.8</ele><time>2026-05-03T09:20:52.999Z</time></trkpt><trkpt lat="44.823822025243174" lon="9.06748749431595"><ele>475.6</ele><time>2026-05-03T09:20:53.999Z</time></trkpt><trkpt lat="44.82372092966388" lon="9.067529254018885"><ele>478.4</ele><time>2026-05-03T09:20:55.999Z</time></trkpt><trkpt lat="44.823644097327296" lon="9.067547190809606"><ele>481.2</ele><time>2026-05-03T09:22:02.998Z</time></trkpt><trkpt lat="44.82350517145587" lon="9.067529589875779"><ele>484.0</ele><time>2026-05-03T09:22:04.998Z</time></trkpt><trkpt lat="44.8234220574997" lon="9.067524692855024"><ele>484.0</ele><time>2026-05-03T09:22:05.998Z</time></trkpt><trkpt lat="44.82332220893829" lon="9.067528024114026"><ele>484.0</ele><time>2026-05-03T09:22:06.998Z</time></trkpt><trkpt lat="44.82321274216628" lon="9.067536802860607"><ele>484.0</ele><time>2026-05-03T09:22:07.998Z</time></trkpt><trkpt lat="44.8230958724119" lon="9.067550712821275"><ele>484.0</ele><time>2026-05-03T09:22:08.998Z</time></trkpt><trkpt lat="44.82297096418995" lon="9.067577376464017"><ele>484.0</ele><time>2026-05-03T09:22:09.998Z</time></trkpt><trkpt lat="44.82284701289331" lon="9.067619090049952"><ele>484.0</ele><time>2026-05-03T09:22:10.998Z</time></trkpt><trkpt lat="44.822731510480466" lon="9.067674296043643"><ele>484.0</ele><time>2026-05-03T09:22:11.998Z</time></trkpt><trkpt lat="44.82261836190721" lon="9.06772524919207"><ele>484.0</ele><time>2026-05-03T09:22:13Z</time></trkpt><trkpt lat="44.82253041392654" lon="9.06777534936152"><ele>484.50000000000006</ele><time>2026-05-03T09:22:14Z</time></trkpt><trkpt lat="44.82244148549496" lon="9.067787420092884"><ele>485.0</ele><time>2026-05-03T09:22:15Z</time></trkpt><trkpt lat="44.822375520394395" lon="9.067753210988917"><ele>485.5</ele><time>2026-05-03T09:22:16Z</time></trkpt><trkpt lat="44.82232920608698" lon="9.067688763082622"><ele>486.0</ele><time>2026-05-03T09:22:17Z</time></trkpt><trkpt lat="44.82229112766963" lon="9.067574428830676"><ele>486.50000000000006</ele><time>2026-05-03T09:22:18Z</time></trkpt><trkpt lat="44.82227254412004" lon="9.0674427922965"><ele>487.0</ele><time>2026-05-03T09:22:19Z</time></trkpt><trkpt lat="44.82224722320497" lon="9.067307330477224"><ele>486.14285714285717</ele><time>2026-05-03T09:22:20Z</time></trkpt><trkpt lat="44.82225376288721" lon="9.067218994398456"><ele>485.2857142857142</ele><time>2026-05-03T09:22:21Z</time></trkpt><trkpt lat="44.82223068601149" lon="9.067120478590862"><ele>484.4285714285714</ele><time>2026-05-03T09:22:22Z</time></trkpt><trkpt lat="44.822224039317284" lon="9.067023044191894"><ele>483.57142857142856</ele><time>2026-05-03T09:22:23Z</time></trkpt><trkpt lat="44.82223856585584" lon="9.066927451684473"><ele>482.71428571428567</ele><time>2026-05-03T09:22:24Z</time></trkpt><trkpt lat="44.82224568099582" lon="9.066834895268626"><ele>481.8571428571428</ele><time>2026-05-03T09:22:25Z</time></trkpt><trkpt lat="44.82224192810684" lon="9.066741918973346"><ele>480.99999999999994</ele><time>2026-05-03T09:22:26Z</time></trkpt><trkpt lat="44.82226300218491" lon="9.066651252842453"><ele>479.6</ele><time>2026-05-03T09:22:27Z</time></trkpt><trkpt lat="44.82229605175735" lon="9.066541997292077"><ele>478.20000000000005</ele><time>2026-05-03T09:22:28Z</time></trkpt><trkpt lat="44.82233334859698" lon="9.066417210578896"><ele>476.79999999999995</ele><time>2026-05-03T09:22:29Z</time></trkpt><trkpt lat="44.82236880052212" lon="9.066297318918851"><ele>475.4</ele><time>2026-05-03T09:22:30Z</time></trkpt><trkpt lat="44.8223977970176" lon="9.066157501990324"><ele>474.0</ele><time>2026-05-03T09:22:31Z</time></trkpt><trkpt lat="44.822425303112304" lon="9.06604245819502"><ele>474.0</ele><time>2026-05-03T09:22:32Z</time></trkpt><trkpt lat="44.822426378317616" lon="9.065922620207811"><ele>474.0</ele><time>2026-05-03T09:22:33Z</time></trkpt><trkpt lat="44.82241244216859" lon="9.065807007006844"><ele>474.0</ele><time>2026-05-03T09:22:34Z</time></trkpt><trkpt lat="44.82234527078999" lon="9.065714276716994"><ele>474.0</ele><time>2026-05-03T09:22:35Z</time></trkpt><trkpt lat="44.82223924250526" lon="9.065673612401854"><ele>474.0</ele><time>2026-05-03T09:22:36Z</time></trkpt><trkpt lat="44.82211864576922" lon="9.065647202196718"><ele>471.2</ele><time>2026-05-03T09:22:37Z</time></trkpt><trkpt lat="44.82200220488312" lon="9.065648389636399"><ele>468.4</ele><time>2026-05-03T09:22:38Z</time></trkpt><trkpt lat="44.82188705814536" lon="9.065660813571304"><ele>465.6</ele><time>2026-05-03T09:22:39Z</time></trkpt><trkpt lat="44.82179111960682" lon="9.065691446231822"><ele>462.8</ele><time>2026-05-03T09:22:40Z</time></trkpt><trkpt lat="44.82169933276389" lon="9.06572450644945"><ele>460.0</ele><time>2026-05-03T09:22:41Z</time></trkpt><trkpt lat="44.82160607928353" lon="9.065758094835182"><ele>460.0</ele><time>2026-05-03T09:22:42Z</time></trkpt><trkpt lat="44.82152026291209" lon="9.065789004588288"><ele>460.0</ele><time>2026-05-03T09:22:43Z</time></trkpt><trkpt lat="44.82141123644762" lon="9.065787876365015"><ele>460.0</ele><time>2026-05-03T09:22:45Z</time></trkpt><trkpt lat="44.82136086137192" lon="9.06566216288202"><ele>460.0</ele><time>2026-05-03T09:22:47Z</time></trkpt><trkpt lat="44.821405048965" lon="9.065543848783157"><ele>460.0</ele><time>2026-05-03T09:22:48Z</time></trkpt><trkpt lat="44.8214906386574" lon="9.065412700752693"><ele>460.0</ele><time>2026-05-03T09:22:49Z</time></trkpt><trkpt lat="44.821600975597235" lon="9.065246126006071"><ele>460.0</ele><time>2026-05-03T09:22:50Z</time></trkpt><trkpt lat="44.82169630559654" lon="9.065079575585619"><ele>460.0</ele><time>2026-05-03T09:22:51Z</time></trkpt><trkpt lat="44.82178200280644" lon="9.064921967076703"><ele>455.0</ele><time>2026-05-03T09:22:51.999Z</time></trkpt><trkpt lat="44.82186905559381" lon="9.064780078698492"><ele>450.0</ele><time>2026-05-03T09:22:52.999Z</time></trkpt><trkpt lat="44.82194708575705" lon="9.064641978746012"><ele>445.0</ele><time>2026-05-03T09:22:53.999Z</time></trkpt><trkpt lat="44.82198343218451" lon="9.06448210680701"><ele>440.0</ele><time>2026-05-03T09:22:54.999Z</time></trkpt><trkpt lat="44.82196525407411" lon="9.064309837792871"><ele>440.0</ele><time>2026-05-03T09:22:55.999Z</time></trkpt><trkpt lat="44.821922452247726" lon="9.064144719209276"><ele>440.0</ele><time>2026-05-03T09:22:56.999Z</time></trkpt><trkpt lat="44.82186441595437" lon="9.063988942231834"><ele>440.0</ele><time>2026-05-03T09:22:57.999Z</time></trkpt><trkpt lat="44.82181016275273" lon="9.063842513408662"><ele>440.0</ele><time>2026-05-03T09:22:58.999Z</time></trkpt><trkpt lat="44.8217608087356" lon="9.06369527864911"><ele>439.75</ele><time>2026-05-03T09:22:59.999Z</time></trkpt><trkpt lat="44.82170805094231" lon="9.06355030939581"><ele>439.5</ele><time>2026-05-03T09:23:00.999Z</time></trkpt><trkpt lat="44.82165297422381" lon="9.063409349804525"><ele>439.25</ele><time>2026-05-03T09:23:01.999Z</time></trkpt><trkpt lat="44.8215931424684" lon="9.063273612222476"><ele>439.0</ele><time>2026-05-03T09:23:02.999Z</time></trkpt><trkpt lat="44.82152814802993" lon="9.063146218079797"><ele>437.2</ele><time>2026-05-03T09:23:03.999Z</time></trkpt><trkpt lat="44.82146784817602" lon="9.063028842598541"><ele>435.4</ele><time>2026-05-03T09:23:04.999Z</time></trkpt><trkpt lat="44.821417198170494" lon="9.0629170255733"><ele>433.6</ele><time>2026-05-03T09:23:05.999Z</time></trkpt><trkpt lat="44.821377796076696" lon="9.062805861438957"><ele>431.8</ele><time>2026-05-03T09:23:06.999Z</time></trkpt><trkpt lat="44.82136291432676" lon="9.06269065684087"><ele>430.0</ele><time>2026-05-03T09:23:07.999Z</time></trkpt><trkpt lat="44.821374242404445" lon="9.062573807053301"><ele>430.00000000000006</ele><time>2026-05-03T09:23:08.999Z</time></trkpt><trkpt lat="44.82141043935732" lon="9.062469633397274"><ele>430.0</ele><time>2026-05-03T09:23:09.999Z</time></trkpt><trkpt lat="44.821452032585306" lon="9.06237219353824"><ele>430.0</ele><time>2026-05-03T09:23:10.999Z</time></trkpt><trkpt lat="44.82147539032112" lon="9.062271747364338"><ele>430.0</ele><time>2026-05-03T09:23:11.999Z</time></trkpt><trkpt lat="44.82147423005584" lon="9.062166703479676"><ele>430.00000000000006</ele><time>2026-05-03T09:23:12.999Z</time></trkpt><trkpt lat="44.821445956499346" lon="9.062066814334766"><ele>430.0</ele><time>2026-05-03T09:23:13.999Z</time></trkpt><trkpt lat="44.82139405030852" lon="9.061997220311186"><ele>428.83333333333337</ele><time>2026-05-03T09:23:14.999Z</time></trkpt><trkpt lat="44.821321712812306" lon="9.061946641231174"><ele>427.6666666666667</ele><time>2026-05-03T09:23:15.999Z</time></trkpt><trkpt lat="44.82124037860402" lon="9.06196833009752"><ele>426.5</ele><time>2026-05-03T09:23:16.999Z</time></trkpt><trkpt lat="44.821178749647416" lon="9.0620458458667"><ele>425.33333333333337</ele><time>2026-05-03T09:23:17.999Z</time></trkpt><trkpt lat="44.821114517127604" lon="9.062099780239045"><ele>424.1666666666667</ele><time>2026-05-03T09:23:18.999Z</time></trkpt><trkpt lat="44.82105388060046" lon="9.062158790355422"><ele>423.0</ele><time>2026-05-03T09:23:19.999Z</time></trkpt><trkpt lat="44.82098945050984" lon="9.062205752934405"><ele>422.5</ele><time>2026-05-03T09:23:20.999Z</time></trkpt><trkpt lat="44.82092328119766" lon="9.062237816788382"><ele>422.0</ele><time>2026-05-03T09:23:21.999Z</time></trkpt><trkpt lat="44.820861601985385" lon="9.0621918315501"><ele>421.5</ele><time>2026-05-03T09:23:22.999Z</time></trkpt><trkpt lat="44.820823228645196" lon="9.062100646301174"><ele>421.0</ele><time>2026-05-03T09:23:23.999Z</time></trkpt><trkpt lat="44.82082543869232" lon="9.061971323663322"><ele>420.5</ele><time>2026-05-03T09:23:24.999Z</time></trkpt><trkpt lat="44.82084178200937" lon="9.06182674925203"><ele>420.0</ele><time>2026-05-03T09:23:25.999Z</time></trkpt><trkpt lat="44.82084068401625" lon="9.061665831217308"><ele>418.5</ele><time>2026-05-03T09:23:26.999Z</time></trkpt><trkpt lat="44.82083545868658" lon="9.061482866549184"><ele>417.0</ele><time>2026-05-03T09:23:27.999Z</time></trkpt><trkpt lat="44.820831806925824" lon="9.06130916162618"><ele>415.5</ele><time>2026-05-03T09:23:28.999Z</time></trkpt><trkpt lat="44.82082955543426" lon="9.061144480246584"><ele>414.0</ele><time>2026-05-03T09:23:29.999Z</time></trkpt><trkpt lat="44.820828570003286" lon="9.060984039611851"><ele>414.0</ele><time>2026-05-03T09:23:30.999Z</time></trkpt><trkpt lat="44.82082950309239" lon="9.060827755070507"><ele>414.0</ele><time>2026-05-03T09:23:31.999Z</time></trkpt><trkpt lat="44.82083898158636" lon="9.060683174520245"><ele>414.0</ele><time>2026-05-03T09:23:32.999Z</time></trkpt><trkpt lat="44.82085893863702" lon="9.060558125840572"><ele>414.0</ele><time>2026-05-03T09:23:33.999Z</time></trkpt><trkpt lat="44.82089419771055" lon="9.06043853106039"><ele>414.0</ele><time>2026-05-03T09:23:34.999Z</time></trkpt><trkpt lat="44.820950081412285" lon="9.060328402218266"><ele>411.6</ele><time>2026-05-03T09:23:35.999Z</time></trkpt><trkpt lat="44.821019454429084" lon="9.060234274924747"><ele>409.2</ele><time>2026-05-03T09:23:36.999Z</time></trkpt><trkpt lat="44.82110687077165" lon="9.060168965207376"><ele>406.8</ele><time>2026-05-03T09:23:37.999Z</time></trkpt><trkpt lat="44.82119336517145" lon="9.060102645671453"><ele>404.40000000000003</ele><time>2026-05-03T09:23:38.999Z</time></trkpt><trkpt lat="44.82127801555002" lon="9.06002935052586"><ele>402.0</ele><time>2026-05-03T09:23:39.999Z</time></trkpt><trkpt lat="44.821360836233346" lon="9.059955002236505"><ele>400.40000000000003</ele><time>2026-05-03T09:23:40.999Z</time></trkpt><trkpt lat="44.82144209473321" lon="9.059881155338376"><ele>398.8</ele><time>2026-05-03T09:23:41.999Z</time></trkpt><trkpt lat="44.82152515362691" lon="9.059780067919984"><ele>397.2</ele><time>2026-05-03T09:23:42.999Z</time></trkpt><trkpt lat="44.821603135416616" lon="9.059655562685448"><ele>395.6</ele><time>2026-05-03T09:23:43.998Z</time></trkpt><trkpt lat="44.82166871671991" lon="9.059530711929948"><ele>394.0</ele><time>2026-05-03T09:23:44.998Z</time></trkpt><trkpt lat="44.821728775168886" lon="9.059406898917661"><ele>394.0</ele><time>2026-05-03T09:23:45.998Z</time></trkpt><trkpt lat="44.8217881722819" lon="9.059287841926308"><ele>394.0</ele><time>2026-05-03T09:23:46.998Z</time></trkpt><trkpt lat="44.82184649519564" lon="9.059170856807626"><ele>394.0</ele><time>2026-05-03T09:23:47.998Z</time></trkpt><trkpt lat="44.82190145908528" lon="9.059057150985256"><ele>394.0</ele><time>2026-05-03T09:23:48.998Z</time></trkpt><trkpt lat="44.821945727209595" lon="9.058938240003904"><ele>394.0</ele><time>2026-05-03T09:23:49.998Z</time></trkpt><trkpt lat="44.82198144780741" lon="9.05881480998941"><ele>393.2</ele><time>2026-05-03T09:23:50.998Z</time></trkpt><trkpt lat="44.822014438813255" lon="9.058681798270571"><ele>392.4</ele><time>2026-05-03T09:23:51.998Z</time></trkpt><trkpt lat="44.82204413149769" lon="9.058571384575345"><ele>391.6</ele><time>2026-05-03T09:23:52.998Z</time></trkpt><trkpt lat="44.82201848427327" lon="9.058406845591298"><ele>390.8</ele><time>2026-05-03T09:23:54.998Z</time></trkpt><trkpt lat="44.821981274240784" lon="9.058264405790004"><ele>390.0</ele><time>2026-05-03T09:23:56.998Z</time></trkpt><trkpt lat="44.82192000412189" lon="9.05822904979112"><ele>390.0</ele><time>2026-05-03T09:23:58.998Z</time></trkpt><trkpt lat="44.82189107260131" lon="9.058134508902453"><ele>390.0</ele><time>2026-05-03T09:23:59.998Z</time></trkpt><trkpt lat="44.82186258592861" lon="9.058032025796356"><ele>390.0</ele><time>2026-05-03T09:24:00.998Z</time></trkpt><trkpt lat="44.82230407036614" lon="9.05749343902065"><ele>389.2</ele><time>2026-05-03T09:24:01.998Z</time></trkpt><trkpt lat="44.822305508850214" lon="9.057346799108478"><ele>388.4</ele><time>2026-05-03T09:24:02.998Z</time></trkpt><trkpt lat="44.82229023882049" lon="9.057201305879579"><ele>387.6</ele><time>2026-05-03T09:24:03.998Z</time></trkpt><trkpt lat="44.82225105184343" lon="9.057058020735568"><ele>386.8</ele><time>2026-05-03T09:24:04.998Z</time></trkpt><trkpt lat="44.822179836855895" lon="9.056944424088767"><ele>386.0</ele><time>2026-05-03T09:24:05.998Z</time></trkpt><trkpt lat="44.82209330257686" lon="9.056859203890046"><ele>386.0</ele><time>2026-05-03T09:24:06.998Z</time></trkpt><trkpt lat="44.821974054261" lon="9.056753707513058"><ele>386.0</ele><time>2026-05-03T09:24:07.998Z</time></trkpt><trkpt lat="44.82187569299738" lon="9.056639901432428"><ele>386.0</ele><time>2026-05-03T09:24:08.998Z</time></trkpt><trkpt lat="44.82178140177497" lon="9.056506293470047"><ele>386.0</ele><time>2026-05-03T09:24:09.998Z</time></trkpt><trkpt lat="44.82171176648015" lon="9.056336525422752"><ele>387.5</ele><time>2026-05-03T09:24:10.998Z</time></trkpt><trkpt lat="44.82163535677269" lon="9.056174502872512"><ele>389.0</ele><time>2026-05-03T09:24:11.998Z</time></trkpt><trkpt lat="44.82154652882153" lon="9.056030086221226"><ele>390.5</ele><time>2026-05-03T09:24:12.998Z</time></trkpt><trkpt lat="44.82147315131347" lon="9.055915670762598"><ele>392.0</ele><time>2026-05-03T09:24:13.998Z</time></trkpt><trkpt lat="44.82140057684589" lon="9.055833889320835"><ele>391.40000000000003</ele><time>2026-05-03T09:24:14.998Z</time></trkpt><trkpt lat="44.821319435489585" lon="9.055773521473743"><ele>390.8</ele><time>2026-05-03T09:24:15.998Z</time></trkpt><trkpt lat="44.82122918936918" lon="9.055716476338619"><ele>390.2</ele><time>2026-05-03T09:24:16.998Z</time></trkpt><trkpt lat="44.82115113924752" lon="9.055626162167217"><ele>389.6</ele><time>2026-05-03T09:24:18Z</time></trkpt><trkpt lat="44.82107746903186" lon="9.055511812069629"><ele>389.0</ele><time>2026-05-03T09:24:19Z</time></trkpt><trkpt lat="44.82099910373448" lon="9.055403450974978"><ele>390.25</ele><time>2026-05-03T09:24:20Z</time></trkpt><trkpt lat="44.82091084315246" lon="9.055299529600136"><ele>391.5</ele><time>2026-05-03T09:24:21Z</time></trkpt><trkpt lat="44.82079471364429" lon="9.05518489169135"><ele>392.75</ele><time>2026-05-03T09:24:22Z</time></trkpt><trkpt lat="44.820672525730046" lon="9.05506532300113"><ele>394.0</ele><time>2026-05-03T09:24:23Z</time></trkpt><trkpt lat="44.82056683013351" lon="9.055001245208542"><ele>391.75</ele><time>2026-05-03T09:24:24Z</time></trkpt><trkpt lat="44.82047233870159" lon="9.054919485340047"><ele>389.5</ele><time>2026-05-03T09:24:25Z</time></trkpt><trkpt lat="44.8203807666586" lon="9.054838256225823"><ele>387.25</ele><time>2026-05-03T09:24:26Z</time></trkpt><trkpt lat="44.82029120843358" lon="9.054699463266374"><ele>385.0</ele><time>2026-05-03T09:24:27Z</time></trkpt><trkpt lat="44.82020256169045" lon="9.054516110966322"><ele>389.0</ele><time>2026-05-03T09:24:28Z</time></trkpt><trkpt lat="44.82010407573754" lon="9.054314512567935"><ele>393.0</ele><time>2026-05-03T09:24:29Z</time></trkpt><trkpt lat="44.82002039852733" lon="9.054150426079163"><ele>397.0</ele><time>2026-05-03T09:24:30Z</time></trkpt><trkpt lat="44.81997739158824" lon="9.053969714810048"><ele>397.0</ele><time>2026-05-03T09:24:31Z</time></trkpt><trkpt lat="44.81988150857755" lon="9.053828727041688"><ele>397.0</ele><time>2026-05-03T09:24:32Z</time></trkpt><trkpt lat="44.81979668539076" lon="9.053711730295046"><ele>397.0</ele><time>2026-05-03T09:24:33Z</time></trkpt><trkpt lat="44.81974350399606" lon="9.053545474909596"><ele>397.0</ele><time>2026-05-03T09:24:34Z</time></trkpt><trkpt lat="44.81969599350579" lon="9.053393239698215"><ele>397.20000000000005</ele><time>2026-05-03T09:24:35Z</time></trkpt><trkpt lat="44.81963302114815" lon="9.053253150602195"><ele>397.4</ele><time>2026-05-03T09:24:36Z</time></trkpt><trkpt lat="44.81956453423839" lon="9.053125245455913"><ele>397.6</ele><time>2026-05-03T09:24:37Z</time></trkpt><trkpt lat="44.819535118276605" lon="9.053002071429882"><ele>397.79999999999995</ele><time>2026-05-03T09:24:38Z</time></trkpt><trkpt lat="44.81949758523093" lon="9.052878320504709"><ele>398.0</ele><time>2026-05-03T09:24:39Z</time></trkpt><trkpt lat="44.819446654153175" lon="9.052806683778575"><ele>397.99999999999994</ele><time>2026-05-03T09:24:40Z</time></trkpt><trkpt lat="44.819392112350286" lon="9.052744200738653"><ele>398.0</ele><time>2026-05-03T09:24:41Z</time></trkpt><trkpt lat="44.81934488388441" lon="9.052674274681214"><ele>398.0</ele><time>2026-05-03T09:24:42Z</time></trkpt><trkpt lat="44.819295056941286" lon="9.052591845724725"><ele>398.0</ele><time>2026-05-03T09:24:43Z</time></trkpt><trkpt lat="44.8192387175033" lon="9.052523869919282"><ele>397.99999999999994</ele><time>2026-05-03T09:24:44Z</time></trkpt><trkpt lat="44.81917759901988" lon="9.052456063438898"><ele>398.0</ele><time>2026-05-03T09:24:45Z</time></trkpt><trkpt lat="44.819100662089" lon="9.052377012665797"><ele>397.1428571428571</ele><time>2026-05-03T09:24:46Z</time></trkpt><trkpt lat="44.81903022905098" lon="9.052310780834695"><ele>396.2857142857143</ele><time>2026-05-03T09:24:47Z</time></trkpt><trkpt lat="44.81896874380006" lon="9.052259663069153"><ele>395.42857142857144</ele><time>2026-05-03T09:24:48Z</time></trkpt><trkpt lat="44.818908104562816" lon="9.052223014429606"><ele>394.57142857142856</ele><time>2026-05-03T09:24:49Z</time></trkpt><trkpt lat="44.818836049194736" lon="9.052214379512947"><ele>393.7142857142857</ele><time>2026-05-03T09:24:50Z</time></trkpt><trkpt lat="44.818762650290005" lon="9.052222420364117"><ele>392.85714285714283</ele><time>2026-05-03T09:24:51Z</time></trkpt><trkpt lat="44.818690474671804" lon="9.052234270367329"><ele>392.0</ele><time>2026-05-03T09:24:52Z</time></trkpt><trkpt lat="44.81862394326701" lon="9.052248064837954"><ele>391.99999999999994</ele><time>2026-05-03T09:24:53Z</time></trkpt><trkpt lat="44.818555748252976" lon="9.052245207646271"><ele>392.0</ele><time>2026-05-03T09:24:53.999Z</time></trkpt><trkpt lat="44.818464608373226" lon="9.052247249534593"><ele>392.0</ele><time>2026-05-03T09:24:54.999Z</time></trkpt><trkpt lat="44.81836611086602" lon="9.05225437290094"><ele>392.0</ele><time>2026-05-03T09:24:55.999Z</time></trkpt><trkpt lat="44.81828278347029" lon="9.052253859249888"><ele>391.99999999999994</ele><time>2026-05-03T09:24:56.999Z</time></trkpt><trkpt lat="44.8181924016279" lon="9.052238933771745"><ele>392.0</ele><time>2026-05-03T09:24:57.999Z</time></trkpt><trkpt lat="44.81810460224587" lon="9.052242923380232"><ele>391.6</ele><time>2026-05-03T09:24:58.999Z</time></trkpt><trkpt lat="44.81802547560771" lon="9.05223888989864"><ele>391.20000000000005</ele><time>2026-05-03T09:24:59.999Z</time></trkpt><trkpt lat="44.81793045233644" lon="9.052250023858827"><ele>390.8</ele><time>2026-05-03T09:25:00.999Z</time></trkpt><trkpt lat="44.817834839873434" lon="9.052278215948798"><ele>390.4</ele><time>2026-05-03T09:25:01.999Z</time></trkpt><trkpt lat="44.817747572094575" lon="9.052311422554501"><ele>390.0</ele><time>2026-05-03T09:25:02.999Z</time></trkpt><trkpt lat="44.81766325142886" lon="9.052350797824664"><ele>389.1666666666667</ele><time>2026-05-03T09:25:03.999Z</time></trkpt><trkpt lat="44.81757765835554" lon="9.052391770773719"><ele>388.33333333333337</ele><time>2026-05-03T09:25:04.999Z</time></trkpt><trkpt lat="44.81750810917787" lon="9.052407241695663"><ele>387.5</ele><time>2026-05-03T09:25:05.999Z</time></trkpt><trkpt lat="44.81739678072698" lon="9.052372837664791"><ele>386.6666666666667</ele><time>2026-05-03T09:25:07.999Z</time></trkpt><trkpt lat="44.817328462712524" lon="9.052339062164359"><ele>385.83333333333337</ele><time>2026-05-03T09:25:09.999Z</time></trkpt><trkpt lat="44.817244711510746" lon="9.052283947243286"><ele>385.0</ele><time>2026-05-03T09:25:11.999Z</time></trkpt><trkpt lat="44.817142141853864" lon="9.052225354833638"><ele>385.00000000000006</ele><time>2026-05-03T09:25:13.999Z</time></trkpt><trkpt lat="44.81709171631592" lon="9.052171380739418"><ele>385.0</ele><time>2026-05-03T09:25:14.999Z</time></trkpt><trkpt lat="44.81704810308329" lon="9.052097048947232"><ele>385.0</ele><time>2026-05-03T09:25:15.999Z</time></trkpt><trkpt lat="44.817002324172485" lon="9.052014916549167"><ele>385.0</ele><time>2026-05-03T09:25:16.999Z</time></trkpt><trkpt lat="44.81696114139776" lon="9.051942600767282"><ele>385.00000000000006</ele><time>2026-05-03T09:25:17.999Z</time></trkpt><trkpt lat="44.816914123811074" lon="9.051874529980667"><ele>385.0</ele><time>2026-05-03T09:25:18.999Z</time></trkpt><trkpt lat="44.81683079511508" lon="9.051758408154686"><ele>383.6666666666667</ele><time>2026-05-03T09:25:20.999Z</time></trkpt><trkpt lat="44.816754713670335" lon="9.0516168648796"><ele>382.33333333333337</ele><time>2026-05-03T09:25:22.999Z</time></trkpt><trkpt lat="44.81670603007184" lon="9.051533810046477"><ele>381.0</ele><time>2026-05-03T09:25:23.999Z</time></trkpt><trkpt lat="44.816653108154895" lon="9.051452426488893"><ele>379.6666666666667</ele><time>2026-05-03T09:25:24.999Z</time></trkpt><trkpt lat="44.81659197309081" lon="9.051387922978941"><ele>378.33333333333337</ele><time>2026-05-03T09:25:25.999Z</time></trkpt><trkpt lat="44.816519439995304" lon="9.051309443462118"><ele>377.0</ele><time>2026-05-03T09:25:26.999Z</time></trkpt><trkpt lat="44.81645681617908" lon="9.051195023343709"><ele>377.0</ele><time>2026-05-03T09:25:27.999Z</time></trkpt><trkpt lat="44.81640591159171" lon="9.051126851439395"><ele>377.0</ele><time>2026-05-03T09:25:28.999Z</time></trkpt><trkpt lat="44.81633446401439" lon="9.051077193589892"><ele>377.0</ele><time>2026-05-03T09:25:29.999Z</time></trkpt><trkpt lat="44.816237227024054" lon="9.050982118171564"><ele>377.0</ele><time>2026-05-03T09:25:31.999Z</time></trkpt><trkpt lat="44.81618090440708" lon="9.050863074197602"><ele>377.0</ele><time>2026-05-03T09:25:33.999Z</time></trkpt><trkpt lat="44.81609909832421" lon="9.050798549829603"><ele>375.1666666666667</ele><time>2026-05-03T09:25:35.999Z</time></trkpt><trkpt lat="44.81606454351073" lon="9.05071994013699"><ele>373.33333333333337</ele><time>2026-05-03T09:25:37.999Z</time></trkpt><trkpt lat="44.8160722714595" lon="9.05061789480307"><ele>371.5</ele><time>2026-05-03T09:25:39.999Z</time></trkpt><trkpt lat="44.81609531523886" lon="9.050526528311503"><ele>369.6666666666667</ele><time>2026-05-03T09:25:41.999Z</time></trkpt><trkpt lat="44.81613590932645" lon="9.050394120168853"><ele>367.8333333333333</ele><time>2026-05-03T09:30:17.998Z</time></trkpt><trkpt lat="44.816156001773884" lon="9.050286271952022"><ele>366.0</ele><time>2026-05-03T09:30:18.998Z</time></trkpt><trkpt lat="44.81619330873097" lon="9.050165435835101"><ele>366.0</ele><time>2026-05-03T09:30:20.998Z</time></trkpt><trkpt lat="44.81618155072003" lon="9.05005599596645"><ele>366.0</ele><time>2026-05-03T09:30:22.998Z</time></trkpt><trkpt lat="44.81616140313918" lon="9.049935955262942"><ele>366.0</ele><time>2026-05-03T09:30:24.998Z</time></trkpt><trkpt lat="44.816134229883524" lon="9.049788194725473"><ele>366.0</ele><time>2026-05-03T09:30:26.998Z</time></trkpt><trkpt lat="44.81608672905677" lon="9.04964060614397"><ele>366.0</ele><time>2026-05-03T09:30:28.998Z</time></trkpt><trkpt lat="44.816049007383334" lon="9.049486011224493"><ele>363.8</ele><time>2026-05-03T09:30:30.998Z</time></trkpt><trkpt lat="44.81603293570855" lon="9.049397462524402"><ele>361.6</ele><time>2026-05-03T09:30:31.998Z</time></trkpt><trkpt lat="44.81600039369524" lon="9.049251550261864"><ele>359.4</ele><time>2026-05-03T09:30:33.998Z</time></trkpt><trkpt lat="44.815947527447626" lon="9.04911509430599"><ele>357.2</ele><time>2026-05-03T09:30:36Z</time></trkpt><trkpt lat="44.81589590287251" lon="9.048998731902003"><ele>355.0</ele><time>2026-05-03T09:30:38Z</time></trkpt><trkpt lat="44.815852784579036" lon="9.048860261405487"><ele>354.8</ele><time>2026-05-03T09:30:40Z</time></trkpt><trkpt lat="44.815812182734845" lon="9.048712399034603"><ele>354.6</ele><time>2026-05-03T09:30:42Z</time></trkpt><trkpt lat="44.81574219595275" lon="9.048627275261333"><ele>354.4</ele><time>2026-05-03T09:30:44Z</time></trkpt><trkpt lat="44.815702239200476" lon="9.048534080341323"><ele>354.2</ele><time>2026-05-03T09:30:46Z</time></trkpt><trkpt lat="44.815681883969404" lon="9.048421660823312"><ele>354.0</ele><time>2026-05-03T09:30:48Z</time></trkpt><trkpt lat="44.81563116272297" lon="9.048297948170724"><ele>349.79999999999995</ele><time>2026-05-03T09:30:50Z</time></trkpt><trkpt lat="44.815601172704284" lon="9.048166783060365"><ele>345.59999999999997</ele><time>2026-05-03T09:30:52Z</time></trkpt><trkpt lat="44.81557585254416" lon="9.048051723162471"><ele>341.4</ele><time>2026-05-03T09:30:54Z</time></trkpt><trkpt lat="44.81554277757091" lon="9.047935528519323"><ele>337.2</ele><time>2026-05-03T09:30:56Z</time></trkpt><trkpt lat="44.81551688164635" lon="9.04781318519668"><ele>333.0</ele><time>2026-05-03T09:30:57.999Z</time></trkpt><trkpt lat="44.815493177342404" lon="9.047692775854742"><ele>333.0</ele><time>2026-05-03T09:30:59.999Z</time></trkpt><trkpt lat="44.81546966659897" lon="9.047554976463628"><ele>333.0</ele><time>2026-05-03T09:31:01.999Z</time></trkpt><trkpt lat="44.815432428855125" lon="9.0474490044313"><ele>333.0</ele><time>2026-05-03T09:31:03.999Z</time></trkpt><trkpt lat="44.81542852237884" lon="9.04731591167993"><ele>333.0</ele><time>2026-05-03T09:31:05.999Z</time></trkpt><trkpt lat="44.81540535413094" lon="9.047204121417415"><ele>333.0</ele><time>2026-05-03T09:31:07.999Z</time></trkpt><trkpt lat="44.81537553296183" lon="9.047078446476803"><ele>330.0</ele><time>2026-05-03T09:31:09.999Z</time></trkpt><trkpt lat="44.81536551334511" lon="9.046946923166097"><ele>327.0</ele><time>2026-05-03T09:31:11.999Z</time></trkpt><trkpt lat="44.815365643987235" lon="9.046799821216945"><ele>324.0</ele><time>2026-05-03T09:31:13.999Z</time></trkpt><trkpt lat="44.81534796608207" lon="9.046689304569364"><ele>321.0</ele><time>2026-05-03T09:31:15.999Z</time></trkpt><trkpt lat="44.81529274732683" lon="9.046594324961164"><ele>318.0</ele><time>2026-05-03T09:31:17.999Z</time></trkpt><trkpt lat="44.815219554739485" lon="9.04650100972843"><ele>314.75</ele><time>2026-05-03T09:31:19.999Z</time></trkpt><trkpt lat="44.81514409582065" lon="9.046392864408565"><ele>311.5</ele><time>2026-05-03T09:31:21.999Z</time></trkpt><trkpt lat="44.81505831359942" lon="9.046279340942805"><ele>308.25</ele><time>2026-05-03T09:31:23.999Z</time></trkpt><trkpt lat="44.81498663650017" lon="9.046160702506299"><ele>305.0</ele><time>2026-05-03T09:31:25.999Z</time></trkpt><trkpt lat="44.81491353370664" lon="9.046024958625367"><ele>305.0</ele><time>2026-05-03T09:31:27.999Z</time></trkpt><trkpt lat="44.81485413861455" lon="9.045890706719444"><ele>305.0</ele><time>2026-05-03T09:31:29.999Z</time></trkpt><trkpt lat="44.81478673809311" lon="9.045757478904449"><ele>305.0</ele><time>2026-05-03T09:31:31.999Z</time></trkpt><trkpt lat="44.814714812787784" lon="9.045661266283306"><ele>305.0</ele><time>2026-05-03T09:31:33.999Z</time></trkpt><trkpt lat="44.81465208421251" lon="9.045566197119864"><ele>305.0</ele><time>2026-05-03T09:31:35.999Z</time></trkpt><trkpt lat="44.81458697183164" lon="9.045451505423715"><ele>302.6</ele><time>2026-05-03T09:31:37.999Z</time></trkpt><trkpt lat="44.8145190882727" lon="9.045318270713132"><ele>300.2</ele><time>2026-05-03T09:31:39.999Z</time></trkpt><trkpt lat="44.814489601219655" lon="9.045169243257405"><ele>297.8</ele><time>2026-05-03T09:31:41.999Z</time></trkpt><trkpt lat="44.81449836809632" lon="9.045013130095743"><ele>295.4</ele><time>2026-05-03T09:31:43.999Z</time></trkpt><trkpt lat="44.81451258593774" lon="9.04486862707566"><ele>293.0</ele><time>2026-05-03T09:31:45.999Z</time></trkpt><trkpt lat="44.81452007643537" lon="9.044725491455722"><ele>292.0</ele><time>2026-05-03T09:31:47.999Z</time></trkpt><trkpt lat="44.81446685775199" lon="9.044646787346762"><ele>291.0</ele><time>2026-05-03T09:31:49.999Z</time></trkpt><trkpt lat="44.81439466903214" lon="9.044598389050181"><ele>290.0</ele><time>2026-05-03T09:31:52.998Z</time></trkpt><trkpt lat="44.81433504277766" lon="9.044557480606855"><ele>289.0</ele><time>2026-05-03T09:31:57.998Z</time></trkpt><trkpt lat="44.814263279607424" lon="9.044511697451105"><ele>288.0</ele><time>2026-05-03T09:32:01.998Z</time></trkpt><trkpt lat="44.81419552527566" lon="9.04447035404151"><ele>287.0</ele><time>2026-05-03T09:32:05.998Z</time></trkpt><trkpt lat="44.81410582669077" lon="9.044504063949676"><ele>287.0</ele><time>2026-05-03T09:32:30.998Z</time></trkpt><trkpt lat="44.814042266257275" lon="9.044445723626522"><ele>287.0</ele><time>2026-05-03T09:32:33.998Z</time></trkpt><trkpt lat="44.81393118191946" lon="9.044338190016042"><ele>287.0</ele><time>2026-05-03T09:32:35.998Z</time></trkpt><trkpt lat="44.81384795723871" lon="9.044303230957766"><ele>287.0</ele><time>2026-05-03T09:32:36.998Z</time></trkpt><trkpt lat="44.81376857716526" lon="9.044278952374162"><ele>287.0</ele><time>2026-05-03T09:32:37.998Z</time></trkpt><trkpt lat="44.81370542736097" lon="9.044270516064842"><ele>287.0</ele><time>2026-05-03T09:32:38.998Z</time></trkpt><trkpt lat="44.81361414143195" lon="9.044227696843395"><ele>287.0</ele><time>2026-05-03T09:32:41Z</time></trkpt><trkpt lat="44.81352613121803" lon="9.044218150394894"><ele>287.0</ele><time>2026-05-03T09:32:43Z</time></trkpt><trkpt lat="44.81345790804305" lon="9.044154045954526"><ele>287.0</ele><time>2026-05-03T09:32:46Z</time></trkpt><trkpt lat="44.813367435431495" lon="9.044122006160926"><ele>287.0</ele><time>2026-05-03T09:32:54Z</time></trkpt><trkpt lat="44.813295379120454" lon="9.044279389152763"><ele>287.0</ele><time>2026-05-03T09:32:55Z</time></trkpt><trkpt lat="44.81324222572525" lon="9.044349071276853"><ele>287.6666666666667</ele><time>2026-05-03T09:32:56Z</time></trkpt><trkpt lat="44.81319139178737" lon="9.044407998289332"><ele>288.33333333333337</ele><time>2026-05-03T09:32:57Z</time></trkpt><trkpt lat="44.81312580803285" lon="9.044471256681756"><ele>289.0</ele><time>2026-05-03T09:32:58Z</time></trkpt><trkpt lat="44.81305409985344" lon="9.04453407390889"><ele>289.6666666666667</ele><time>2026-05-03T09:32:59Z</time></trkpt><trkpt lat="44.812979076951336" lon="9.044601275907908"><ele>290.3333333333333</ele><time>2026-05-03T09:33:00Z</time></trkpt><trkpt lat="44.812895890781846" lon="9.044676023912515"><ele>291.0</ele><time>2026-05-03T09:33:01Z</time></trkpt><trkpt lat="44.81280939669921" lon="9.04475330417829"><ele>291.0</ele><time>2026-05-03T09:33:02Z</time></trkpt><trkpt lat="44.81271531548306" lon="9.044833780433022"><ele>291.0</ele><time>2026-05-03T09:33:03Z</time></trkpt><trkpt lat="44.81261741836477" lon="9.04492046508728"><ele>291.0</ele><time>2026-05-03T09:33:04Z</time></trkpt><trkpt lat="44.81252109607922" lon="9.045005917985199"><ele>291.0</ele><time>2026-05-03T09:33:04.999Z</time></trkpt><trkpt lat="44.81242152933489" lon="9.045095076519807"><ele>290.25</ele><time>2026-05-03T09:33:05.999Z</time></trkpt><trkpt lat="44.81231886835733" lon="9.045185894625392"><ele>289.5</ele><time>2026-05-03T09:33:06.999Z</time></trkpt><trkpt lat="44.81221377134437" lon="9.045271486269886"><ele>288.75</ele><time>2026-05-03T09:33:07.999Z</time></trkpt><trkpt lat="44.812108045815314" lon="9.045359802787388"><ele>288.0</ele><time>2026-05-03T09:33:08.999Z</time></trkpt><trkpt lat="44.81200316524513" lon="9.04544830743104"><ele>288.0</ele><time>2026-05-03T09:33:09.999Z</time></trkpt><trkpt lat="44.8118987146909" lon="9.0455341981803"><ele>288.0</ele><time>2026-05-03T09:33:10.999Z</time></trkpt><trkpt lat="44.81179457800322" lon="9.04562452870911"><ele>288.0</ele><time>2026-05-03T09:33:11.999Z</time></trkpt><trkpt lat="44.81169017135547" lon="9.045712731419114"><ele>288.0</ele><time>2026-05-03T09:33:12.999Z</time></trkpt><trkpt lat="44.811586739194816" lon="9.045811246431068"><ele>288.75</ele><time>2026-05-03T09:33:13.999Z</time></trkpt><trkpt lat="44.811483345870045" lon="9.0459011148671"><ele>289.5</ele><time>2026-05-03T09:33:14.999Z</time></trkpt><trkpt lat="44.81138046214091" lon="9.045992777214233"><ele>290.25</ele><time>2026-05-03T09:33:15.999Z</time></trkpt><trkpt lat="44.81127891421612" lon="9.046091440394845"><ele>291.0</ele><time>2026-05-03T09:33:16.999Z</time></trkpt><trkpt lat="44.81117783892245" lon="9.046187054556428"><ele>291.0</ele><time>2026-05-03T09:33:17.999Z</time></trkpt><trkpt lat="44.8110791140045" lon="9.046292222104091"><ele>291.0</ele><time>2026-05-03T09:33:18.999Z</time></trkpt><trkpt lat="44.81098700438676" lon="9.046413659683491"><ele>291.0</ele><time>2026-05-03T09:33:19.999Z</time></trkpt><trkpt lat="44.81089958746653" lon="9.046547537431149"><ele>291.0</ele><time>2026-05-03T09:33:20.999Z</time></trkpt><trkpt lat="44.81081139277795" lon="9.046678616116843"><ele>292.5</ele><time>2026-05-03T09:33:21.999Z</time></trkpt><trkpt lat="44.810727249540285" lon="9.046792757951263"><ele>294.0</ele><time>2026-05-03T09:33:22.999Z</time></trkpt><trkpt lat="44.81063330771978" lon="9.046921762302226"><ele>295.5</ele><time>2026-05-03T09:33:23.999Z</time></trkpt><trkpt lat="44.81053915314441" lon="9.047051812414239"><ele>297.0</ele><time>2026-05-03T09:33:24.999Z</time></trkpt><trkpt lat="44.810443184785754" lon="9.047185809150982"><ele>297.0</ele><time>2026-05-03T09:33:25.999Z</time></trkpt><trkpt lat="44.81034319773676" lon="9.047323865608787"><ele>297.0</ele><time>2026-05-03T09:33:26.999Z</time></trkpt><trkpt lat="44.8102426146243" lon="9.047463014060316"><ele>297.0</ele><time>2026-05-03T09:33:27.999Z</time></trkpt><trkpt lat="44.810137566589496" lon="9.047597744592686"><ele>297.0</ele><time>2026-05-03T09:33:28.999Z</time></trkpt><trkpt lat="44.810047737957824" lon="9.047756617444248"><ele>297.0</ele><time>2026-05-03T09:33:29.999Z</time></trkpt><trkpt lat="44.80996030713295" lon="9.047922078579115"><ele>297.0</ele><time>2026-05-03T09:33:30.999Z</time></trkpt><trkpt lat="44.80987731305318" lon="9.048097156701111"><ele>297.0</ele><time>2026-05-03T09:33:31.999Z</time></trkpt><trkpt lat="44.80979667043751" lon="9.04827856499012"><ele>297.0</ele><time>2026-05-03T09:33:32.999Z</time></trkpt><trkpt lat="44.809714555257635" lon="9.048459847640254"><ele>297.3333333333333</ele><time>2026-05-03T09:33:33.999Z</time></trkpt><trkpt lat="44.80963214584945" lon="9.048644639736015"><ele>297.66666666666663</ele><time>2026-05-03T09:33:34.999Z</time></trkpt><trkpt lat="44.809550172012585" lon="9.048827458063442"><ele>298.0</ele><time>2026-05-03T09:33:35.999Z</time></trkpt><trkpt lat="44.80946720686164" lon="9.049008799465858"><ele>298.25</ele><time>2026-05-03T09:33:36.999Z</time></trkpt><trkpt lat="44.809383153319615" lon="9.049187482193155"><ele>298.5</ele><time>2026-05-03T09:33:37.999Z</time></trkpt><trkpt lat="44.809304181849896" lon="9.049354512066632"><ele>298.75</ele><time>2026-05-03T09:33:38.999Z</time></trkpt><trkpt lat="44.80924172499697" lon="9.049499677611928"><ele>299.0</ele><time>2026-05-03T09:33:39.999Z</time></trkpt><trkpt lat="44.80919351027899" lon="9.049601289839165"><ele>299.0</ele><time>2026-05-03T09:33:40.999Z</time></trkpt><trkpt lat="44.809147918243944" lon="9.049719624831793"><ele>299.0</ele><time>2026-05-03T09:33:42.999Z</time></trkpt><trkpt lat="44.80912645298337" lon="9.049809556077715"><ele>299.0</ele><time>2026-05-03T09:33:45.999Z</time></trkpt><trkpt lat="44.80905739725299" lon="9.049913017434031"><ele>299.0</ele><time>2026-05-03T09:33:49.999Z</time></trkpt><trkpt lat="44.808986171969174" lon="9.04999644892165"><ele>299.0</ele><time>2026-05-03T09:33:51.999Z</time></trkpt><trkpt lat="44.80892556601554" lon="9.050036869681776"><ele>299.0</ele><time>2026-05-03T09:33:52.999Z</time></trkpt><trkpt lat="44.80886535022043" lon="9.050122302061174"><ele>299.5</ele><time>2026-05-03T09:33:53.999Z</time></trkpt><trkpt lat="44.80880951998767" lon="9.050203132299085"><ele>300.0</ele><time>2026-05-03T09:33:54.999Z</time></trkpt><trkpt lat="44.808749263112226" lon="9.050297997112738"><ele>300.5</ele><time>2026-05-03T09:33:55.999Z</time></trkpt><trkpt lat="44.808684410634356" lon="9.050391453000438"><ele>301.0</ele><time>2026-05-03T09:33:56.999Z</time></trkpt><trkpt lat="44.808617709091145" lon="9.05047610651448"><ele>301.5</ele><time>2026-05-03T09:33:57.999Z</time></trkpt><trkpt lat="44.80857453936383" lon="9.050543506395782"><ele>302.0</ele><time>2026-05-03T09:33:58.999Z</time></trkpt><trkpt lat="44.808491477544976" lon="9.050664124208627"><ele>302.1666666666667</ele><time>2026-05-03T09:34:00.998Z</time></trkpt><trkpt lat="44.80842427644374" lon="9.050729691765648"><ele>302.33333333333337</ele><time>2026-05-03T09:34:02.998Z</time></trkpt><trkpt lat="44.80835543162147" lon="9.050813137591947"><ele>302.5</ele><time>2026-05-03T09:34:04.998Z</time></trkpt><trkpt lat="44.808272077936294" lon="9.050831101660904"><ele>302.6666666666667</ele><time>2026-05-03T09:34:08.998Z</time></trkpt><trkpt lat="44.80817930941215" lon="9.050736639378256"><ele>302.8333333333333</ele><time>2026-05-03T09:34:10.998Z</time></trkpt><trkpt lat="44.808113403405024" lon="9.05070064460935"><ele>303.0</ele><time>2026-05-03T09:34:11.998Z</time></trkpt><trkpt lat="44.80804532636543" lon="9.050651186405492"><ele>303.0</ele><time>2026-05-03T09:34:12.998Z</time></trkpt><trkpt lat="44.80796197959848" lon="9.05061170178455"><ele>303.0</ele><time>2026-05-03T09:34:13.998Z</time></trkpt><trkpt lat="44.807890877321185" lon="9.050579755315072"><ele>303.0</ele><time>2026-05-03T09:34:14.998Z</time></trkpt><trkpt lat="44.80778824329734" lon="9.050516768249066"><ele>303.0</ele><time>2026-05-03T09:34:16.998Z</time></trkpt><trkpt lat="44.80773085489161" lon="9.050474487790849"><ele>303.0</ele><time>2026-05-03T09:34:17.998Z</time></trkpt><trkpt lat="44.8076274578782" lon="9.050406519731986"><ele>302.6</ele><time>2026-05-03T09:34:19.998Z</time></trkpt><trkpt lat="44.80752823340715" lon="9.050346616994284"><ele>302.20000000000005</ele><time>2026-05-03T09:34:21.998Z</time></trkpt><trkpt lat="44.80742446971647" lon="9.050303569870097"><ele>301.8</ele><time>2026-05-03T09:34:23.998Z</time></trkpt><trkpt lat="44.80733418283379" lon="9.05028275727083"><ele>301.40000000000003</ele><time>2026-05-03T09:34:25.998Z</time></trkpt><trkpt lat="44.80724377108329" lon="9.05027253808093"><ele>301.0</ele><time>2026-05-03T09:34:27.998Z</time></trkpt><trkpt lat="44.807140029608284" lon="9.050275894966106"><ele>301.0</ele><time>2026-05-03T09:34:29.998Z</time></trkpt><trkpt lat="44.80701741227414" lon="9.050280615204173"><ele>301.0</ele><time>2026-05-03T09:34:31.998Z</time></trkpt><trkpt lat="44.806895491113224" lon="9.05024833137995"><ele>301.0</ele><time>2026-05-03T09:34:33.998Z</time></trkpt><trkpt lat="44.80678158133506" lon="9.050195898983675"><ele>301.0</ele><time>2026-05-03T09:34:35.998Z</time></trkpt><trkpt lat="44.80674101737462" lon="9.050123129556379"><ele>301.0</ele><time>2026-05-03T09:34:36.998Z</time></trkpt><trkpt lat="44.80671420698061" lon="9.050037917790608"><ele>299.40000000000003</ele><time>2026-05-03T09:34:37.998Z</time></trkpt><trkpt lat="44.80669307694116" lon="9.049949984887023"><ele>297.8</ele><time>2026-05-03T09:34:38.998Z</time></trkpt><trkpt lat="44.80666180190085" lon="9.049785963433223"><ele>296.20000000000005</ele><time>2026-05-03T09:34:40.998Z</time></trkpt><trkpt lat="44.80661686017905" lon="9.049642004971199"><ele>294.6</ele><time>2026-05-03T09:34:42.998Z</time></trkpt><trkpt lat="44.806573375776956" lon="9.049513494484387"><ele>293.0</ele><time>2026-05-03T09:34:44.998Z</time></trkpt><trkpt lat="44.806534705648744" lon="9.049402304249552"><ele>293.0</ele><time>2026-05-03T09:34:47Z</time></trkpt><trkpt lat="44.806451377504516" lon="9.049309595437629"><ele>293.0</ele><time>2026-05-03T09:34:49Z</time></trkpt><trkpt lat="44.8064064093652" lon="9.049242583549"><ele>293.0</ele><time>2026-05-03T09:34:50Z</time></trkpt><trkpt lat="44.80643325447934" lon="9.049058900739428"><ele>293.0</ele><time>2026-05-03T09:34:51Z</time></trkpt><trkpt lat="44.80640750579852" lon="9.048957828152528"><ele>293.0</ele><time>2026-05-03T09:34:52Z</time></trkpt><trkpt lat="44.80637049490598" lon="9.048809585421173"><ele>293.25</ele><time>2026-05-03T09:34:54Z</time></trkpt><trkpt lat="44.8063632088272" lon="9.04868377251786"><ele>293.5</ele><time>2026-05-03T09:34:56Z</time></trkpt><trkpt lat="44.80634763438411" lon="9.048589099240811"><ele>293.75</ele><time>2026-05-03T09:34:58Z</time></trkpt><trkpt lat="44.806324831942874" lon="9.048315934921622"><ele>294.0</ele><time>2026-05-03T09:35:11Z</time></trkpt><trkpt lat="44.8062850787101" lon="9.048141293224365"><ele>293.59999999999997</ele><time>2026-05-03T09:35:13Z</time></trkpt><trkpt lat="44.80623704693791" lon="9.048057861702818"><ele>293.2</ele><time>2026-05-03T09:35:22.999Z</time></trkpt><trkpt lat="44.80623850127332" lon="9.047896024446889"><ele>292.79999999999995</ele><time>2026-05-03T09:35:24.999Z</time></trkpt><trkpt lat="44.80624478829762" lon="9.047798804019054"><ele>292.4</ele><time>2026-05-03T09:35:25.999Z</time></trkpt><trkpt lat="44.8062944194212" lon="9.047641529038826"><ele>292.0</ele><time>2026-05-03T09:35:27.999Z</time></trkpt><trkpt lat="44.806349214686655" lon="9.047520070280562"><ele>291.6</ele><time>2026-05-03T09:35:29.999Z</time></trkpt><trkpt lat="44.80637437907493" lon="9.047350387957481"><ele>291.2</ele><time>2026-05-03T09:35:31.999Z</time></trkpt><trkpt lat="44.806390513451824" lon="9.04724225915262"><ele>290.8</ele><time>2026-05-03T09:35:32.999Z</time></trkpt><trkpt lat="44.806391104886394" lon="9.047081343801404"><ele>290.4</ele><time>2026-05-03T09:35:34.999Z</time></trkpt><trkpt lat="44.8063322278728" lon="9.04704440423091"><ele>290.0</ele><time>2026-05-03T09:35:38.999Z</time></trkpt><trkpt lat="44.806239632655476" lon="9.046970682294068"><ele>290.0</ele><time>2026-05-03T09:35:41.999Z</time></trkpt><trkpt lat="44.806166158117954" lon="9.046922045940148"><ele>290.0</ele><time>2026-05-03T09:35:42.999Z</time></trkpt><trkpt lat="44.80607411094822" lon="9.046890816848906"><ele>290.0</ele><time>2026-05-03T09:35:43.999Z</time></trkpt><trkpt lat="44.8059734091105" lon="9.046832917109626"><ele>290.0</ele><time>2026-05-03T09:35:44.999Z</time></trkpt><trkpt lat="44.80584837415676" lon="9.046769616433323"><ele>290.0</ele><time>2026-05-03T09:35:45.999Z</time></trkpt><trkpt lat="44.8057634056012" lon="9.046709477146223"><ele>290.4</ele><time>2026-05-03T09:35:46.999Z</time></trkpt><trkpt lat="44.805700945037266" lon="9.046628091494432"><ele>290.8</ele><time>2026-05-03T09:35:47.999Z</time></trkpt><trkpt lat="44.80563577433847" lon="9.046525872413476"><ele>291.2</ele><time>2026-05-03T09:35:48.999Z</time></trkpt><trkpt lat="44.80557685661551" lon="9.046423403654789"><ele>291.6</ele><time>2026-05-03T09:35:49.999Z</time></trkpt><trkpt lat="44.80552889992495" lon="9.046308434854724"><ele>292.0</ele><time>2026-05-03T09:35:50.999Z</time></trkpt><trkpt lat="44.80547276282937" lon="9.046168217962842"><ele>292.0</ele><time>2026-05-03T09:35:51.999Z</time></trkpt><trkpt lat="44.8053958007356" lon="9.045966373731492"><ele>292.0</ele><time>2026-05-03T09:35:52.999Z</time></trkpt><trkpt lat="44.80528093904882" lon="9.045735466520423"><ele>292.0</ele><time>2026-05-03T09:35:53.999Z</time></trkpt><trkpt lat="44.80518081683208" lon="9.045551246897357"><ele>292.0</ele><time>2026-05-03T09:35:54.999Z</time></trkpt><trkpt lat="44.80512721623026" lon="9.045384675058854"><ele>292.0</ele><time>2026-05-03T09:35:55.999Z</time></trkpt><trkpt lat="44.80506689315119" lon="9.045236840454692"><ele>292.0</ele><time>2026-05-03T09:35:56.999Z</time></trkpt><trkpt lat="44.805004993746486" lon="9.045100197142474"><ele>292.0</ele><time>2026-05-03T09:35:57.999Z</time></trkpt><trkpt lat="44.80495625378496" lon="9.04497681480431"><ele>292.4</ele><time>2026-05-03T09:35:58.999Z</time></trkpt><trkpt lat="44.804915151283936" lon="9.04485414598797"><ele>292.79999999999995</ele><time>2026-05-03T09:35:59.999Z</time></trkpt><trkpt lat="44.80487267919047" lon="9.044731770042967"><ele>293.2</ele><time>2026-05-03T09:36:00.999Z</time></trkpt><trkpt lat="44.80482708679581" lon="9.044610919376964"><ele>293.59999999999997</ele><time>2026-05-03T09:36:01.999Z</time></trkpt><trkpt lat="44.80478101223106" lon="9.04449053503239"><ele>294.0</ele><time>2026-05-03T09:36:02.999Z</time></trkpt><trkpt lat="44.80474291177332" lon="9.044391524997128"><ele>294.0</ele><time>2026-05-03T09:36:03.999Z</time></trkpt><trkpt lat="44.80470405762592" lon="9.044310150078282"><ele>294.0</ele><time>2026-05-03T09:36:04.999Z</time></trkpt><trkpt lat="44.804652658943695" lon="9.044186950125066"><ele>294.0</ele><time>2026-05-03T09:36:06.999Z</time></trkpt><trkpt lat="44.804633920036835" lon="9.044102182463615"><ele>294.0</ele><time>2026-05-03T09:36:10.998Z</time></trkpt><trkpt lat="44.804530968843" lon="9.044073380149287"><ele>294.0</ele><time>2026-05-03T09:36:12.998Z</time></trkpt><trkpt lat="44.80446084726559" lon="9.044103934458267"><ele>294.0</ele><time>2026-05-03T09:36:13.998Z</time></trkpt><trkpt lat="44.804382608449025" lon="9.044118608224974"><ele>295.0</ele><time>2026-05-03T09:36:14.998Z</time></trkpt><trkpt lat="44.80430830276467" lon="9.044145897395728"><ele>296.0</ele><time>2026-05-03T09:36:15.998Z</time></trkpt><trkpt lat="44.804240166681105" lon="9.04417809975373"><ele>297.0</ele><time>2026-05-03T09:36:16.998Z</time></trkpt><trkpt lat="44.80416942530517" lon="9.044220784773074"><ele>298.0</ele><time>2026-05-03T09:36:17.998Z</time></trkpt><trkpt lat="44.80410035674413" lon="9.044270074217685"><ele>299.0</ele><time>2026-05-03T09:36:18.998Z</time></trkpt><trkpt lat="44.80402925523183" lon="9.04431653148876"><ele>300.0</ele><time>2026-05-03T09:36:19.998Z</time></trkpt><trkpt lat="44.8039560768996" lon="9.04437120306357"><ele>300.0</ele><time>2026-05-03T09:36:20.998Z</time></trkpt><trkpt lat="44.80387796247258" lon="9.044439982970243"><ele>300.0</ele><time>2026-05-03T09:36:21.998Z</time></trkpt><trkpt lat="44.80380417904559" lon="9.04452255494264"><ele>300.0</ele><time>2026-05-03T09:36:22.998Z</time></trkpt><trkpt lat="44.803740212428245" lon="9.044611469148938"><ele>300.0</ele><time>2026-05-03T09:36:23.998Z</time></trkpt><trkpt lat="44.80367968294438" lon="9.044700129454025"><ele>300.0</ele><time>2026-05-03T09:36:24.998Z</time></trkpt><trkpt lat="44.80362532522226" lon="9.044801269300175"><ele>300.0</ele><time>2026-05-03T09:36:25.998Z</time></trkpt><trkpt lat="44.80357527541646" lon="9.04491033379288"><ele>300.0</ele><time>2026-05-03T09:36:26.998Z</time></trkpt><trkpt lat="44.80352786635115" lon="9.045023323696949"><ele>300.0</ele><time>2026-05-03T09:36:27.998Z</time></trkpt><trkpt lat="44.803481086881966" lon="9.045138835805055"><ele>300.0</ele><time>2026-05-03T09:36:28.998Z</time></trkpt><trkpt lat="44.80343093170116" lon="9.04526020664901"><ele>300.0</ele><time>2026-05-03T09:36:29.998Z</time></trkpt><trkpt lat="44.8033781297143" lon="9.045374094674033"><ele>301.0</ele><time>2026-05-03T09:36:30.998Z</time></trkpt><trkpt lat="44.80331091711105" lon="9.045486440049244"><ele>302.0</ele><time>2026-05-03T09:36:31.998Z</time></trkpt><trkpt lat="44.80323339982199" lon="9.045580860165234"><ele>303.0</ele><time>2026-05-03T09:36:32.998Z</time></trkpt><trkpt lat="44.803147494097836" lon="9.04566100901743"><ele>304.0</ele><time>2026-05-03T09:36:33.998Z</time></trkpt><trkpt lat="44.80305633522097" lon="9.045729822157996"><ele>305.0</ele><time>2026-05-03T09:36:34.998Z</time></trkpt><trkpt lat="44.80296525961474" lon="9.045802418099619"><ele>305.0</ele><time>2026-05-03T09:36:35.998Z</time></trkpt><trkpt lat="44.802872888472514" lon="9.045875739043295"><ele>305.0</ele><time>2026-05-03T09:36:36.998Z</time></trkpt><trkpt lat="44.80278187457461" lon="9.04595409719854"><ele>305.0</ele><time>2026-05-03T09:36:37.998Z</time></trkpt><trkpt lat="44.802687979464814" lon="9.046033454744657"><ele>305.0</ele><time>2026-05-03T09:36:38.998Z</time></trkpt><trkpt lat="44.8025910852142" lon="9.04610471328438"><ele>305.0</ele><time>2026-05-03T09:36:39.998Z</time></trkpt><trkpt lat="44.802493001036474" lon="9.046181527212838"><ele>305.75</ele><time>2026-05-03T09:36:40.998Z</time></trkpt><trkpt lat="44.80239168061452" lon="9.04625268445285"><ele>306.5</ele><time>2026-05-03T09:36:41.998Z</time></trkpt><trkpt lat="44.80228459601623" lon="9.046307629044906"><ele>307.25</ele><time>2026-05-03T09:36:42.998Z</time></trkpt><trkpt lat="44.80217257262361" lon="9.046348737301965"><ele>308.0</ele><time>2026-05-03T09:36:43.998Z</time></trkpt><trkpt lat="44.80206086369768" lon="9.046362792670674"><ele>308.0</ele><time>2026-05-03T09:36:44.998Z</time></trkpt><trkpt lat="44.80194846503473" lon="9.046356711098046"><ele>308.0</ele><time>2026-05-03T09:36:45.998Z</time></trkpt><trkpt lat="44.801835123315996" lon="9.046337765255526"><ele>308.0</ele><time>2026-05-03T09:36:46.998Z</time></trkpt><trkpt lat="44.80172594571675" lon="9.046302242153272"><ele>308.0</ele><time>2026-05-03T09:36:47.998Z</time></trkpt><trkpt lat="44.80161093937004" lon="9.046272226095828"><ele>308.5</ele><time>2026-05-03T09:36:48.998Z</time></trkpt><trkpt lat="44.80149573163121" lon="9.046251706796237"><ele>309.0</ele><time>2026-05-03T09:36:49.998Z</time></trkpt><trkpt lat="44.801382595889955" lon="9.046264138017616"><ele>309.5</ele><time>2026-05-03T09:36:50.998Z</time></trkpt><trkpt lat="44.80126462477496" lon="9.04631003707807"><ele>310.0</ele><time>2026-05-03T09:36:52Z</time></trkpt><trkpt lat="44.8011513321459" lon="9.046377899490523"><ele>310.0</ele><time>2026-05-03T09:36:53Z</time></trkpt><trkpt lat="44.80104158602171" lon="9.046464737494082"><ele>310.0</ele><time>2026-05-03T09:36:54Z</time></trkpt><trkpt lat="44.80093492034508" lon="9.046563747038446"><ele>310.0</ele><time>2026-05-03T09:36:55Z</time></trkpt><trkpt lat="44.80082768318389" lon="9.04666027110426"><ele>310.0</ele><time>2026-05-03T09:36:56Z</time></trkpt><trkpt lat="44.80072067744905" lon="9.046764515780822"><ele>309.5</ele><time>2026-05-03T09:36:57Z</time></trkpt><trkpt lat="44.800610838050055" lon="9.046865737681589"><ele>309.0</ele><time>2026-05-03T09:36:58Z</time></trkpt><trkpt lat="44.80049736423125" lon="9.046968586284292"><ele>308.5</ele><time>2026-05-03T09:36:59Z</time></trkpt><trkpt lat="44.8003832752058" lon="9.047066091535736"><ele>308.0</ele><time>2026-05-03T09:37:00Z</time></trkpt><trkpt lat="44.800275150351" lon="9.047176600246173"><ele>308.75</ele><time>2026-05-03T09:37:01Z</time></trkpt><trkpt lat="44.80015991323126" lon="9.047272339693276"><ele>309.5</ele><time>2026-05-03T09:37:02Z</time></trkpt><trkpt lat="44.80005316090659" lon="9.047383579790068"><ele>310.25</ele><time>2026-05-03T09:37:03Z</time></trkpt><trkpt lat="44.79993799239609" lon="9.04749565985528"><ele>311.0</ele><time>2026-05-03T09:37:04Z</time></trkpt><trkpt lat="44.79981837397349" lon="9.047594250339628"><ele>311.5</ele><time>2026-05-03T09:37:05Z</time></trkpt><trkpt lat="44.799699357215594" lon="9.04769346903899"><ele>312.0</ele><time>2026-05-03T09:37:06Z</time></trkpt><trkpt lat="44.799583131331" lon="9.047807643555627"><ele>312.5</ele><time>2026-05-03T09:37:07Z</time></trkpt><trkpt lat="44.79946400426919" lon="9.047917548385774"><ele>313.0</ele><time>2026-05-03T09:37:08Z</time></trkpt><trkpt lat="44.799343833562084" lon="9.048024165996537"><ele>312.75</ele><time>2026-05-03T09:37:09Z</time></trkpt><trkpt lat="44.79922063064464" lon="9.048135563788136"><ele>312.5</ele><time>2026-05-03T09:37:10Z</time></trkpt><trkpt lat="44.79909960579289" lon="9.048248206077528"><ele>312.25</ele><time>2026-05-03T09:37:11Z</time></trkpt><trkpt lat="44.798976749048954" lon="9.048365932033043"><ele>312.0</ele><time>2026-05-03T09:37:12Z</time></trkpt><trkpt lat="44.798852385166676" lon="9.04848402198321"><ele>312.0</ele><time>2026-05-03T09:37:13Z</time></trkpt><trkpt lat="44.798726565757995" lon="9.048599628351107"><ele>312.0</ele><time>2026-05-03T09:37:14Z</time></trkpt><trkpt lat="44.79859562985348" lon="9.048719901209317"><ele>312.0</ele><time>2026-05-03T09:37:15Z</time></trkpt><trkpt lat="44.798468966773996" lon="9.048835740500698"><ele>312.0</ele><time>2026-05-03T09:37:16Z</time></trkpt><trkpt lat="44.79833973258776" lon="9.048951465785052"><ele>312.0</ele><time>2026-05-03T09:37:17Z</time></trkpt><trkpt lat="44.798207519910136" lon="9.049067168620876"><ele>312.0</ele><time>2026-05-03T09:37:18Z</time></trkpt><trkpt lat="44.798076315970754" lon="9.04917952109256"><ele>312.3333333333333</ele><time>2026-05-03T09:37:19Z</time></trkpt><trkpt lat="44.797931629007635" lon="9.04925431252608"><ele>312.66666666666663</ele><time>2026-05-03T09:37:20Z</time></trkpt><trkpt lat="44.797781222306625" lon="9.049328420763732"><ele>313.0</ele><time>2026-05-03T09:37:21Z</time></trkpt><trkpt lat="44.79763314907149" lon="9.049403623692188"><ele>313.0</ele><time>2026-05-03T09:37:22Z</time></trkpt><trkpt lat="44.797485813583656" lon="9.04947796125905"><ele>313.0</ele><time>2026-05-03T09:37:22.999Z</time></trkpt><trkpt lat="44.79733457101451" lon="9.049550762258846"><ele>313.0</ele><time>2026-05-03T09:37:23.999Z</time></trkpt><trkpt lat="44.79718230540157" lon="9.049617740393447"><ele>313.0</ele><time>2026-05-03T09:37:24.999Z</time></trkpt><trkpt lat="44.797032048689104" lon="9.0497016883851"><ele>313.0</ele><time>2026-05-03T09:37:25.999Z</time></trkpt><trkpt lat="44.79689984132008" lon="9.049829369888107"><ele>313.0</ele><time>2026-05-03T09:37:26.999Z</time></trkpt><trkpt lat="44.796758071101486" lon="9.049933098537764"><ele>313.3333333333333</ele><time>2026-05-03T09:37:27.999Z</time></trkpt><trkpt lat="44.79661302517688" lon="9.050024357983975"><ele>313.6666666666667</ele><time>2026-05-03T09:37:28.999Z</time></trkpt><trkpt lat="44.796472202185626" lon="9.050136699686"><ele>314.0</ele><time>2026-05-03T09:37:29.999Z</time></trkpt><trkpt lat="44.79635149052214" lon="9.05028965143476"><ele>314.0</ele><time>2026-05-03T09:37:30.999Z</time></trkpt><trkpt lat="44.796240179109994" lon="9.05045785173792"><ele>314.0</ele><time>2026-05-03T09:37:31.999Z</time></trkpt><trkpt lat="44.796125251051066" lon="9.050637256461727"><ele>314.0</ele><time>2026-05-03T09:37:32.999Z</time></trkpt><trkpt lat="44.79600742486381" lon="9.050799138768417"><ele>315.0</ele><time>2026-05-03T09:37:33.999Z</time></trkpt><trkpt lat="44.795885127900405" lon="9.050962850807093"><ele>316.0</ele><time>2026-05-03T09:37:34.999Z</time></trkpt><trkpt lat="44.79577017197869" lon="9.051132643326634"><ele>317.0</ele><time>2026-05-03T09:37:35.999Z</time></trkpt><trkpt lat="44.79565096287914" lon="9.051306673574215"><ele>317.0</ele><time>2026-05-03T09:37:36.999Z</time></trkpt><trkpt lat="44.7955241169986" lon="9.05147552030844"><ele>317.0</ele><time>2026-05-03T09:37:37.999Z</time></trkpt><trkpt lat="44.7954059543871" lon="9.051639308068037"><ele>317.0</ele><time>2026-05-03T09:37:38.999Z</time></trkpt><trkpt lat="44.79529617497598" lon="9.051789454837413"><ele>315.75</ele><time>2026-05-03T09:37:39.999Z</time></trkpt><trkpt lat="44.79519427284268" lon="9.051927208286523"><ele>314.5</ele><time>2026-05-03T09:37:40.999Z</time></trkpt><trkpt lat="44.795100632851266" lon="9.052063424667375"><ele>313.25</ele><time>2026-05-03T09:37:41.999Z</time></trkpt><trkpt lat="44.79499746609645" lon="9.052194589349607"><ele>312.0</ele><time>2026-05-03T09:37:42.999Z</time></trkpt><trkpt lat="44.794887255193466" lon="9.052317192569223"><ele>311.75</ele><time>2026-05-03T09:37:43.999Z</time></trkpt><trkpt lat="44.79477300836774" lon="9.052429838104521"><ele>311.5</ele><time>2026-05-03T09:37:44.999Z</time></trkpt><trkpt lat="44.79464638126861" lon="9.05252345557533"><ele>311.25</ele><time>2026-05-03T09:37:45.999Z</time></trkpt><trkpt lat="44.79451476193655" lon="9.05259599967502"><ele>311.0</ele><time>2026-05-03T09:37:46.999Z</time></trkpt><trkpt lat="44.79437194275653" lon="9.052647333097179"><ele>314.6666666666667</ele><time>2026-05-03T09:37:47.999Z</time></trkpt><trkpt lat="44.794219839281574" lon="9.052691670529455"><ele>318.3333333333333</ele><time>2026-05-03T09:37:48.999Z</time></trkpt><trkpt lat="44.79406536816408" lon="9.052733109530818"><ele>322.0</ele><time>2026-05-03T09:37:49.999Z</time></trkpt><trkpt lat="44.79391105500502" lon="9.05277021872668"><ele>322.0</ele><time>2026-05-03T09:37:50.999Z</time></trkpt><trkpt lat="44.7937516014194" lon="9.052806701129562"><ele>322.0</ele><time>2026-05-03T09:37:51.999Z</time></trkpt><trkpt lat="44.79358390617587" lon="9.052828966113815"><ele>322.0</ele><time>2026-05-03T09:37:52.999Z</time></trkpt><trkpt lat="44.79339185587364" lon="9.052876941917823"><ele>324.5</ele><time>2026-05-03T09:37:53.999Z</time></trkpt><trkpt lat="44.79317544652289" lon="9.052950223085666"><ele>327.0</ele><time>2026-05-03T09:37:54.999Z</time></trkpt><trkpt lat="44.79293416114564" lon="9.053028642658123"><ele>327.0</ele><time>2026-05-03T09:37:55.999Z</time></trkpt><trkpt lat="44.79273168459783" lon="9.053139917833857"><ele>327.0</ele><time>2026-05-03T09:37:56.999Z</time></trkpt><trkpt lat="44.792560609137155" lon="9.053264908274054"><ele>327.0</ele><time>2026-05-03T09:37:57.999Z</time></trkpt><trkpt lat="44.792409340943166" lon="9.053418864243186"><ele>325.3333333333333</ele><time>2026-05-03T09:37:58.999Z</time></trkpt><trkpt lat="44.792239068689604" lon="9.0536059769088"><ele>323.66666666666663</ele><time>2026-05-03T09:37:59.999Z</time></trkpt><trkpt lat="44.792057196263954" lon="9.053812177353505"><ele>322.0</ele><time>2026-05-03T09:38:00.999Z</time></trkpt><trkpt lat="44.7918917879937" lon="9.053957190717266"><ele>321.66666666666663</ele><time>2026-05-03T09:38:01.999Z</time></trkpt><trkpt lat="44.79173155820841" lon="9.054055588017937"><ele>321.3333333333333</ele><time>2026-05-03T09:38:02.999Z</time></trkpt><trkpt lat="44.79156625130298" lon="9.054108725586131"><ele>321.0</ele><time>2026-05-03T09:38:03.999Z</time></trkpt><trkpt lat="44.79135054127442" lon="9.054150905822645"><ele>321.0</ele><time>2026-05-03T09:38:04.999Z</time></trkpt><trkpt lat="44.79111602399143" lon="9.054237623164454"><ele>321.0</ele><time>2026-05-03T09:38:05.999Z</time></trkpt><trkpt lat="44.79088289181808" lon="9.054324527293224"><ele>322.3333333333333</ele><time>2026-05-03T09:38:06.999Z</time></trkpt><trkpt lat="44.790665320003626" lon="9.054343023983998"><ele>323.66666666666663</ele><time>2026-05-03T09:38:07.999Z</time></trkpt><trkpt lat="44.7904688603819" lon="9.054373886146555"><ele>325.0</ele><time>2026-05-03T09:38:08.999Z</time></trkpt><trkpt lat="44.790285760044334" lon="9.054461246242075"><ele>326.66666666666663</ele><time>2026-05-03T09:38:09.999Z</time></trkpt><trkpt lat="44.79013399706643" lon="9.05455792925881"><ele>328.3333333333333</ele><time>2026-05-03T09:38:10.999Z</time></trkpt><trkpt lat="44.79000172037319" lon="9.054686977312658"><ele>330.0</ele><time>2026-05-03T09:38:11.999Z</time></trkpt><trkpt lat="44.789853593752355" lon="9.054787201775921"><ele>330.0</ele><time>2026-05-03T09:38:12.999Z</time></trkpt><trkpt lat="44.789722391967906" lon="9.05492840448917"><ele>330.0</ele><time>2026-05-03T09:38:13.999Z</time></trkpt><trkpt lat="44.78960362637865" lon="9.055085002923718"><ele>330.0</ele><time>2026-05-03T09:38:14.999Z</time></trkpt><trkpt lat="44.789495951505586" lon="9.05526257647242"><ele>327.0</ele><time>2026-05-03T09:38:15.999Z</time></trkpt><trkpt lat="44.78941412989339" lon="9.055472516610177"><ele>324.0</ele><time>2026-05-03T09:38:16.998Z</time></trkpt><trkpt lat="44.789304022209144" lon="9.055652307110114"><ele>321.0</ele><time>2026-05-03T09:38:17.998Z</time></trkpt><trkpt lat="44.78919445771325" lon="9.055836034373792"><ele>320.3333333333333</ele><time>2026-05-03T09:38:18.998Z</time></trkpt><trkpt lat="44.789080705327194" lon="9.056025666402533"><ele>319.66666666666663</ele><time>2026-05-03T09:38:19.998Z</time></trkpt><trkpt lat="44.78897887881089" lon="9.05623238126173"><ele>319.0</ele><time>2026-05-03T09:38:20.998Z</time></trkpt><trkpt lat="44.78887617820511" lon="9.056431241987953"><ele>318.66666666666663</ele><time>2026-05-03T09:38:21.998Z</time></trkpt><trkpt lat="44.788766021115514" lon="9.056627832587512"><ele>318.3333333333333</ele><time>2026-05-03T09:38:22.998Z</time></trkpt><trkpt lat="44.78865610416929" lon="9.056816243316343"><ele>318.0</ele><time>2026-05-03T09:38:23.998Z</time></trkpt><trkpt lat="44.7885461432233" lon="9.056995957503736"><ele>319.0</ele><time>2026-05-03T09:38:24.998Z</time></trkpt><trkpt lat="44.78844109343666" lon="9.057176314787329"><ele>320.0</ele><time>2026-05-03T09:38:25.998Z</time></trkpt><trkpt lat="44.78833042231757" lon="9.057353589569582"><ele>321.0</ele><time>2026-05-03T09:38:26.998Z</time></trkpt><trkpt lat="44.78822545602692" lon="9.057530278237099"><ele>321.0</ele><time>2026-05-03T09:38:27.998Z</time></trkpt><trkpt lat="44.7881315126252" lon="9.057722391010035"><ele>321.0</ele><time>2026-05-03T09:38:28.998Z</time></trkpt><trkpt lat="44.788042435522335" lon="9.057933196055394"><ele>321.0</ele><time>2026-05-03T09:38:29.998Z</time></trkpt><trkpt lat="44.787964315360945" lon="9.058158000291442"><ele>320.6666666666667</ele><time>2026-05-03T09:38:30.998Z</time></trkpt><trkpt lat="44.787890967925726" lon="9.058388735182193"><ele>320.33333333333337</ele><time>2026-05-03T09:38:31.998Z</time></trkpt><trkpt lat="44.78781819378059" lon="9.058640760257273"><ele>320.0</ele><time>2026-05-03T09:38:32.998Z</time></trkpt><trkpt lat="44.78774530275302" lon="9.05888604183422"><ele>322.0</ele><time>2026-05-03T09:38:33.998Z</time></trkpt><trkpt lat="44.787668879054564" lon="9.059124744369598"><ele>324.0</ele><time>2026-05-03T09:38:34.998Z</time></trkpt><trkpt lat="44.78759308583261" lon="9.059363821480607"><ele>326.0</ele><time>2026-05-03T09:38:35.998Z</time></trkpt><trkpt lat="44.78751847644471" lon="9.059593211749418"><ele>326.0</ele><time>2026-05-03T09:38:36.998Z</time></trkpt><trkpt lat="44.78743915698044" lon="9.05981875854568"><ele>326.0</ele><time>2026-05-03T09:38:37.998Z</time></trkpt><trkpt lat="44.78735958841174" lon="9.060050922764171"><ele>326.0</ele><time>2026-05-03T09:38:38.998Z</time></trkpt><trkpt lat="44.78725884637847" lon="9.060286353965036"><ele>326.0</ele><time>2026-05-03T09:38:39.998Z</time></trkpt><trkpt lat="44.78714971671079" lon="9.06053386466624"><ele>326.0</ele><time>2026-05-03T09:38:40.998Z</time></trkpt><trkpt lat="44.78704363478854" lon="9.060765523371508"><ele>326.0</ele><time>2026-05-03T09:38:41.998Z</time></trkpt><trkpt lat="44.78695690542529" lon="9.060985335794337"><ele>326.6666666666667</ele><time>2026-05-03T09:38:42.998Z</time></trkpt><trkpt lat="44.78687230375681" lon="9.061178058851398"><ele>327.3333333333333</ele><time>2026-05-03T09:38:43.998Z</time></trkpt><trkpt lat="44.78679469109868" lon="9.061364467562683"><ele>328.0</ele><time>2026-05-03T09:38:44.998Z</time></trkpt><trkpt lat="44.786719886768715" lon="9.061527650179544"><ele>328.2</ele><time>2026-05-03T09:38:45.998Z</time></trkpt><trkpt lat="44.786655727069444" lon="9.061679460142914"><ele>328.4</ele><time>2026-05-03T09:38:46.998Z</time></trkpt><trkpt lat="44.78660189154258" lon="9.061804835110634"><ele>328.59999999999997</ele><time>2026-05-03T09:38:47.998Z</time></trkpt><trkpt lat="44.786552963655645" lon="9.061911925854648"><ele>328.79999999999995</ele><time>2026-05-03T09:38:48.998Z</time></trkpt><trkpt lat="44.786522620707586" lon="9.062014735458861"><ele>329.0</ele><time>2026-05-03T09:38:49.998Z</time></trkpt><trkpt lat="44.78648810605704" lon="9.062094768956014"><ele>329.0</ele><time>2026-05-03T09:38:50.998Z</time></trkpt><trkpt lat="44.786448550551476" lon="9.062171838424812"><ele>329.0</ele><time>2026-05-03T09:38:51.998Z</time></trkpt><trkpt lat="44.78636987725694" lon="9.062305129551795"><ele>329.0</ele><time>2026-05-03T09:38:53.998Z</time></trkpt><trkpt lat="44.78632919060539" lon="9.06239800649989"><ele>329.0</ele><time>2026-05-03T09:38:54.998Z</time></trkpt><trkpt lat="44.78628464215689" lon="9.062488091889191"><ele>329.0</ele><time>2026-05-03T09:38:55.998Z</time></trkpt><trkpt lat="44.786237522539935" lon="9.062593046709281"><ele>329.0</ele><time>2026-05-03T09:38:56.998Z</time></trkpt><trkpt lat="44.78618909644261" lon="9.062715831600581"><ele>329.2</ele><time>2026-05-03T09:38:58Z</time></trkpt><trkpt lat="44.78614056610624" lon="9.062838134758445"><ele>329.4</ele><time>2026-05-03T09:38:59Z</time></trkpt><trkpt lat="44.78608495559475" lon="9.062969445804242"><ele>329.6</ele><time>2026-05-03T09:39:00Z</time></trkpt><trkpt lat="44.78602344240461" lon="9.063100479389314"><ele>329.8</ele><time>2026-05-03T09:39:01Z</time></trkpt><trkpt lat="44.78596860268367" lon="9.063232169884904"><ele>330.0</ele><time>2026-05-03T09:39:02Z</time></trkpt><trkpt lat="44.78590883883238" lon="9.063352175206902"><ele>330.5</ele><time>2026-05-03T09:39:03Z</time></trkpt><trkpt lat="44.78586157688236" lon="9.06345785099398"><ele>331.0</ele><time>2026-05-03T09:39:04Z</time></trkpt><trkpt lat="44.78582310564298" lon="9.063555911665146"><ele>331.5</ele><time>2026-05-03T09:39:05Z</time></trkpt><trkpt lat="44.785785210055835" lon="9.06363925607254"><ele>332.0</ele><time>2026-05-03T09:39:06Z</time></trkpt><trkpt lat="44.78573042985159" lon="9.06378815259338"><ele>332.5</ele><time>2026-05-03T09:39:08Z</time></trkpt><trkpt lat="44.7856761850419" lon="9.063885254688653"><ele>333.0</ele><time>2026-05-03T09:39:10Z</time></trkpt><trkpt lat="44.78561365391956" lon="9.063972658264175"><ele>333.0</ele><time>2026-05-03T09:39:13Z</time></trkpt><trkpt lat="44.7855762344846" lon="9.064049813402333"><ele>333.0</ele><time>2026-05-03T09:39:18Z</time></trkpt><trkpt lat="44.78553990320944" lon="9.064132699163887"><ele>333.0</ele><time>2026-05-03T09:39:52.999Z</time></trkpt><trkpt lat="44.78547336421216" lon="9.064074189230748"><ele>333.0</ele><time>2026-05-03T09:40:10.999Z</time></trkpt><trkpt lat="44.785396456667904" lon="9.06409043849064"><ele>333.0</ele><time>2026-05-03T09:41:18Z</time></trkpt><trkpt lat="44.785408795107486" lon="9.063997953501723"><ele>333.0</ele><time>2026-05-03T09:41:25Z</time></trkpt><trkpt lat="44.7854826552024" lon="9.064019585746706"><ele>333.0</ele><time>2026-05-03T09:41:53.999Z</time></trkpt><trkpt lat="44.785525402342586" lon="9.063926277034433"><ele>333.0</ele><time>2026-05-03T09:42:06.999Z</time></trkpt><trkpt lat="44.785464316613556" lon="9.06397677457698"><ele>333.0</ele><time>2026-05-03T09:42:17.032Z</time></trkpt><trkpt lat="44.78558845371041" lon="9.064150695371005"><ele>333.0</ele><time>2026-05-03T09:42:58.029Z</time></trkpt><trkpt lat="44.78550550625021" lon="9.063966250992161"><ele>333.0</ele><time>2026-05-03T09:43:04.019Z</time></trkpt><trkpt lat="44.78544564737318" lon="9.063917907386292"><ele>333.0</ele><time>2026-05-03T09:43:08.022Z</time></trkpt><trkpt lat="44.78542489728992" lon="9.064008830476507"><ele>333.0</ele><time>2026-05-03T09:43:13.998Z</time></trkpt><trkpt lat="44.78545679859849" lon="9.064089445246122"><ele>333.0</ele><time>2026-05-03T09:43:23Z</time></trkpt><trkpt lat="44.78543838978953" lon="9.063995811721771"><ele>333.0</ele><time>2026-05-03T09:55:40.999Z</time></trkpt><trkpt lat="44.78539972394276" lon="9.063914695923282"><ele>333.0</ele><time>2026-05-03T09:55:49.999Z</time></trkpt><trkpt lat="44.78541889058671" lon="9.064022269237062"><ele>333.0</ele><time>2026-05-03T09:55:57.001Z</time></trkpt><trkpt lat="44.78536287355608" lon="9.063973505266722"><ele>333.0</ele><time>2026-05-03T09:56:00.001Z</time></trkpt><trkpt lat="44.78541603134159" lon="9.063891820819"><ele>333.0</ele><time>2026-05-03T09:56:07Z</time></trkpt><trkpt lat="44.78546049735233" lon="9.063818901336463"><ele>333.0</ele><time>2026-05-03T09:56:10Z</time></trkpt><trkpt lat="44.785420082397664" lon="9.063902593468988"><ele>333.0</ele><time>2026-05-03T09:56:14Z</time></trkpt><trkpt lat="44.785397553359815" lon="9.064032825236566"><ele>333.0</ele><time>2026-05-03T09:56:19Z</time></trkpt><trkpt lat="44.785284872670665" lon="9.0640117273405"><ele>333.0</ele><time>2026-05-03T09:57:04.999Z</time></trkpt><trkpt lat="44.78534061801013" lon="9.064058993857042"><ele>333.0</ele><time>2026-05-03T09:57:38.999Z</time></trkpt><trkpt lat="44.78527876262421" lon="9.064007506706957"><ele>333.0</ele><time>2026-05-03T09:58:37Z</time></trkpt><trkpt lat="44.7853409936637" lon="9.064079012784617"><ele>333.0</ele><time>2026-05-03T09:58:42Z</time></trkpt><trkpt lat="44.785409674944965" lon="9.064084438595968"><ele>333.0</ele><time>2026-05-03T09:58:54Z</time></trkpt><trkpt lat="44.785495151952226" lon="9.064106439193235"><ele>333.0</ele><time>2026-05-03T09:59:48.999Z</time></trkpt><trkpt lat="44.78555873247785" lon="9.06415085557266"><ele>333.0</ele><time>2026-05-03T10:00:21Z</time></trkpt><trkpt lat="44.7856245901187" lon="9.064096745967804"><ele>333.0</ele><time>2026-05-03T10:00:31Z</time></trkpt><trkpt lat="44.78565377302014" lon="9.063981223865735"><ele>333.0</ele><time>2026-05-03T10:00:33Z</time></trkpt><trkpt lat="44.78570947316608" lon="9.063870121278093"><ele>333.0</ele><time>2026-05-03T10:00:35Z</time></trkpt><trkpt lat="44.78577727453918" lon="9.063837745834848"><ele>333.0</ele><time>2026-05-03T10:00:37Z</time></trkpt><trkpt lat="44.78584754564488" lon="9.063939870743262"><ele>333.0</ele><time>2026-05-03T10:00:39Z</time></trkpt><trkpt lat="44.785926867547786" lon="9.064046774056424"><ele>333.0</ele><time>2026-05-03T10:00:41Z</time></trkpt><trkpt lat="44.78598112940571" lon="9.064128701025764"><ele>333.0</ele><time>2026-05-03T10:00:43Z</time></trkpt><trkpt lat="44.78602027504669" lon="9.064255660638697"><ele>333.0</ele><time>2026-05-03T10:00:45Z</time></trkpt><trkpt lat="44.785983901096024" lon="9.064360051815077"><ele>333.0</ele><time>2026-05-03T10:00:47Z</time></trkpt><trkpt lat="44.785905563525986" lon="9.064431497867412"><ele>333.0</ele><time>2026-05-03T10:00:50Z</time></trkpt><trkpt lat="44.78585466254751" lon="9.064485305656557"><ele>333.0</ele><time>2026-05-03T10:00:52Z</time></trkpt><trkpt lat="44.78581282200115" lon="9.064553218806624"><ele>333.0</ele><time>2026-05-03T10:00:55Z</time></trkpt><trkpt lat="44.78573772023365" lon="9.064636265376588"><ele>333.0</ele><time>2026-05-03T10:00:59Z</time></trkpt><trkpt lat="44.78565034026074" lon="9.06474124219091"><ele>333.0</ele><time>2026-05-03T10:01:01Z</time></trkpt><trkpt lat="44.785549045513996" lon="9.064841143167689"><ele>333.0</ele><time>2026-05-03T10:01:02.999Z</time></trkpt><trkpt lat="44.785491581522585" lon="9.064931788307401"><ele>333.0</ele><time>2026-05-03T10:01:03.999Z</time></trkpt><trkpt lat="44.78541245226983" lon="9.064979592979546"><ele>333.0</ele><time>2026-05-03T10:01:04.999Z</time></trkpt><trkpt lat="44.785340545500205" lon="9.065042662969619"><ele>333.59999999999997</ele><time>2026-05-03T10:01:05.999Z</time></trkpt><trkpt lat="44.78525591506922" lon="9.065114469992615"><ele>334.2</ele><time>2026-05-03T10:01:06.999Z</time></trkpt><trkpt lat="44.78517499768727" lon="9.065176676010593"><ele>334.8</ele><time>2026-05-03T10:01:07.999Z</time></trkpt><trkpt lat="44.78509310663274" lon="9.065233320785161"><ele>335.4</ele><time>2026-05-03T10:01:08.999Z</time></trkpt><trkpt lat="44.78501372801646" lon="9.065289122488595"><ele>336.0</ele><time>2026-05-03T10:01:09.999Z</time></trkpt><trkpt lat="44.78492452328443" lon="9.065339922756213"><ele>336.0</ele><time>2026-05-03T10:01:10.999Z</time></trkpt><trkpt lat="44.784837685682206" lon="9.065394751131137"><ele>336.0</ele><time>2026-05-03T10:01:11.999Z</time></trkpt><trkpt lat="44.78474705554813" lon="9.065442082193757"><ele>336.0</ele><time>2026-05-03T10:01:12.999Z</time></trkpt><trkpt lat="44.78465168457662" lon="9.065486438432375"><ele>336.0</ele><time>2026-05-03T10:01:13.999Z</time></trkpt><trkpt lat="44.784551438953315" lon="9.065534490080685"><ele>336.0</ele><time>2026-05-03T10:01:14.999Z</time></trkpt><trkpt lat="44.78444948594105" lon="9.065575767652085"><ele>336.0</ele><time>2026-05-03T10:01:15.999Z</time></trkpt><trkpt lat="44.78434841155292" lon="9.06562202594471"><ele>336.0</ele><time>2026-05-03T10:01:16.999Z</time></trkpt><trkpt lat="44.78426572265949" lon="9.065662909526447"><ele>336.0</ele><time>2026-05-03T10:01:17.999Z</time></trkpt><trkpt lat="44.78418666353056" lon="9.065699218836516"><ele>336.0</ele><time>2026-05-03T10:01:18.999Z</time></trkpt><trkpt lat="44.78410300464666" lon="9.065743786033748"><ele>336.0</ele><time>2026-05-03T10:01:19.999Z</time></trkpt><trkpt lat="44.78402662521838" lon="9.065799699852851"><ele>336.20000000000005</ele><time>2026-05-03T10:01:20.999Z</time></trkpt><trkpt lat="44.78395216864265" lon="9.065876013795304"><ele>336.40000000000003</ele><time>2026-05-03T10:01:21.999Z</time></trkpt><trkpt lat="44.78388611174036" lon="9.065966276044593"><ele>336.6</ele><time>2026-05-03T10:01:22.999Z</time></trkpt><trkpt lat="44.783810912277374" lon="9.066049000181454"><ele>336.8</ele><time>2026-05-03T10:01:23.999Z</time></trkpt><trkpt lat="44.783724830915" lon="9.06612838993433"><ele>337.0</ele><time>2026-05-03T10:01:24.999Z</time></trkpt><trkpt lat="44.783634162806955" lon="9.066227325915369"><ele>337.0</ele><time>2026-05-03T10:01:25.999Z</time></trkpt><trkpt lat="44.78354306962796" lon="9.066332514030872"><ele>337.0</ele><time>2026-05-03T10:01:26.999Z</time></trkpt><trkpt lat="44.78346105249389" lon="9.066438073238698"><ele>337.0</ele><time>2026-05-03T10:01:27.999Z</time></trkpt><trkpt lat="44.783365746000406" lon="9.066555682638429"><ele>337.0</ele><time>2026-05-03T10:01:28.999Z</time></trkpt><trkpt lat="44.78326082767907" lon="9.06668018724706"><ele>337.25</ele><time>2026-05-03T10:01:29.999Z</time></trkpt><trkpt lat="44.78314798437761" lon="9.066803840290666"><ele>337.5</ele><time>2026-05-03T10:01:30.999Z</time></trkpt><trkpt lat="44.78303344896267" lon="9.066933217667335"><ele>337.75</ele><time>2026-05-03T10:01:31.999Z</time></trkpt><trkpt lat="44.782920658805665" lon="9.067065812368462"><ele>338.0</ele><time>2026-05-03T10:01:32.999Z</time></trkpt><trkpt lat="44.78280094296644" lon="9.067187239517164"><ele>337.75</ele><time>2026-05-03T10:01:33.999Z</time></trkpt><trkpt lat="44.782676580210556" lon="9.06729764947176"><ele>337.5</ele><time>2026-05-03T10:01:34.999Z</time></trkpt><trkpt lat="44.78253449151832" lon="9.067357629948646"><ele>337.25</ele><time>2026-05-03T10:01:35.999Z</time></trkpt><trkpt lat="44.78239748899882" lon="9.067436340241706"><ele>337.0</ele><time>2026-05-03T10:01:36.999Z</time></trkpt><trkpt lat="44.782264868713085" lon="9.067495163744507"><ele>338.25</ele><time>2026-05-03T10:01:37.999Z</time></trkpt><trkpt lat="44.782128279921515" lon="9.06755322966706"><ele>339.5</ele><time>2026-05-03T10:01:38.999Z</time></trkpt><trkpt lat="44.78198959193511" lon="9.067588656678438"><ele>340.75</ele><time>2026-05-03T10:01:39.999Z</time></trkpt><trkpt lat="44.78185765248768" lon="9.067644828655883"><ele>342.0</ele><time>2026-05-03T10:01:40.999Z</time></trkpt><trkpt lat="44.781726522324284" lon="9.067700656104558"><ele>342.0</ele><time>2026-05-03T10:01:41.999Z</time></trkpt><trkpt lat="44.781599387933646" lon="9.067754320878239"><ele>342.0</ele><time>2026-05-03T10:01:42.999Z</time></trkpt><trkpt lat="44.78147290207342" lon="9.067806196626615"><ele>342.0</ele><time>2026-05-03T10:01:43.999Z</time></trkpt><trkpt lat="44.78134787010217" lon="9.067857476081333"><ele>342.0</ele><time>2026-05-03T10:01:44.999Z</time></trkpt><trkpt lat="44.781226770385146" lon="9.067931032143234"><ele>342.0</ele><time>2026-05-03T10:01:45.999Z</time></trkpt><trkpt lat="44.781105640708844" lon="9.067974039018036"><ele>342.0</ele><time>2026-05-03T10:01:46.999Z</time></trkpt><trkpt lat="44.7810031134869" lon="9.068026348079696"><ele>342.0</ele><time>2026-05-03T10:01:47.999Z</time></trkpt><trkpt lat="44.78091110906615" lon="9.068103677358282"><ele>342.0</ele><time>2026-05-03T10:01:48.999Z</time></trkpt><trkpt lat="44.78082458761663" lon="9.06820154987348"><ele>342.20000000000005</ele><time>2026-05-03T10:01:49.999Z</time></trkpt><trkpt lat="44.780755216432" lon="9.068312419390926"><ele>342.4</ele><time>2026-05-03T10:01:50.999Z</time></trkpt><trkpt lat="44.78069690296982" lon="9.068438249138472"><ele>342.6</ele><time>2026-05-03T10:01:51.999Z</time></trkpt><trkpt lat="44.78064899405586" lon="9.068570257654894"><ele>342.79999999999995</ele><time>2026-05-03T10:01:52.999Z</time></trkpt><trkpt lat="44.78060807244477" lon="9.068706503343744"><ele>343.0</ele><time>2026-05-03T10:01:53.999Z</time></trkpt><trkpt lat="44.78056965825799" lon="9.068844035912328"><ele>343.0</ele><time>2026-05-03T10:01:54.999Z</time></trkpt><trkpt lat="44.78053403269604" lon="9.068972542338658"><ele>343.0</ele><time>2026-05-03T10:01:55.999Z</time></trkpt><trkpt lat="44.7804999356207" lon="9.069086197985019"><ele>343.0</ele><time>2026-05-03T10:01:56.999Z</time></trkpt><trkpt lat="44.780459225058365" lon="9.069184610456745"><ele>343.0</ele><time>2026-05-03T10:01:57.998Z</time></trkpt><trkpt lat="44.780429396692135" lon="9.069286428831331"><ele>343.0</ele><time>2026-05-03T10:01:58.998Z</time></trkpt><trkpt lat="44.780413037771794" lon="9.069381496095687"><ele>343.0</ele><time>2026-05-03T10:01:59.998Z</time></trkpt><trkpt lat="44.78025506191227" lon="9.069407364161066"><ele>342.79999999999995</ele><time>2026-05-03T10:02:00.998Z</time></trkpt><trkpt lat="44.78016570811602" lon="9.069435747963011"><ele>342.6</ele><time>2026-05-03T10:02:01.998Z</time></trkpt><trkpt lat="44.78007498540999" lon="9.069455547701407"><ele>342.4</ele><time>2026-05-03T10:02:02.998Z</time></trkpt><trkpt lat="44.77998306590568" lon="9.069469478165292"><ele>342.20000000000005</ele><time>2026-05-03T10:02:03.998Z</time></trkpt><trkpt lat="44.77989021843094" lon="9.069477557652103"><ele>342.0</ele><time>2026-05-03T10:02:04.998Z</time></trkpt><trkpt lat="44.779793689986164" lon="9.069493540037014"><ele>342.0</ele><time>2026-05-03T10:02:05.998Z</time></trkpt><trkpt lat="44.77969475253474" lon="9.069514349860356"><ele>342.0</ele><time>2026-05-03T10:02:06.998Z</time></trkpt><trkpt lat="44.77959091500203" lon="9.069526937181328"><ele>342.0</ele><time>2026-05-03T10:02:07.998Z</time></trkpt><trkpt lat="44.779482762413444" lon="9.069548480819439"><ele>342.0</ele><time>2026-05-03T10:02:08.998Z</time></trkpt><trkpt lat="44.779369844485906" lon="9.069586331566203"><ele>342.0</ele><time>2026-05-03T10:02:10Z</time></trkpt><trkpt lat="44.779253549959755" lon="9.06962938173808"><ele>342.75</ele><time>2026-05-03T10:02:11Z</time></trkpt><trkpt lat="44.779135735550355" lon="9.069673681913558"><ele>343.5</ele><time>2026-05-03T10:02:12Z</time></trkpt><trkpt lat="44.779016172405534" lon="9.069718111776506"><ele>344.25</ele><time>2026-05-03T10:02:13Z</time></trkpt><trkpt lat="44.7788956534419" lon="9.069769089329881"><ele>345.0</ele><time>2026-05-03T10:02:14Z</time></trkpt><trkpt lat="44.77877419810405" lon="9.069819462795053"><ele>345.0</ele><time>2026-05-03T10:02:15Z</time></trkpt><trkpt lat="44.77865261705665" lon="9.069862987795648"><ele>345.0</ele><time>2026-05-03T10:02:16Z</time></trkpt><trkpt lat="44.77853540404883" lon="9.069902849486688"><ele>345.0</ele><time>2026-05-03T10:02:17Z</time></trkpt><trkpt lat="44.778413503971926" lon="9.069947552349738"><ele>345.0</ele><time>2026-05-03T10:02:18Z</time></trkpt><trkpt lat="44.77829116462014" lon="9.06999442545751"><ele>346.25</ele><time>2026-05-03T10:02:19Z</time></trkpt><trkpt lat="44.7781672260047" lon="9.070042898243793"><ele>347.5</ele><time>2026-05-03T10:02:20Z</time></trkpt><trkpt lat="44.77804219071363" lon="9.070090850302812"><ele>348.75</ele><time>2026-05-03T10:02:21Z</time></trkpt><trkpt lat="44.77791600441651" lon="9.070138778894492"><ele>350.0</ele><time>2026-05-03T10:02:22Z</time></trkpt><trkpt lat="44.77778850631759" lon="9.070193204677171"><ele>350.25</ele><time>2026-05-03T10:02:23Z</time></trkpt><trkpt lat="44.777657614417265" lon="9.070241421437546"><ele>350.5</ele><time>2026-05-03T10:02:24Z</time></trkpt><trkpt lat="44.77753106382634" lon="9.070291249482503"><ele>350.75</ele><time>2026-05-03T10:02:25Z</time></trkpt><trkpt lat="44.77740767612076" lon="9.070341550051735"><ele>351.0</ele><time>2026-05-03T10:02:26Z</time></trkpt><trkpt lat="44.77728680770391" lon="9.070396202704595"><ele>351.0</ele><time>2026-05-03T10:02:27Z</time></trkpt><trkpt lat="44.77716897109712" lon="9.070453714398953"><ele>351.0</ele><time>2026-05-03T10:02:28Z</time></trkpt><trkpt lat="44.777051141278164" lon="9.07050881043053"><ele>351.0</ele><time>2026-05-03T10:02:29Z</time></trkpt><trkpt lat="44.776931682307435" lon="9.070564833611744"><ele>351.0</ele><time>2026-05-03T10:02:30Z</time></trkpt><trkpt lat="44.77681190379715" lon="9.07062426715707"><ele>350.75</ele><time>2026-05-03T10:02:31Z</time></trkpt><trkpt lat="44.776692654577786" lon="9.070686706559966"><ele>350.5</ele><time>2026-05-03T10:02:32Z</time></trkpt><trkpt lat="44.77657306537831" lon="9.070747454181882"><ele>350.25</ele><time>2026-05-03T10:02:33Z</time></trkpt><trkpt lat="44.776453361848525" lon="9.070809417025432"><ele>350.0</ele><time>2026-05-03T10:02:34Z</time></trkpt><trkpt lat="44.776332676021475" lon="9.070867499083734"><ele>350.75</ele><time>2026-05-03T10:02:35Z</time></trkpt><trkpt lat="44.77621111982924" lon="9.070923170128241"><ele>351.5</ele><time>2026-05-03T10:02:36Z</time></trkpt><trkpt lat="44.77609071760585" lon="9.070979350794149"><ele>352.25</ele><time>2026-05-03T10:02:37Z</time></trkpt><trkpt lat="44.77597115333435" lon="9.071038558899282"><ele>353.0</ele><time>2026-05-03T10:02:38Z</time></trkpt><trkpt lat="44.775848736401066" lon="9.071098580688707"><ele>353.0</ele><time>2026-05-03T10:02:39Z</time></trkpt><trkpt lat="44.77572274796247" lon="9.071156727883178"><ele>353.0</ele><time>2026-05-03T10:02:40Z</time></trkpt><trkpt lat="44.7755970254615" lon="9.071218185285018"><ele>353.0</ele><time>2026-05-03T10:02:41Z</time></trkpt><trkpt lat="44.77547391878028" lon="9.071287850069695"><ele>353.0</ele><time>2026-05-03T10:02:42Z</time></trkpt><trkpt lat="44.77535614818541" lon="9.071374023527493"><ele>353.0</ele><time>2026-05-03T10:02:43Z</time></trkpt><trkpt lat="44.77524679955551" lon="9.071475262140778"><ele>353.0</ele><time>2026-05-03T10:02:44Z</time></trkpt><trkpt lat="44.775145859651865" lon="9.071583728209038"><ele>353.0</ele><time>2026-05-03T10:02:45Z</time></trkpt><trkpt lat="44.77504572069824" lon="9.071692671561367"><ele>353.0</ele><time>2026-05-03T10:02:46Z</time></trkpt><trkpt lat="44.77494769321441" lon="9.071797138841488"><ele>354.5</ele><time>2026-05-03T10:02:47Z</time></trkpt><trkpt lat="44.77484394831655" lon="9.071886493653734"><ele>356.0</ele><time>2026-05-03T10:02:48Z</time></trkpt><trkpt lat="44.77473646874844" lon="9.071955893666274"><ele>357.5</ele><time>2026-05-03T10:02:49Z</time></trkpt><trkpt lat="44.7746260731308" lon="9.072007105285852"><ele>359.0</ele><time>2026-05-03T10:02:50Z</time></trkpt><trkpt lat="44.7745192552523" lon="9.072071695591083"><ele>359.0</ele><time>2026-05-03T10:02:51Z</time></trkpt><trkpt lat="44.774415121427424" lon="9.07214923931486"><ele>359.0</ele><time>2026-05-03T10:02:52Z</time></trkpt><trkpt lat="44.774313566309196" lon="9.072237261042668"><ele>359.0</ele><time>2026-05-03T10:02:53Z</time></trkpt><trkpt lat="44.774209960902006" lon="9.07232011120422"><ele>359.0</ele><time>2026-05-03T10:02:54Z</time></trkpt><trkpt lat="44.77409467557724" lon="9.072376476003079"><ele>359.25</ele><time>2026-05-03T10:02:55Z</time></trkpt><trkpt lat="44.773973519815314" lon="9.072401794610077"><ele>359.5</ele><time>2026-05-03T10:02:56Z</time></trkpt><trkpt lat="44.77385161868207" lon="9.072402387389818"><ele>359.75</ele><time>2026-05-03T10:02:57Z</time></trkpt><trkpt lat="44.773729886849985" lon="9.072392597634247"><ele>360.0</ele><time>2026-05-03T10:02:58Z</time></trkpt><trkpt lat="44.77361038186774" lon="9.072377452195356"><ele>359.75</ele><time>2026-05-03T10:02:59Z</time></trkpt><trkpt lat="44.773491066741265" lon="9.072361168627715"><ele>359.5</ele><time>2026-05-03T10:03:00Z</time></trkpt><trkpt lat="44.773370533042296" lon="9.072354785587393"><ele>359.25</ele><time>2026-05-03T10:03:01Z</time></trkpt><trkpt lat="44.77324899864755" lon="9.072351205790815"><ele>359.0</ele><time>2026-05-03T10:03:02Z</time></trkpt><trkpt lat="44.77312622870309" lon="9.0723492131511"><ele>359.0</ele><time>2026-05-03T10:03:03Z</time></trkpt><trkpt lat="44.77300308422709" lon="9.072369640304506"><ele>359.0</ele><time>2026-05-03T10:03:04Z</time></trkpt><trkpt lat="44.77288245560835" lon="9.072420056148813"><ele>359.0</ele><time>2026-05-03T10:03:05Z</time></trkpt><trkpt lat="44.77276596349606" lon="9.072496020770028"><ele>359.0</ele><time>2026-05-03T10:03:06Z</time></trkpt><trkpt lat="44.77265742244239" lon="9.072591424772172"><ele>360.5</ele><time>2026-05-03T10:03:06.999Z</time></trkpt><trkpt lat="44.77255339556824" lon="9.072695129345378"><ele>362.0</ele><time>2026-05-03T10:03:07.999Z</time></trkpt><trkpt lat="44.77245356497984" lon="9.07280489377099"><ele>363.5</ele><time>2026-05-03T10:03:08.999Z</time></trkpt><trkpt lat="44.77235117721107" lon="9.072913981863639"><ele>365.0</ele><time>2026-05-03T10:03:09.999Z</time></trkpt><trkpt lat="44.77224671662935" lon="9.07302141844498"><ele>365.0</ele><time>2026-05-03T10:03:10.999Z</time></trkpt><trkpt lat="44.772138218211886" lon="9.073124524282964"><ele>365.0</ele><time>2026-05-03T10:03:11.999Z</time></trkpt><trkpt lat="44.77202604644401" lon="9.07322063458902"><ele>365.0</ele><time>2026-05-03T10:03:12.999Z</time></trkpt><trkpt lat="44.77190980448823" lon="9.073300142762207"><ele>365.0</ele><time>2026-05-03T10:03:13.999Z</time></trkpt><trkpt lat="44.77178677410583" lon="9.073356148245857"><ele>366.5</ele><time>2026-05-03T10:03:14.999Z</time></trkpt><trkpt lat="44.77166241607616" lon="9.073403886445682"><ele>368.0</ele><time>2026-05-03T10:03:15.999Z</time></trkpt><trkpt lat="44.771536506927816" lon="9.07343261217465"><ele>369.5</ele><time>2026-05-03T10:03:16.999Z</time></trkpt><trkpt lat="44.77141103170816" lon="9.073414133706105"><ele>371.0</ele><time>2026-05-03T10:03:17.999Z</time></trkpt><trkpt lat="44.77128819176136" lon="9.07341608936495"><ele>371.0</ele><time>2026-05-03T10:03:18.999Z</time></trkpt><trkpt lat="44.771172115299045" lon="9.07337191266127"><ele>371.0</ele><time>2026-05-03T10:03:19.999Z</time></trkpt><trkpt lat="44.77105760670982" lon="9.073320844426151"><ele>371.0</ele><time>2026-05-03T10:03:20.999Z</time></trkpt><trkpt lat="44.770944098629656" lon="9.073263405752398"><ele>371.0</ele><time>2026-05-03T10:03:21.999Z</time></trkpt><trkpt lat="44.770832316817284" lon="9.073199610067622"><ele>370.25</ele><time>2026-05-03T10:03:22.999Z</time></trkpt><trkpt lat="44.77071870620738" lon="9.073144301664874"><ele>369.5</ele><time>2026-05-03T10:03:23.999Z</time></trkpt><trkpt lat="44.77060093365103" lon="9.073103562104595"><ele>368.75</ele><time>2026-05-03T10:03:24.999Z</time></trkpt><trkpt lat="44.77048427094117" lon="9.073079042203634"><ele>368.0</ele><time>2026-05-03T10:03:25.999Z</time></trkpt><trkpt lat="44.77037980624626" lon="9.07307294139002"><ele>368.0</ele><time>2026-05-03T10:03:26.999Z</time></trkpt><trkpt lat="44.770288289978886" lon="9.07307962152574"><ele>368.0</ele><time>2026-05-03T10:03:27.999Z</time></trkpt><trkpt lat="44.770205068775105" lon="9.073092979179439"><ele>368.0</ele><time>2026-05-03T10:03:28.999Z</time></trkpt><trkpt lat="44.77012940663709" lon="9.073110013364895"><ele>368.0</ele><time>2026-05-03T10:03:29.999Z</time></trkpt><trkpt lat="44.77006326242837" lon="9.073114722834699"><ele>368.0</ele><time>2026-05-03T10:03:30.999Z</time></trkpt><trkpt lat="44.76995040824691" lon="9.073103277802707"><ele>368.0</ele><time>2026-05-03T10:03:32.999Z</time></trkpt><trkpt lat="44.769864621386226" lon="9.073064980554285"><ele>368.79999999999995</ele><time>2026-05-03T10:03:34.999Z</time></trkpt><trkpt lat="44.769761796544515" lon="9.073081483176551"><ele>369.6</ele><time>2026-05-03T10:03:37.999Z</time></trkpt><trkpt lat="44.76969724146452" lon="9.073109077472377"><ele>370.4</ele><time>2026-05-03T10:04:04.998Z</time></trkpt><trkpt lat="44.76957892937142" lon="9.073133213560816"><ele>371.20000000000005</ele><time>2026-05-03T10:04:06.998Z</time></trkpt><trkpt lat="44.76949203965794" lon="9.073141983128936"><ele>372.0</ele><time>2026-05-03T10:04:07.998Z</time></trkpt><trkpt lat="44.76938024256611" lon="9.073151016851488"><ele>373.0</ele><time>2026-05-03T10:04:08.998Z</time></trkpt><trkpt lat="44.76925679592506" lon="9.07317550156751"><ele>374.0</ele><time>2026-05-03T10:04:09.998Z</time></trkpt><trkpt lat="44.769105864486114" lon="9.073205923939067"><ele>375.0</ele><time>2026-05-03T10:04:10.998Z</time></trkpt><trkpt lat="44.768946130847034" lon="9.0732592433908"><ele>376.0</ele><time>2026-05-03T10:04:11.998Z</time></trkpt><trkpt lat="44.76878508003641" lon="9.073344970107607"><ele>376.0</ele><time>2026-05-03T10:04:12.998Z</time></trkpt><trkpt lat="44.76860151047582" lon="9.073457821239424"><ele>376.0</ele><time>2026-05-03T10:04:13.998Z</time></trkpt><trkpt lat="44.768434489187726" lon="9.073560280743708"><ele>376.0</ele><time>2026-05-03T10:04:14.998Z</time></trkpt><trkpt lat="44.76829514077163" lon="9.073632741827446"><ele>376.25</ele><time>2026-05-03T10:04:16Z</time></trkpt><trkpt lat="44.76816384335935" lon="9.073695176862904"><ele>376.5</ele><time>2026-05-03T10:04:17Z</time></trkpt><trkpt lat="44.768042794604405" lon="9.073737275530794"><ele>376.75</ele><time>2026-05-03T10:04:18Z</time></trkpt><trkpt lat="44.76792282975115" lon="9.0737526387362"><ele>377.0</ele><time>2026-05-03T10:04:19Z</time></trkpt><trkpt lat="44.767798089121925" lon="9.073715285679274"><ele>377.75</ele><time>2026-05-03T10:04:20Z</time></trkpt><trkpt lat="44.76766472165584" lon="9.073689578356175"><ele>378.5</ele><time>2026-05-03T10:04:21Z</time></trkpt><trkpt lat="44.76752127774913" lon="9.073638644728137"><ele>379.25</ele><time>2026-05-03T10:04:22Z</time></trkpt><trkpt lat="44.76737427196427" lon="9.073577875436353"><ele>380.0</ele><time>2026-05-03T10:04:23Z</time></trkpt><trkpt lat="44.76722378637346" lon="9.073507577224749"><ele>380.0</ele><time>2026-05-03T10:04:24Z</time></trkpt><trkpt lat="44.76706481021703" lon="9.073427984694336"><ele>380.0</ele><time>2026-05-03T10:04:25Z</time></trkpt><trkpt lat="44.76689969247611" lon="9.073336351607091"><ele>380.0</ele><time>2026-05-03T10:04:26Z</time></trkpt><trkpt lat="44.76673020318735" lon="9.073231530680014"><ele>381.0</ele><time>2026-05-03T10:04:27Z</time></trkpt><trkpt lat="44.766551268792526" lon="9.073128951958484"><ele>382.0</ele><time>2026-05-03T10:04:28Z</time></trkpt><trkpt lat="44.76637515515627" lon="9.073047624954688"><ele>383.0</ele><time>2026-05-03T10:04:29Z</time></trkpt><trkpt lat="44.766193164213774" lon="9.072976506138803"><ele>383.33333333333337</ele><time>2026-05-03T10:04:30Z</time></trkpt><trkpt lat="44.76601127121329" lon="9.072905491393747"><ele>383.6666666666667</ele><time>2026-05-03T10:04:31Z</time></trkpt><trkpt lat="44.7658185880035" lon="9.07284836716525"><ele>384.0</ele><time>2026-05-03T10:04:32Z</time></trkpt><trkpt lat="44.76563456713681" lon="9.072793836353426"><ele>384.0</ele><time>2026-05-03T10:04:33Z</time></trkpt><trkpt lat="44.76544677202609" lon="9.072762226936845"><ele>384.0</ele><time>2026-05-03T10:04:34Z</time></trkpt><trkpt lat="44.76525515902065" lon="9.072758803156034"><ele>384.0</ele><time>2026-05-03T10:04:35Z</time></trkpt><trkpt lat="44.7650831180413" lon="9.072759291080196"><ele>384.25</ele><time>2026-05-03T10:04:36Z</time></trkpt><trkpt lat="44.764932116302255" lon="9.07274496469827"><ele>384.5</ele><time>2026-05-03T10:04:37Z</time></trkpt><trkpt lat="44.764796023366266" lon="9.072719260468595"><ele>384.75</ele><time>2026-05-03T10:04:38Z</time></trkpt><trkpt lat="44.764669057577485" lon="9.072670888953864"><ele>385.0</ele><time>2026-05-03T10:04:39Z</time></trkpt><trkpt lat="44.76453438361011" lon="9.072599312053406"><ele>385.0</ele><time>2026-05-03T10:04:40Z</time></trkpt><trkpt lat="44.764393560135446" lon="9.072510211134047"><ele>385.0</ele><time>2026-05-03T10:04:41Z</time></trkpt><trkpt lat="44.76424977702571" lon="9.07241016566648"><ele>385.0</ele><time>2026-05-03T10:04:42Z</time></trkpt><trkpt lat="44.7641215537381" lon="9.072316812695982"><ele>386.33333333333337</ele><time>2026-05-03T10:04:43Z</time></trkpt><trkpt lat="44.76398786429691" lon="9.072225458593405"><ele>387.66666666666663</ele><time>2026-05-03T10:04:44Z</time></trkpt><trkpt lat="44.76384231704514" lon="9.072154530936029"><ele>389.0</ele><time>2026-05-03T10:04:45Z</time></trkpt><trkpt lat="44.763684334801" lon="9.072106583794348"><ele>389.25</ele><time>2026-05-03T10:04:46Z</time></trkpt><trkpt lat="44.76352214701168" lon="9.072067117970175"><ele>389.5</ele><time>2026-05-03T10:04:47Z</time></trkpt><trkpt lat="44.76337767318301" lon="9.072037748203591"><ele>389.75</ele><time>2026-05-03T10:04:48Z</time></trkpt><trkpt lat="44.76324844071991" lon="9.072018479733021"><ele>390.0</ele><time>2026-05-03T10:04:49Z</time></trkpt><trkpt lat="44.76314374815403" lon="9.072019538315043"><ele>390.0</ele><time>2026-05-03T10:04:50Z</time></trkpt><trkpt lat="44.76304343730963" lon="9.072022638571156"><ele>390.0</ele><time>2026-05-03T10:04:52Z</time></trkpt><trkpt lat="44.762968662130746" lon="9.072079531784143"><ele>390.0</ele><time>2026-05-03T10:04:54Z</time></trkpt><trkpt lat="44.76288163036883" lon="9.072102254815393"><ele>390.0</ele><time>2026-05-03T10:04:56Z</time></trkpt><trkpt lat="44.7626651707366" lon="9.071763745660048"><ele>390.8333333333333</ele><time>2026-05-03T10:04:58Z</time></trkpt><trkpt lat="44.76259040144845" lon="9.071727414600208"><ele>391.66666666666663</ele><time>2026-05-03T10:04:59Z</time></trkpt><trkpt lat="44.762518518447926" lon="9.071702409032163"><ele>392.5</ele><time>2026-05-03T10:05:00Z</time></trkpt><trkpt lat="44.762395576307334" lon="9.071671849516136"><ele>393.3333333333333</ele><time>2026-05-03T10:05:02Z</time></trkpt><trkpt lat="44.76231801994169" lon="9.071677076580707"><ele>394.16666666666663</ele><time>2026-05-03T10:05:03Z</time></trkpt><trkpt lat="44.762233155491316" lon="9.071690840772483"><ele>395.0</ele><time>2026-05-03T10:05:04Z</time></trkpt><trkpt lat="44.76214743800534" lon="9.071719418397743"><ele>395.0</ele><time>2026-05-03T10:05:05Z</time></trkpt><trkpt lat="44.76207561142165" lon="9.071748395790932"><ele>395.0</ele><time>2026-05-03T10:05:06Z</time></trkpt><trkpt lat="44.762010092886435" lon="9.071760159630287"><ele>395.0</ele><time>2026-05-03T10:05:07Z</time></trkpt><trkpt lat="44.76194270881857" lon="9.071751984922525"><ele>395.0</ele><time>2026-05-03T10:05:08Z</time></trkpt><trkpt lat="44.76187305704432" lon="9.071719824483825"><ele>395.0</ele><time>2026-05-03T10:05:09Z</time></trkpt><trkpt lat="44.76179687483261" lon="9.071692250645468"><ele>395.0</ele><time>2026-05-03T10:05:10Z</time></trkpt><trkpt lat="44.7617104611956" lon="9.07168883137558"><ele>395.0</ele><time>2026-05-03T10:05:11Z</time></trkpt><trkpt lat="44.761639143673484" lon="9.071672784148731"><ele>395.99999999999994</ele><time>2026-05-03T10:05:12Z</time></trkpt><trkpt lat="44.76156717714395" lon="9.071651382234418"><ele>397.0</ele><time>2026-05-03T10:05:12.999Z</time></trkpt><trkpt lat="44.761490808928556" lon="9.071654013183263"><ele>398.0</ele><time>2026-05-03T10:05:13.999Z</time></trkpt><trkpt lat="44.76141952401658" lon="9.07169530934302"><ele>399.0</ele><time>2026-05-03T10:05:14.999Z</time></trkpt><trkpt lat="44.76133585898763" lon="9.071738741376942"><ele>399.99999999999994</ele><time>2026-05-03T10:05:15.999Z</time></trkpt><trkpt lat="44.76125707627565" lon="9.071724708436038"><ele>401.0</ele><time>2026-05-03T10:05:16.999Z</time></trkpt><trkpt lat="44.76116810394313" lon="9.07173677558541"><ele>401.8</ele><time>2026-05-03T10:05:18.999Z</time></trkpt><trkpt lat="44.761029114095436" lon="9.071729146374654"><ele>402.6</ele><time>2026-05-03T10:05:20.999Z</time></trkpt><trkpt lat="44.76094275244791" lon="9.07173334451093"><ele>403.4</ele><time>2026-05-03T10:05:21.999Z</time></trkpt><trkpt lat="44.76084972228908" lon="9.07176710506788"><ele>404.2</ele><time>2026-05-03T10:05:29.999Z</time></trkpt><trkpt lat="44.76074494886037" lon="9.07186888566102"><ele>405.0</ele><time>2026-05-03T10:05:31.999Z</time></trkpt><trkpt lat="44.76068570933314" lon="9.071910051584332"><ele>405.0</ele><time>2026-05-03T10:05:32.999Z</time></trkpt><trkpt lat="44.760622686445046" lon="9.071929141155879"><ele>405.0</ele><time>2026-05-03T10:05:33.999Z</time></trkpt><trkpt lat="44.76052253061867" lon="9.071940177021713"><ele>405.0</ele><time>2026-05-03T10:05:35.999Z</time></trkpt><trkpt lat="44.76041803727035" lon="9.072060350139703"><ele>405.0</ele><time>2026-05-03T10:05:37.999Z</time></trkpt><trkpt lat="44.76037094989909" lon="9.072150624720821"><ele>405.0</ele><time>2026-05-03T10:05:38.999Z</time></trkpt><trkpt lat="44.760345255200946" lon="9.072255333754505"><ele>405.0</ele><time>2026-05-03T10:05:39.999Z</time></trkpt><trkpt lat="44.76030881677382" lon="9.072400993516565"><ele>405.0</ele><time>2026-05-03T10:05:41.999Z</time></trkpt><trkpt lat="44.76026769990578" lon="9.072473169518306"><ele>405.0</ele><time>2026-05-03T10:05:42.999Z</time></trkpt><trkpt lat="44.76022212773457" lon="9.072556581088769"><ele>405.0</ele><time>2026-05-03T10:05:43.999Z</time></trkpt><trkpt lat="44.76016004709843" lon="9.072644129321404"><ele>405.0</ele><time>2026-05-03T10:05:44.999Z</time></trkpt><trkpt lat="44.76010419271236" lon="9.072731225887171"><ele>405.0</ele><time>2026-05-03T10:05:45.999Z</time></trkpt><trkpt lat="44.760048296062585" lon="9.072804838798517"><ele>406.5</ele><time>2026-05-03T10:05:46.999Z</time></trkpt><trkpt lat="44.75999428944968" lon="9.072864948132885"><ele>408.0</ele><time>2026-05-03T10:05:47.999Z</time></trkpt><trkpt lat="44.75989624474036" lon="9.072885809255618"><ele>409.5</ele><time>2026-05-03T10:05:49.999Z</time></trkpt><trkpt lat="44.759826555847006" lon="9.072877970552788"><ele>411.0</ele><time>2026-05-03T10:05:51.999Z</time></trkpt><trkpt lat="44.759753915783584" lon="9.072838371284478"><ele>412.5</ele><time>2026-05-03T10:05:53.999Z</time></trkpt><trkpt lat="44.75964297792558" lon="9.072818743555043"><ele>414.0</ele><time>2026-05-03T10:05:55.999Z</time></trkpt><trkpt lat="44.75958008315083" lon="9.072801057773292"><ele>414.0</ele><time>2026-05-03T10:05:56.999Z</time></trkpt><trkpt lat="44.75946852075879" lon="9.07282288247871"><ele>414.0</ele><time>2026-05-03T10:05:58.999Z</time></trkpt><trkpt lat="44.75936131848366" lon="9.072845793705127"><ele>414.0</ele><time>2026-05-03T10:06:00.999Z</time></trkpt><trkpt lat="44.759265132357456" lon="9.072895763404727"><ele>414.0</ele><time>2026-05-03T10:06:02.999Z</time></trkpt><trkpt lat="44.75918441321489" lon="9.073012397431908"><ele>414.0</ele><time>2026-05-03T10:06:04.999Z</time></trkpt><trkpt lat="44.75910757884516" lon="9.073095383102451"><ele>416.3333333333333</ele><time>2026-05-03T10:06:06.999Z</time></trkpt><trkpt lat="44.75904784705853" lon="9.073175860878628"><ele>418.66666666666663</ele><time>2026-05-03T10:06:08.998Z</time></trkpt><trkpt lat="44.758972767715136" lon="9.07322087131136"><ele>421.0</ele><time>2026-05-03T10:06:10.998Z</time></trkpt><trkpt lat="44.758909806406706" lon="9.073256055350896"><ele>423.3333333333333</ele><time>2026-05-03T10:06:11.998Z</time></trkpt><trkpt lat="44.758836465140384" lon="9.073274396505576"><ele>425.66666666666663</ele><time>2026-05-03T10:06:12.998Z</time></trkpt><trkpt lat="44.75876795479564" lon="9.073290311688288"><ele>428.0</ele><time>2026-05-03T10:06:13.998Z</time></trkpt><trkpt lat="44.75864490328402" lon="9.073358390229544"><ele>428.66666666666663</ele><time>2026-05-03T10:06:15.998Z</time></trkpt><trkpt lat="44.758583830599214" lon="9.073391614855067"><ele>429.3333333333333</ele><time>2026-05-03T10:06:16.998Z</time></trkpt><trkpt lat="44.758514908850046" lon="9.07343714004132"><ele>430.0</ele><time>2026-05-03T10:06:17.998Z</time></trkpt><trkpt lat="44.75844855543873" lon="9.073531017356348"><ele>430.66666666666663</ele><time>2026-05-03T10:06:18.998Z</time></trkpt><trkpt lat="44.758392805520764" lon="9.073614283801838"><ele>431.3333333333333</ele><time>2026-05-03T10:06:19.998Z</time></trkpt><trkpt lat="44.75828913343096" lon="9.073700434479315"><ele>432.0</ele><time>2026-05-03T10:06:22Z</time></trkpt><trkpt lat="44.75817124867177" lon="9.07377729375634"><ele>434.0</ele><time>2026-05-03T10:06:24Z</time></trkpt><trkpt lat="44.7580787887038" lon="9.073861130342587"><ele>436.0</ele><time>2026-05-03T10:06:26Z</time></trkpt><trkpt lat="44.758032009951094" lon="9.073937785174587"><ele>438.0</ele><time>2026-05-03T10:06:27Z</time></trkpt><trkpt lat="44.7579927680646" lon="9.074060645459136"><ele>440.0</ele><time>2026-05-03T10:06:28Z</time></trkpt><trkpt lat="44.7579799216291" lon="9.074160735522742"><ele>442.0</ele><time>2026-05-03T10:06:29Z</time></trkpt><trkpt lat="44.75794538926301" lon="9.074263611251604"><ele>444.0</ele><time>2026-05-03T10:06:30Z</time></trkpt><trkpt lat="44.75790802105707" lon="9.074403078905117"><ele>444.2</ele><time>2026-05-03T10:06:31Z</time></trkpt><trkpt lat="44.75786224963624" lon="9.074548102167178"><ele>444.4</ele><time>2026-05-03T10:06:32Z</time></trkpt><trkpt lat="44.75782721038013" lon="9.074697540559217"><ele>444.6</ele><time>2026-05-03T10:06:33Z</time></trkpt><trkpt lat="44.757787161775475" lon="9.074824572426714"><ele>444.8</ele><time>2026-05-03T10:06:34Z</time></trkpt><trkpt lat="44.75775050389891" lon="9.074927993544208"><ele>445.0</ele><time>2026-05-03T10:06:35Z</time></trkpt><trkpt lat="44.75771675768492" lon="9.075035793353655"><ele>445.00000000000006</ele><time>2026-05-03T10:06:36Z</time></trkpt><trkpt lat="44.75771997072042" lon="9.07515132199965"><ele>445.0</ele><time>2026-05-03T10:06:37Z</time></trkpt><trkpt lat="44.75771777157354" lon="9.075275124901907"><ele>445.0</ele><time>2026-05-03T10:06:39Z</time></trkpt><trkpt lat="44.75765705798915" lon="9.07533277478566"><ele>445.0</ele><time>2026-05-03T10:06:53Z</time></trkpt><trkpt lat="44.75758953873845" lon="9.075402016073435"><ele>445.00000000000006</ele><time>2026-05-03T10:06:55Z</time></trkpt><trkpt lat="44.75754552710507" lon="9.075469647625358"><ele>445.0</ele><time>2026-05-03T10:06:56Z</time></trkpt><trkpt lat="44.757471561494306" lon="9.075563165464098"><ele>449.00000000000006</ele><time>2026-05-03T10:06:57Z</time></trkpt><trkpt lat="44.757425542843954" lon="9.075695953783512"><ele>453.0</ele><time>2026-05-03T10:06:58Z</time></trkpt><trkpt lat="44.757373485855425" lon="9.075768972907987"><ele>457.0</ele><time>2026-05-03T10:06:59Z</time></trkpt><trkpt lat="44.757314997565416" lon="9.075822535248271"><ele>461.0</ele><time>2026-05-03T10:07:00Z</time></trkpt><trkpt lat="44.75723963944346" lon="9.075904082203625"><ele>465.00000000000006</ele><time>2026-05-03T10:07:01Z</time></trkpt><trkpt lat="44.75717476304719" lon="9.075974548290057"><ele>469.0</ele><time>2026-05-03T10:07:02Z</time></trkpt><trkpt lat="44.75711599774254" lon="9.076046599141762"><ele>469.6666666666667</ele><time>2026-05-03T10:07:03Z</time></trkpt><trkpt lat="44.75701746702011" lon="9.076074214086432"><ele>470.33333333333337</ele><time>2026-05-03T10:07:05Z</time></trkpt><trkpt lat="44.756936558336044" lon="9.076054107011714"><ele>471.0</ele><time>2026-05-03T10:07:06Z</time></trkpt><trkpt lat="44.75685534104959" lon="9.075987443566463"><ele>471.66666666666663</ele><time>2026-05-03T10:07:07Z</time></trkpt><trkpt lat="44.75678286653825" lon="9.075940158087784"><ele>472.3333333333333</ele><time>2026-05-03T10:07:08Z</time></trkpt><trkpt lat="44.75671593038623" lon="9.075958916035072"><ele>473.0</ele><time>2026-05-03T10:07:09Z</time></trkpt><trkpt lat="44.75662105426394" lon="9.076009985361397"><ele>476.16666666666663</ele><time>2026-05-03T10:07:10Z</time></trkpt><trkpt lat="44.75653495605211" lon="9.07601395766011"><ele>479.3333333333333</ele><time>2026-05-03T10:07:11Z</time></trkpt><trkpt lat="44.75646717917339" lon="9.076003373123209"><ele>482.5</ele><time>2026-05-03T10:07:12Z</time></trkpt><trkpt lat="44.75637748635302" lon="9.07600971002232"><ele>485.66666666666663</ele><time>2026-05-03T10:07:13Z</time></trkpt><trkpt lat="44.75629169191593" lon="9.076004184450731"><ele>488.8333333333333</ele><time>2026-05-03T10:07:14Z</time></trkpt><trkpt lat="44.75620543019013" lon="9.075978471497248"><ele>492.0</ele><time>2026-05-03T10:07:15Z</time></trkpt><trkpt lat="44.75612385390986" lon="9.075990906154011"><ele>492.0</ele><time>2026-05-03T10:07:16Z</time></trkpt><trkpt lat="44.756050451053994" lon="9.07601600062362"><ele>492.00000000000006</ele><time>2026-05-03T10:07:18Z</time></trkpt><trkpt lat="44.75603321141937" lon="9.076112659422963"><ele>492.00000000000006</ele><time>2026-05-03T10:07:30.999Z</time></trkpt><trkpt lat="44.755985100732666" lon="9.076199865837694"><ele>492.0</ele><time>2026-05-03T10:07:35.999Z</time></trkpt><trkpt lat="44.755859783134056" lon="9.076268268310555"><ele>492.0</ele><time>2026-05-03T10:07:38.999Z</time></trkpt><trkpt lat="44.75578182345637" lon="9.076353847238884"><ele>495.8333333333333</ele><time>2026-05-03T10:07:39.999Z</time></trkpt><trkpt lat="44.755719804946885" lon="9.076437112321582"><ele>499.66666666666663</ele><time>2026-05-03T10:07:40.999Z</time></trkpt><trkpt lat="44.755670013232184" lon="9.076510437546117"><ele>503.5</ele><time>2026-05-03T10:07:41.999Z</time></trkpt><trkpt lat="44.75564544193642" lon="9.076661653200777"><ele>507.3333333333333</ele><time>2026-05-03T10:07:43.999Z</time></trkpt><trkpt lat="44.75564057385681" lon="9.076761608569008"><ele>511.16666666666663</ele><time>2026-05-03T10:07:44.999Z</time></trkpt><trkpt lat="44.75561458372715" lon="9.07685911562705"><ele>515.0</ele><time>2026-05-03T10:07:45.999Z</time></trkpt><trkpt lat="44.755603279528934" lon="9.07700660575839"><ele>515.0</ele><time>2026-05-03T10:07:47.999Z</time></trkpt><trkpt lat="44.755569211766094" lon="9.07713950210958"><ele>515.0</ele><time>2026-05-03T10:07:49.999Z</time></trkpt><trkpt lat="44.75560077576061" lon="9.07723340335598"><ele>515.0</ele><time>2026-05-03T10:07:50.999Z</time></trkpt><trkpt lat="44.75561491353801" lon="9.077320779173034"><ele>515.0</ele><time>2026-05-03T10:07:51.999Z</time></trkpt><trkpt lat="44.75559024670442" lon="9.077450692922572"><ele>515.0</ele><time>2026-05-03T10:07:53.999Z</time></trkpt><trkpt lat="44.75548916132006" lon="9.077556076042422"><ele>515.5</ele><time>2026-05-03T10:07:55.999Z</time></trkpt><trkpt lat="44.75539178657904" lon="9.077549508170273"><ele>516.0</ele><time>2026-05-03T10:07:56.999Z</time></trkpt><trkpt lat="44.75530111519511" lon="9.077559547902563"><ele>516.5</ele><time>2026-05-03T10:07:57.999Z</time></trkpt><trkpt lat="44.75520998574791" lon="9.07758472348621"><ele>517.0</ele><time>2026-05-03T10:07:58.999Z</time></trkpt><trkpt lat="44.75512517036461" lon="9.077605128816867"><ele>517.5</ele><time>2026-05-03T10:07:59.999Z</time></trkpt><trkpt lat="44.75505096950811" lon="9.077649891428987"><ele>518.0</ele><time>2026-05-03T10:08:00.999Z</time></trkpt><trkpt lat="44.7549690087301" lon="9.07767097772267"><ele>521.6666666666666</ele><time>2026-05-03T10:08:01.999Z</time></trkpt><trkpt lat="44.75489261764353" lon="9.077722803167044"><ele>525.3333333333333</ele><time>2026-05-03T10:08:02.999Z</time></trkpt><trkpt lat="44.75482434303728" lon="9.077785056186618"><ele>529.0</ele><time>2026-05-03T10:08:03.999Z</time></trkpt><trkpt lat="44.75475110594785" lon="9.077816900168042"><ele>532.6666666666666</ele><time>2026-05-03T10:08:04.999Z</time></trkpt><trkpt lat="44.7546675092027" lon="9.077845703565814"><ele>536.3333333333334</ele><time>2026-05-03T10:08:05.999Z</time></trkpt><trkpt lat="44.754608631604306" lon="9.077808143900999"><ele>540.0</ele><time>2026-05-03T10:08:08.999Z</time></trkpt><trkpt lat="44.7545438946491" lon="9.077728234971897"><ele>540.0</ele><time>2026-05-03T10:08:10.999Z</time></trkpt><trkpt lat="44.7544506989551" lon="9.07772379374831"><ele>540.0</ele><time>2026-05-03T10:08:12.999Z</time></trkpt><trkpt lat="44.754362665339656" lon="9.077779040273647"><ele>540.0</ele><time>2026-05-03T10:08:14.998Z</time></trkpt><trkpt lat="44.754307140806766" lon="9.077661555802333"><ele>540.0</ele><time>2026-05-03T10:08:16.998Z</time></trkpt><trkpt lat="44.754257745032085" lon="9.077565223146085"><ele>540.0</ele><time>2026-05-03T10:08:17.998Z</time></trkpt><trkpt lat="44.75416592653848" lon="9.077483651793356"><ele>542.5</ele><time>2026-05-03T10:08:18.998Z</time></trkpt><trkpt lat="44.75407379676902" lon="9.077402142220476"><ele>545.0</ele><time>2026-05-03T10:08:19.998Z</time></trkpt><trkpt lat="44.75400805643053" lon="9.077395482549623"><ele>547.5</ele><time>2026-05-03T10:08:22.998Z</time></trkpt><trkpt lat="44.753927570737574" lon="9.077411253815551"><ele>550.0</ele><time>2026-05-03T10:08:40Z</time></trkpt><trkpt lat="44.753861362276446" lon="9.07748738512469"><ele>552.5</ele><time>2026-05-03T10:08:42Z</time></trkpt><trkpt lat="44.7538014448844" lon="9.07752470736143"><ele>555.0</ele><time>2026-05-03T10:08:43Z</time></trkpt><trkpt lat="44.753699426721205" lon="9.077565478030353"><ele>556.6</ele><time>2026-05-03T10:08:44Z</time></trkpt><trkpt lat="44.753578506454886" lon="9.077624635325652"><ele>558.2</ele><time>2026-05-03T10:08:45Z</time></trkpt><trkpt lat="44.753487650188966" lon="9.077671152458597"><ele>559.8</ele><time>2026-05-03T10:08:46Z</time></trkpt><trkpt lat="44.75343599552173" lon="9.077729510996177"><ele>561.4</ele><time>2026-05-03T10:08:47Z</time></trkpt><trkpt lat="44.753386630821026" lon="9.077822690069835"><ele>563.0</ele><time>2026-05-03T10:08:48Z</time></trkpt><trkpt lat="44.75334083023778" lon="9.077958015733707"><ele>563.5</ele><time>2026-05-03T10:08:50Z</time></trkpt><trkpt lat="44.75332019206575" lon="9.07806604301194"><ele>564.0</ele><time>2026-05-03T10:08:53Z</time></trkpt><trkpt lat="44.753231257881474" lon="9.07821562660908"><ele>564.5</ele><time>2026-05-03T10:08:55Z</time></trkpt><trkpt lat="44.75319272652686" lon="9.078307924599036"><ele>565.0</ele><time>2026-05-03T10:08:56Z</time></trkpt><trkpt lat="44.753169437893824" lon="9.078399506938924"><ele>565.5</ele><time>2026-05-03T10:08:57Z</time></trkpt><trkpt lat="44.753135562433194" lon="9.078502193897961"><ele>566.0</ele><time>2026-05-03T10:08:58Z</time></trkpt><trkpt lat="44.7531316791801" lon="9.078688044804927"><ele>566.7142857142858</ele><time>2026-05-03T10:09:00Z</time></trkpt><trkpt lat="44.75313951015686" lon="9.07878816285202"><ele>567.4285714285714</ele><time>2026-05-03T10:09:01Z</time></trkpt><trkpt lat="44.753124686614996" lon="9.078876017497553"><ele>568.1428571428571</ele><time>2026-05-03T10:09:02Z</time></trkpt><trkpt lat="44.75310233652601" lon="9.078974445047132"><ele>568.8571428571429</ele><time>2026-05-03T10:09:03Z</time></trkpt><trkpt lat="44.75307536963514" lon="9.079068470676171"><ele>569.5714285714286</ele><time>2026-05-03T10:09:04Z</time></trkpt><trkpt lat="44.753087018088344" lon="9.079197545217818"><ele>570.2857142857143</ele><time>2026-05-03T10:09:07Z</time></trkpt><trkpt lat="44.75309647769755" lon="9.079291136053738"><ele>571.0</ele><time>2026-05-03T10:09:10Z</time></trkpt><trkpt lat="44.75308068752636" lon="9.079384283391047"><ele>571.0</ele><time>2026-05-03T10:09:13Z</time></trkpt><trkpt lat="44.75300917075282" lon="9.079498123249795"><ele>571.0</ele><time>2026-05-03T10:09:15Z</time></trkpt><trkpt lat="44.75295806707152" lon="9.079588714728265"><ele>571.0</ele><time>2026-05-03T10:09:17Z</time></trkpt><trkpt lat="44.7529054918586" lon="9.079644976659917"><ele>571.0</ele><time>2026-05-03T10:09:18Z</time></trkpt><trkpt lat="44.75285378184482" lon="9.079707395240728"><ele>571.0</ele><time>2026-05-03T10:09:20Z</time></trkpt><trkpt lat="44.75280766218345" lon="9.079820860657154"><ele>571.0</ele><time>2026-05-03T10:09:22Z</time></trkpt><trkpt lat="44.75276504162713" lon="9.079957372070519"><ele>570.8333333333334</ele><time>2026-05-03T10:09:24Z</time></trkpt><trkpt lat="44.75270383440535" lon="9.079901075294071"><ele>570.6666666666667</ele><time>2026-05-03T10:09:25.999Z</time></trkpt><trkpt lat="44.75271756449984" lon="9.079996750366831"><ele>570.5</ele><time>2026-05-03T10:09:30.999Z</time></trkpt><trkpt lat="44.75276245150979" lon="9.080144470736366"><ele>570.3333333333334</ele><time>2026-05-03T10:09:33.999Z</time></trkpt><trkpt lat="44.7527884406568" lon="9.0802740407248"><ele>570.1666666666666</ele><time>2026-05-03T10:09:35.999Z</time></trkpt><trkpt lat="44.752833767992705" lon="9.080393880940012"><ele>570.0</ele><time>2026-05-03T10:09:37.999Z</time></trkpt><trkpt lat="44.75286198422514" lon="9.080548418636589"><ele>570.0</ele><time>2026-05-03T10:09:39.999Z</time></trkpt><trkpt lat="44.75289261438111" lon="9.080708207778232"><ele>570.0</ele><time>2026-05-03T10:09:41.999Z</time></trkpt><trkpt lat="44.752914635304435" lon="9.080828529141392"><ele>570.0</ele><time>2026-05-03T10:09:43.999Z</time></trkpt><trkpt lat="44.752939736100814" lon="9.080940626487244"><ele>570.0</ele><time>2026-05-03T10:09:46.999Z</time></trkpt><trkpt lat="44.75295018222698" lon="9.081029010112154"><ele>570.0</ele><time>2026-05-03T10:09:53.999Z</time></trkpt><trkpt lat="44.75300327831511" lon="9.081103274975792"><ele>570.0</ele><time>2026-05-03T10:09:59.999Z</time></trkpt><trkpt lat="44.7530685044322" lon="9.081220410309308"><ele>570.6</ele><time>2026-05-03T10:10:01.999Z</time></trkpt><trkpt lat="44.75311469853792" lon="9.081409631554688"><ele>571.2</ele><time>2026-05-03T10:10:03.999Z</time></trkpt><trkpt lat="44.75313883007752" lon="9.081518694435111"><ele>571.8</ele><time>2026-05-03T10:10:04.999Z</time></trkpt><trkpt lat="44.75314619865533" lon="9.081610392576259"><ele>572.4</ele><time>2026-05-03T10:10:05.999Z</time></trkpt><trkpt lat="44.75314711239404" lon="9.0817240571832"><ele>573.0</ele><time>2026-05-03T10:10:07.999Z</time></trkpt><trkpt lat="44.75320492085685" lon="9.081804197543299"><ele>574.8</ele><time>2026-05-03T10:10:13.999Z</time></trkpt><trkpt lat="44.75326307468786" lon="9.08192073950219"><ele>576.5999999999999</ele><time>2026-05-03T10:10:15.999Z</time></trkpt><trkpt lat="44.753422712274755" lon="9.081993274886507"><ele>578.4000000000001</ele><time>2026-05-03T10:10:16.999Z</time></trkpt><trkpt lat="44.75346775585342" lon="9.082059410744405"><ele>580.2</ele><time>2026-05-03T10:10:17.999Z</time></trkpt><trkpt lat="44.75350814619355" lon="9.08213669744052"><ele>582.0</ele><time>2026-05-03T10:10:18.999Z</time></trkpt><trkpt lat="44.7535687963751" lon="9.0821969269189"><ele>579.1666666666666</ele><time>2026-05-03T10:10:19.998Z</time></trkpt><trkpt lat="44.75361535756393" lon="9.082302445962787"><ele>576.3333333333334</ele><time>2026-05-03T10:10:20.998Z</time></trkpt><trkpt lat="44.75366168139376" lon="9.08239016026339"><ele>573.5</ele><time>2026-05-03T10:10:21.998Z</time></trkpt><trkpt lat="44.75370111649192" lon="9.082549676105366"><ele>570.6666666666667</ele><time>2026-05-03T10:10:23.998Z</time></trkpt><trkpt lat="44.75373548798865" lon="9.08262441450612"><ele>567.8333333333334</ele><time>2026-05-03T10:10:24.998Z</time></trkpt><trkpt lat="44.75376438065214" lon="9.082709467433355"><ele>565.0</ele><time>2026-05-03T10:10:25.998Z</time></trkpt><trkpt lat="44.753804701127564" lon="9.082794142182884"><ele>565.0</ele><time>2026-05-03T10:10:26.998Z</time></trkpt><trkpt lat="44.753864504016185" lon="9.082876581979777"><ele>565.0</ele><time>2026-05-03T10:10:27.998Z</time></trkpt><trkpt lat="44.75389947137851" lon="9.082981515173643"><ele>565.0</ele><time>2026-05-03T10:10:28.998Z</time></trkpt><trkpt lat="44.75392454788808" lon="9.083109649729247"><ele>565.0</ele><time>2026-05-03T10:10:29.998Z</time></trkpt><trkpt lat="44.75394666798593" lon="9.083232543222882"><ele>565.0</ele><time>2026-05-03T10:10:30.998Z</time></trkpt><trkpt lat="44.753988485960015" lon="9.08331319733288"><ele>565.0</ele><time>2026-05-03T10:10:31.998Z</time></trkpt><trkpt lat="44.75400378976497" lon="9.08348434039796"><ele>565.6</ele><time>2026-05-03T10:10:34Z</time></trkpt><trkpt lat="44.7539847847506" lon="9.08364711164509"><ele>566.2</ele><time>2026-05-03T10:10:36Z</time></trkpt><trkpt lat="44.753994766680144" lon="9.08377900299725"><ele>566.8</ele><time>2026-05-03T10:10:38Z</time></trkpt><trkpt lat="44.753984764900885" lon="9.083875037032549"><ele>567.4</ele><time>2026-05-03T10:10:41Z</time></trkpt><trkpt lat="44.75399193010729" lon="9.0840035637522"><ele>568.0</ele><time>2026-05-03T10:10:43Z</time></trkpt><trkpt lat="44.7540180749084" lon="9.084141551955408"><ele>568.0</ele><time>2026-05-03T10:10:45Z</time></trkpt><trkpt lat="44.75402831033753" lon="9.084284192522688"><ele>568.0</ele><time>2026-05-03T10:10:48Z</time></trkpt><trkpt lat="44.7540612045917" lon="9.084458336051044"><ele>568.0</ele><time>2026-05-03T10:10:50Z</time></trkpt><trkpt lat="44.754072630603105" lon="9.084572352180265"><ele>568.0</ele><time>2026-05-03T10:10:51Z</time></trkpt><trkpt lat="44.7541133053322" lon="9.084653217152246"><ele>568.0</ele><time>2026-05-03T10:11:31Z</time></trkpt><trkpt lat="44.75403635220244" lon="9.084690279228672"><ele>568.0</ele><time>2026-05-03T10:11:34.999Z</time></trkpt><trkpt lat="44.753926928875714" lon="9.08471586686828"><ele>568.0</ele><time>2026-05-03T10:11:36.999Z</time></trkpt><trkpt lat="44.75385575392902" lon="9.084835921333354"><ele>568.0</ele><time>2026-05-03T10:11:38.999Z</time></trkpt><trkpt lat="44.75377898218363" lon="9.084925306394066"><ele>568.0</ele><time>2026-05-03T10:11:40.999Z</time></trkpt><trkpt lat="44.75371274049988" lon="9.085040202774188"><ele>568.0</ele><time>2026-05-03T10:11:42.999Z</time></trkpt><trkpt lat="44.75363658610649" lon="9.085119597060295"><ele>567.8333333333334</ele><time>2026-05-03T10:11:44.999Z</time></trkpt><trkpt lat="44.75358183832349" lon="9.085067169781729"><ele>567.6666666666667</ele><time>2026-05-03T10:11:46.999Z</time></trkpt><trkpt lat="44.753528743788856" lon="9.08501769050774"><ele>567.5</ele><time>2026-05-03T10:11:47.999Z</time></trkpt><trkpt lat="44.75341583134829" lon="9.084972474363347"><ele>567.3333333333334</ele><time>2026-05-03T10:11:49.999Z</time></trkpt><trkpt lat="44.753370112336725" lon="9.085035295952435"><ele>567.1666666666666</ele><time>2026-05-03T10:11:52.999Z</time></trkpt><trkpt lat="44.75333542755187" lon="9.085117419463414"><ele>567.0</ele><time>2026-05-03T10:11:54.999Z</time></trkpt><trkpt lat="44.75323877674146" lon="9.085155150570573"><ele>573.25</ele><time>2026-05-03T10:11:56.999Z</time></trkpt><trkpt lat="44.75310619477227" lon="9.085128204316774"><ele>579.5</ele><time>2026-05-03T10:11:58.999Z</time></trkpt><trkpt lat="44.7529934211507" lon="9.085062746983176"><ele>585.75</ele><time>2026-05-03T10:12:00.999Z</time></trkpt><trkpt lat="44.75290428568962" lon="9.084962918858446"><ele>592.0</ele><time>2026-05-03T10:12:02.999Z</time></trkpt><trkpt lat="44.752829667544276" lon="9.084896786876788"><ele>592.4</ele><time>2026-05-03T10:12:04.999Z</time></trkpt><trkpt lat="44.752756984553805" lon="9.084785526291293"><ele>592.8000000000001</ele><time>2026-05-03T10:12:06.999Z</time></trkpt><trkpt lat="44.75265669044686" lon="9.084722064610812"><ele>593.2</ele><time>2026-05-03T10:12:08.999Z</time></trkpt><trkpt lat="44.75257943087191" lon="9.084725203665947"><ele>593.6</ele><time>2026-05-03T10:12:10.999Z</time></trkpt><trkpt lat="44.752523888759114" lon="9.084776508415553"><ele>594.0</ele><time>2026-05-03T10:12:11.999Z</time></trkpt><trkpt lat="44.75243514737384" lon="9.084813092464701"><ele>599.6</ele><time>2026-05-03T10:12:13.999Z</time></trkpt><trkpt lat="44.75236079974447" lon="9.084789156692377"><ele>605.2</ele><time>2026-05-03T10:12:18.999Z</time></trkpt><trkpt lat="44.75227363239409" lon="9.084812609529354"><ele>610.8000000000001</ele><time>2026-05-03T10:12:43Z</time></trkpt><trkpt lat="44.75216054686395" lon="9.084769119702027"><ele>616.4</ele><time>2026-05-03T10:12:46Z</time></trkpt><trkpt lat="44.75205217126107" lon="9.084757177024704"><ele>622.0</ele><time>2026-05-03T10:12:48Z</time></trkpt><trkpt lat="44.751973327621755" lon="9.084762148980726"><ele>622.0</ele><time>2026-05-03T10:12:49Z</time></trkpt><trkpt lat="44.751898728791424" lon="9.084754183872857"><ele>622.0</ele><time>2026-05-03T10:12:50Z</time></trkpt><trkpt lat="44.75181296688568" lon="9.084672367179424"><ele>622.0</ele><time>2026-05-03T10:12:52Z</time></trkpt><trkpt lat="44.75175357047586" lon="9.084630867338381"><ele>622.0</ele><time>2026-05-03T10:12:53Z</time></trkpt><trkpt lat="44.751691946565586" lon="9.084591663268212"><ele>622.0</ele><time>2026-05-03T10:12:54Z</time></trkpt><trkpt lat="44.751616270541746" lon="9.08456025391805"><ele>622.0</ele><time>2026-05-03T10:12:56Z</time></trkpt><trkpt lat="44.75155161483591" lon="9.084553933572039"><ele>625.4</ele><time>2026-05-03T10:12:57Z</time></trkpt><trkpt lat="44.75146328534497" lon="9.084526784610954"><ele>628.8000000000001</ele><time>2026-05-03T10:12:59Z</time></trkpt><trkpt lat="44.75133165512223" lon="9.084413137925058"><ele>632.2</ele><time>2026-05-03T10:13:01Z</time></trkpt><trkpt lat="44.75126106791132" lon="9.08435705346282"><ele>635.6</ele><time>2026-05-03T10:13:02Z</time></trkpt><trkpt lat="44.7512051910826" lon="9.084250755619953"><ele>639.0</ele><time>2026-05-03T10:13:04Z</time></trkpt><trkpt lat="44.75116007845566" lon="9.084106795220638"><ele>639.1666666666666</ele><time>2026-05-03T10:13:06Z</time></trkpt><trkpt lat="44.751140675116545" lon="9.08398513887334"><ele>639.3333333333334</ele><time>2026-05-03T10:13:07Z</time></trkpt><trkpt lat="44.75111247680648" lon="9.083863058959528"><ele>639.5</ele><time>2026-05-03T10:13:08Z</time></trkpt><trkpt lat="44.75108151093713" lon="9.083752952262454"><ele>639.6666666666667</ele><time>2026-05-03T10:13:09Z</time></trkpt><trkpt lat="44.751066966352774" lon="9.08366620017487"><ele>639.8333333333334</ele><time>2026-05-03T10:13:10Z</time></trkpt><trkpt lat="44.751042661478145" lon="9.083542480143457"><ele>640.0</ele><time>2026-05-03T10:13:13Z</time></trkpt><trkpt lat="44.750983553848904" lon="9.083503407408024"><ele>642.2</ele><time>2026-05-03T10:13:43.999Z</time></trkpt><trkpt lat="44.750932230591225" lon="9.083397847674682"><ele>644.4</ele><time>2026-05-03T10:13:45.999Z</time></trkpt><trkpt lat="44.75086965574939" lon="9.083327760835658"><ele>646.5999999999999</ele><time>2026-05-03T10:13:47.999Z</time></trkpt><trkpt lat="44.7508029940818" lon="9.083230893678719"><ele>648.8</ele><time>2026-05-03T10:13:50.999Z</time></trkpt><trkpt lat="44.75074174132345" lon="9.083171254557088"><ele>651.0</ele><time>2026-05-03T10:13:52.999Z</time></trkpt><trkpt lat="44.750663548593515" lon="9.083062275022034"><ele>651.0</ele><time>2026-05-03T10:13:54.999Z</time></trkpt><trkpt lat="44.750590264331436" lon="9.08295779644911"><ele>651.0</ele><time>2026-05-03T10:13:56.999Z</time></trkpt><trkpt lat="44.750493190862194" lon="9.082875159852264"><ele>651.0</ele><time>2026-05-03T10:13:58.999Z</time></trkpt><trkpt lat="44.75041883757517" lon="9.082851186024119"><ele>651.0</ele><time>2026-05-03T10:13:59.999Z</time></trkpt><trkpt lat="44.7503553862877" lon="9.082842914485273"><ele>651.0</ele><time>2026-05-03T10:14:00.999Z</time></trkpt><trkpt lat="44.750238835996264" lon="9.08287372573786"><ele>653.1999999999999</ele><time>2026-05-03T10:14:02.999Z</time></trkpt><trkpt lat="44.7501259056031" lon="9.082850685969541"><ele>655.4</ele><time>2026-05-03T10:14:04.999Z</time></trkpt><trkpt lat="44.750028006244264" lon="9.082847810472336"><ele>657.6</ele><time>2026-05-03T10:14:06.999Z</time></trkpt><trkpt lat="44.74992034840592" lon="9.082840036011568"><ele>659.8</ele><time>2026-05-03T10:14:12.999Z</time></trkpt><trkpt lat="44.749858492048766" lon="9.082802013574996"><ele>662.0</ele><time>2026-05-03T10:14:13.999Z</time></trkpt><trkpt lat="44.74976774789557" lon="9.082689144592315"><ele>662.0</ele><time>2026-05-03T10:14:15.999Z</time></trkpt><trkpt lat="44.74965586029513" lon="9.082580551810155"><ele>662.0</ele><time>2026-05-03T10:14:17.999Z</time></trkpt><trkpt lat="44.74960264032254" lon="9.082531862425457"><ele>662.0</ele><time>2026-05-03T10:14:18.999Z</time></trkpt><trkpt lat="44.74949812368508" lon="9.082375677283745"><ele>662.0</ele><time>2026-05-03T10:14:20.999Z</time></trkpt><trkpt lat="44.7494418557426" lon="9.08227680628517"><ele>662.0</ele><time>2026-05-03T10:14:21.999Z</time></trkpt><trkpt lat="44.74936335918255" lon="9.082179448976929"><ele>664.3333333333333</ele><time>2026-05-03T10:14:22.999Z</time></trkpt><trkpt lat="44.749292535391646" lon="9.082102240993176"><ele>666.6666666666666</ele><time>2026-05-03T10:14:23.999Z</time></trkpt><trkpt lat="44.749225129923815" lon="9.082043008690638"><ele>669.0</ele><time>2026-05-03T10:14:24.999Z</time></trkpt><trkpt lat="44.74915966708118" lon="9.081985755131802"><ele>671.3333333333334</ele><time>2026-05-03T10:14:25.998Z</time></trkpt><trkpt lat="44.74912559089388" lon="9.081899736997812"><ele>673.6666666666667</ele><time>2026-05-03T10:14:26.998Z</time></trkpt><trkpt lat="44.749090782517584" lon="9.081794362160116"><ele>676.0</ele><time>2026-05-03T10:14:27.998Z</time></trkpt><trkpt lat="44.7490315737298" lon="9.081729420923516"><ele>676.0</ele><time>2026-05-03T10:14:28.998Z</time></trkpt><trkpt lat="44.748945542440616" lon="9.081725642052675"><ele>676.0</ele><time>2026-05-03T10:14:30.998Z</time></trkpt><trkpt lat="44.74887744044596" lon="9.081717320383202"><ele>676.0</ele><time>2026-05-03T10:14:33.998Z</time></trkpt><trkpt lat="44.74883834633259" lon="9.0818064689913"><ele>676.0</ele><time>2026-05-03T10:14:43.998Z</time></trkpt><trkpt lat="44.74883449334898" lon="9.081970244036958"><ele>676.0</ele><time>2026-05-03T10:14:46Z</time></trkpt><trkpt lat="44.748848674871375" lon="9.082087647421623"><ele>676.0</ele><time>2026-05-03T10:14:47Z</time></trkpt><trkpt lat="44.74886822518438" lon="9.082218152571045"><ele>676.0</ele><time>2026-05-03T10:14:48Z</time></trkpt><trkpt lat="44.74891186561048" lon="9.08234688011858"><ele>676.0</ele><time>2026-05-03T10:14:49Z</time></trkpt><trkpt lat="44.748966635793785" lon="9.082442671820841"><ele>676.0</ele><time>2026-05-03T10:14:50Z</time></trkpt><trkpt lat="44.74904853019024" lon="9.082549058823876"><ele>676.0</ele><time>2026-05-03T10:14:51Z</time></trkpt><trkpt lat="44.74911533786571" lon="9.082656623358885"><ele>676.0</ele><time>2026-05-03T10:14:52Z</time></trkpt><trkpt lat="44.74914706313502" lon="9.08277981032612"><ele>676.0</ele><time>2026-05-03T10:14:53Z</time></trkpt><trkpt lat="44.74916605068213" lon="9.08288529846356"><ele>676.0</ele><time>2026-05-03T10:14:54Z</time></trkpt><trkpt lat="44.749163893106996" lon="9.082991403173269"><ele>676.0</ele><time>2026-05-03T10:14:55Z</time></trkpt><trkpt lat="44.74913039172784" lon="9.083130401362318"><ele>676.0</ele><time>2026-05-03T10:14:56Z</time></trkpt><trkpt lat="44.7491296654852" lon="9.083249941311472"><ele>676.0</ele><time>2026-05-03T10:14:57Z</time></trkpt><trkpt lat="44.74918670503571" lon="9.083353962708147"><ele>676.0</ele><time>2026-05-03T10:14:58Z</time></trkpt><trkpt lat="44.74926047926929" lon="9.0834789840627"><ele>676.5999999999999</ele><time>2026-05-03T10:14:59Z</time></trkpt><trkpt lat="44.7492882284295" lon="9.083581001322129"><ele>677.2</ele><time>2026-05-03T10:15:00Z</time></trkpt><trkpt lat="44.74925941683272" lon="9.083715774802553"><ele>677.8</ele><time>2026-05-03T10:15:01Z</time></trkpt><trkpt lat="44.7492342481907" lon="9.08388951450407"><ele>678.4000000000001</ele><time>2026-05-03T10:15:02Z</time></trkpt><trkpt lat="44.74923560464184" lon="9.084035322945585"><ele>679.0</ele><time>2026-05-03T10:15:03Z</time></trkpt><trkpt lat="44.749255401185884" lon="9.084152747003179"><ele>680.1666666666667</ele><time>2026-05-03T10:15:04Z</time></trkpt><trkpt lat="44.74929127260769" lon="9.08427340903285"><ele>681.3333333333334</ele><time>2026-05-03T10:15:05Z</time></trkpt><trkpt lat="44.74930922539609" lon="9.084392735001055"><ele>682.5</ele><time>2026-05-03T10:15:06Z</time></trkpt><trkpt lat="44.74929965246868" lon="9.084483176894588"><ele>683.6666666666666</ele><time>2026-05-03T10:15:07Z</time></trkpt><trkpt lat="44.749276635840026" lon="9.084577788796892"><ele>684.8333333333333</ele><time>2026-05-03T10:15:08Z</time></trkpt><trkpt lat="44.74924194231497" lon="9.084678776405136"><ele>686.0</ele><time>2026-05-03T10:15:09Z</time></trkpt><trkpt lat="44.74920160689666" lon="9.084782467721269"><ele>686.0</ele><time>2026-05-03T10:15:10Z</time></trkpt><trkpt lat="44.749177589322045" lon="9.084896340019572"><ele>686.0</ele><time>2026-05-03T10:15:11Z</time></trkpt><trkpt lat="44.74918527585016" lon="9.085006894560186"><ele>686.0</ele><time>2026-05-03T10:15:12Z</time></trkpt><trkpt lat="44.749198762319175" lon="9.085116907382062"><ele>686.0</ele><time>2026-05-03T10:15:13Z</time></trkpt><trkpt lat="44.749197273807596" lon="9.085243909788295"><ele>686.0</ele><time>2026-05-03T10:15:14Z</time></trkpt><trkpt lat="44.749197348114016" lon="9.08536371192591"><ele>686.0</ele><time>2026-05-03T10:15:15Z</time></trkpt><trkpt lat="44.7492032321681" lon="9.085472607878133"><ele>687.4</ele><time>2026-05-03T10:15:16Z</time></trkpt><trkpt lat="44.74918658037949" lon="9.085564859012585"><ele>688.8</ele><time>2026-05-03T10:15:17Z</time></trkpt><trkpt lat="44.74915891531274" lon="9.085684134641195"><ele>690.1999999999999</ele><time>2026-05-03T10:15:18Z</time></trkpt><trkpt lat="44.74911942273215" lon="9.085835842573491"><ele>691.5999999999999</ele><time>2026-05-03T10:15:19Z</time></trkpt><trkpt lat="44.749097887020554" lon="9.085992681596188"><ele>693.0</ele><time>2026-05-03T10:15:20Z</time></trkpt><trkpt lat="44.74907511074916" lon="9.08612218551187"><ele>693.8</ele><time>2026-05-03T10:15:22Z</time></trkpt><trkpt lat="44.74907952952875" lon="9.086249192755377"><ele>694.5999999999999</ele><time>2026-05-03T10:15:24Z</time></trkpt><trkpt lat="44.749085135827315" lon="9.086400221931907"><ele>695.4000000000001</ele><time>2026-05-03T10:15:26Z</time></trkpt><trkpt lat="44.74909237861313" lon="9.08651444959336"><ele>696.2</ele><time>2026-05-03T10:15:27Z</time></trkpt><trkpt lat="44.74910688384184" lon="9.086663333552071"><ele>697.0</ele><time>2026-05-03T10:15:28Z</time></trkpt><trkpt lat="44.749128477012874" lon="9.086809796620928"><ele>697.8</ele><time>2026-05-03T10:15:29Z</time></trkpt><trkpt lat="44.74915128500485" lon="9.086922078868858"><ele>698.6</ele><time>2026-05-03T10:15:30Z</time></trkpt><trkpt lat="44.74914616992846" lon="9.087124207594567"><ele>699.4</ele><time>2026-05-03T10:15:32Z</time></trkpt><trkpt lat="44.74909973633327" lon="9.087256767473042"><ele>700.1999999999999</ele><time>2026-05-03T10:15:33Z</time></trkpt><trkpt lat="44.74906131604384" lon="9.087397757125954"><ele>701.0</ele><time>2026-05-03T10:15:34Z</time></trkpt><trkpt lat="44.74904544750569" lon="9.08753999240064"><ele>701.75</ele><time>2026-05-03T10:15:35Z</time></trkpt><trkpt lat="44.74904563909679" lon="9.087696379584688"><ele>702.5</ele><time>2026-05-03T10:15:36Z</time></trkpt><trkpt lat="44.74902874286438" lon="9.087850311304388"><ele>703.25</ele><time>2026-05-03T10:15:37Z</time></trkpt><trkpt lat="44.749011498297605" lon="9.088013792536165"><ele>704.0</ele><time>2026-05-03T10:15:38Z</time></trkpt><trkpt lat="44.74901442306554" lon="9.088173528569905"><ele>703.8333333333333</ele><time>2026-05-03T10:15:38.999Z</time></trkpt><trkpt lat="44.74900761939019" lon="9.088338075414846"><ele>703.6666666666666</ele><time>2026-05-03T10:15:39.999Z</time></trkpt><trkpt lat="44.74898305189267" lon="9.088477927146485"><ele>703.5</ele><time>2026-05-03T10:15:40.999Z</time></trkpt><trkpt lat="44.74895855420178" lon="9.08860046189856"><ele>703.3333333333334</ele><time>2026-05-03T10:15:41.999Z</time></trkpt><trkpt lat="44.74894425002981" lon="9.088697466161978"><ele>703.1666666666667</ele><time>2026-05-03T10:15:42.999Z</time></trkpt><trkpt lat="44.7489304650742" lon="9.088788859198225"><ele>703.0</ele><time>2026-05-03T10:15:43.999Z</time></trkpt><trkpt lat="44.74891871730838" lon="9.088900071037642"><ele>703.0</ele><time>2026-05-03T10:15:44.999Z</time></trkpt><trkpt lat="44.748886057170836" lon="9.08901383839535"><ele>703.0</ele><time>2026-05-03T10:15:45.999Z</time></trkpt><trkpt lat="44.74883197590151" lon="9.08913046659986"><ele>703.0</ele><time>2026-05-03T10:15:46.999Z</time></trkpt><trkpt lat="44.7487807634112" lon="9.089237145515193"><ele>703.0</ele><time>2026-05-03T10:15:47.999Z</time></trkpt><trkpt lat="44.74874115268829" lon="9.089313917472765"><ele>703.0</ele><time>2026-05-03T10:15:48.999Z</time></trkpt><trkpt lat="44.74867024093273" lon="9.089384804078442"><ele>703.0</ele><time>2026-05-03T10:15:49.999Z</time></trkpt><trkpt lat="44.74859414080837" lon="9.089465060266642"><ele>703.5999999999999</ele><time>2026-05-03T10:15:50.999Z</time></trkpt><trkpt lat="44.748513413959444" lon="9.089561154678618"><ele>704.1999999999999</ele><time>2026-05-03T10:15:51.999Z</time></trkpt><trkpt lat="44.748430427338704" lon="9.089677110894367"><ele>704.8</ele><time>2026-05-03T10:15:52.999Z</time></trkpt><trkpt lat="44.74835974630263" lon="9.089761453340124"><ele>705.4</ele><time>2026-05-03T10:15:53.999Z</time></trkpt><trkpt lat="44.748295296357405" lon="9.089814961477389"><ele>706.0</ele><time>2026-05-03T10:15:54.999Z</time></trkpt><trkpt lat="44.74821548182918" lon="9.089862478177672"><ele>707.8</ele><time>2026-05-03T10:15:55.999Z</time></trkpt><trkpt lat="44.74814292435774" lon="9.089926679720232"><ele>709.5999999999999</ele><time>2026-05-03T10:15:56.999Z</time></trkpt><trkpt lat="44.74807345490189" lon="9.090002852329464"><ele>711.4</ele><time>2026-05-03T10:15:57.999Z</time></trkpt><trkpt lat="44.74799109406485" lon="9.090089005382636"><ele>713.2</ele><time>2026-05-03T10:15:59.999Z</time></trkpt><trkpt lat="44.74791000053866" lon="9.090211256467613"><ele>715.0</ele><time>2026-05-03T10:16:01.999Z</time></trkpt><trkpt lat="44.747861521410464" lon="9.090312379847019"><ele>715.0</ele><time>2026-05-03T10:16:02.999Z</time></trkpt><trkpt lat="44.74780929025479" lon="9.090421323669503"><ele>715.0</ele><time>2026-05-03T10:16:03.999Z</time></trkpt><trkpt lat="44.74776611651231" lon="9.090512083443677"><ele>715.0</ele><time>2026-05-03T10:16:04.999Z</time></trkpt><trkpt lat="44.74772499813479" lon="9.090591388617648"><ele>715.0</ele><time>2026-05-03T10:16:05.999Z</time></trkpt><trkpt lat="44.74762059275985" lon="9.090680260535459"><ele>715.0</ele><time>2026-05-03T10:16:07.999Z</time></trkpt><trkpt lat="44.74754295316896" lon="9.090786442761445"><ele>714.8333333333334</ele><time>2026-05-03T10:16:09.999Z</time></trkpt><trkpt lat="44.747498379766704" lon="9.090893324193763"><ele>714.6666666666667</ele><time>2026-05-03T10:16:11.999Z</time></trkpt><trkpt lat="44.74744975214973" lon="9.09095221232224"><ele>714.5</ele><time>2026-05-03T10:16:12.999Z</time></trkpt><trkpt lat="44.74739897815743" lon="9.091030761553363"><ele>714.3333333333334</ele><time>2026-05-03T10:16:13.999Z</time></trkpt><trkpt lat="44.74734272422463" lon="9.091092736503407"><ele>714.1666666666666</ele><time>2026-05-03T10:16:14.999Z</time></trkpt><trkpt lat="44.74726756982035" lon="9.091157409844541"><ele>714.0</ele><time>2026-05-03T10:16:15.999Z</time></trkpt><trkpt lat="44.74719495333185" lon="9.09122991961814"><ele>714.0</ele><time>2026-05-03T10:16:16.999Z</time></trkpt><trkpt lat="44.74713079229843" lon="9.091302098636694"><ele>714.0</ele><time>2026-05-03T10:16:17.999Z</time></trkpt><trkpt lat="44.74708313438245" lon="9.091360150640394"><ele>714.0</ele><time>2026-05-03T10:16:18.999Z</time></trkpt><trkpt lat="44.74694524248469" lon="9.091390428850922"><ele>714.0</ele><time>2026-05-03T10:16:20.999Z</time></trkpt><trkpt lat="44.74685859037803" lon="9.091421011321918"><ele>714.0</ele><time>2026-05-03T10:16:21.999Z</time></trkpt><trkpt lat="44.74678039900652" lon="9.09146833768809"><ele>712.3333333333334</ele><time>2026-05-03T10:16:22.999Z</time></trkpt><trkpt lat="44.746692214720404" lon="9.091523718363915"><ele>710.6666666666666</ele><time>2026-05-03T10:16:23.999Z</time></trkpt><trkpt lat="44.746606712278435" lon="9.091577304585993"><ele>709.0</ele><time>2026-05-03T10:16:24.999Z</time></trkpt><trkpt lat="44.74652578936819" lon="9.091619935813616"><ele>707.3333333333333</ele><time>2026-05-03T10:16:25.999Z</time></trkpt><trkpt lat="44.746458492629614" lon="9.091652206858381"><ele>705.6666666666666</ele><time>2026-05-03T10:16:26.999Z</time></trkpt><trkpt lat="44.74639481683735" lon="9.091682131093656"><ele>704.0</ele><time>2026-05-03T10:16:27.999Z</time></trkpt><trkpt lat="44.74631839875336" lon="9.091679856752712"><ele>708.2</ele><time>2026-05-03T10:16:28.999Z</time></trkpt><trkpt lat="44.74622362890045" lon="9.091668081214921"><ele>712.4000000000001</ele><time>2026-05-03T10:16:30.998Z</time></trkpt><trkpt lat="44.74614511387028" lon="9.091717441983485"><ele>716.6</ele><time>2026-05-03T10:17:09Z</time></trkpt><trkpt lat="44.746102725690974" lon="9.09189278336941"><ele>720.8</ele><time>2026-05-03T10:17:11Z</time></trkpt><trkpt lat="44.746068658440535" lon="9.092037392617252"><ele>725.0</ele><time>2026-05-03T10:17:12Z</time></trkpt><trkpt lat="44.746054285814346" lon="9.092188118603776"><ele>724.0</ele><time>2026-05-03T10:17:13Z</time></trkpt><trkpt lat="44.74602084195579" lon="9.092336006624164"><ele>723.0</ele><time>2026-05-03T10:17:14Z</time></trkpt><trkpt lat="44.74597539149782" lon="9.092495397727667"><ele>722.0</ele><time>2026-05-03T10:17:15Z</time></trkpt><trkpt lat="44.74591811789271" lon="9.092648898940539"><ele>721.0</ele><time>2026-05-03T10:17:16Z</time></trkpt><trkpt lat="44.74584427113426" lon="9.092808988551232"><ele>723.0</ele><time>2026-05-03T10:17:17Z</time></trkpt><trkpt lat="44.745756053573466" lon="9.092959238550646"><ele>725.0</ele><time>2026-05-03T10:17:18Z</time></trkpt><trkpt lat="44.74566248450863" lon="9.09309018117665"><ele>727.0</ele><time>2026-05-03T10:17:19Z</time></trkpt><trkpt lat="44.74557231267769" lon="9.093214493375667"><ele>729.0</ele><time>2026-05-03T10:17:20Z</time></trkpt><trkpt lat="44.74548297475967" lon="9.093316522900093"><ele>730.0</ele><time>2026-05-03T10:17:21Z</time></trkpt><trkpt lat="44.745363008452145" lon="9.093366497085588"><ele>731.0</ele><time>2026-05-03T10:17:22Z</time></trkpt><trkpt lat="44.74524306938512" lon="9.093415395861236"><ele>732.0</ele><time>2026-05-03T10:17:23Z</time></trkpt><trkpt lat="44.74511709447087" lon="9.09348048313513"><ele>733.0</ele><time>2026-05-03T10:17:24Z</time></trkpt><trkpt lat="44.74499361940135" lon="9.09356058535569"><ele>733.0</ele><time>2026-05-03T10:17:25Z</time></trkpt><trkpt lat="44.74489374872653" lon="9.093550604371465"><ele>733.0</ele><time>2026-05-03T10:17:26Z</time></trkpt><trkpt lat="44.744825491108934" lon="9.093550172160226"><ele>733.0</ele><time>2026-05-03T10:17:27Z</time></trkpt><trkpt lat="44.74475532707522" lon="9.093584279297962"><ele>733.0</ele><time>2026-05-03T10:17:29Z</time></trkpt><trkpt lat="44.744990991810205" lon="9.093762489536953"><ele>733.0</ele><time>2026-05-03T10:17:39.999Z</time></trkpt><trkpt lat="44.74510800324121" lon="9.093817439772588"><ele>733.0</ele><time>2026-05-03T10:17:40.999Z</time></trkpt><trkpt lat="44.745234387969376" lon="9.093878828318555"><ele>733.0</ele><time>2026-05-03T10:17:41.999Z</time></trkpt><trkpt lat="44.745373355765764" lon="9.093951158165217"><ele>733.0</ele><time>2026-05-03T10:17:42.999Z</time></trkpt><trkpt lat="44.74551547615968" lon="9.094029610543878"><ele>736.5</ele><time>2026-05-03T10:17:43.999Z</time></trkpt><trkpt lat="44.74564381902974" lon="9.094110146422"><ele>740.0</ele><time>2026-05-03T10:17:44.999Z</time></trkpt><trkpt lat="44.74574566967941" lon="9.094239103987118"><ele>743.5</ele><time>2026-05-03T10:17:45.999Z</time></trkpt><trkpt lat="44.7458238655334" lon="9.0943926526345"><ele>747.0</ele><time>2026-05-03T10:17:46.999Z</time></trkpt><trkpt lat="44.74589407541167" lon="9.09456044930562"><ele>747.0</ele><time>2026-05-03T10:17:47.999Z</time></trkpt><trkpt lat="44.74597614999161" lon="9.094716416402834"><ele>747.0</ele><time>2026-05-03T10:17:48.999Z</time></trkpt><trkpt lat="44.74607951634887" lon="9.094857598801276"><ele>747.0</ele><time>2026-05-03T10:17:49.999Z</time></trkpt><trkpt lat="44.746184540713564" lon="9.094993009719142"><ele>747.0</ele><time>2026-05-03T10:17:50.999Z</time></trkpt><trkpt lat="44.74627778726226" lon="9.095134412242917"><ele>750.25</ele><time>2026-05-03T10:17:51.999Z</time></trkpt><trkpt lat="44.74634154240879" lon="9.09527119227346"><ele>753.5</ele><time>2026-05-03T10:17:52.999Z</time></trkpt><trkpt lat="44.74637522673628" lon="9.095414400232045"><ele>756.75</ele><time>2026-05-03T10:17:53.999Z</time></trkpt><trkpt lat="44.746372696977005" lon="9.095575439205444"><ele>760.0</ele><time>2026-05-03T10:17:54.999Z</time></trkpt><trkpt lat="44.74633912131821" lon="9.095738889634978"><ele>758.5</ele><time>2026-05-03T10:17:55.999Z</time></trkpt><trkpt lat="44.74629393413715" lon="9.095908699646236"><ele>757.0</ele><time>2026-05-03T10:17:56.999Z</time></trkpt><trkpt lat="44.74623261571337" lon="9.09607821404654"><ele>755.5</ele><time>2026-05-03T10:17:57.999Z</time></trkpt><trkpt lat="44.74614889137932" lon="9.096222132201227"><ele>754.0</ele><time>2026-05-03T10:17:58.999Z</time></trkpt><trkpt lat="44.746075319451045" lon="9.096359990559407"><ele>754.0</ele><time>2026-05-03T10:17:59.999Z</time></trkpt><trkpt lat="44.74604806146039" lon="9.09651009334343"><ele>754.0</ele><time>2026-05-03T10:18:00.999Z</time></trkpt><trkpt lat="44.74605085061268" lon="9.096658531497376"><ele>754.0</ele><time>2026-05-03T10:18:01.999Z</time></trkpt><trkpt lat="44.74609518520393" lon="9.096839014336583"><ele>754.0</ele><time>2026-05-03T10:18:02.999Z</time></trkpt><trkpt lat="44.746169029260265" lon="9.09705463904251"><ele>753.0</ele><time>2026-05-03T10:18:03.999Z</time></trkpt><trkpt lat="44.746277322376415" lon="9.097273902926078"><ele>752.0</ele><time>2026-05-03T10:18:04.999Z</time></trkpt><trkpt lat="44.74638266482558" lon="9.09751087214581"><ele>751.0</ele><time>2026-05-03T10:18:05.999Z</time></trkpt><trkpt lat="44.74648805800303" lon="9.097748700755554"><ele>753.6666666666667</ele><time>2026-05-03T10:18:06.999Z</time></trkpt><trkpt lat="44.74659438452879" lon="9.09800061621299"><ele>756.3333333333334</ele><time>2026-05-03T10:18:07.999Z</time></trkpt><trkpt lat="44.7466953769353" lon="9.09823179615369"><ele>759.0</ele><time>2026-05-03T10:18:08.999Z</time></trkpt><trkpt lat="44.74679279155606" lon="9.098438579556172"><ele>757.6666666666666</ele><time>2026-05-03T10:18:09.999Z</time></trkpt><trkpt lat="44.74688073614913" lon="9.098642207290702"><ele>756.3333333333333</ele><time>2026-05-03T10:18:10.999Z</time></trkpt><trkpt lat="44.74693692144503" lon="9.098823356472002"><ele>755.0</ele><time>2026-05-03T10:18:11.999Z</time></trkpt><trkpt lat="44.74697319044781" lon="9.099048579706864"><ele>756.6666666666666</ele><time>2026-05-03T10:18:12.999Z</time></trkpt><trkpt lat="44.74699917797552" lon="9.099285799222217"><ele>758.3333333333334</ele><time>2026-05-03T10:18:13.999Z</time></trkpt><trkpt lat="44.74705798900542" lon="9.09950375130015"><ele>760.0</ele><time>2026-05-03T10:18:14.999Z</time></trkpt><trkpt lat="44.74714953718797" lon="9.09968866118724"><ele>760.0</ele><time>2026-05-03T10:18:15.999Z</time></trkpt><trkpt lat="44.74725460884872" lon="9.099813907974212"><ele>760.0</ele><time>2026-05-03T10:18:16.999Z</time></trkpt><trkpt lat="44.747342638421735" lon="9.099921637944552"><ele>760.0</ele><time>2026-05-03T10:18:17.999Z</time></trkpt><trkpt lat="44.7474019488535" lon="9.10004057719343"><ele>760.0</ele><time>2026-05-03T10:18:18.999Z</time></trkpt><trkpt lat="44.747415856342535" lon="9.100187527526765"><ele>762.0</ele><time>2026-05-03T10:18:19.999Z</time></trkpt><trkpt lat="44.7474239640296" lon="9.100336515533122"><ele>764.0</ele><time>2026-05-03T10:18:20.999Z</time></trkpt><trkpt lat="44.74743468774035" lon="9.100504222033642"><ele>766.0</ele><time>2026-05-03T10:18:21.999Z</time></trkpt><trkpt lat="44.747428136608455" lon="9.100688565947712"><ele>768.0</ele><time>2026-05-03T10:18:22.999Z</time></trkpt><trkpt lat="44.74744358119934" lon="9.100878202560793"><ele>768.75</ele><time>2026-05-03T10:18:23.999Z</time></trkpt><trkpt lat="44.74747151010145" lon="9.101071683056473"><ele>769.5</ele><time>2026-05-03T10:18:24.999Z</time></trkpt><trkpt lat="44.74750744753121" lon="9.101272056947186"><ele>770.25</ele><time>2026-05-03T10:18:25.999Z</time></trkpt><trkpt lat="44.74753837716571" lon="9.101479775666045"><ele>771.0</ele><time>2026-05-03T10:18:26.999Z</time></trkpt><trkpt lat="44.74756256835172" lon="9.10169461929953"><ele>772.0</ele><time>2026-05-03T10:18:27.999Z</time></trkpt><trkpt lat="44.74756942439708" lon="9.101908932169287"><ele>773.0</ele><time>2026-05-03T10:18:28.999Z</time></trkpt><trkpt lat="44.74756744807757" lon="9.1021284173448"><ele>774.0</ele><time>2026-05-03T10:18:29.999Z</time></trkpt><trkpt lat="44.74757048039992" lon="9.102354174400887"><ele>774.0</ele><time>2026-05-03T10:18:30.999Z</time></trkpt><trkpt lat="44.74757312447019" lon="9.102580288081011"><ele>774.0</ele><time>2026-05-03T10:18:31.998Z</time></trkpt><trkpt lat="44.74758522094867" lon="9.102791090156726"><ele>774.0</ele><time>2026-05-03T10:18:32.998Z</time></trkpt><trkpt lat="44.747615803468186" lon="9.10297613133171"><ele>774.0</ele><time>2026-05-03T10:18:33.998Z</time></trkpt><trkpt lat="44.747674988338225" lon="9.103125941910337"><ele>772.75</ele><time>2026-05-03T10:18:34.998Z</time></trkpt><trkpt lat="44.74775510517511" lon="9.103241672069805"><ele>771.5</ele><time>2026-05-03T10:18:35.998Z</time></trkpt><trkpt lat="44.74785123989025" lon="9.103337079820593"><ele>770.25</ele><time>2026-05-03T10:18:36.998Z</time></trkpt><trkpt lat="44.747957784848424" lon="9.10341886199063"><ele>769.0</ele><time>2026-05-03T10:18:37.998Z</time></trkpt><trkpt lat="44.74807114503083" lon="9.10349364377133"><ele>769.0</ele><time>2026-05-03T10:18:38.998Z</time></trkpt><trkpt lat="44.748185194319824" lon="9.10356687843204"><ele>769.0</ele><time>2026-05-03T10:18:39.998Z</time></trkpt><trkpt lat="44.748301466035656" lon="9.103639677195673"><ele>769.0</ele><time>2026-05-03T10:18:40.998Z</time></trkpt><trkpt lat="44.74842802045056" lon="9.103691645760213"><ele>769.0</ele><time>2026-05-03T10:18:41.998Z</time></trkpt><trkpt lat="44.74856078439205" lon="9.103731326667798"><ele>768.5</ele><time>2026-05-03T10:18:42.998Z</time></trkpt><trkpt lat="44.74869765359096" lon="9.103756140419533"><ele>768.0</ele><time>2026-05-03T10:18:43.998Z</time></trkpt><trkpt lat="44.748833281541266" lon="9.103772674252815"><ele>767.5</ele><time>2026-05-03T10:18:44.998Z</time></trkpt><trkpt lat="44.74895888541643" lon="9.103803020225568"><ele>767.0</ele><time>2026-05-03T10:18:45.998Z</time></trkpt><trkpt lat="44.7490668515066" lon="9.103857805478018"><ele>767.0</ele><time>2026-05-03T10:18:46.998Z</time></trkpt><trkpt lat="44.74915875612259" lon="9.103981483175097"><ele>767.0</ele><time>2026-05-03T10:18:47.998Z</time></trkpt><trkpt lat="44.749276799349815" lon="9.104090124078924"><ele>767.0</ele><time>2026-05-03T10:18:48.998Z</time></trkpt><trkpt lat="44.74939292044154" lon="9.104220988652145"><ele>767.0</ele><time>2026-05-03T10:18:49.998Z</time></trkpt><trkpt lat="44.74951214015549" lon="9.104348468983229"><ele>768.75</ele><time>2026-05-03T10:18:50.998Z</time></trkpt><trkpt lat="44.74962958163059" lon="9.10447851108975"><ele>770.5</ele><time>2026-05-03T10:18:51.998Z</time></trkpt><trkpt lat="44.74973700806835" lon="9.10461880578548"><ele>772.25</ele><time>2026-05-03T10:18:52.998Z</time></trkpt><trkpt lat="44.74984674587218" lon="9.104765422530539"><ele>774.0</ele><time>2026-05-03T10:18:53.998Z</time></trkpt><trkpt lat="44.749957401847176" lon="9.104924560941479"><ele>776.3333333333333</ele><time>2026-05-03T10:18:54.998Z</time></trkpt><trkpt lat="44.75006657375228" lon="9.105082818374028"><ele>778.6666666666666</ele><time>2026-05-03T10:18:55.998Z</time></trkpt><trkpt lat="44.75018861627373" lon="9.105223996547256"><ele>781.0</ele><time>2026-05-03T10:18:57Z</time></trkpt><trkpt lat="44.750321091899906" lon="9.105344322066086"><ele>781.0</ele><time>2026-05-03T10:18:58Z</time></trkpt><trkpt lat="44.750467565310835" lon="9.105445499255598"><ele>781.0</ele><time>2026-05-03T10:18:59Z</time></trkpt><trkpt lat="44.750623282415546" lon="9.105537505806037"><ele>781.0</ele><time>2026-05-03T10:19:00Z</time></trkpt><trkpt lat="44.75078369838864" lon="9.105626541632791"><ele>781.0</ele><time>2026-05-03T10:19:01Z</time></trkpt><trkpt lat="44.75093204066382" lon="9.105707565810459"><ele>781.0</ele><time>2026-05-03T10:19:02Z</time></trkpt><trkpt lat="44.75106089006509" lon="9.105783236131865"><ele>781.0</ele><time>2026-05-03T10:19:03Z</time></trkpt><trkpt lat="44.75117977504138" lon="9.10584405278392"><ele>781.0</ele><time>2026-05-03T10:19:04Z</time></trkpt><trkpt lat="44.751285019198335" lon="9.105900092710026"><ele>783.4</ele><time>2026-05-03T10:19:05Z</time></trkpt><trkpt lat="44.75137154782478" lon="9.105968771238338"><ele>785.8</ele><time>2026-05-03T10:19:06Z</time></trkpt><trkpt lat="44.751454157676925" lon="9.106056791209957"><ele>788.1999999999999</ele><time>2026-05-03T10:19:07Z</time></trkpt><trkpt lat="44.751541034487666" lon="9.106159721982843"><ele>790.5999999999999</ele><time>2026-05-03T10:19:08Z</time></trkpt><trkpt lat="44.751632426765475" lon="9.106246810807603"><ele>793.0</ele><time>2026-05-03T10:19:09Z</time></trkpt><trkpt lat="44.751733645447416" lon="9.106295548178482"><ele>793.0</ele><time>2026-05-03T10:19:10Z</time></trkpt><trkpt lat="44.75184510412919" lon="9.106335434128349"><ele>793.0</ele><time>2026-05-03T10:19:11Z</time></trkpt><trkpt lat="44.751967040010975" lon="9.10638566322332"><ele>793.0</ele><time>2026-05-03T10:19:12Z</time></trkpt><trkpt lat="44.75208269928077" lon="9.106446340795276"><ele>793.0</ele><time>2026-05-03T10:19:13Z</time></trkpt><trkpt lat="44.752193878163915" lon="9.106507404208884"><ele>792.5999999999999</ele><time>2026-05-03T10:19:14Z</time></trkpt><trkpt lat="44.75229211389394" lon="9.106569618670004"><ele>792.1999999999999</ele><time>2026-05-03T10:19:15Z</time></trkpt><trkpt lat="44.752394804181336" lon="9.106603792948524"><ele>791.8</ele><time>2026-05-03T10:19:16Z</time></trkpt><trkpt lat="44.75250633664495" lon="9.106624816066558"><ele>791.4</ele><time>2026-05-03T10:19:17Z</time></trkpt><trkpt lat="44.752616189058315" lon="9.106607757195407"><ele>791.0</ele><time>2026-05-03T10:19:18Z</time></trkpt><trkpt lat="44.75272999246875" lon="9.106605569188561"><ele>793.8</ele><time>2026-05-03T10:19:19Z</time></trkpt><trkpt lat="44.75282005138489" lon="9.106646957968916"><ele>796.5999999999999</ele><time>2026-05-03T10:19:20Z</time></trkpt><trkpt lat="44.75289195828281" lon="9.106709611189894"><ele>799.4</ele><time>2026-05-03T10:19:21Z</time></trkpt><trkpt lat="44.75296677721447" lon="9.106814109000991"><ele>802.2</ele><time>2026-05-03T10:19:22Z</time></trkpt><trkpt lat="44.753022894854645" lon="9.106941452273867"><ele>805.0</ele><time>2026-05-03T10:19:23Z</time></trkpt><trkpt lat="44.75308146302833" lon="9.107072389252378"><ele>805.0</ele><time>2026-05-03T10:19:24Z</time></trkpt><trkpt lat="44.753158831954515" lon="9.107214332901751"><ele>805.0</ele><time>2026-05-03T10:19:25Z</time></trkpt><trkpt lat="44.753247115972066" lon="9.10734721415707"><ele>805.0</ele><time>2026-05-03T10:19:26Z</time></trkpt><trkpt lat="44.75332331822744" lon="9.107473162866077"><ele>805.0</ele><time>2026-05-03T10:19:27Z</time></trkpt><trkpt lat="44.75337346337687" lon="9.10759417623943"><ele>806.9999999999999</ele><time>2026-05-03T10:19:28Z</time></trkpt><trkpt lat="44.75340359154606" lon="9.107709992640748"><ele>809.0</ele><time>2026-05-03T10:19:29Z</time></trkpt><trkpt lat="44.75342348646497" lon="9.107809227130247"><ele>811.0</ele><time>2026-05-03T10:19:30Z</time></trkpt><trkpt lat="44.75342386436232" lon="9.107919020951066"><ele>813.0</ele><time>2026-05-03T10:19:31Z</time></trkpt><trkpt lat="44.75342096829477" lon="9.108045646873547"><ele>814.9999999999999</ele><time>2026-05-03T10:19:32Z</time></trkpt><trkpt lat="44.75340945438331" lon="9.108183517885218"><ele>817.0</ele><time>2026-05-03T10:19:33Z</time></trkpt><trkpt lat="44.75340942578099" lon="9.108350581880195"><ele>818.5</ele><time>2026-05-03T10:19:34Z</time></trkpt><trkpt lat="44.75340460857578" lon="9.108526718080153"><ele>820.0</ele><time>2026-05-03T10:19:35Z</time></trkpt><trkpt lat="44.75337285251735" lon="9.108699319377843"><ele>821.5</ele><time>2026-05-03T10:19:36Z</time></trkpt><trkpt lat="44.753325287135304" lon="9.10885561650676"><ele>823.0</ele><time>2026-05-03T10:19:37Z</time></trkpt><trkpt lat="44.75327896131993" lon="9.10898908805196"><ele>822.4</ele><time>2026-05-03T10:19:38Z</time></trkpt><trkpt lat="44.75323121560885" lon="9.109137337152601"><ele>821.8</ele><time>2026-05-03T10:19:39Z</time></trkpt><trkpt lat="44.75317626195193" lon="9.109266742750387"><ele>821.2</ele><time>2026-05-03T10:19:40Z</time></trkpt><trkpt lat="44.75312896085655" lon="9.109375604296355"><ele>820.6</ele><time>2026-05-03T10:19:41Z</time></trkpt><trkpt lat="44.75308189550767" lon="9.109462049086485"><ele>820.0</ele><time>2026-05-03T10:19:41.999Z</time></trkpt><trkpt lat="44.75301293214548" lon="9.109535344229826"><ele>820.0</ele><time>2026-05-03T10:19:42.999Z</time></trkpt><trkpt lat="44.752929552849274" lon="9.109603101723723"><ele>820.0</ele><time>2026-05-03T10:19:43.999Z</time></trkpt><trkpt lat="44.75284610325073" lon="9.109702810455126"><ele>820.0</ele><time>2026-05-03T10:19:44.999Z</time></trkpt><trkpt lat="44.752758274343975" lon="9.10980762628077"><ele>820.0</ele><time>2026-05-03T10:19:45.999Z</time></trkpt><trkpt lat="44.75267411157569" lon="9.109918973828284"><ele>820.0</ele><time>2026-05-03T10:19:46.999Z</time></trkpt><trkpt lat="44.75258800503833" lon="9.11002415082912"><ele>822.0</ele><time>2026-05-03T10:19:47.999Z</time></trkpt><trkpt lat="44.75248623763799" lon="9.110104969361446"><ele>824.0</ele><time>2026-05-03T10:19:48.999Z</time></trkpt><trkpt lat="44.75238035594282" lon="9.110178266184828"><ele>826.0</ele><time>2026-05-03T10:19:49.999Z</time></trkpt><trkpt lat="44.75227637531763" lon="9.110204237155"><ele>828.0</ele><time>2026-05-03T10:19:50.999Z</time></trkpt><trkpt lat="44.75217141323981" lon="9.110199741161388"><ele>830.0</ele><time>2026-05-03T10:19:51.999Z</time></trkpt><trkpt lat="44.75205571521583" lon="9.110221821504306"><ele>830.0000000000001</ele><time>2026-05-03T10:19:52.999Z</time></trkpt><trkpt lat="44.75194644230459" lon="9.11025615609717"><ele>830.0</ele><time>2026-05-03T10:19:53.999Z</time></trkpt><trkpt lat="44.751862805689534" lon="9.11030968696728"><ele>830.0</ele><time>2026-05-03T10:19:54.999Z</time></trkpt><trkpt lat="44.75181880207758" lon="9.110389396137785"><ele>830.0</ele><time>2026-05-03T10:19:55.999Z</time></trkpt><trkpt lat="44.75181433302787" lon="9.110482840900469"><ele>830.0000000000001</ele><time>2026-05-03T10:19:56.999Z</time></trkpt><trkpt lat="44.75185090906221" lon="9.110610444488442"><ele>830.0</ele><time>2026-05-03T10:19:57.999Z</time></trkpt><trkpt lat="44.751883663938294" lon="9.110737850280787"><ele>829.0000000000001</ele><time>2026-05-03T10:19:58.999Z</time></trkpt><trkpt lat="44.751910791468504" lon="9.110866310398539"><ele>828.0</ele><time>2026-05-03T10:19:59.999Z</time></trkpt><trkpt lat="44.751941014150965" lon="9.111000856814266"><ele>827.0</ele><time>2026-05-03T10:20:00.999Z</time></trkpt><trkpt lat="44.751950488140004" lon="9.11110151461527"><ele>826.0</ele><time>2026-05-03T10:20:01.999Z</time></trkpt><trkpt lat="44.751920282691266" lon="9.111186461611664"><ele>825.0000000000001</ele><time>2026-05-03T10:20:02.999Z</time></trkpt><trkpt lat="44.75190848885601" lon="9.111300486931906"><ele>824.0</ele><time>2026-05-03T10:20:03.999Z</time></trkpt><trkpt lat="44.751875834254776" lon="9.111403209293785"><ele>824.0000000000001</ele><time>2026-05-03T10:20:04.999Z</time></trkpt><trkpt lat="44.75189136381511" lon="9.111497154806855"><ele>824.0</ele><time>2026-05-03T10:20:05.999Z</time></trkpt><trkpt lat="44.75190171695545" lon="9.111586466517467"><ele>824.0</ele><time>2026-05-03T10:20:06.999Z</time></trkpt><trkpt lat="44.75191736494298" lon="9.111687875770036"><ele>824.0</ele><time>2026-05-03T10:20:07.999Z</time></trkpt><trkpt lat="44.75192718702569" lon="9.111798706708127"><ele>824.0000000000001</ele><time>2026-05-03T10:20:08.999Z</time></trkpt><trkpt lat="44.75191241281657" lon="9.111922489319275"><ele>824.0</ele><time>2026-05-03T10:20:09.999Z</time></trkpt><trkpt lat="44.751886906434855" lon="9.112033544835798"><ele>823.8333333333334</ele><time>2026-05-03T10:20:10.999Z</time></trkpt><trkpt lat="44.75186745122345" lon="9.112127619297363"><ele>823.6666666666667</ele><time>2026-05-03T10:20:11.999Z</time></trkpt><trkpt lat="44.75183036489175" lon="9.1122883528627"><ele>823.5</ele><time>2026-05-03T10:20:13.999Z</time></trkpt><trkpt lat="44.75181570958181" lon="9.112375158439018"><ele>823.3333333333333</ele><time>2026-05-03T10:20:14.999Z</time></trkpt><trkpt lat="44.75180716467572" lon="9.112486345243685"><ele>823.1666666666666</ele><time>2026-05-03T10:20:15.999Z</time></trkpt><trkpt lat="44.751831407533956" lon="9.112600989255586"><ele>823.0</ele><time>2026-05-03T10:20:16.999Z</time></trkpt><trkpt lat="44.75189402635942" lon="9.1127011270653"><ele>823.0</ele><time>2026-05-03T10:20:17.999Z</time></trkpt><trkpt lat="44.75198063727798" lon="9.112775111204664"><ele>823.0</ele><time>2026-05-03T10:20:18.999Z</time></trkpt><trkpt lat="44.75205516048409" lon="9.112846362549977"><ele>823.0</ele><time>2026-05-03T10:20:19.999Z</time></trkpt><trkpt lat="44.752098788514196" lon="9.112950465084351"><ele>823.0</ele><time>2026-05-03T10:20:20.999Z</time></trkpt><trkpt lat="44.752163563179785" lon="9.113042270870586"><ele>823.0</ele><time>2026-05-03T10:20:21.999Z</time></trkpt><trkpt lat="44.75220217913521" lon="9.113160547603156"><ele>822.8333333333333</ele><time>2026-05-03T10:20:22.999Z</time></trkpt><trkpt lat="44.7522135780701" lon="9.113247746702426"><ele>822.6666666666666</ele><time>2026-05-03T10:20:23.999Z</time></trkpt><trkpt lat="44.752200980615335" lon="9.113356084993821"><ele>822.5</ele><time>2026-05-03T10:20:27.999Z</time></trkpt><trkpt lat="44.75213685578841" lon="9.113471026421248"><ele>822.3333333333333</ele><time>2026-05-03T10:20:34.998Z</time></trkpt><trkpt lat="44.75203832701494" lon="9.113431652747224"><ele>822.1666666666666</ele><time>2026-05-03T10:20:35.998Z</time></trkpt><trkpt lat="44.75196283812641" lon="9.113422116946548"><ele>822.0</ele><time>2026-05-03T10:20:36.998Z</time></trkpt><trkpt lat="44.75188149555531" lon="9.11337562349965"><ele>824.4000000000001</ele><time>2026-05-03T10:20:37.998Z</time></trkpt><trkpt lat="44.751810207143" lon="9.113315003488388"><ele>826.8000000000001</ele><time>2026-05-03T10:20:38.998Z</time></trkpt><trkpt lat="44.75173468102027" lon="9.113245811712252"><ele>829.2</ele><time>2026-05-03T10:20:39.998Z</time></trkpt><trkpt lat="44.751657100376676" lon="9.113170446023478"><ele>831.6</ele><time>2026-05-03T10:20:40.998Z</time></trkpt><trkpt lat="44.751580393507204" lon="9.113081539351803"><ele>834.0</ele><time>2026-05-03T10:20:41.998Z</time></trkpt><trkpt lat="44.75149825479026" lon="9.112990439946218"><ele>835.6</ele><time>2026-05-03T10:20:42.998Z</time></trkpt><trkpt lat="44.751417979708066" lon="9.112903844432617"><ele>837.2</ele><time>2026-05-03T10:20:43.998Z</time></trkpt><trkpt lat="44.75133122095919" lon="9.112798760707847"><ele>838.8000000000001</ele><time>2026-05-03T10:20:44.998Z</time></trkpt><trkpt lat="44.75126142098508" lon="9.112708051531209"><ele>840.4000000000001</ele><time>2026-05-03T10:20:45.998Z</time></trkpt><trkpt lat="44.75120697032196" lon="9.11264020334287"><ele>842.0</ele><time>2026-05-03T10:20:46.998Z</time></trkpt><trkpt lat="44.75115314325755" lon="9.112580192986883"><ele>842.0</ele><time>2026-05-03T10:20:47.998Z</time></trkpt><trkpt lat="44.751088248811506" lon="9.112512960360167"><ele>842.0</ele><time>2026-05-03T10:20:48.998Z</time></trkpt><trkpt lat="44.7510162533878" lon="9.112431468466353"><ele>842.0</ele><time>2026-05-03T10:20:49.998Z</time></trkpt><trkpt lat="44.750940600141114" lon="9.112334974133939"><ele>842.0</ele><time>2026-05-03T10:20:50.998Z</time></trkpt><trkpt lat="44.75086034342309" lon="9.11222015820586"><ele>842.0</ele><time>2026-05-03T10:20:51.998Z</time></trkpt><trkpt lat="44.75078210003158" lon="9.11208483303226"><ele>847.5</ele><time>2026-05-03T10:20:52.998Z</time></trkpt><trkpt lat="44.7507038564377" lon="9.111937044374498"><ele>853.0</ele><time>2026-05-03T10:20:53.998Z</time></trkpt><trkpt lat="44.750641662562444" lon="9.11177859312469"><ele>858.5</ele><time>2026-05-03T10:20:54.998Z</time></trkpt><trkpt lat="44.750609650817545" lon="9.111620705031273"><ele>864.0</ele><time>2026-05-03T10:20:55.998Z</time></trkpt><trkpt lat="44.75055859558247" lon="9.11149276623899"><ele>866.0</ele><time>2026-05-03T10:20:56.998Z</time></trkpt><trkpt lat="44.750471512256134" lon="9.111431113253532"><ele>868.0000000000001</ele><time>2026-05-03T10:20:57.998Z</time></trkpt><trkpt lat="44.75037609563413" lon="9.111396435230665"><ele>870.0000000000001</ele><time>2026-05-03T10:20:58.998Z</time></trkpt><trkpt lat="44.75028150262449" lon="9.111362414634334"><ele>872.0</ele><time>2026-05-03T10:20:59.998Z</time></trkpt><trkpt lat="44.750187907236004" lon="9.111319408825048"><ele>874.0</ele><time>2026-05-03T10:21:00.998Z</time></trkpt><trkpt lat="44.75009475077621" lon="9.111267643583838"><ele>876.4999999999999</ele><time>2026-05-03T10:21:01.998Z</time></trkpt><trkpt lat="44.75000749662982" lon="9.111205433185052"><ele>879.0</ele><time>2026-05-03T10:21:03Z</time></trkpt><trkpt lat="44.74992368834039" lon="9.111143708840967"><ele>881.5</ele><time>2026-05-03T10:21:04Z</time></trkpt><trkpt lat="44.74984915728276" lon="9.11107775583826"><ele>884.0</ele><time>2026-05-03T10:21:05Z</time></trkpt><trkpt lat="44.749782116328106" lon="9.111011928343032"><ele>886.4999999999999</ele><time>2026-05-03T10:21:06Z</time></trkpt><trkpt lat="44.74971866279392" lon="9.110938493667472"><ele>889.0</ele><time>2026-05-03T10:21:07Z</time></trkpt><trkpt lat="44.74964570253901" lon="9.110852282884515"><ele>889.0</ele><time>2026-05-03T10:21:08Z</time></trkpt><trkpt lat="44.74956040689779" lon="9.110767529524791"><ele>889.0000000000001</ele><time>2026-05-03T10:21:09Z</time></trkpt><trkpt lat="44.74945886477083" lon="9.110703284044462"><ele>889.0000000000001</ele><time>2026-05-03T10:21:10Z</time></trkpt><trkpt lat="44.74934919507603" lon="9.110664558932603"><ele>889.0</ele><time>2026-05-03T10:21:11Z</time></trkpt><trkpt lat="44.74925914139319" lon="9.110644025279901"><ele>889.0</ele><time>2026-05-03T10:21:12Z</time></trkpt><trkpt lat="44.74918747995717" lon="9.110630003447403"><ele>889.9999999999999</ele><time>2026-05-03T10:21:13Z</time></trkpt><trkpt lat="44.7490943082209" lon="9.110593202343233"><ele>891.0</ele><time>2026-05-03T10:21:15Z</time></trkpt><trkpt lat="44.74901378483595" lon="9.110566274471122"><ele>892.0</ele><time>2026-05-03T10:21:18Z</time></trkpt><trkpt lat="44.74893230447814" lon="9.110547443820812"><ele>893.0</ele><time>2026-05-03T10:21:20Z</time></trkpt><trkpt lat="44.74883477182779" lon="9.110545670185271"><ele>893.9999999999999</ele><time>2026-05-03T10:21:22Z</time></trkpt><trkpt lat="44.74876352759428" lon="9.110551209645468"><ele>895.0</ele><time>2026-05-03T10:21:23Z</time></trkpt><trkpt lat="44.74867939359036" lon="9.11055648112306"><ele>895.0</ele><time>2026-05-03T10:21:24Z</time></trkpt><trkpt lat="44.74858630658369" lon="9.110577167154158"><ele>895.0</ele><time>2026-05-03T10:21:25Z</time></trkpt><trkpt lat="44.74851272533147" lon="9.110602649326877"><ele>895.0</ele><time>2026-05-03T10:21:26Z</time></trkpt><trkpt lat="44.74842292122845" lon="9.11063879098317"><ele>895.0</ele><time>2026-05-03T10:21:27Z</time></trkpt><trkpt lat="44.748321718147565" lon="9.11066851060469"><ele>895.0</ele><time>2026-05-03T10:21:28Z</time></trkpt><trkpt lat="44.74821571984423" lon="9.110698362846547"><ele>895.8</ele><time>2026-05-03T10:21:29Z</time></trkpt><trkpt lat="44.74811561693586" lon="9.110725515749333"><ele>896.6</ele><time>2026-05-03T10:21:30Z</time></trkpt><trkpt lat="44.748022240247295" lon="9.11069787606417"><ele>897.4000000000001</ele><time>2026-05-03T10:21:31Z</time></trkpt><trkpt lat="44.747911847000786" lon="9.110679114154554"><ele>898.2</ele><time>2026-05-03T10:21:32Z</time></trkpt><trkpt lat="44.747813644031716" lon="9.110673653120092"><ele>899.0</ele><time>2026-05-03T10:21:33Z</time></trkpt><trkpt lat="44.74773373214407" lon="9.110638740669883"><ele>901.1666666666667</ele><time>2026-05-03T10:21:34Z</time></trkpt><trkpt lat="44.74765114366023" lon="9.110627463096966"><ele>903.3333333333334</ele><time>2026-05-03T10:21:35Z</time></trkpt><trkpt lat="44.74757302940041" lon="9.110659415303726"><ele>905.5</ele><time>2026-05-03T10:21:36Z</time></trkpt><trkpt lat="44.74748856069719" lon="9.110728583151511"><ele>907.6666666666667</ele><time>2026-05-03T10:21:37Z</time></trkpt><trkpt lat="44.747411666745016" lon="9.110778786938912"><ele>909.8333333333334</ele><time>2026-05-03T10:21:38Z</time></trkpt><trkpt lat="44.747324127311536" lon="9.110792854450949"><ele>912.0</ele><time>2026-05-03T10:21:39Z</time></trkpt><trkpt lat="44.74723800847217" lon="9.110786116387851"><ele>912.6666666666666</ele><time>2026-05-03T10:21:40Z</time></trkpt><trkpt lat="44.74715275829947" lon="9.110798821831992"><ele>913.3333333333333</ele><time>2026-05-03T10:21:41Z</time></trkpt><trkpt lat="44.74708743573268" lon="9.110857929581726"><ele>914.0</ele><time>2026-05-03T10:21:42Z</time></trkpt><trkpt lat="44.747038975423806" lon="9.110963520355437"><ele>914.6666666666666</ele><time>2026-05-03T10:21:43Z</time></trkpt><trkpt lat="44.746999652992194" lon="9.111095899827408"><ele>915.3333333333333</ele><time>2026-05-03T10:21:44Z</time></trkpt><trkpt lat="44.746939773024266" lon="9.111176255935353"><ele>916.0</ele><time>2026-05-03T10:21:44.999Z</time></trkpt><trkpt lat="44.74687265991919" lon="9.11124257960335"><ele>920.5999999999999</ele><time>2026-05-03T10:21:45.999Z</time></trkpt><trkpt lat="44.7467915924153" lon="9.111284243642464"><ele>925.1999999999999</ele><time>2026-05-03T10:21:46.999Z</time></trkpt><trkpt lat="44.7467067967113" lon="9.11135034085518"><ele>929.8000000000001</ele><time>2026-05-03T10:21:47.999Z</time></trkpt><trkpt lat="44.74659135470131" lon="9.111421755978817"><ele>934.4000000000001</ele><time>2026-05-03T10:21:48.999Z</time></trkpt><trkpt lat="44.74651058895425" lon="9.111442740894427"><ele>939.0</ele><time>2026-05-03T10:21:49.999Z</time></trkpt><trkpt lat="44.74643184991307" lon="9.111480858010252"><ele>939.0</ele><time>2026-05-03T10:21:50.999Z</time></trkpt><trkpt lat="44.74633849273844" lon="9.111558832949138"><ele>939.0000000000001</ele><time>2026-05-03T10:21:52.999Z</time></trkpt><trkpt lat="44.74624949495585" lon="9.11164106190061"><ele>939.0000000000001</ele><time>2026-05-03T10:21:54.999Z</time></trkpt><trkpt lat="44.74621616191166" lon="9.111757900285127"><ele>939.0</ele><time>2026-05-03T10:21:55.999Z</time></trkpt><trkpt lat="44.7462319942044" lon="9.111881303723369"><ele>939.0</ele><time>2026-05-03T10:21:56.999Z</time></trkpt><trkpt lat="44.746227244249546" lon="9.111991322539426"><ele>938.5714285714287</ele><time>2026-05-03T10:21:57.999Z</time></trkpt><trkpt lat="44.74621248802689" lon="9.11209459996222"><ele>938.1428571428571</ele><time>2026-05-03T10:21:58.999Z</time></trkpt><trkpt lat="44.746197884174826" lon="9.112191738421105"><ele>937.7142857142858</ele><time>2026-05-03T10:21:59.999Z</time></trkpt><trkpt lat="44.74618369735428" lon="9.112284082161068"><ele>937.2857142857143</ele><time>2026-05-03T10:22:00.999Z</time></trkpt><trkpt lat="44.746171509679854" lon="9.112384811796808"><ele>936.8571428571429</ele><time>2026-05-03T10:22:01.999Z</time></trkpt><trkpt lat="44.74615993948747" lon="9.112480438134032"><ele>936.4285714285714</ele><time>2026-05-03T10:22:02.999Z</time></trkpt><trkpt lat="44.74613881600581" lon="9.112577793151504"><ele>936.0</ele><time>2026-05-03T10:22:03.999Z</time></trkpt><trkpt lat="44.746079201950145" lon="9.112727296422772"><ele>940.5</ele><time>2026-05-03T10:22:05.999Z</time></trkpt><trkpt lat="44.74598373963874" lon="9.112857981577907"><ele>945.0</ele><time>2026-05-03T10:22:07.999Z</time></trkpt><trkpt lat="44.74592839432472" lon="9.112923222172967"><ele>949.5</ele><time>2026-05-03T10:22:08.999Z</time></trkpt><trkpt lat="44.74587330698155" lon="9.11297852008584"><ele>954.0</ele><time>2026-05-03T10:22:09.999Z</time></trkpt><trkpt lat="44.74581306816636" lon="9.113021594009888"><ele>958.5</ele><time>2026-05-03T10:22:10.999Z</time></trkpt><trkpt lat="44.74574148962788" lon="9.1130566618373"><ele>963.0</ele><time>2026-05-03T10:22:11.999Z</time></trkpt><trkpt lat="44.745668438763474" lon="9.113083662942984"><ele>963.0</ele><time>2026-05-03T10:22:12.999Z</time></trkpt><trkpt lat="44.745583188164936" lon="9.113103174902959"><ele>963.0</ele><time>2026-05-03T10:22:14.999Z</time></trkpt><trkpt lat="44.74556971044762" lon="9.112983459454469"><ele>963.0</ele><time>2026-05-03T10:22:38.998Z</time></trkpt><trkpt lat="44.745605208233954" lon="9.112879368058909"><ele>963.0</ele><time>2026-05-03T10:22:40.998Z</time></trkpt><trkpt lat="44.74560782679385" lon="9.112788224246069"><ele>963.0</ele><time>2026-05-03T10:22:41.998Z</time></trkpt><trkpt lat="44.74562628494382" lon="9.112665410757518"><ele>963.0</ele><time>2026-05-03T10:22:42.998Z</time></trkpt><trkpt lat="44.74564362621894" lon="9.112560762605733"><ele>963.0</ele><time>2026-05-03T10:22:43.998Z</time></trkpt><trkpt lat="44.74566084328288" lon="9.112459829924473"><ele>963.0</ele><time>2026-05-03T10:22:44.998Z</time></trkpt><trkpt lat="44.745685961855834" lon="9.112362305360723"><ele>963.0</ele><time>2026-05-03T10:22:45.998Z</time></trkpt><trkpt lat="44.74571225604308" lon="9.112261920616088"><ele>963.0</ele><time>2026-05-03T10:22:46.998Z</time></trkpt><trkpt lat="44.74568889516895" lon="9.112113509729376"><ele>963.0</ele><time>2026-05-03T10:22:48.998Z</time></trkpt><trkpt lat="44.745607199370575" lon="9.112015848537606"><ele>963.0</ele><time>2026-05-03T10:22:49.998Z</time></trkpt><trkpt lat="44.745505370718185" lon="9.111924856795635"><ele>963.0</ele><time>2026-05-03T10:22:50.998Z</time></trkpt><trkpt lat="44.74536413061133" lon="9.111844278760927"><ele>963.0</ele><time>2026-05-03T10:22:51.998Z</time></trkpt><trkpt lat="44.7452315741242" lon="9.111749395247962"><ele>963.0</ele><time>2026-05-03T10:22:52.998Z</time></trkpt><trkpt lat="44.74515386801153" lon="9.111646965280489"><ele>963.0</ele><time>2026-05-03T10:22:53.998Z</time></trkpt><trkpt lat="44.74509437839992" lon="9.111539948756976"><ele>968.75</ele><time>2026-05-03T10:22:54.998Z</time></trkpt><trkpt lat="44.745038132136564" lon="9.111413280942228"><ele>974.5</ele><time>2026-05-03T10:22:55.998Z</time></trkpt><trkpt lat="44.745006219299775" lon="9.111288109100814"><ele>980.25</ele><time>2026-05-03T10:22:56.998Z</time></trkpt><trkpt lat="44.745031714461916" lon="9.111119469510363"><ele>986.0</ele><time>2026-05-03T10:22:57.998Z</time></trkpt><trkpt lat="44.74504970457612" lon="9.110934221788622"><ele>986.0</ele><time>2026-05-03T10:22:58.998Z</time></trkpt><trkpt lat="44.745027346856865" lon="9.110787841155174"><ele>985.9999999999999</ele><time>2026-05-03T10:22:59.998Z</time></trkpt><trkpt lat="44.74497863515934" lon="9.110703194031025"><ele>985.9999999999999</ele><time>2026-05-03T10:23:00.998Z</time></trkpt><trkpt lat="44.74492475465509" lon="9.110619239271989"><ele>986.0</ele><time>2026-05-03T10:23:01.998Z</time></trkpt><trkpt lat="44.744816694969195" lon="9.110583839504411"><ele>986.0</ele><time>2026-05-03T10:23:02.998Z</time></trkpt><trkpt lat="44.744712211363314" lon="9.110589442220249"><ele>986.0</ele><time>2026-05-03T10:23:03.998Z</time></trkpt><trkpt lat="44.74460906607272" lon="9.1106477116838"><ele>985.9999999999999</ele><time>2026-05-03T10:23:04.998Z</time></trkpt><trkpt lat="44.744510591793095" lon="9.110708866336015"><ele>985.9999999999999</ele><time>2026-05-03T10:23:05.998Z</time></trkpt><trkpt lat="44.74441931563416" lon="9.110775398922947"><ele>986.0</ele><time>2026-05-03T10:23:06.998Z</time></trkpt><trkpt lat="44.74433732876163" lon="9.110849426604506"><ele>986.0</ele><time>2026-05-03T10:23:07.998Z</time></trkpt><trkpt lat="44.74428502920053" lon="9.110931771147554"><ele>989.1666666666667</ele><time>2026-05-03T10:23:09Z</time></trkpt><trkpt lat="44.744250261007736" lon="9.111016837796809"><ele>992.3333333333334</ele><time>2026-05-03T10:23:10Z</time></trkpt><trkpt lat="44.74423617685315" lon="9.111116446205099"><ele>995.5</ele><time>2026-05-03T10:23:11Z</time></trkpt><trkpt lat="44.74423744812989" lon="9.111252764803321"><ele>998.6666666666667</ele><time>2026-05-03T10:23:12Z</time></trkpt><trkpt lat="44.74425513227209" lon="9.111384215981737"><ele>1001.8333333333334</ele><time>2026-05-03T10:23:13Z</time></trkpt><trkpt lat="44.744236236992734" lon="9.111513948237935"><ele>1005.0</ele><time>2026-05-03T10:23:14Z</time></trkpt><trkpt lat="44.74421631521613" lon="9.111639897509848"><ele>1005.8333333333334</ele><time>2026-05-03T10:23:15Z</time></trkpt><trkpt lat="44.744179007746396" lon="9.111767711752888"><ele>1006.6666666666667</ele><time>2026-05-03T10:23:16Z</time></trkpt><trkpt lat="44.744159089448154" lon="9.111874169588582"><ele>1007.5</ele><time>2026-05-03T10:23:17Z</time></trkpt><trkpt lat="44.74415683802254" lon="9.111973732236516"><ele>1008.3333333333334</ele><time>2026-05-03T10:23:18Z</time></trkpt><trkpt lat="44.74420009498686" lon="9.112077145128353"><ele>1009.1666666666667</ele><time>2026-05-03T10:23:19Z</time></trkpt><trkpt lat="44.744244014789" lon="9.112208367244078"><ele>1010.0</ele><time>2026-05-03T10:23:20Z</time></trkpt><trkpt lat="44.74429396826472" lon="9.112332016761163"><ele>1011.3333333333334</ele><time>2026-05-03T10:23:21Z</time></trkpt><trkpt lat="44.74435327831556" lon="9.1124657659408"><ele>1012.6666666666667</ele><time>2026-05-03T10:23:22Z</time></trkpt><trkpt lat="44.7444031944413" lon="9.112560734162523"><ele>1014.0</ele><time>2026-05-03T10:23:23Z</time></trkpt><trkpt lat="44.74444823124996" lon="9.112641937638033"><ele>1015.3333333333333</ele><time>2026-05-03T10:23:24Z</time></trkpt><trkpt lat="44.74441452983664" lon="9.112728541599127"><ele>1016.6666666666666</ele><time>2026-05-03T10:23:25Z</time></trkpt><trkpt lat="44.744372103423714" lon="9.112808625861565"><ele>1018.0</ele><time>2026-05-03T10:23:26Z</time></trkpt><trkpt lat="44.7443245507556" lon="9.112920006902485"><ele>1017.9999999999999</ele><time>2026-05-03T10:23:27Z</time></trkpt><trkpt lat="44.74427408454749" lon="9.113019546553026"><ele>1018.0</ele><time>2026-05-03T10:23:28Z</time></trkpt><trkpt lat="44.74421633614449" lon="9.113123184983081"><ele>1018.0</ele><time>2026-05-03T10:23:29Z</time></trkpt><trkpt lat="44.74415898964162" lon="9.11322020877577"><ele>1018.0</ele><time>2026-05-03T10:23:30Z</time></trkpt><trkpt lat="44.74412443445264" lon="9.113308828010421"><ele>1017.9999999999999</ele><time>2026-05-03T10:23:31Z</time></trkpt><trkpt lat="44.74406789646765" lon="9.11335753281555"><ele>1018.0</ele><time>2026-05-03T10:23:32Z</time></trkpt><trkpt lat="44.743985760632015" lon="9.113444007686601"><ele>1019.0</ele><time>2026-05-03T10:23:34Z</time></trkpt><trkpt lat="44.743914306782216" lon="9.113488744277012"><ele>1020.0</ele><time>2026-05-03T10:23:37Z</time></trkpt><trkpt lat="44.74384269587727" lon="9.113558137213637"><ele>1021.0</ele><time>2026-05-03T10:23:39Z</time></trkpt><trkpt lat="44.743759581278624" lon="9.113598902182781"><ele>1022.0</ele><time>2026-05-03T10:23:41Z</time></trkpt><trkpt lat="44.74369560555893" lon="9.113669236019023"><ele>1023.0</ele><time>2026-05-03T10:23:43Z</time></trkpt><trkpt lat="44.74367650574217" lon="9.113839991037576"><ele>1023.0</ele><time>2026-05-03T10:23:45Z</time></trkpt><trkpt lat="44.74367303777249" lon="9.113931791189243"><ele>1023.0</ele><time>2026-05-03T10:23:46Z</time></trkpt><trkpt lat="44.74360587873069" lon="9.11409927432759"><ele>1023.0</ele><time>2026-05-03T10:23:48Z</time></trkpt><trkpt lat="44.74357689560201" lon="9.11419720226914"><ele>1023.0</ele><time>2026-05-03T10:23:49Z</time></trkpt><trkpt lat="44.74351975510246" lon="9.114268372344178"><ele>1023.0</ele><time>2026-05-03T10:23:50Z</time></trkpt><trkpt lat="44.74346434721488" lon="9.114339955516234"><ele>1023.0</ele><time>2026-05-03T10:23:51Z</time></trkpt><trkpt lat="44.74339099982857" lon="9.114410950405295"><ele>1025.3333333333333</ele><time>2026-05-03T10:23:51.999Z</time></trkpt><trkpt lat="44.74331842178264" lon="9.11448832886767"><ele>1027.6666666666667</ele><time>2026-05-03T10:23:52.999Z</time></trkpt><trkpt lat="44.74324728566537" lon="9.114571822060588"><ele>1030.0</ele><time>2026-05-03T10:23:53.999Z</time></trkpt><trkpt lat="44.74318172804448" lon="9.114655433338516"><ele>1032.3333333333335</ele><time>2026-05-03T10:23:54.999Z</time></trkpt><trkpt lat="44.74312359200352" lon="9.114741348169085"><ele>1034.6666666666667</ele><time>2026-05-03T10:23:55.999Z</time></trkpt><trkpt lat="44.74307611996394" lon="9.114837031410595"><ele>1037.0</ele><time>2026-05-03T10:23:56.999Z</time></trkpt><trkpt lat="44.74303200637886" lon="9.11492790871145"><ele>1037.0</ele><time>2026-05-03T10:23:57.999Z</time></trkpt><trkpt lat="44.74295408894572" lon="9.11503085985674"><ele>1037.0</ele><time>2026-05-03T10:23:59.999Z</time></trkpt><trkpt lat="44.742831902162415" lon="9.115013232222893"><ele>1037.0</ele><time>2026-05-03T10:24:01.999Z</time></trkpt><trkpt lat="44.74276024464485" lon="9.114990272514524"><ele>1037.0</ele><time>2026-05-03T10:24:02.999Z</time></trkpt><trkpt lat="44.74270087010675" lon="9.114944553274107"><ele>1037.0</ele><time>2026-05-03T10:24:03.999Z</time></trkpt><trkpt lat="44.7425768048717" lon="9.11498934893198"><ele>1041.0</ele><time>2026-05-03T10:24:05.999Z</time></trkpt><trkpt lat="44.74251089214741" lon="9.115033524498024"><ele>1045.0</ele><time>2026-05-03T10:24:06.999Z</time></trkpt><trkpt lat="44.74241433651139" lon="9.115048280180702"><ele>1049.0</ele><time>2026-05-03T10:24:07.999Z</time></trkpt><trkpt lat="44.74233259727258" lon="9.115088453577394"><ele>1053.0</ele><time>2026-05-03T10:24:08.999Z</time></trkpt><trkpt lat="44.742245750743756" lon="9.115122128482666"><ele>1057.0</ele><time>2026-05-03T10:24:09.999Z</time></trkpt><trkpt lat="44.74216879589417" lon="9.115178852085947"><ele>1061.0</ele><time>2026-05-03T10:24:10.999Z</time></trkpt><trkpt lat="44.74210596090273" lon="9.115260777056044"><ele>1061.0</ele><time>2026-05-03T10:24:11.999Z</time></trkpt><trkpt lat="44.74204407456002" lon="9.115334907031997"><ele>1061.0</ele><time>2026-05-03T10:24:12.999Z</time></trkpt><trkpt lat="44.74198185586041" lon="9.115391719442588"><ele>1061.0</ele><time>2026-05-03T10:24:13.999Z</time></trkpt><trkpt lat="44.74190978026487" lon="9.11537886247217"><ele>1061.0</ele><time>2026-05-03T10:24:14.999Z</time></trkpt><trkpt lat="44.741821753200156" lon="9.11539693258315"><ele>1061.0</ele><time>2026-05-03T10:24:15.999Z</time></trkpt><trkpt lat="44.74173289967904" lon="9.115375498887325"><ele>1061.0</ele><time>2026-05-03T10:24:16.999Z</time></trkpt><trkpt lat="44.741647946777526" lon="9.115363158428924"><ele>1064.2</ele><time>2026-05-03T10:24:17.999Z</time></trkpt><trkpt lat="44.74157067298768" lon="9.115359444551931"><ele>1067.3999999999999</ele><time>2026-05-03T10:24:18.999Z</time></trkpt><trkpt lat="44.74148248674302" lon="9.115362503563155"><ele>1070.6</ele><time>2026-05-03T10:24:19.999Z</time></trkpt><trkpt lat="44.74138404571521" lon="9.115383887953106"><ele>1073.8</ele><time>2026-05-03T10:24:20.999Z</time></trkpt><trkpt lat="44.74127518499149" lon="9.115387281177258"><ele>1077.0</ele><time>2026-05-03T10:24:21.999Z</time></trkpt><trkpt lat="44.7411656139368" lon="9.11539646193506"><ele>1077.0</ele><time>2026-05-03T10:24:22.999Z</time></trkpt><trkpt lat="44.74107139377121" lon="9.115384549063746"><ele>1077.0</ele><time>2026-05-03T10:24:23.999Z</time></trkpt><trkpt lat="44.74097648474318" lon="9.115354354874464"><ele>1077.0</ele><time>2026-05-03T10:24:24.999Z</time></trkpt><trkpt lat="44.74088550118612" lon="9.115338860950384"><ele>1077.0</ele><time>2026-05-03T10:24:25.999Z</time></trkpt><trkpt lat="44.74080823328164" lon="9.11530970243275"><ele>1077.0</ele><time>2026-05-03T10:24:26.999Z</time></trkpt><trkpt lat="44.740733629472196" lon="9.115306267619067"><ele>1077.0</ele><time>2026-05-03T10:24:27.999Z</time></trkpt><trkpt lat="44.74067059323754" lon="9.11533959862779"><ele>1078.4</ele><time>2026-05-03T10:24:28.999Z</time></trkpt><trkpt lat="44.740616392128736" lon="9.115509052591483"><ele>1079.8000000000002</ele><time>2026-05-03T10:24:30.999Z</time></trkpt><trkpt lat="44.740620159193625" lon="9.115642741081238"><ele>1081.2</ele><time>2026-05-03T10:24:31.999Z</time></trkpt><trkpt lat="44.74063518147459" lon="9.115784720759926"><ele>1082.6000000000001</ele><time>2026-05-03T10:24:32.999Z</time></trkpt><trkpt lat="44.7406405869883" lon="9.11594099966897"><ele>1084.0</ele><time>2026-05-03T10:24:33.999Z</time></trkpt><trkpt lat="44.740646060244615" lon="9.116102214206007"><ele>1084.0</ele><time>2026-05-03T10:24:34.999Z</time></trkpt><trkpt lat="44.740668091425846" lon="9.116228947327416"><ele>1084.0</ele><time>2026-05-03T10:24:35.999Z</time></trkpt><trkpt lat="44.74068615332626" lon="9.11633526653181"><ele>1084.0</ele><time>2026-05-03T10:24:36.999Z</time></trkpt><trkpt lat="44.74064563703469" lon="9.116447266060572"><ele>1084.0</ele><time>2026-05-03T10:24:37.999Z</time></trkpt><trkpt lat="44.7406280676448" lon="9.116597776281596"><ele>1084.0</ele><time>2026-05-03T10:24:38.999Z</time></trkpt><trkpt lat="44.74059553975128" lon="9.116755650764945"><ele>1085.8</ele><time>2026-05-03T10:24:39.999Z</time></trkpt><trkpt lat="44.74057750141606" lon="9.11689321967731"><ele>1087.6000000000001</ele><time>2026-05-03T10:24:40.999Z</time></trkpt><trkpt lat="44.740531380574645" lon="9.11701462553879"><ele>1089.4</ele><time>2026-05-03T10:24:41.999Z</time></trkpt><trkpt lat="44.740449869045506" lon="9.117092342030347"><ele>1091.2</ele><time>2026-05-03T10:24:42.998Z</time></trkpt><trkpt lat="44.74037607027644" lon="9.11717331545728"><ele>1093.0</ele><time>2026-05-03T10:24:43.998Z</time></trkpt><trkpt lat="44.740294317233555" lon="9.11724556805054"><ele>1095.4</ele><time>2026-05-03T10:24:44.998Z</time></trkpt><trkpt lat="44.74020938110273" lon="9.117296017795153"><ele>1097.8</ele><time>2026-05-03T10:24:45.998Z</time></trkpt><trkpt lat="44.74011407016908" lon="9.117339697304752"><ele>1100.2</ele><time>2026-05-03T10:24:46.998Z</time></trkpt><trkpt lat="44.740018797450254" lon="9.117402825521966"><ele>1102.6</ele><time>2026-05-03T10:24:47.998Z</time></trkpt><trkpt lat="44.73991951136983" lon="9.117433302822267"><ele>1105.0</ele><time>2026-05-03T10:24:48.998Z</time></trkpt><trkpt lat="44.739812782222536" lon="9.11747461823086"><ele>1105.0</ele><time>2026-05-03T10:24:49.998Z</time></trkpt><trkpt lat="44.73967880610394" lon="9.11752553676907"><ele>1105.0</ele><time>2026-05-03T10:24:50.998Z</time></trkpt><trkpt lat="44.739552174045336" lon="9.117568237354556"><ele>1105.0</ele><time>2026-05-03T10:24:51.998Z</time></trkpt><trkpt lat="44.7394433793455" lon="9.117608639203883"><ele>1105.0</ele><time>2026-05-03T10:24:52.998Z</time></trkpt><trkpt lat="44.73933514301937" lon="9.117638917698997"><ele>1109.2</ele><time>2026-05-03T10:24:53.998Z</time></trkpt><trkpt lat="44.73922436176736" lon="9.117656941714793"><ele>1113.4</ele><time>2026-05-03T10:24:54.998Z</time></trkpt><trkpt lat="44.73910179500019" lon="9.117654145369013"><ele>1117.6</ele><time>2026-05-03T10:24:55.998Z</time></trkpt><trkpt lat="44.73900477157235" lon="9.117704499736384"><ele>1121.8</ele><time>2026-05-03T10:24:56.998Z</time></trkpt><trkpt lat="44.73891223397736" lon="9.117735675150376"><ele>1126.0</ele><time>2026-05-03T10:24:57.998Z</time></trkpt><trkpt lat="44.73883321920241" lon="9.117740181538597"><ele>1126.0</ele><time>2026-05-03T10:24:58.998Z</time></trkpt><trkpt lat="44.73876198877601" lon="9.117717577038153"><ele>1126.0</ele><time>2026-05-03T10:25:00.998Z</time></trkpt><trkpt lat="44.73873762891042" lon="9.117596008114132"><ele>1126.0</ele><time>2026-05-03T10:25:02.998Z</time></trkpt><trkpt lat="44.738819637693204" lon="9.117376714063967"><ele>1126.0</ele><time>2026-05-03T10:25:05.998Z</time></trkpt><trkpt lat="44.738856178973684" lon="9.11729390512291"><ele>1126.0</ele><time>2026-05-03T10:25:06.998Z</time></trkpt><trkpt lat="44.738889009601316" lon="9.117204936680873"><ele>1126.5</ele><time>2026-05-03T10:25:07.998Z</time></trkpt><trkpt lat="44.73893812792503" lon="9.117127138143598"><ele>1127.0</ele><time>2026-05-03T10:25:08.998Z</time></trkpt><trkpt lat="44.73898834044855" lon="9.117042585943986"><ele>1127.5</ele><time>2026-05-03T10:25:09.998Z</time></trkpt><trkpt lat="44.73897631635506" lon="9.116951628090755"><ele>1128.0</ele><time>2026-05-03T10:25:10.998Z</time></trkpt><trkpt lat="44.738948482287924" lon="9.116857287420862"><ele>1128.5</ele><time>2026-05-03T10:25:12.998Z</time></trkpt><trkpt lat="44.73884729717593" lon="9.116887377016395"><ele>1129.0</ele><time>2026-05-03T10:25:47Z</time></trkpt><trkpt lat="44.73874990636801" lon="9.116981466027616"><ele>1129.0</ele><time>2026-05-03T10:25:49Z</time></trkpt><trkpt lat="44.73869278660743" lon="9.1170314421456"><ele>1129.0</ele><time>2026-05-03T10:25:50Z</time></trkpt><trkpt lat="44.73861950474271" lon="9.117025325972563"><ele>1129.0</ele><time>2026-05-03T10:25:51Z</time></trkpt><trkpt lat="44.738550159553824" lon="9.117065779524859"><ele>1129.0</ele><time>2026-05-03T10:25:52Z</time></trkpt><trkpt lat="44.73847795447198" lon="9.11706587657152"><ele>1129.0</ele><time>2026-05-03T10:25:53Z</time></trkpt><trkpt lat="44.738389899224124" lon="9.11708514421461"><ele>1129.0</ele><time>2026-05-03T10:25:54Z</time></trkpt><trkpt lat="44.73830028919792" lon="9.11709927748554"><ele>1132.0</ele><time>2026-05-03T10:25:55Z</time></trkpt><trkpt lat="44.738205048602225" lon="9.11711326983508"><ele>1135.0</ele><time>2026-05-03T10:25:55.999Z</time></trkpt><trkpt lat="44.73812012589096" lon="9.117141949235583"><ele>1138.0</ele><time>2026-05-03T10:25:56.999Z</time></trkpt><trkpt lat="44.73804463928977" lon="9.117176164493308"><ele>1141.0</ele><time>2026-05-03T10:25:57.999Z</time></trkpt><trkpt lat="44.73797535249447" lon="9.117255499744186"><ele>1144.0</ele><time>2026-05-03T10:25:58.999Z</time></trkpt><trkpt lat="44.7378839124648" lon="9.117324939719321"><ele>1144.0</ele><time>2026-05-03T10:25:59.999Z</time></trkpt><trkpt lat="44.7377969602143" lon="9.117393294958152"><ele>1144.0</ele><time>2026-05-03T10:26:00.999Z</time></trkpt><trkpt lat="44.73770339783315" lon="9.117459684784055"><ele>1144.0</ele><time>2026-05-03T10:26:01.999Z</time></trkpt><trkpt lat="44.73759782974687" lon="9.117509513415497"><ele>1144.0</ele><time>2026-05-03T10:26:02.999Z</time></trkpt><trkpt lat="44.737486947779225" lon="9.117523567271025"><ele>1144.0</ele><time>2026-05-03T10:26:03.999Z</time></trkpt><trkpt lat="44.73737458176482" lon="9.117533659304822"><ele>1147.2</ele><time>2026-05-03T10:26:04.999Z</time></trkpt><trkpt lat="44.73727011304222" lon="9.117563916120254"><ele>1150.4</ele><time>2026-05-03T10:26:05.999Z</time></trkpt><trkpt lat="44.73715388809886" lon="9.117563522999925"><ele>1153.6</ele><time>2026-05-03T10:26:06.999Z</time></trkpt><trkpt lat="44.73704244532446" lon="9.11754898357701"><ele>1156.8</ele><time>2026-05-03T10:26:07.999Z</time></trkpt><trkpt lat="44.73693864159714" lon="9.117548362576745"><ele>1160.0</ele><time>2026-05-03T10:26:08.999Z</time></trkpt><trkpt lat="44.736845685123" lon="9.117546499222751"><ele>1162.0</ele><time>2026-05-03T10:26:09.999Z</time></trkpt><trkpt lat="44.736741262569126" lon="9.117534017639919"><ele>1164.0</ele><time>2026-05-03T10:26:10.999Z</time></trkpt><trkpt lat="44.736657070121005" lon="9.117509985397161"><ele>1166.0</ele><time>2026-05-03T10:26:11.999Z</time></trkpt><trkpt lat="44.7365770762729" lon="9.117483140180962"><ele>1168.0</ele><time>2026-05-03T10:26:12.999Z</time></trkpt><trkpt lat="44.7364833312706" lon="9.117464082775376"><ele>1170.0</ele><time>2026-05-03T10:26:13.999Z</time></trkpt><trkpt lat="44.73640090101035" lon="9.117476765615143"><ele>1170.0</ele><time>2026-05-03T10:26:14.999Z</time></trkpt><trkpt lat="44.73630556303027" lon="9.117506607856438"><ele>1170.0</ele><time>2026-05-03T10:26:15.999Z</time></trkpt><trkpt lat="44.736201943759895" lon="9.117570862389417"><ele>1170.0</ele><time>2026-05-03T10:26:16.999Z</time></trkpt><trkpt lat="44.73608655346997" lon="9.117668231536388"><ele>1170.0</ele><time>2026-05-03T10:26:17.999Z</time></trkpt><trkpt lat="44.73596521618183" lon="9.117783061400251"><ele>1171.75</ele><time>2026-05-03T10:26:18.999Z</time></trkpt><trkpt lat="44.73585948632049" lon="9.117900659948736"><ele>1173.5</ele><time>2026-05-03T10:26:19.999Z</time></trkpt><trkpt lat="44.73577086916525" lon="9.117998892305557"><ele>1175.25</ele><time>2026-05-03T10:26:20.999Z</time></trkpt><trkpt lat="44.73568729819645" lon="9.118083901014042"><ele>1177.0</ele><time>2026-05-03T10:26:21.999Z</time></trkpt><trkpt lat="44.73559752584722" lon="9.11816745856553"><ele>1178.0</ele><time>2026-05-03T10:26:22.999Z</time></trkpt><trkpt lat="44.73551870576173" lon="9.118256936705924"><ele>1179.0</ele><time>2026-05-03T10:26:23.999Z</time></trkpt><trkpt lat="44.73543578826448" lon="9.118353488820645"><ele>1180.0</ele><time>2026-05-03T10:26:24.999Z</time></trkpt><trkpt lat="44.73537314803434" lon="9.118453421311587"><ele>1181.0</ele><time>2026-05-03T10:26:25.999Z</time></trkpt><trkpt lat="44.735282265921775" lon="9.11853211380742"><ele>1182.0</ele><time>2026-05-03T10:26:26.999Z</time></trkpt><trkpt lat="44.73520189054989" lon="9.118618133126628"><ele>1184.3333333333333</ele><time>2026-05-03T10:26:27.999Z</time></trkpt><trkpt lat="44.7351282676459" lon="9.118683187613728"><ele>1186.6666666666667</ele><time>2026-05-03T10:26:28.999Z</time></trkpt><trkpt lat="44.7350587210676" lon="9.118742979507877"><ele>1189.0</ele><time>2026-05-03T10:26:29.999Z</time></trkpt><trkpt lat="44.73496341606347" lon="9.118759291617755"><ele>1191.3333333333335</ele><time>2026-05-03T10:26:30.999Z</time></trkpt><trkpt lat="44.73488942498876" lon="9.11880917714016"><ele>1193.6666666666667</ele><time>2026-05-03T10:26:31.999Z</time></trkpt><trkpt lat="44.7348012062952" lon="9.118844711875413"><ele>1196.0</ele><time>2026-05-03T10:26:32.999Z</time></trkpt><trkpt lat="44.73471239525205" lon="9.118912181712178"><ele>1196.0</ele><time>2026-05-03T10:26:33.999Z</time></trkpt><trkpt lat="44.7346196141657" lon="9.11898383831268"><ele>1196.0</ele><time>2026-05-03T10:26:34.999Z</time></trkpt><trkpt lat="44.73452206530825" lon="9.119026474810868"><ele>1196.0</ele><time>2026-05-03T10:26:35.999Z</time></trkpt><trkpt lat="44.7344109903139" lon="9.119099687219778"><ele>1196.0</ele><time>2026-05-03T10:26:36.999Z</time></trkpt><trkpt lat="44.73431993307921" lon="9.119156122789043"><ele>1196.0</ele><time>2026-05-03T10:26:37.999Z</time></trkpt><trkpt lat="44.734232247213974" lon="9.119198801250889"><ele>1201.2</ele><time>2026-05-03T10:26:38.999Z</time></trkpt><trkpt lat="44.734159631999816" lon="9.119252910093333"><ele>1206.3999999999999</ele><time>2026-05-03T10:26:39.999Z</time></trkpt><trkpt lat="44.73408350465258" lon="9.119287592007412"><ele>1211.6</ele><time>2026-05-03T10:26:41.999Z</time></trkpt><trkpt lat="44.73402000642042" lon="9.119405833466736"><ele>1216.8</ele><time>2026-05-03T10:26:43.999Z</time></trkpt><trkpt lat="44.73394234141366" lon="9.119553724503879"><ele>1222.0</ele><time>2026-05-03T10:26:45.998Z</time></trkpt><trkpt lat="44.73392028898623" lon="9.119651318954146"><ele>1222.0</ele><time>2026-05-03T10:26:46.998Z</time></trkpt><trkpt lat="44.73389966968568" lon="9.119749554070879"><ele>1222.0</ele><time>2026-05-03T10:26:47.998Z</time></trkpt><trkpt lat="44.733861488744644" lon="9.119838507268929"><ele>1222.0</ele><time>2026-05-03T10:26:48.998Z</time></trkpt><trkpt lat="44.73382343544277" lon="9.119918454792959"><ele>1222.0</ele><time>2026-05-03T10:26:49.998Z</time></trkpt><trkpt lat="44.733720583729664" lon="9.119840853618971"><ele>1222.0</ele><time>2026-05-03T10:26:50.998Z</time></trkpt><trkpt lat="44.73364607334036" lon="9.119754941497272"><ele>1222.0</ele><time>2026-05-03T10:26:52.998Z</time></trkpt><trkpt lat="44.73353945644951" lon="9.119862835035633"><ele>1225.6</ele><time>2026-05-03T10:26:53.998Z</time></trkpt><trkpt lat="44.73344083597888" lon="9.119817535487652"><ele>1229.2</ele><time>2026-05-03T10:26:56.998Z</time></trkpt><trkpt lat="44.7333526169191" lon="9.11980347547574"><ele>1232.8</ele><time>2026-05-03T10:27:00.998Z</time></trkpt><trkpt lat="44.733346155678774" lon="9.119899409909653"><ele>1236.4</ele><time>2026-05-03T10:27:01.998Z</time></trkpt><trkpt lat="44.733361164615594" lon="9.120045050966787"><ele>1240.0</ele><time>2026-05-03T10:27:03.998Z</time></trkpt><trkpt lat="44.73328878074295" lon="9.119951400816808"><ele>1240.0</ele><time>2026-05-03T10:27:05.998Z</time></trkpt><trkpt lat="44.7333086242428" lon="9.11982674917312"><ele>1240.0</ele><time>2026-05-03T10:27:06.998Z</time></trkpt><trkpt lat="44.73322096503193" lon="9.120413677538638"><ele>1241.6666666666665</ele><time>2026-05-03T10:27:07.998Z</time></trkpt><trkpt lat="44.73313726254902" lon="9.120400341357017"><ele>1243.3333333333333</ele><time>2026-05-03T10:27:08.998Z</time></trkpt><trkpt lat="44.73306201502628" lon="9.120381998117038"><ele>1245.0</ele><time>2026-05-03T10:27:09.998Z</time></trkpt><trkpt lat="44.732996927480336" lon="9.120362173285839"><ele>1246.6666666666667</ele><time>2026-05-03T10:27:10.998Z</time></trkpt><trkpt lat="44.73290994046147" lon="9.12032683860398"><ele>1248.3333333333335</ele><time>2026-05-03T10:27:11.998Z</time></trkpt><trkpt lat="44.73279659994237" lon="9.120258805533688"><ele>1250.0</ele><time>2026-05-03T10:27:12.998Z</time></trkpt><trkpt lat="44.732738859430114" lon="9.120214894778112"><ele>1252.0</ele><time>2026-05-03T10:27:13.998Z</time></trkpt><trkpt lat="44.73264836278634" lon="9.120113262253687"><ele>1254.0</ele><time>2026-05-03T10:27:15.998Z</time></trkpt><trkpt lat="44.73256092493997" lon="9.119977721529995"><ele>1256.0</ele><time>2026-05-03T10:27:17.998Z</time></trkpt><trkpt lat="44.73250839748458" lon="9.11990635649851"><ele>1258.0</ele><time>2026-05-03T10:27:18.998Z</time></trkpt><trkpt lat="44.73246073916061" lon="9.119846466880327"><ele>1260.0</ele><time>2026-05-03T10:27:19.998Z</time></trkpt><trkpt lat="44.73238622842644" lon="9.119771808196626"><ele>1260.0</ele><time>2026-05-03T10:27:22Z</time></trkpt><trkpt lat="44.732319873946956" lon="9.119721324204487"><ele>1260.0</ele><time>2026-05-03T10:27:23Z</time></trkpt><trkpt lat="44.73219963149354" lon="9.11971465276803"><ele>1260.0</ele><time>2026-05-03T10:27:25Z</time></trkpt><trkpt lat="44.73214102329505" lon="9.119759877881012"><ele>1260.0</ele><time>2026-05-03T10:27:26Z</time></trkpt><trkpt lat="44.73200233415157" lon="9.119835571865357"><ele>1260.0</ele><time>2026-05-03T10:27:28Z</time></trkpt><trkpt lat="44.73191475676669" lon="9.119898284729924"><ele>1266.0</ele><time>2026-05-03T10:27:29Z</time></trkpt><trkpt lat="44.73184953578924" lon="9.119953381367525"><ele>1272.0</ele><time>2026-05-03T10:27:30Z</time></trkpt><trkpt lat="44.73177247146151" lon="9.120022128582445"><ele>1278.0</ele><time>2026-05-03T10:27:31Z</time></trkpt><trkpt lat="44.731699544648286" lon="9.120092585808766"><ele>1284.0</ele><time>2026-05-03T10:27:32Z</time></trkpt><trkpt lat="44.73164123701337" lon="9.12015392437802"><ele>1290.0</ele><time>2026-05-03T10:27:33Z</time></trkpt><trkpt lat="44.7315653515658" lon="9.120240485939947"><ele>1296.0</ele><time>2026-05-03T10:27:34Z</time></trkpt><trkpt lat="44.731505213061915" lon="9.120320409144611"><ele>1296.0</ele><time>2026-05-03T10:27:35Z</time></trkpt><trkpt lat="44.731467386244994" lon="9.120413089905366"><ele>1296.0</ele><time>2026-05-03T10:27:36Z</time></trkpt><trkpt lat="44.73141738550564" lon="9.120489034382286"><ele>1296.0</ele><time>2026-05-03T10:27:37Z</time></trkpt><trkpt lat="44.73138464857756" lon="9.120580480837777"><ele>1296.0</ele><time>2026-05-03T10:27:38Z</time></trkpt><trkpt lat="44.731359906902284" lon="9.12067821758839"><ele>1296.0</ele><time>2026-05-03T10:27:39Z</time></trkpt><trkpt lat="44.73130969009314" lon="9.120775687710347"><ele>1296.0</ele><time>2026-05-03T10:27:40Z</time></trkpt><trkpt lat="44.73125331287564" lon="9.12086786009542"><ele>1297.6666666666667</ele><time>2026-05-03T10:27:41Z</time></trkpt><trkpt lat="44.73119809315795" lon="9.120942545730717"><ele>1299.3333333333333</ele><time>2026-05-03T10:27:42Z</time></trkpt><trkpt lat="44.731131118416485" lon="9.121011790935318"><ele>1301.0</ele><time>2026-05-03T10:27:43Z</time></trkpt><trkpt lat="44.73107660050572" lon="9.121085347310059"><ele>1302.6666666666665</ele><time>2026-05-03T10:27:44Z</time></trkpt><trkpt lat="44.73103095363239" lon="9.121168124676002"><ele>1304.3333333333333</ele><time>2026-05-03T10:27:45Z</time></trkpt><trkpt lat="44.73100933777479" lon="9.12129499839354"><ele>1306.0</ele><time>2026-05-03T10:27:47Z</time></trkpt><trkpt lat="44.731010049843874" lon="9.121422900974865"><ele>1309.1999999999998</ele><time>2026-05-03T10:28:17.999Z</time></trkpt><trkpt lat="44.7310353547203" lon="9.121617420136346"><ele>1312.3999999999999</ele><time>2026-05-03T10:28:19.999Z</time></trkpt><trkpt lat="44.731035666263004" lon="9.121720019713942"><ele>1315.6</ele><time>2026-05-03T10:28:20.999Z</time></trkpt><trkpt lat="44.73102249097006" lon="9.121851927797453"><ele>1318.8</ele><time>2026-05-03T10:28:21.999Z</time></trkpt><trkpt lat="44.731015530963084" lon="9.122009231102526"><ele>1322.0</ele><time>2026-05-03T10:28:22.999Z</time></trkpt><trkpt lat="44.731011358223064" lon="9.122158647163827"><ele>1322.0</ele><time>2026-05-03T10:28:23.999Z</time></trkpt><trkpt lat="44.73100188526724" lon="9.12227136033234"><ele>1322.0</ele><time>2026-05-03T10:28:24.999Z</time></trkpt><trkpt lat="44.73098369811611" lon="9.122379535927173"><ele>1322.0</ele><time>2026-05-03T10:28:25.999Z</time></trkpt><trkpt lat="44.730973585644215" lon="9.12249304323685"><ele>1322.0</ele><time>2026-05-03T10:28:26.999Z</time></trkpt><trkpt lat="44.7309745987482" lon="9.122604816521347"><ele>1322.0</ele><time>2026-05-03T10:28:27.999Z</time></trkpt><trkpt lat="44.731008492320655" lon="9.122743416112316"><ele>1322.0</ele><time>2026-05-03T10:28:28.999Z</time></trkpt><trkpt lat="44.73107091325638" lon="9.122895352853844"><ele>1321.6</ele><time>2026-05-03T10:28:29.999Z</time></trkpt><trkpt lat="44.731118999533884" lon="9.123066808886065"><ele>1321.1999999999998</ele><time>2026-05-03T10:28:30.999Z</time></trkpt><trkpt lat="44.73116356842343" lon="9.123226888146476"><ele>1320.8</ele><time>2026-05-03T10:28:31.999Z</time></trkpt><trkpt lat="44.731200769654905" lon="9.123347610168278"><ele>1320.4</ele><time>2026-05-03T10:28:32.999Z</time></trkpt><trkpt lat="44.731204533676866" lon="9.123439068502847"><ele>1320.0</ele><time>2026-05-03T10:28:33.999Z</time></trkpt><trkpt lat="44.73115595355017" lon="9.12350947699585"><ele>1320.0</ele><time>2026-05-03T10:28:35.999Z</time></trkpt><trkpt lat="44.73109487758909" lon="9.123486702814999"><ele>1320.0</ele><time>2026-05-03T10:28:36.999Z</time></trkpt><trkpt lat="44.730992786588004" lon="9.123473306495365"><ele>1320.0</ele><time>2026-05-03T10:28:38.999Z</time></trkpt><trkpt lat="44.73091522228333" lon="9.123505991625935"><ele>1320.0</ele><time>2026-05-03T10:28:39.999Z</time></trkpt><trkpt lat="44.73083364056661" lon="9.12354761539684"><ele>1320.0</ele><time>2026-05-03T10:28:40.999Z</time></trkpt><trkpt lat="44.73074718432584" lon="9.123624965433416"><ele>1320.0</ele><time>2026-05-03T10:28:41.999Z</time></trkpt><trkpt lat="44.73067704163546" lon="9.123679579746463"><ele>1322.1428571428573</ele><time>2026-05-03T10:28:42.999Z</time></trkpt><trkpt lat="44.73060085674497" lon="9.123732640034154"><ele>1324.2857142857142</ele><time>2026-05-03T10:28:44.999Z</time></trkpt><trkpt lat="44.730544589598985" lon="9.123773417124445"><ele>1326.4285714285716</ele><time>2026-05-03T10:28:45.999Z</time></trkpt><trkpt lat="44.73047585862941" lon="9.123821146443417"><ele>1328.5714285714287</ele><time>2026-05-03T10:28:46.999Z</time></trkpt><trkpt lat="44.730405590693415" lon="9.123860711322385"><ele>1330.7142857142858</ele><time>2026-05-03T10:28:47.998Z</time></trkpt><trkpt lat="44.730343139450895" lon="9.123887980824279"><ele>1332.857142857143</ele><time>2026-05-03T10:28:48.998Z</time></trkpt><trkpt lat="44.73027513011413" lon="9.123905382701379"><ele>1335.0</ele><time>2026-05-03T10:28:49.998Z</time></trkpt><trkpt lat="44.73019812185424" lon="9.123913852216658"><ele>1338.0</ele><time>2026-05-03T10:28:50.998Z</time></trkpt><trkpt lat="44.73007556510556" lon="9.123918478034511"><ele>1341.0</ele><time>2026-05-03T10:28:52.998Z</time></trkpt><trkpt lat="44.72999066102947" lon="9.12392489146758"><ele>1344.0</ele><time>2026-05-03T10:28:53.998Z</time></trkpt><trkpt lat="44.72986303281916" lon="9.123962538700265"><ele>1347.0</ele><time>2026-05-03T10:28:55.998Z</time></trkpt><trkpt lat="44.72980091552171" lon="9.123989895078335"><ele>1350.0</ele><time>2026-05-03T10:28:56.998Z</time></trkpt><trkpt lat="44.729738213878434" lon="9.124028513526126"><ele>1351.5</ele><time>2026-05-03T10:28:57.998Z</time></trkpt><trkpt lat="44.72966354894059" lon="9.12409075677644"><ele>1353.0</ele><time>2026-05-03T10:28:58.998Z</time></trkpt><trkpt lat="44.72959529712707" lon="9.124191062862563"><ele>1354.5</ele><time>2026-05-03T10:28:59.998Z</time></trkpt><trkpt lat="44.72955366240606" lon="9.124283828161076"><ele>1356.0</ele><time>2026-05-03T10:29:01.998Z</time></trkpt><trkpt lat="44.72951593624774" lon="9.124379189732878"><ele>1357.5</ele><time>2026-05-03T10:29:03.998Z</time></trkpt><trkpt lat="44.72947191890337" lon="9.124466454412893"><ele>1359.0</ele><time>2026-05-03T10:29:05.998Z</time></trkpt><trkpt lat="44.72946325074398" lon="9.12460758052948"><ele>1359.0</ele><time>2026-05-03T10:29:07.998Z</time></trkpt><trkpt lat="44.729453989413805" lon="9.12473195087917"><ele>1359.0</ele><time>2026-05-03T10:29:08.998Z</time></trkpt><trkpt lat="44.72948174753243" lon="9.124880244206139"><ele>1359.0</ele><time>2026-05-03T10:29:10.998Z</time></trkpt><trkpt lat="44.72952399255552" lon="9.125016409243841"><ele>1359.0</ele><time>2026-05-03T10:29:12.998Z</time></trkpt><trkpt lat="44.72954722135872" lon="9.125120929646462"><ele>1359.0</ele><time>2026-05-03T10:29:14.998Z</time></trkpt><trkpt lat="44.72958638710068" lon="9.125297256679788"><ele>1360.0</ele><time>2026-05-03T10:29:17.998Z</time></trkpt><trkpt lat="44.72963323394914" lon="9.125471223956987"><ele>1361.0</ele><time>2026-05-03T10:29:18.998Z</time></trkpt><trkpt lat="44.729624757175806" lon="9.125673431746407"><ele>1362.0</ele><time>2026-05-03T10:29:19.998Z</time></trkpt><trkpt lat="44.729594244465254" lon="9.125845842331515"><ele>1363.0</ele><time>2026-05-03T10:29:20.998Z</time></trkpt><trkpt lat="44.72955838565812" lon="9.126068505602618"><ele>1364.0</ele><time>2026-05-03T10:29:21.998Z</time></trkpt><trkpt lat="44.729533330082766" lon="9.12622964160031"><ele>1365.0</ele><time>2026-05-03T10:29:22.998Z</time></trkpt><trkpt lat="44.729496803894534" lon="9.126349233210936"><ele>1366.0</ele><time>2026-05-03T10:29:23.998Z</time></trkpt><trkpt lat="44.729475776714466" lon="9.126476673297839"><ele>1367.0</ele><time>2026-05-03T10:29:24.998Z</time></trkpt><trkpt lat="44.729477235155244" lon="9.126586496856795"><ele>1368.0</ele><time>2026-05-03T10:29:27Z</time></trkpt><trkpt lat="44.72944115237215" lon="9.126715316216364"><ele>1374.4</ele><time>2026-05-03T10:29:28Z</time></trkpt><trkpt lat="44.72937625182757" lon="9.126796705255517"><ele>1380.8000000000002</ele><time>2026-05-03T10:29:29Z</time></trkpt><trkpt lat="44.729298141111535" lon="9.126870071865527"><ele>1387.2</ele><time>2026-05-03T10:29:30Z</time></trkpt><trkpt lat="44.72923411029386" lon="9.126929019463761"><ele>1393.6</ele><time>2026-05-03T10:29:31Z</time></trkpt><trkpt lat="44.72915378542007" lon="9.127007737941154"><ele>1400.0</ele><time>2026-05-03T10:29:32Z</time></trkpt><trkpt lat="44.72906640221525" lon="9.127088954201838"><ele>1400.0</ele><time>2026-05-03T10:29:33Z</time></trkpt><trkpt lat="44.72900430045115" lon="9.127149889378082"><ele>1400.0</ele><time>2026-05-03T10:29:34Z</time></trkpt><trkpt lat="44.7289476248062" lon="9.127203338781312"><ele>1400.0</ele><time>2026-05-03T10:29:35Z</time></trkpt><trkpt lat="44.72884804363167" lon="9.127268597383814"><ele>1400.0</ele><time>2026-05-03T10:29:37Z</time></trkpt><trkpt lat="44.728793352208946" lon="9.127374979131607"><ele>1400.0</ele><time>2026-05-03T10:29:38Z</time></trkpt><trkpt lat="44.72873513486022" lon="9.127494110295958"><ele>1400.0</ele><time>2026-05-03T10:29:39Z</time></trkpt><trkpt lat="44.72871084881128" lon="9.127639824435617"><ele>1400.0</ele><time>2026-05-03T10:29:40Z</time></trkpt><trkpt lat="44.72870272556349" lon="9.12781359950661"><ele>1400.0</ele><time>2026-05-03T10:29:41Z</time></trkpt><trkpt lat="44.728718317981716" lon="9.127936770075666"><ele>1400.0</ele><time>2026-05-03T10:29:42Z</time></trkpt><trkpt lat="44.72878078065387" lon="9.128230558264576"><ele>1400.0</ele><time>2026-05-03T10:29:45Z</time></trkpt><trkpt lat="44.72862290505608" lon="9.128149457645275"><ele>1400.0</ele><time>2026-05-03T10:29:46Z</time></trkpt><trkpt lat="44.72854330622929" lon="9.128084521197023"><ele>1400.0</ele><time>2026-05-03T10:29:48Z</time></trkpt><trkpt lat="44.728608737138096" lon="9.128106457718706"><ele>1400.0</ele><time>2026-05-03T10:29:50Z</time></trkpt><trkpt lat="44.72854506254236" lon="9.128004311494163"><ele>1400.0</ele><time>2026-05-03T10:29:52Z</time></trkpt><trkpt lat="44.728574106030656" lon="9.128110011815425"><ele>1402.75</ele><time>2026-05-03T10:29:54Z</time></trkpt><trkpt lat="44.72848409552943" lon="9.128360278023012"><ele>1405.5</ele><time>2026-05-03T10:29:55Z</time></trkpt><trkpt lat="44.72851647228112" lon="9.128498454455107"><ele>1408.25</ele><time>2026-05-03T10:29:56Z</time></trkpt><trkpt lat="44.728567155279265" lon="9.128640967490005"><ele>1411.0</ele><time>2026-05-03T10:29:57Z</time></trkpt><trkpt lat="44.728604996525135" lon="9.128744370079177"><ele>1411.0</ele><time>2026-05-03T10:29:58Z</time></trkpt><trkpt lat="44.72863319099698" lon="9.128841733067473"><ele>1411.0</ele><time>2026-05-03T10:29:59Z</time></trkpt><trkpt lat="44.72865846483096" lon="9.128930448181057"><ele>1411.0</ele><time>2026-05-03T10:30:00Z</time></trkpt><trkpt lat="44.72868849462032" lon="9.12909606287729"><ele>1411.0</ele><time>2026-05-03T10:30:02Z</time></trkpt><trkpt lat="44.728701271571396" lon="9.129230886225505"><ele>1411.0</ele><time>2026-05-03T10:30:02.999Z</time></trkpt><trkpt lat="44.7286939083072" lon="9.129371851550458"><ele>1413.1999999999998</ele><time>2026-05-03T10:30:03.999Z</time></trkpt><trkpt lat="44.728672409008105" lon="9.129515509706446"><ele>1415.3999999999999</ele><time>2026-05-03T10:30:04.999Z</time></trkpt><trkpt lat="44.72864053715532" lon="9.129634125111044"><ele>1417.6</ele><time>2026-05-03T10:30:05.999Z</time></trkpt><trkpt lat="44.728634596681154" lon="9.129765831787111"><ele>1419.8</ele><time>2026-05-03T10:30:06.999Z</time></trkpt><trkpt lat="44.728629614590716" lon="9.129903318880594"><ele>1422.0</ele><time>2026-05-03T10:30:07.999Z</time></trkpt><trkpt lat="44.72863112359938" lon="9.130037407141572"><ele>1422.8333333333333</ele><time>2026-05-03T10:30:08.999Z</time></trkpt><trkpt lat="44.72861822331978" lon="9.130142475107874"><ele>1423.6666666666667</ele><time>2026-05-03T10:30:09.999Z</time></trkpt><trkpt lat="44.728604619509404" lon="9.130237493107368"><ele>1424.5</ele><time>2026-05-03T10:30:10.999Z</time></trkpt><trkpt lat="44.72855304009582" lon="9.130331374972199"><ele>1425.3333333333335</ele><time>2026-05-03T10:30:11.999Z</time></trkpt><trkpt lat="44.72845776676484" lon="9.130337277695538"><ele>1426.1666666666667</ele><time>2026-05-03T10:30:12.999Z</time></trkpt><trkpt lat="44.72838018883005" lon="9.13021801828867"><ele>1427.0</ele><time>2026-05-03T10:30:13.999Z</time></trkpt><trkpt lat="44.72835326891018" lon="9.130134166616083"><ele>1429.6</ele><time>2026-05-03T10:30:14.999Z</time></trkpt><trkpt lat="44.72831313791361" lon="9.130054323637498"><ele>1432.1999999999998</ele><time>2026-05-03T10:30:15.999Z</time></trkpt><trkpt lat="44.728215279647856" lon="9.129898719775598"><ele>1434.8</ele><time>2026-05-03T10:30:17.999Z</time></trkpt><trkpt lat="44.72815491332933" lon="9.12982303258886"><ele>1437.4</ele><time>2026-05-03T10:30:18.999Z</time></trkpt><trkpt lat="44.728089238919864" lon="9.129739671099335"><ele>1440.0</ele><time>2026-05-03T10:30:19.999Z</time></trkpt><trkpt lat="44.728032539651515" lon="9.129669182138201"><ele>1440.0</ele><time>2026-05-03T10:30:20.999Z</time></trkpt><trkpt lat="44.72797481449096" lon="9.12959492953098"><ele>1440.0</ele><time>2026-05-03T10:30:21.999Z</time></trkpt><trkpt lat="44.727910471811676" lon="9.129524598543357"><ele>1440.0</ele><time>2026-05-03T10:30:22.999Z</time></trkpt><trkpt lat="44.72784569146958" lon="9.129475974266064"><ele>1440.0</ele><time>2026-05-03T10:30:23.999Z</time></trkpt><trkpt lat="44.727770535393965" lon="9.129425807332318"><ele>1440.0</ele><time>2026-05-03T10:30:24.999Z</time></trkpt><trkpt lat="44.727714753969934" lon="9.129355299134332"><ele>1440.0</ele><time>2026-05-03T10:30:25.999Z</time></trkpt><trkpt lat="44.72764377593124" lon="9.129298864858713"><ele>1442.1666666666667</ele><time>2026-05-03T10:30:26.999Z</time></trkpt><trkpt lat="44.72758472589138" lon="9.129253465695788"><ele>1444.3333333333333</ele><time>2026-05-03T10:30:27.999Z</time></trkpt><trkpt lat="44.72752372894309" lon="9.129206939147478"><ele>1446.5</ele><time>2026-05-03T10:30:28.999Z</time></trkpt><trkpt lat="44.72746206468802" lon="9.129160187833483"><ele>1448.6666666666665</ele><time>2026-05-03T10:30:29.999Z</time></trkpt><trkpt lat="44.72739988143399" lon="9.12911304311057"><ele>1450.8333333333333</ele><time>2026-05-03T10:30:30.999Z</time></trkpt><trkpt lat="44.72729638212026" lon="9.129025837476897"><ele>1453.0</ele><time>2026-05-03T10:30:32.999Z</time></trkpt><trkpt lat="44.72719223321416" lon="9.128909230253305"><ele>1453.0000000000002</ele><time>2026-05-03T10:30:34.999Z</time></trkpt><trkpt lat="44.72713197691842" lon="9.128844903735049"><ele>1453.0</ele><time>2026-05-03T10:30:35.999Z</time></trkpt><trkpt lat="44.72707402011778" lon="9.128786948311545"><ele>1453.0</ele><time>2026-05-03T10:30:36.999Z</time></trkpt><trkpt lat="44.727025408973645" lon="9.128725206274"><ele>1453.0</ele><time>2026-05-03T10:30:38.999Z</time></trkpt><trkpt lat="44.72701906776761" lon="9.128629256382995"><ele>1453.0</ele><time>2026-05-03T10:31:55Z</time></trkpt><trkpt lat="44.72708444918941" lon="9.128607778388332"><ele>1453.0000000000002</ele><time>2026-05-03T10:32:03Z</time></trkpt><trkpt lat="44.72702387809239" lon="9.128636891303707"><ele>1453.0</ele><time>2026-05-03T10:34:02.999Z</time></trkpt><trkpt lat="44.72702920328221" lon="9.128730435211155"><ele>1453.0</ele><time>2026-05-03T10:34:09.999Z</time></trkpt><trkpt lat="44.72700843603026" lon="9.12861660112262"><ele>1453.0</ele><time>2026-05-03T10:34:57.998Z</time></trkpt><trkpt lat="44.727005321841624" lon="9.128520509545156"><ele>1453.0</ele><time>2026-05-03T10:34:59.998Z</time></trkpt><trkpt lat="44.727014657668164" lon="9.128406778625788"><ele>1453.0</ele><time>2026-05-03T10:35:01.998Z</time></trkpt><trkpt lat="44.72700618292742" lon="9.128292811242503"><ele>1453.0</ele><time>2026-05-03T10:35:03.998Z</time></trkpt><trkpt lat="44.7269730677312" lon="9.128193799128827"><ele>1453.0</ele><time>2026-05-03T10:35:05.998Z</time></trkpt><trkpt lat="44.72693805622483" lon="9.128085694564902"><ele>1453.2</ele><time>2026-05-03T10:35:07.998Z</time></trkpt><trkpt lat="44.72689974144412" lon="9.127949030665023"><ele>1453.4</ele><time>2026-05-03T10:35:09.998Z</time></trkpt><trkpt lat="44.7268528989591" lon="9.127809610818161"><ele>1453.6000000000001</ele><time>2026-05-03T10:35:11.998Z</time></trkpt><trkpt lat="44.7268193517836" lon="9.127649924970418"><ele>1453.8000000000002</ele><time>2026-05-03T10:35:13.998Z</time></trkpt><trkpt lat="44.72679212864316" lon="9.127502561690012"><ele>1454.0</ele><time>2026-05-03T10:35:15.998Z</time></trkpt><trkpt lat="44.726780305002514" lon="9.127353454295388"><ele>1454.5</ele><time>2026-05-03T10:35:17.998Z</time></trkpt><trkpt lat="44.72675581399882" lon="9.127249837908309"><ele>1455.0</ele><time>2026-05-03T10:35:19.998Z</time></trkpt><trkpt lat="44.72673296118793" lon="9.127151130070748"><ele>1455.5</ele><time>2026-05-03T10:35:21.998Z</time></trkpt><trkpt lat="44.72669706177661" lon="9.127046753054293"><ele>1456.0</ele><time>2026-05-03T10:35:24.998Z</time></trkpt><trkpt lat="44.72665805859335" lon="9.126950906768192"><ele>1456.5</ele><time>2026-05-03T10:35:27.998Z</time></trkpt><trkpt lat="44.72662977458447" lon="9.126859197764718"><ele>1457.0</ele><time>2026-05-03T10:35:30.998Z</time></trkpt><trkpt lat="44.726602376385905" lon="9.126749321308763"><ele>1457.0</ele><time>2026-05-03T10:35:33.998Z</time></trkpt><trkpt lat="44.72657453531919" lon="9.126663016963889"><ele>1457.0</ele><time>2026-05-03T10:35:36.998Z</time></trkpt><trkpt lat="44.72655371469976" lon="9.126558817431505"><ele>1457.0</ele><time>2026-05-03T10:35:39.998Z</time></trkpt><trkpt lat="44.72653944555897" lon="9.126448494380082"><ele>1457.0</ele><time>2026-05-03T10:35:41.998Z</time></trkpt><trkpt lat="44.726567855569755" lon="9.126323893353007"><ele>1457.0</ele><time>2026-05-03T10:35:43.998Z</time></trkpt><trkpt lat="44.726602041654935" lon="9.126218006077197"><ele>1457.0</ele><time>2026-05-03T10:35:47Z</time></trkpt><trkpt lat="44.726609816393115" lon="9.126112585915697"><ele>1454.3333333333335</ele><time>2026-05-03T10:35:50Z</time></trkpt><trkpt lat="44.72659599794995" lon="9.12597097184374"><ele>1451.6666666666667</ele><time>2026-05-03T10:35:53Z</time></trkpt><trkpt lat="44.726573658632894" lon="9.125867675195346"><ele>1449.0</ele><time>2026-05-03T10:35:55Z</time></trkpt><trkpt lat="44.72655316677609" lon="9.125781136903745"><ele>1446.3333333333333</ele><time>2026-05-03T10:35:57Z</time></trkpt><trkpt lat="44.72652096350273" lon="9.125690003579416"><ele>1443.6666666666665</ele><time>2026-05-03T10:36:01Z</time></trkpt><trkpt lat="44.726465565321185" lon="9.12555914093308"><ele>1441.0</ele><time>2026-05-03T10:36:04Z</time></trkpt><trkpt lat="44.72643138568642" lon="9.125464458940206"><ele>1439.0</ele><time>2026-05-03T10:36:06Z</time></trkpt><trkpt lat="44.726382230862576" lon="9.125378059952808"><ele>1437.0</ele><time>2026-05-03T10:36:07.999Z</time></trkpt><trkpt lat="44.72633736992238" lon="9.125293509305946"><ele>1435.0</ele><time>2026-05-03T10:36:11.999Z</time></trkpt><trkpt lat="44.72628513454524" lon="9.125224960521672"><ele>1433.0</ele><time>2026-05-03T10:36:13.999Z</time></trkpt><trkpt lat="44.726230267013314" lon="9.125148072181599"><ele>1431.0</ele><time>2026-05-03T10:36:16.999Z</time></trkpt><trkpt lat="44.72616958333089" lon="9.125067853382882"><ele>1429.0</ele><time>2026-05-03T10:36:19.999Z</time></trkpt><trkpt lat="44.72611378744891" lon="9.125015985096404"><ele>1427.0</ele><time>2026-05-03T10:36:22.999Z</time></trkpt><trkpt lat="44.72604475830473" lon="9.125026732118545"><ele>1425.0</ele><time>2026-05-03T10:36:27.999Z</time></trkpt><trkpt lat="44.725984275956336" lon="9.125075190135028"><ele>1423.0</ele><time>2026-05-03T10:36:30.999Z</time></trkpt><trkpt lat="44.72591572549097" lon="9.125080935564858"><ele>1421.0</ele><time>2026-05-03T10:36:34.999Z</time></trkpt><trkpt lat="44.72586581319583" lon="9.125016942837227"><ele>1419.0</ele><time>2026-05-03T10:36:38.999Z</time></trkpt><trkpt lat="44.72581826766186" lon="9.124937322831228"><ele>1417.0</ele><time>2026-05-03T10:36:42.999Z</time></trkpt><trkpt lat="44.72579306842795" lon="9.124841183974171"><ele>1415.0</ele><time>2026-05-03T10:36:45.999Z</time></trkpt><trkpt lat="44.725752265961155" lon="9.124740488470698"><ele>1413.7142857142858</ele><time>2026-05-03T10:39:12.999Z</time></trkpt><trkpt lat="44.725715839125485" lon="9.124660571808954"><ele>1412.4285714285713</ele><time>2026-05-03T10:39:16.998Z</time></trkpt><trkpt lat="44.72569196683478" lon="9.12457319263336"><ele>1411.142857142857</ele><time>2026-05-03T10:39:19.998Z</time></trkpt><trkpt lat="44.72566155447707" lon="9.124471184488547"><ele>1409.857142857143</ele><time>2026-05-03T10:39:23.998Z</time></trkpt><trkpt lat="44.72565683587677" lon="9.124370026674562"><ele>1408.5714285714287</ele><time>2026-05-03T10:39:27.998Z</time></trkpt><trkpt lat="44.725646125462184" lon="9.124262314106529"><ele>1407.2857142857142</ele><time>2026-05-03T10:39:48.998Z</time></trkpt><trkpt lat="44.72562918229758" lon="9.124148025934726"><ele>1406.0</ele><time>2026-05-03T10:39:55.998Z</time></trkpt><trkpt lat="44.72561847523051" lon="9.124049653607601"><ele>1404.0</ele><time>2026-05-03T10:40:00Z</time></trkpt><trkpt lat="44.72561244672106" lon="9.123955348457192"><ele>1402.0</ele><time>2026-05-03T10:40:03Z</time></trkpt><trkpt lat="44.725581267079626" lon="9.123865202125822"><ele>1400.0</ele><time>2026-05-03T10:40:07Z</time></trkpt><trkpt lat="44.72556619801638" lon="9.123774962006474"><ele>1398.0</ele><time>2026-05-03T10:40:10Z</time></trkpt><trkpt lat="44.72555271564604" lon="9.123684067361555"><ele>1396.0</ele><time>2026-05-03T10:40:13Z</time></trkpt><trkpt lat="44.72553208151401" lon="9.123572825188404"><ele>1394.0</ele><time>2026-05-03T10:40:18Z</time></trkpt><trkpt lat="44.725508454440806" lon="9.123457524146865"><ele>1392.0</ele><time>2026-05-03T10:40:21Z</time></trkpt><trkpt lat="44.72549853757533" lon="9.123348287561369"><ele>1392.0</ele><time>2026-05-03T10:40:24Z</time></trkpt><trkpt lat="44.72548853813579" lon="9.12325241154613"><ele>1392.0</ele><time>2026-05-03T10:40:25.999Z</time></trkpt><trkpt lat="44.725477303277984" lon="9.123124431410986"><ele>1392.0</ele><time>2026-05-03T10:40:28.999Z</time></trkpt><trkpt lat="44.725454689027956" lon="9.123037573927117"><ele>1392.0</ele><time>2026-05-03T10:40:30.999Z</time></trkpt><trkpt lat="44.72539935910176" lon="9.122970294407226"><ele>1392.0</ele><time>2026-05-03T10:40:32.999Z</time></trkpt><trkpt lat="44.72535073536853" lon="9.122873817630488"><ele>1392.0</ele><time>2026-05-03T10:40:35.999Z</time></trkpt><trkpt lat="44.72531991289378" lon="9.1227578228372"><ele>1389.5714285714284</ele><time>2026-05-03T10:40:38.999Z</time></trkpt><trkpt lat="44.72529458512763" lon="9.122671024773945"><ele>1387.142857142857</ele><time>2026-05-03T10:40:41.999Z</time></trkpt><trkpt lat="44.72525526777562" lon="9.122560242386653"><ele>1384.7142857142858</ele><time>2026-05-03T10:40:45.999Z</time></trkpt><trkpt lat="44.725208539402715" lon="9.122468698636975"><ele>1382.2857142857142</ele><time>2026-05-03T10:40:48.999Z</time></trkpt><trkpt lat="44.725167254944566" lon="9.12238944943108"><ele>1379.857142857143</ele><time>2026-05-03T10:40:51.999Z</time></trkpt><trkpt lat="44.725132066271044" lon="9.122295964273189"><ele>1377.4285714285713</ele><time>2026-05-03T10:40:54.999Z</time></trkpt><trkpt lat="44.725125709195495" lon="9.122202884926278"><ele>1375.0</ele><time>2026-05-03T10:40:58.999Z</time></trkpt><trkpt lat="44.72512491573791" lon="9.122113561753606"><ele>1374.5714285714284</ele><time>2026-05-03T10:41:02.999Z</time></trkpt><trkpt lat="44.72511385614912" lon="9.122023583498828"><ele>1374.142857142857</ele><time>2026-05-03T10:41:07.999Z</time></trkpt><trkpt lat="44.725113747893374" lon="9.121920709062804"><ele>1373.7142857142858</ele><time>2026-05-03T10:41:12.999Z</time></trkpt><trkpt lat="44.72506834587757" lon="9.121830411546473"><ele>1373.2857142857142</ele><time>2026-05-03T10:41:23.998Z</time></trkpt><trkpt lat="44.72507219964989" lon="9.121718835710622"><ele>1372.857142857143</ele><time>2026-05-03T10:41:27.998Z</time></trkpt><trkpt lat="44.72503861358207" lon="9.121612976452635"><ele>1372.4285714285713</ele><time>2026-05-03T10:41:32.998Z</time></trkpt><trkpt lat="44.72502205049825" lon="9.121522279978409"><ele>1372.0</ele><time>2026-05-03T10:41:34.998Z</time></trkpt><trkpt lat="44.72503039506269" lon="9.121411561104576"><ele>1369.8333333333333</ele><time>2026-05-03T10:41:37.998Z</time></trkpt><trkpt lat="44.72500327980321" lon="9.121317722435029"><ele>1367.6666666666665</ele><time>2026-05-03T10:41:41.998Z</time></trkpt><trkpt lat="44.7249973834235" lon="9.121221452534998"><ele>1365.5</ele><time>2026-05-03T10:41:46.998Z</time></trkpt><trkpt lat="44.72493571662863" lon="9.121105054605819"><ele>1363.3333333333333</ele><time>2026-05-03T10:42:51.999Z</time></trkpt><trkpt lat="44.72494901956679" lon="9.121015371299158"><ele>1361.1666666666667</ele><time>2026-05-03T10:42:54.999Z</time></trkpt><trkpt lat="44.72494595317656" lon="9.120919601106438"><ele>1359.0</ele><time>2026-05-03T10:42:58.999Z</time></trkpt><trkpt lat="44.72494019750306" lon="9.120816957452199"><ele>1356.5714285714287</ele><time>2026-05-03T10:43:02.999Z</time></trkpt><trkpt lat="44.724914880160924" lon="9.12072472981958"><ele>1354.142857142857</ele><time>2026-05-03T10:43:04.999Z</time></trkpt><trkpt lat="44.72491437883204" lon="9.120609475978052"><ele>1351.7142857142858</ele><time>2026-05-03T10:43:07.999Z</time></trkpt><trkpt lat="44.72489734947093" lon="9.120509142035852"><ele>1349.2857142857142</ele><time>2026-05-03T10:43:10.999Z</time></trkpt><trkpt lat="44.72486015684194" lon="9.120422695074534"><ele>1346.857142857143</ele><time>2026-05-03T10:43:13.999Z</time></trkpt><trkpt lat="44.72481029302462" lon="9.120353321689707"><ele>1344.4285714285713</ele><time>2026-05-03T10:43:21.999Z</time></trkpt><trkpt lat="44.72474530308872" lon="9.120290710804811"><ele>1342.0</ele><time>2026-05-03T10:43:30.998Z</time></trkpt><trkpt lat="44.72472891872198" lon="9.120202496265499"><ele>1342.0</ele><time>2026-05-03T10:43:33.998Z</time></trkpt><trkpt lat="44.72468974287895" lon="9.120073641492887"><ele>1342.0</ele><time>2026-05-03T10:43:36.998Z</time></trkpt><trkpt lat="44.72467869332771" lon="9.119974426811044"><ele>1342.0</ele><time>2026-05-03T10:43:38.998Z</time></trkpt><trkpt lat="44.72465753347239" lon="9.119880503780179"><ele>1342.0</ele><time>2026-05-03T10:43:40.998Z</time></trkpt><trkpt lat="44.724630216607856" lon="9.119777933057904"><ele>1342.0</ele><time>2026-05-03T10:43:43.998Z</time></trkpt><trkpt lat="44.72461449081273" lon="9.119678299139789"><ele>1342.0</ele><time>2026-05-03T10:43:46.998Z</time></trkpt><trkpt lat="44.724610224014555" lon="9.119551389707985"><ele>1339.0</ele><time>2026-05-03T10:43:48.998Z</time></trkpt><trkpt lat="44.72458166129739" lon="9.119441149364526"><ele>1336.0</ele><time>2026-05-03T10:43:50.998Z</time></trkpt><trkpt lat="44.72450942304552" lon="9.11938020054762"><ele>1333.0</ele><time>2026-05-03T10:43:52.998Z</time></trkpt><trkpt lat="44.72445647822193" lon="9.119256081233248"><ele>1330.0</ele><time>2026-05-03T10:43:54.998Z</time></trkpt><trkpt lat="44.72441779735837" lon="9.119163626866904"><ele>1327.0</ele><time>2026-05-03T10:43:56.998Z</time></trkpt><trkpt lat="44.72434792180832" lon="9.119070933664386"><ele>1324.0</ele><time>2026-05-03T10:43:59.998Z</time></trkpt><trkpt lat="44.72430012445578" lon="9.119004310058283"><ele>1321.0</ele><time>2026-05-03T10:44:01.998Z</time></trkpt><trkpt lat="44.72426403993947" lon="9.118922476812433"><ele>1318.0</ele><time>2026-05-03T10:44:03.998Z</time></trkpt><trkpt lat="44.7242115130679" lon="9.118827224692897"><ele>1315.0</ele><time>2026-05-03T10:44:06.998Z</time></trkpt><trkpt lat="44.72415940043058" lon="9.118765592714459"><ele>1312.0</ele><time>2026-05-03T10:44:09Z</time></trkpt><trkpt lat="44.7241054882246" lon="9.118680909321261"><ele>1309.0</ele><time>2026-05-03T10:44:12Z</time></trkpt><trkpt lat="44.72404689273392" lon="9.118596050238175"><ele>1306.0</ele><time>2026-05-03T10:44:31.999Z</time></trkpt><trkpt lat="44.72405309019556" lon="9.118492807274462"><ele>1306.0000000000002</ele><time>2026-05-03T10:44:34.999Z</time></trkpt><trkpt lat="44.72403192185756" lon="9.118405454377564"><ele>1306.0</ele><time>2026-05-03T10:44:39.999Z</time></trkpt><trkpt lat="44.72396909539777" lon="9.118318413226696"><ele>1306.0</ele><time>2026-05-03T10:44:44.999Z</time></trkpt><trkpt lat="44.7239244586771" lon="9.118252399427643"><ele>1306.0</ele><time>2026-05-03T10:44:47.999Z</time></trkpt><trkpt lat="44.723885582148284" lon="9.11814975689558"><ele>1306.0</ele><time>2026-05-03T10:44:52.999Z</time></trkpt><trkpt lat="44.72385725026806" lon="9.11805205134001"><ele>1306.0000000000002</ele><time>2026-05-03T10:44:57.999Z</time></trkpt><trkpt lat="44.72383571536516" lon="9.117960821306214"><ele>1306.0</ele><time>2026-05-03T10:45:01.999Z</time></trkpt><trkpt lat="44.72381061671635" lon="9.117871814946712"><ele>1303.5714285714287</ele><time>2026-05-03T10:45:04.999Z</time></trkpt><trkpt lat="44.72377863967427" lon="9.117763735191152"><ele>1301.142857142857</ele><time>2026-05-03T10:45:07.999Z</time></trkpt><trkpt lat="44.723738034456936" lon="9.117683429891091"><ele>1298.7142857142858</ele><time>2026-05-03T10:45:10.999Z</time></trkpt><trkpt lat="44.723698614063885" lon="9.117604196689317"><ele>1296.2857142857142</ele><time>2026-05-03T10:45:14.999Z</time></trkpt><trkpt lat="44.723651151201366" lon="9.117528480093245"><ele>1293.857142857143</ele><time>2026-05-03T10:45:18.999Z</time></trkpt><trkpt lat="44.72360450724406" lon="9.11743077221448"><ele>1291.4285714285716</ele><time>2026-05-03T10:45:22.998Z</time></trkpt><trkpt lat="44.72356548025624" lon="9.117354250892857"><ele>1289.0</ele><time>2026-05-03T10:45:25.998Z</time></trkpt><trkpt lat="44.72353499260425" lon="9.117256395251193"><ele>1285.1666666666667</ele><time>2026-05-03T10:45:28.998Z</time></trkpt><trkpt lat="44.72352501219309" lon="9.117157701834154"><ele>1281.3333333333335</ele><time>2026-05-03T10:45:31.998Z</time></trkpt><trkpt lat="44.72349782877355" lon="9.117029663260894"><ele>1277.5</ele><time>2026-05-03T10:45:34.998Z</time></trkpt><trkpt lat="44.72347342157611" lon="9.116940521485073"><ele>1273.6666666666667</ele><time>2026-05-03T10:45:36.998Z</time></trkpt><trkpt lat="44.723424432071795" lon="9.11685303602108"><ele>1269.8333333333333</ele><time>2026-05-03T10:45:40.998Z</time></trkpt><trkpt lat="44.72339014221645" lon="9.116739843011597"><ele>1266.0</ele><time>2026-05-03T10:45:43.998Z</time></trkpt><trkpt lat="44.72335676345947" lon="9.11665031355053"><ele>1264.2</ele><time>2026-05-03T10:45:46.998Z</time></trkpt><trkpt lat="44.72331953789495" lon="9.116556678011431"><ele>1262.3999999999999</ele><time>2026-05-03T10:45:48.998Z</time></trkpt><trkpt lat="44.72325919745609" lon="9.116437713770432"><ele>1260.6</ele><time>2026-05-03T10:45:50.998Z</time></trkpt><trkpt lat="44.72320190648278" lon="9.116335027735307"><ele>1258.8</ele><time>2026-05-03T10:45:52.998Z</time></trkpt><trkpt lat="44.723142961987236" lon="9.11624599692704"><ele>1257.0</ele><time>2026-05-03T10:45:54.998Z</time></trkpt><trkpt lat="44.72308269464794" lon="9.116118355603355"><ele>1257.0</ele><time>2026-05-03T10:45:56.998Z</time></trkpt><trkpt lat="44.723012934396024" lon="9.11602013513736"><ele>1257.0</ele><time>2026-05-03T10:45:58.998Z</time></trkpt><trkpt lat="44.72297479527045" lon="9.115931999754183"><ele>1257.0</ele><time>2026-05-03T10:46:00.998Z</time></trkpt><trkpt lat="44.72295956670856" lon="9.115824136935508"><ele>1257.0</ele><time>2026-05-03T10:46:03.998Z</time></trkpt><trkpt lat="44.72291903193903" lon="9.115741330119633"><ele>1257.0</ele><time>2026-05-03T10:46:56.999Z</time></trkpt><trkpt lat="44.72289252899733" lon="9.115639355278155"><ele>1257.0</ele><time>2026-05-03T10:46:59.999Z</time></trkpt><trkpt lat="44.72288958764239" lon="9.115549526997883"><ele>1254.5</ele><time>2026-05-03T10:47:03.999Z</time></trkpt><trkpt lat="44.72288052081039" lon="9.115430071425493"><ele>1252.0</ele><time>2026-05-03T10:47:06.999Z</time></trkpt><trkpt lat="44.72285005604866" lon="9.115322376234463"><ele>1249.5</ele><time>2026-05-03T10:47:09.999Z</time></trkpt><trkpt lat="44.72285529170153" lon="9.115204866056471"><ele>1247.0</ele><time>2026-05-03T10:47:12.999Z</time></trkpt><trkpt lat="44.72284556684203" lon="9.115111291022002"><ele>1244.5</ele><time>2026-05-03T10:47:15.999Z</time></trkpt><trkpt lat="44.72282339694268" lon="9.115019522687598"><ele>1242.0</ele><time>2026-05-03T10:47:18.999Z</time></trkpt><trkpt lat="44.72279588761177" lon="9.11491035050237"><ele>1238.6</ele><time>2026-05-03T10:47:21.999Z</time></trkpt><trkpt lat="44.722758628308235" lon="9.114821949436738"><ele>1235.2</ele><time>2026-05-03T10:47:23.999Z</time></trkpt><trkpt lat="44.722767809158654" lon="9.114690967825396"><ele>1231.8</ele><time>2026-05-03T10:47:26.999Z</time></trkpt><trkpt lat="44.72276475808686" lon="9.114491626568938"><ele>1228.4</ele><time>2026-05-03T10:47:28.998Z</time></trkpt><trkpt lat="44.722775466152946" lon="9.114375828980693"><ele>1225.0</ele><time>2026-05-03T10:47:30.998Z</time></trkpt><trkpt lat="44.72278761484273" lon="9.114257178743355"><ele>1225.0</ele><time>2026-05-03T10:47:32.998Z</time></trkpt><trkpt lat="44.722790277021815" lon="9.114143578149422"><ele>1225.0</ele><time>2026-05-03T10:47:34.998Z</time></trkpt><trkpt lat="44.72279953685903" lon="9.114016855162197"><ele>1225.0</ele><time>2026-05-03T10:47:36.998Z</time></trkpt><trkpt lat="44.722781018974416" lon="9.113917820975452"><ele>1225.0</ele><time>2026-05-03T10:47:38.998Z</time></trkpt><trkpt lat="44.72279493195915" lon="9.1138141401909"><ele>1225.0</ele><time>2026-05-03T10:47:40.998Z</time></trkpt><trkpt lat="44.72281019843406" lon="9.113709134307994"><ele>1225.0</ele><time>2026-05-03T10:47:42.998Z</time></trkpt><trkpt lat="44.72282343152155" lon="9.113607284678702"><ele>1224.1666666666665</ele><time>2026-05-03T10:47:44.998Z</time></trkpt><trkpt lat="44.72283058988971" lon="9.113501094824"><ele>1223.3333333333333</ele><time>2026-05-03T10:47:46.998Z</time></trkpt><trkpt lat="44.72285246628875" lon="9.113392727744378"><ele>1222.5</ele><time>2026-05-03T10:47:48.998Z</time></trkpt><trkpt lat="44.72283560055974" lon="9.113249471237316"><ele>1221.6666666666667</ele><time>2026-05-03T10:47:50.998Z</time></trkpt><trkpt lat="44.722819463979924" lon="9.113099159460203"><ele>1220.8333333333335</ele><time>2026-05-03T10:47:52.998Z</time></trkpt><trkpt lat="44.72281985333986" lon="9.112998259089817"><ele>1220.0</ele><time>2026-05-03T10:47:55.998Z</time></trkpt><trkpt lat="44.72282055058575" lon="9.11287303943347"><ele>1219.1666666666667</ele><time>2026-05-03T10:47:58.998Z</time></trkpt><trkpt lat="44.722837128975144" lon="9.112768727091018"><ele>1218.3333333333335</ele><time>2026-05-03T10:48:01.998Z</time></trkpt><trkpt lat="44.72280152232759" lon="9.112692043199605"><ele>1217.5</ele><time>2026-05-03T10:48:06.998Z</time></trkpt><trkpt lat="44.72277745104073" lon="9.112571442584166"><ele>1216.6666666666667</ele><time>2026-05-03T10:48:09.998Z</time></trkpt><trkpt lat="44.72276800219832" lon="9.112475627642201"><ele>1215.8333333333333</ele><time>2026-05-03T10:48:11.998Z</time></trkpt><trkpt lat="44.722790701847956" lon="9.112362392120884"><ele>1215.0</ele><time>2026-05-03T10:48:13.998Z</time></trkpt><trkpt lat="44.722779229789055" lon="9.112241342763229"><ele>1212.6666666666667</ele><time>2026-05-03T10:48:15.998Z</time></trkpt><trkpt lat="44.72278158138849" lon="9.112132592403"><ele>1210.3333333333333</ele><time>2026-05-03T10:48:17.998Z</time></trkpt><trkpt lat="44.72281236643128" lon="9.111989436894083"><ele>1208.0</ele><time>2026-05-03T10:48:20Z</time></trkpt><trkpt lat="44.72282789576777" lon="9.111891705328986"><ele>1205.6666666666665</ele><time>2026-05-03T10:48:22Z</time></trkpt><trkpt lat="44.72282536797453" lon="9.111780309327775"><ele>1203.3333333333333</ele><time>2026-05-03T10:48:25Z</time></trkpt><trkpt lat="44.72282721581344" lon="9.111677991621212"><ele>1201.0</ele><time>2026-05-03T10:48:27Z</time></trkpt><trkpt lat="44.72283614060792" lon="9.111568205441541"><ele>1198.8333333333333</ele><time>2026-05-03T10:48:29Z</time></trkpt><trkpt lat="44.72282549187336" lon="9.111463196281298"><ele>1196.6666666666665</ele><time>2026-05-03T10:48:31Z</time></trkpt><trkpt lat="44.722819640006165" lon="9.111364923436094"><ele>1194.5</ele><time>2026-05-03T10:48:33Z</time></trkpt><trkpt lat="44.722827964844576" lon="9.111259142570608"><ele>1192.3333333333333</ele><time>2026-05-03T10:48:36Z</time></trkpt><trkpt lat="44.72282334516095" lon="9.111170415700576"><ele>1190.1666666666667</ele><time>2026-05-03T10:48:37.999Z</time></trkpt><trkpt lat="44.72282979254804" lon="9.11103925252273"><ele>1188.0</ele><time>2026-05-03T10:48:39.999Z</time></trkpt><trkpt lat="44.72282506369533" lon="9.110922099393326"><ele>1188.0</ele><time>2026-05-03T10:48:41.999Z</time></trkpt><trkpt lat="44.72281105872163" lon="9.110793963602763"><ele>1188.0</ele><time>2026-05-03T10:48:43.999Z</time></trkpt><trkpt lat="44.722888887581306" lon="9.110458368823059"><ele>1188.0</ele><time>2026-05-03T10:48:45.999Z</time></trkpt><trkpt lat="44.72292219211838" lon="9.110355828532295"><ele>1188.0</ele><time>2026-05-03T10:48:46.999Z</time></trkpt><trkpt lat="44.72295546705772" lon="9.110259589111152"><ele>1186.8333333333333</ele><time>2026-05-03T10:48:47.999Z</time></trkpt><trkpt lat="44.72298918795257" lon="9.110173277573853"><ele>1185.6666666666667</ele><time>2026-05-03T10:48:48.999Z</time></trkpt><trkpt lat="44.723027936448425" lon="9.110036403705765"><ele>1184.5</ele><time>2026-05-03T10:48:50.999Z</time></trkpt><trkpt lat="44.723035952860194" lon="9.109906965689245"><ele>1183.3333333333335</ele><time>2026-05-03T10:48:52.999Z</time></trkpt><trkpt lat="44.72303403423021" lon="9.109814499122555"><ele>1182.1666666666667</ele><time>2026-05-03T10:48:53.999Z</time></trkpt><trkpt lat="44.72305084757107" lon="9.10966370599212"><ele>1181.0</ele><time>2026-05-03T10:48:55.999Z</time></trkpt><trkpt lat="44.72307596048097" lon="9.109574278598666"><ele>1179.0</ele><time>2026-05-03T10:48:57.999Z</time></trkpt><trkpt lat="44.7230850657363" lon="9.109477493140018"><ele>1177.0</ele><time>2026-05-03T10:49:03.999Z</time></trkpt><trkpt lat="44.72308379288885" lon="9.109377786072956"><ele>1175.0</ele><time>2026-05-03T10:49:06.999Z</time></trkpt><trkpt lat="44.72307300445488" lon="9.109284035594088"><ele>1173.0</ele><time>2026-05-03T10:49:15.999Z</time></trkpt><trkpt lat="44.72309522195782" lon="9.10915029688917"><ele>1171.0</ele><time>2026-05-03T10:49:18.999Z</time></trkpt><trkpt lat="44.7231433127066" lon="9.109075367113089"><ele>1169.0</ele><time>2026-05-03T10:49:21.999Z</time></trkpt><trkpt lat="44.723205313621" lon="9.109014065533621"><ele>1167.5</ele><time>2026-05-03T10:49:23.999Z</time></trkpt><trkpt lat="44.72326878909053" lon="9.10897864860257"><ele>1166.0</ele><time>2026-05-03T10:49:25.999Z</time></trkpt><trkpt lat="44.72333830644907" lon="9.10895670805785"><ele>1164.5</ele><time>2026-05-03T10:49:27.999Z</time></trkpt><trkpt lat="44.723429822091546" lon="9.108922569408353"><ele>1163.0</ele><time>2026-05-03T10:49:29.998Z</time></trkpt><trkpt lat="44.72349520716621" lon="9.108909938210346"><ele>1161.5</ele><time>2026-05-03T10:49:31.998Z</time></trkpt><trkpt lat="44.72355841667871" lon="9.108921329373961"><ele>1160.0</ele><time>2026-05-03T10:49:33.998Z</time></trkpt><trkpt lat="44.72365642137877" lon="9.108946980851698"><ele>1158.2</ele><time>2026-05-03T10:49:36.998Z</time></trkpt><trkpt lat="44.72373263617988" lon="9.10895790461732"><ele>1156.4</ele><time>2026-05-03T10:49:38.998Z</time></trkpt><trkpt lat="44.723843068432934" lon="9.108973286813297"><ele>1154.6</ele><time>2026-05-03T10:49:40.998Z</time></trkpt><trkpt lat="44.72392559560609" lon="9.10896167292477"><ele>1152.8</ele><time>2026-05-03T10:49:42.998Z</time></trkpt><trkpt lat="44.724028933154955" lon="9.108946665123929"><ele>1151.0</ele><time>2026-05-03T10:49:44.998Z</time></trkpt><trkpt lat="44.7241149924676" lon="9.108948918850254"><ele>1151.0</ele><time>2026-05-03T10:49:47.998Z</time></trkpt><trkpt lat="44.72421727926275" lon="9.108922404581897"><ele>1151.0</ele><time>2026-05-03T10:49:49.998Z</time></trkpt><trkpt lat="44.72431068119378" lon="9.108898180028795"><ele>1151.0</ele><time>2026-05-03T10:49:50.998Z</time></trkpt><trkpt lat="44.72437960973789" lon="9.108860500047422"><ele>1151.0</ele><time>2026-05-03T10:49:51.998Z</time></trkpt><trkpt lat="44.7244412666078" lon="9.10883399790887"><ele>1151.0</ele><time>2026-05-03T10:49:52.998Z</time></trkpt><trkpt lat="44.72450337248265" lon="9.108798223877745"><ele>1151.0</ele><time>2026-05-03T10:49:53.998Z</time></trkpt><trkpt lat="44.72459756083172" lon="9.108747904194765"><ele>1148.0</ele><time>2026-05-03T10:49:55.998Z</time></trkpt><trkpt lat="44.72468056748378" lon="9.108688805056747"><ele>1145.0</ele><time>2026-05-03T10:49:57.998Z</time></trkpt><trkpt lat="44.72474971758857" lon="9.108648541169934"><ele>1142.0</ele><time>2026-05-03T10:49:59.998Z</time></trkpt><trkpt lat="44.72482974249843" lon="9.108611722138551"><ele>1139.0</ele><time>2026-05-03T10:50:01.998Z</time></trkpt><trkpt lat="44.72491465657117" lon="9.108588105628195"><ele>1136.0</ele><time>2026-05-03T10:50:03.998Z</time></trkpt><trkpt lat="44.72499629567084" lon="9.108595299926076"><ele>1133.0</ele><time>2026-05-03T10:50:06.998Z</time></trkpt><trkpt lat="44.725116322565725" lon="9.108602329722023"><ele>1133.0</ele><time>2026-05-03T10:50:08.998Z</time></trkpt><trkpt lat="44.72517996077843" lon="9.108588697779656"><ele>1133.0</ele><time>2026-05-03T10:50:09.998Z</time></trkpt><trkpt lat="44.725254277961525" lon="9.10854809382126"><ele>1133.0</ele><time>2026-05-03T10:50:10.998Z</time></trkpt><trkpt lat="44.72536464691719" lon="9.108495289936549"><ele>1133.0</ele><time>2026-05-03T10:50:11.998Z</time></trkpt><trkpt lat="44.725465038663714" lon="9.10847090330773"><ele>1133.0</ele><time>2026-05-03T10:50:12.998Z</time></trkpt><trkpt lat="44.72557251180942" lon="9.108456819432725"><ele>1130.5</ele><time>2026-05-03T10:50:15.998Z</time></trkpt><trkpt lat="44.72565810252578" lon="9.108427023456251"><ele>1128.0</ele><time>2026-05-03T10:50:17.998Z</time></trkpt><trkpt lat="44.72572357373912" lon="9.108428987949337"><ele>1125.5</ele><time>2026-05-03T10:50:20.998Z</time></trkpt><trkpt lat="44.72579720617732" lon="9.10836459716832"><ele>1123.0</ele><time>2026-05-03T10:50:23.997Z</time></trkpt><trkpt lat="44.72585834187618" lon="9.108303857772068"><ele>1120.5</ele><time>2026-05-03T10:50:28Z</time></trkpt><trkpt lat="44.72591285794325" lon="9.108245853302668"><ele>1118.0</ele><time>2026-05-03T10:50:32Z</time></trkpt><trkpt lat="44.72597029823097" lon="9.108173585400415"><ele>1117.4</ele><time>2026-05-03T10:50:35Z</time></trkpt><trkpt lat="44.72605063673147" lon="9.108083619194698"><ele>1116.8</ele><time>2026-05-03T10:50:37Z</time></trkpt><trkpt lat="44.72616106438959" lon="9.1080344647352"><ele>1116.2</ele><time>2026-05-03T10:50:39Z</time></trkpt><trkpt lat="44.72627424465591" lon="9.10801847489405"><ele>1115.6</ele><time>2026-05-03T10:50:41Z</time></trkpt><trkpt lat="44.7263416752261" lon="9.10798364284723"><ele>1115.0</ele><time>2026-05-03T10:50:42Z</time></trkpt><trkpt lat="44.72642405870683" lon="9.107934232830587"><ele>1112.2</ele><time>2026-05-03T10:50:43Z</time></trkpt><trkpt lat="44.72649246956119" lon="9.107884340222107"><ele>1109.4</ele><time>2026-05-03T10:50:44Z</time></trkpt><trkpt lat="44.72655411962666" lon="9.107833870314984"><ele>1106.6</ele><time>2026-05-03T10:50:45Z</time></trkpt><trkpt lat="44.7266584331035" lon="9.10777863558053"><ele>1103.8</ele><time>2026-05-03T10:50:46.999Z</time></trkpt><trkpt lat="44.7267577560599" lon="9.107761283483757"><ele>1101.0</ele><time>2026-05-03T10:50:48.999Z</time></trkpt><trkpt lat="44.72685949693324" lon="9.107777379978074"><ele>1099.6666666666667</ele><time>2026-05-03T10:50:50.999Z</time></trkpt><trkpt lat="44.726923201120506" lon="9.107802805930044"><ele>1098.3333333333333</ele><time>2026-05-03T10:50:52.999Z</time></trkpt><trkpt lat="44.72699724615024" lon="9.107850810661517"><ele>1097.0</ele><time>2026-05-03T10:50:54.999Z</time></trkpt><trkpt lat="44.727082871937334" lon="9.107942961610435"><ele>1095.6666666666665</ele><time>2026-05-03T10:50:56.999Z</time></trkpt><trkpt lat="44.72711080600671" lon="9.108069946168833"><ele>1094.3333333333333</ele><time>2026-05-03T10:50:58.999Z</time></trkpt><trkpt lat="44.727079383589476" lon="9.10815087229525"><ele>1093.0</ele><time>2026-05-03T10:51:01.999Z</time></trkpt><trkpt lat="44.727056187484955" lon="9.10824432273938"><ele>1093.0</ele><time>2026-05-03T10:51:05.999Z</time></trkpt><trkpt lat="44.72704683942043" lon="9.108362647074363"><ele>1093.0</ele><time>2026-05-03T10:51:54.998Z</time></trkpt><trkpt lat="44.726981241023665" lon="9.108488203275897"><ele>1093.0</ele><time>2026-05-03T10:51:56.998Z</time></trkpt><trkpt lat="44.72694549824391" lon="9.108565665710417"><ele>1093.0</ele><time>2026-05-03T10:51:57.998Z</time></trkpt><trkpt lat="44.726907180194424" lon="9.108651397919537"><ele>1093.0</ele><time>2026-05-03T10:51:58.998Z</time></trkpt><trkpt lat="44.726870696735" lon="9.10873420861828"><ele>1093.0</ele><time>2026-05-03T10:51:59.998Z</time></trkpt><trkpt lat="44.726840532489916" lon="9.108832318441301"><ele>1094.0</ele><time>2026-05-03T10:52:00.998Z</time></trkpt><trkpt lat="44.72681397693789" lon="9.108928721074685"><ele>1095.0</ele><time>2026-05-03T10:52:01.998Z</time></trkpt><trkpt lat="44.7267972311706" lon="9.109019484381575"><ele>1096.0</ele><time>2026-05-03T10:52:02.998Z</time></trkpt><trkpt lat="44.72678586609225" lon="9.109119477025493"><ele>1097.0</ele><time>2026-05-03T10:52:03.998Z</time></trkpt><trkpt lat="44.726777317121595" lon="9.109222923400967"><ele>1098.0</ele><time>2026-05-03T10:52:04.998Z</time></trkpt><trkpt lat="44.726782465154834" lon="9.109332875124771"><ele>1099.0</ele><time>2026-05-03T10:52:05.998Z</time></trkpt><trkpt lat="44.726785496583325" lon="9.109431914285118"><ele>1100.0</ele><time>2026-05-03T10:52:06.998Z</time></trkpt><trkpt lat="44.726794580324174" lon="9.10953471941812"><ele>1100.0</ele><time>2026-05-03T10:52:07.998Z</time></trkpt><trkpt lat="44.7268084224421" lon="9.109627773744647"><ele>1100.0</ele><time>2026-05-03T10:52:08.998Z</time></trkpt><trkpt lat="44.72682647109562" lon="9.109723658596566"><ele>1100.0</ele><time>2026-05-03T10:52:09.998Z</time></trkpt><trkpt lat="44.726851408032985" lon="9.109811761714735"><ele>1100.0</ele><time>2026-05-03T10:52:10.998Z</time></trkpt><trkpt lat="44.72688768836756" lon="9.109888177401404"><ele>1100.0</ele><time>2026-05-03T10:52:11.998Z</time></trkpt><trkpt lat="44.72693494102793" lon="9.10994689174808"><ele>1100.0</ele><time>2026-05-03T10:52:12.998Z</time></trkpt><trkpt lat="44.72696370505615" lon="9.110067895356082"><ele>1100.0</ele><time>2026-05-03T10:52:14.998Z</time></trkpt><trkpt lat="44.72700726673943" lon="9.110175283362532"><ele>1099.6</ele><time>2026-05-03T10:52:16.998Z</time></trkpt><trkpt lat="44.72703856122464" lon="9.110252430358587"><ele>1099.2</ele><time>2026-05-03T10:52:25.998Z</time></trkpt><trkpt lat="44.72708803336873" lon="9.110374388762205"><ele>1098.8</ele><time>2026-05-03T10:53:07.999Z</time></trkpt><trkpt lat="44.72716348643902" lon="9.11040075286514"><ele>1098.4</ele><time>2026-05-03T10:53:08.999Z</time></trkpt><trkpt lat="44.72725775455833" lon="9.110545860775838"><ele>1098.0</ele><time>2026-05-03T10:53:10.999Z</time></trkpt><trkpt lat="44.72731297308105" lon="9.1106267276528"><ele>1098.0</ele><time>2026-05-03T10:53:11.999Z</time></trkpt><trkpt lat="44.72735452715294" lon="9.110699049351206"><ele>1098.0</ele><time>2026-05-03T10:53:12.999Z</time></trkpt><trkpt lat="44.727376973155025" lon="9.110809743373036"><ele>1098.0</ele><time>2026-05-03T10:53:14.999Z</time></trkpt><trkpt lat="44.72734278969542" lon="9.110905178628185"><ele>1098.0</ele><time>2026-05-03T10:53:16.999Z</time></trkpt><trkpt lat="44.727352824251525" lon="9.110999355277727"><ele>1098.0</ele><time>2026-05-03T10:53:17.999Z</time></trkpt><trkpt lat="44.72729112127254" lon="9.111102556692886"><ele>1098.0</ele><time>2026-05-03T10:53:19.999Z</time></trkpt><trkpt lat="44.72728908958729" lon="9.11120913673905"><ele>1099.1666666666667</ele><time>2026-05-03T10:53:20.999Z</time></trkpt><trkpt lat="44.727283025043604" lon="9.111307586339393"><ele>1100.3333333333333</ele><time>2026-05-03T10:53:21.999Z</time></trkpt><trkpt lat="44.72729110282218" lon="9.111407529582777"><ele>1101.5</ele><time>2026-05-03T10:53:22.999Z</time></trkpt><trkpt lat="44.72729632171361" lon="9.111519238462416"><ele>1102.6666666666665</ele><time>2026-05-03T10:53:23.999Z</time></trkpt><trkpt lat="44.72731306084036" lon="9.111641862057633"><ele>1103.8333333333333</ele><time>2026-05-03T10:53:24.999Z</time></trkpt><trkpt lat="44.72732024207089" lon="9.111730172156822"><ele>1105.0</ele><time>2026-05-03T10:53:25.999Z</time></trkpt><trkpt lat="44.727324718803374" lon="9.111927413721897"><ele>1106.6666666666665</ele><time>2026-05-03T10:53:27.999Z</time></trkpt><trkpt lat="44.72732911725147" lon="9.112016150994972"><ele>1108.3333333333333</ele><time>2026-05-03T10:53:28.999Z</time></trkpt><trkpt lat="44.72731732289451" lon="9.11216725301818"><ele>1110.0</ele><time>2026-05-03T10:53:30.999Z</time></trkpt><trkpt lat="44.72734595015582" lon="9.112248840314162"><ele>1111.6666666666667</ele><time>2026-05-03T10:53:32.999Z</time></trkpt><trkpt lat="44.72738692376639" lon="9.112356392325186"><ele>1113.3333333333335</ele><time>2026-05-03T10:53:35.999Z</time></trkpt><trkpt lat="44.72746366574432" lon="9.112398753881761"><ele>1115.0</ele><time>2026-05-03T10:53:41.998Z</time></trkpt><trkpt lat="44.727574410015706" lon="9.112383922308135"><ele>1116.0</ele><time>2026-05-03T10:53:43.998Z</time></trkpt><trkpt lat="44.727681503289894" lon="9.112408663851875"><ele>1117.0</ele><time>2026-05-03T10:53:45.998Z</time></trkpt><trkpt lat="44.727766715955994" lon="9.112398903363758"><ele>1118.0</ele><time>2026-05-03T10:53:47.998Z</time></trkpt><trkpt lat="44.72792193125714" lon="9.112309904874465"><ele>1119.0</ele><time>2026-05-03T10:53:49.998Z</time></trkpt><trkpt lat="44.727979978824315" lon="9.112225865867908"><ele>1120.0</ele><time>2026-05-03T10:53:51.998Z</time></trkpt><trkpt lat="44.728076344060476" lon="9.112128573944709"><ele>1120.0</ele><time>2026-05-03T10:53:53.998Z</time></trkpt><trkpt lat="44.72818954826955" lon="9.112097430059945"><ele>1120.0</ele><time>2026-05-03T10:53:55.998Z</time></trkpt><trkpt lat="44.72829118376276" lon="9.112089113675978"><ele>1120.0</ele><time>2026-05-03T10:53:57.998Z</time></trkpt><trkpt lat="44.72839143165722" lon="9.112081901877321"><ele>1120.0</ele><time>2026-05-03T10:53:59.998Z</time></trkpt><trkpt lat="44.728475214550954" lon="9.11207357232821"><ele>1120.0</ele><time>2026-05-03T10:54:01.998Z</time></trkpt><trkpt lat="44.728561032842556" lon="9.112038773920633"><ele>1121.4</ele><time>2026-05-03T10:54:03.998Z</time></trkpt><trkpt lat="44.72867941888123" lon="9.112018897903953"><ele>1122.8</ele><time>2026-05-03T10:54:05.998Z</time></trkpt><trkpt lat="44.72874712529536" lon="9.112078542398962"><ele>1124.2</ele><time>2026-05-03T10:54:07.998Z</time></trkpt><trkpt lat="44.72882855296909" lon="9.112181717919531"><ele>1125.6</ele><time>2026-05-03T10:54:09.998Z</time></trkpt><trkpt lat="44.72889561079183" lon="9.112229992511967"><ele>1127.0</ele><time>2026-05-03T10:54:10.998Z</time></trkpt><trkpt lat="44.72896683132469" lon="9.112261034447654"><ele>1127.0</ele><time>2026-05-03T10:54:11.998Z</time></trkpt><trkpt lat="44.72903954212807" lon="9.112277803014408"><ele>1127.0</ele><time>2026-05-03T10:54:12.998Z</time></trkpt><trkpt lat="44.72917782289732" lon="9.11233525810317"><ele>1127.0</ele><time>2026-05-03T10:54:14.998Z</time></trkpt><trkpt lat="44.729263105681284" lon="9.112334151961608"><ele>1127.0</ele><time>2026-05-03T10:54:16.998Z</time></trkpt><trkpt lat="44.72934213683008" lon="9.112364593407413"><ele>1127.0</ele><time>2026-05-03T10:54:19.998Z</time></trkpt><trkpt lat="44.72942559799524" lon="9.112353736664614"><ele>1126.6666666666667</ele><time>2026-05-03T10:54:34.997Z</time></trkpt><trkpt lat="44.72948897094864" lon="9.112357730436822"><ele>1126.3333333333335</ele><time>2026-05-03T10:54:36.999Z</time></trkpt><trkpt lat="44.72956709867057" lon="9.112338365816031"><ele>1126.0</ele><time>2026-05-03T10:54:39.999Z</time></trkpt><trkpt lat="44.729649925839844" lon="9.112328660113722"><ele>1125.6666666666667</ele><time>2026-05-03T10:54:42.999Z</time></trkpt><trkpt lat="44.729723892500516" lon="9.112309118696148"><ele>1125.3333333333333</ele><time>2026-05-03T10:54:45.999Z</time></trkpt><trkpt lat="44.72978958248565" lon="9.112302653845296"><ele>1125.0</ele><time>2026-05-03T10:54:49.999Z</time></trkpt><trkpt lat="44.72987640510422" lon="9.112368619083508"><ele>1126.2</ele><time>2026-05-03T10:54:52.999Z</time></trkpt><trkpt lat="44.729932056950126" lon="9.112452034062292"><ele>1127.4</ele><time>2026-05-03T10:54:55.999Z</time></trkpt><trkpt lat="44.729981206038474" lon="9.112530332981247"><ele>1128.6</ele><time>2026-05-03T10:54:57.999Z</time></trkpt><trkpt lat="44.73005748507461" lon="9.112660764020783"><ele>1129.8</ele><time>2026-05-03T10:54:59.999Z</time></trkpt><trkpt lat="44.730158707216354" lon="9.112710418736025"><ele>1131.0</ele><time>2026-05-03T10:55:01.999Z</time></trkpt><trkpt lat="44.73027190201643" lon="9.112797111769526"><ele>1131.0</ele><time>2026-05-03T10:55:03.999Z</time></trkpt><trkpt lat="44.73033842956301" lon="9.112846342247998"><ele>1131.0</ele><time>2026-05-03T10:55:05.999Z</time></trkpt><trkpt lat="44.730387232349734" lon="9.112944206386999"><ele>1131.0</ele><time>2026-05-03T10:55:07.999Z</time></trkpt><trkpt lat="44.730448776362074" lon="9.113045169667686"><ele>1131.0</ele><time>2026-05-03T10:55:09.999Z</time></trkpt><trkpt lat="44.7305135773184" lon="9.113154273893095"><ele>1131.0</ele><time>2026-05-03T10:55:11.999Z</time></trkpt><trkpt lat="44.73056503793151" lon="9.113307957294374"><ele>1133.5</ele><time>2026-05-03T10:55:13.999Z</time></trkpt><trkpt lat="44.73058277135108" lon="9.113397070208995"><ele>1136.0</ele><time>2026-05-03T10:55:14.999Z</time></trkpt><trkpt lat="44.73060099484692" lon="9.113545467620652"><ele>1138.5</ele><time>2026-05-03T10:55:16.999Z</time></trkpt><trkpt lat="44.73062188791347" lon="9.113630472731554"><ele>1141.0</ele><time>2026-05-03T10:55:18.999Z</time></trkpt><trkpt lat="44.73064771510304" lon="9.113732306135903"><ele>1143.5</ele><time>2026-05-03T10:55:20.999Z</time></trkpt><trkpt lat="44.73066208905088" lon="9.113831386411732"><ele>1146.0</ele><time>2026-05-03T10:55:21.999Z</time></trkpt><trkpt lat="44.73067594757572" lon="9.113919818759756"><ele>1146.0</ele><time>2026-05-03T10:55:22.999Z</time></trkpt><trkpt lat="44.730703996726476" lon="9.114056079759372"><ele>1146.0</ele><time>2026-05-03T10:55:24.999Z</time></trkpt><trkpt lat="44.730738559242134" lon="9.114211055848022"><ele>1146.0</ele><time>2026-05-03T10:55:26.999Z</time></trkpt><trkpt lat="44.73074508730439" lon="9.114306318759256"><ele>1146.0</ele><time>2026-05-03T10:55:28.999Z</time></trkpt><trkpt lat="44.730712549577795" lon="9.114427063151714"><ele>1146.0</ele><time>2026-05-03T10:55:30.999Z</time></trkpt><trkpt lat="44.73065244746563" lon="9.11450957946272"><ele>1148.4285714285716</ele><time>2026-05-03T10:55:32.999Z</time></trkpt><trkpt lat="44.73062618364236" lon="9.114602474668041"><ele>1150.857142857143</ele><time>2026-05-03T10:55:39.999Z</time></trkpt><trkpt lat="44.73061897215889" lon="9.114690529181694"><ele>1153.2857142857142</ele><time>2026-05-03T10:55:42.998Z</time></trkpt><trkpt lat="44.730605488545955" lon="9.114802545908478"><ele>1155.7142857142858</ele><time>2026-05-03T10:55:44.998Z</time></trkpt><trkpt lat="44.730600742053355" lon="9.114891890243623"><ele>1158.142857142857</ele><time>2026-05-03T10:55:46.998Z</time></trkpt><trkpt lat="44.73060779694803" lon="9.114981943461466"><ele>1160.5714285714287</ele><time>2026-05-03T10:55:48.998Z</time></trkpt><trkpt lat="44.730630424455796" lon="9.115102249154994"><ele>1163.0</ele><time>2026-05-03T10:55:51.998Z</time></trkpt><trkpt lat="44.73067875103657" lon="9.115162084515077"><ele>1165.5</ele><time>2026-05-03T10:55:52.998Z</time></trkpt><trkpt lat="44.73074038477521" lon="9.115227599980656"><ele>1168.0</ele><time>2026-05-03T10:55:54.998Z</time></trkpt><trkpt lat="44.73076777068683" lon="9.115309951647781"><ele>1170.5</ele><time>2026-05-03T10:55:57.998Z</time></trkpt><trkpt lat="44.73077212795142" lon="9.115413195905333"><ele>1173.0</ele><time>2026-05-03T10:55:59.998Z</time></trkpt><trkpt lat="44.73078174906336" lon="9.115545030848965"><ele>1175.5</ele><time>2026-05-03T10:56:01.999Z</time></trkpt><trkpt lat="44.7308277319741" lon="9.115672089390797"><ele>1178.0</ele><time>2026-05-03T10:56:03.999Z</time></trkpt><trkpt lat="44.73087333851702" lon="9.115815516136717"><ele>1180.4</ele><time>2026-05-03T10:56:05.999Z</time></trkpt><trkpt lat="44.73094180236659" lon="9.115917357836425"><ele>1182.8</ele><time>2026-05-03T10:56:07.999Z</time></trkpt><trkpt lat="44.730984568728026" lon="9.116039465484972"><ele>1185.2</ele><time>2026-05-03T10:56:09.999Z</time></trkpt><trkpt lat="44.73102292511519" lon="9.116153079083272"><ele>1187.6</ele><time>2026-05-03T10:56:11.999Z</time></trkpt><trkpt lat="44.73103754680451" lon="9.116246198079567"><ele>1190.0</ele><time>2026-05-03T10:56:13.999Z</time></trkpt><trkpt lat="44.73104223268613" lon="9.11638817693619"><ele>1188.8</ele><time>2026-05-03T10:56:15.999Z</time></trkpt><trkpt lat="44.73108595954922" lon="9.11649146757824"><ele>1187.6</ele><time>2026-05-03T10:56:17.999Z</time></trkpt><trkpt lat="44.7311407816411" lon="9.116552566973377"><ele>1186.4</ele><time>2026-05-03T10:56:19.999Z</time></trkpt><trkpt lat="44.73125051829353" lon="9.116576014046947"><ele>1185.2</ele><time>2026-05-03T10:56:21.999Z</time></trkpt><trkpt lat="44.73137947247757" lon="9.116574317725298"><ele>1184.0</ele><time>2026-05-03T10:56:23.999Z</time></trkpt><trkpt lat="44.73147474168968" lon="9.116615578753999"><ele>1184.0</ele><time>2026-05-03T10:56:25.999Z</time></trkpt><trkpt lat="44.73155331413931" lon="9.116610915261175"><ele>1184.0</ele><time>2026-05-03T10:56:27.999Z</time></trkpt><trkpt lat="44.731650560140736" lon="9.116685777828911"><ele>1184.0</ele><time>2026-05-03T10:56:29.999Z</time></trkpt><trkpt lat="44.73170202110597" lon="9.116743846803717"><ele>1184.0</ele><time>2026-05-03T10:56:31.999Z</time></trkpt><trkpt lat="44.73194905513646" lon="9.117184905553408"><ele>1182.2</ele><time>2026-05-03T10:56:36.998Z</time></trkpt><trkpt lat="44.7320416392562" lon="9.117236811452393"><ele>1180.4</ele><time>2026-05-03T10:56:38.998Z</time></trkpt><trkpt lat="44.73214923229552" lon="9.117269278689685"><ele>1178.6</ele><time>2026-05-03T10:56:40.998Z</time></trkpt><trkpt lat="44.73223829999485" lon="9.117283081527862"><ele>1176.8</ele><time>2026-05-03T10:56:43.001Z</time></trkpt><trkpt lat="44.73233743043306" lon="9.117262013807242"><ele>1175.0</ele><time>2026-05-03T10:56:46.001Z</time></trkpt><trkpt lat="44.7324133152389" lon="9.11724854957777"><ele>1175.0</ele><time>2026-05-03T10:56:48.001Z</time></trkpt><trkpt lat="44.73249540506015" lon="9.11725942161638"><ele>1175.0</ele><time>2026-05-03T10:56:50.001Z</time></trkpt><trkpt lat="44.73256159168331" lon="9.117275594477642"><ele>1175.0</ele><time>2026-05-03T10:56:51.001Z</time></trkpt><trkpt lat="44.73263700858164" lon="9.117291876839268"><ele>1175.0</ele><time>2026-05-03T10:56:52.001Z</time></trkpt><trkpt lat="44.73270362603641" lon="9.11731785756158"><ele>1175.0</ele><time>2026-05-03T10:56:53.001Z</time></trkpt><trkpt lat="44.73277890898392" lon="9.117339698944765"><ele>1175.0</ele><time>2026-05-03T10:56:54.001Z</time></trkpt><trkpt lat="44.7328520386506" lon="9.117369045541055"><ele>1175.0</ele><time>2026-05-03T10:56:55.001Z</time></trkpt><trkpt lat="44.73291905518147" lon="9.117405114559201"><ele>1179.8</ele><time>2026-05-03T10:56:56.001Z</time></trkpt><trkpt lat="44.73298317431272" lon="9.11743004119588"><ele>1184.6</ele><time>2026-05-03T10:56:57Z</time></trkpt><trkpt lat="44.73309911382179" lon="9.117453607960478"><ele>1189.4</ele><time>2026-05-03T10:56:59Z</time></trkpt><trkpt lat="44.73320307651415" lon="9.117467177422377"><ele>1194.2</ele><time>2026-05-03T10:57:01Z</time></trkpt><trkpt lat="44.73330840698754" lon="9.117486918561514"><ele>1199.0</ele><time>2026-05-03T10:57:03Z</time></trkpt><trkpt lat="44.73339894801426" lon="9.117516948460525"><ele>1199.0</ele><time>2026-05-03T10:57:05Z</time></trkpt><trkpt lat="44.733463713958386" lon="9.117517162852016"><ele>1199.0</ele><time>2026-05-03T10:57:06Z</time></trkpt><trkpt lat="44.733585456669054" lon="9.117489254230673"><ele>1199.0</ele><time>2026-05-03T10:57:08Z</time></trkpt><trkpt lat="44.73366417606109" lon="9.117488435263398"><ele>1199.0</ele><time>2026-05-03T10:57:09Z</time></trkpt><trkpt lat="44.73377782824404" lon="9.117525569426002"><ele>1199.0</ele><time>2026-05-03T10:57:11Z</time></trkpt><trkpt lat="44.73383823037823" lon="9.117574049529628"><ele>1197.4</ele><time>2026-05-03T10:57:13Z</time></trkpt><trkpt lat="44.73391773335501" lon="9.117592148852632"><ele>1195.8000000000002</ele><time>2026-05-03T10:57:15Z</time></trkpt><trkpt lat="44.73402179697566" lon="9.117656849717381"><ele>1194.1999999999998</ele><time>2026-05-03T10:57:17Z</time></trkpt><trkpt lat="44.734096806244914" lon="9.117679117660426"><ele>1192.6</ele><time>2026-05-03T10:57:19Z</time></trkpt><trkpt lat="44.734182518739786" lon="9.11768744356577"><ele>1191.0</ele><time>2026-05-03T10:57:21Z</time></trkpt><trkpt lat="44.734301525547245" lon="9.117742177124375"><ele>1191.0</ele><time>2026-05-03T10:57:23Z</time></trkpt><trkpt lat="44.734369815224255" lon="9.117759154106231"><ele>1191.0</ele><time>2026-05-03T10:57:24Z</time></trkpt><trkpt lat="44.73443617025869" lon="9.11777901877924"><ele>1191.0</ele><time>2026-05-03T10:57:25Z</time></trkpt><trkpt lat="44.734524418182914" lon="9.117846155126424"><ele>1191.0</ele><time>2026-05-03T10:57:27Z</time></trkpt><trkpt lat="44.73461594999864" lon="9.11786230346426"><ele>1191.0</ele><time>2026-05-03T10:57:30Z</time></trkpt><trkpt lat="44.73467886353439" lon="9.117894856684966"><ele>1191.0</ele><time>2026-05-03T10:57:32Z</time></trkpt><trkpt lat="44.73482044604815" lon="9.117965615086534"><ele>1189.1666666666667</ele><time>2026-05-03T10:57:35Z</time></trkpt><trkpt lat="44.734905042947574" lon="9.118009656301433"><ele>1187.3333333333333</ele><time>2026-05-03T10:57:36Z</time></trkpt><trkpt lat="44.734977884533485" lon="9.118018255456265"><ele>1185.5</ele><time>2026-05-03T10:57:38Z</time></trkpt><trkpt lat="44.735115418766135" lon="9.11801819944659"><ele>1183.6666666666665</ele><time>2026-05-03T10:57:40Z</time></trkpt><trkpt lat="44.7351867949542" lon="9.118015615515656"><ele>1181.8333333333333</ele><time>2026-05-03T10:57:41Z</time></trkpt><trkpt lat="44.73525991341412" lon="9.11800682033113"><ele>1180.0</ele><time>2026-05-03T10:57:42Z</time></trkpt><trkpt lat="44.73534120002626" lon="9.117987365153606"><ele>1179.5</ele><time>2026-05-03T10:57:43Z</time></trkpt><trkpt lat="44.73543326587851" lon="9.117982069492726"><ele>1179.0</ele><time>2026-05-03T10:57:44Z</time></trkpt><trkpt lat="44.735502736649316" lon="9.1179910024297"><ele>1178.5</ele><time>2026-05-03T10:57:45Z</time></trkpt><trkpt lat="44.73556703544961" lon="9.11800240837205"><ele>1178.0</ele><time>2026-05-03T10:57:46Z</time></trkpt><trkpt lat="44.735655368810576" lon="9.11802199718874"><ele>1177.5</ele><time>2026-05-03T10:57:48Z</time></trkpt><trkpt lat="44.73575765213251" lon="9.11801225552474"><ele>1177.0</ele><time>2026-05-03T10:58:12.999Z</time></trkpt><trkpt lat="44.73582135846849" lon="9.117971925692014"><ele>1177.0</ele><time>2026-05-03T10:58:21.999Z</time></trkpt><trkpt lat="44.73588930259077" lon="9.1179092036545"><ele>1177.0</ele><time>2026-05-03T10:58:24.999Z</time></trkpt><trkpt lat="44.735944931618555" lon="9.117852140627704"><ele>1177.0</ele><time>2026-05-03T10:58:26.999Z</time></trkpt><trkpt lat="44.735997252238995" lon="9.117798137416639"><ele>1177.0</ele><time>2026-05-03T10:58:28.999Z</time></trkpt><trkpt lat="44.73605804151924" lon="9.117732829419014"><ele>1177.0</ele><time>2026-05-03T10:58:30.999Z</time></trkpt><trkpt lat="44.73614185763344" lon="9.117660018670541"><ele>1177.0</ele><time>2026-05-03T10:58:33.999Z</time></trkpt><trkpt lat="44.73619881980563" lon="9.117610498515576"><ele>1176.0</ele><time>2026-05-03T10:58:35.999Z</time></trkpt><trkpt lat="44.7362640890669" lon="9.117572545862371"><ele>1175.0</ele><time>2026-05-03T10:58:37.999Z</time></trkpt><trkpt lat="44.73632306688624" lon="9.117539322907506"><ele>1174.0</ele><time>2026-05-03T10:58:39.999Z</time></trkpt><trkpt lat="44.73639999049064" lon="9.11750719998604"><ele>1173.0</ele><time>2026-05-03T10:58:42.998Z</time></trkpt><trkpt lat="44.73648007709997" lon="9.117517254258752"><ele>1172.0</ele><time>2026-05-03T10:58:44.998Z</time></trkpt><trkpt lat="44.73655800542666" lon="9.11754064132366"><ele>1171.0</ele><time>2026-05-03T10:58:46.998Z</time></trkpt><trkpt lat="44.73662579772561" lon="9.117562169689684"><ele>1170.0</ele><time>2026-05-03T10:58:50.001Z</time></trkpt><trkpt lat="44.73671562153816" lon="9.1175846900967"><ele>1170.0</ele><time>2026-05-03T10:58:53.001Z</time></trkpt><trkpt lat="44.736790999879986" lon="9.117594733581884"><ele>1170.0</ele><time>2026-05-03T10:58:55.001Z</time></trkpt><trkpt lat="44.7368657126643" lon="9.117598381418068"><ele>1170.0</ele><time>2026-05-03T10:58:57.001Z</time></trkpt><trkpt lat="44.73694511329016" lon="9.11759979722395"><ele>1170.0</ele><time>2026-05-03T10:58:59.001Z</time></trkpt><trkpt lat="44.73703151188757" lon="9.117595047806706"><ele>1170.0</ele><time>2026-05-03T10:59:01.001Z</time></trkpt><trkpt lat="44.73712327879849" lon="9.11758581688604"><ele>1170.0</ele><time>2026-05-03T10:59:03.001Z</time></trkpt><trkpt lat="44.73721284121474" lon="9.117585834843592"><ele>1168.3333333333333</ele><time>2026-05-03T10:59:05Z</time></trkpt><trkpt lat="44.737302560300606" lon="9.117586855775642"><ele>1166.6666666666667</ele><time>2026-05-03T10:59:07Z</time></trkpt><trkpt lat="44.737385479954426" lon="9.117581836862131"><ele>1165.0</ele><time>2026-05-03T10:59:09Z</time></trkpt><trkpt lat="44.737467314578694" lon="9.117574661413853"><ele>1163.3333333333335</ele><time>2026-05-03T10:59:11Z</time></trkpt><trkpt lat="44.7375451668904" lon="9.117562687545364"><ele>1161.6666666666667</ele><time>2026-05-03T10:59:13Z</time></trkpt><trkpt lat="44.73762453647538" lon="9.117538927173253"><ele>1160.0</ele><time>2026-05-03T10:59:15Z</time></trkpt><trkpt lat="44.73771039169365" lon="9.117495725261096"><ele>1157.3333333333335</ele><time>2026-05-03T10:59:17Z</time></trkpt><trkpt lat="44.73778958915307" lon="9.117431666227676"><ele>1154.6666666666667</ele><time>2026-05-03T10:59:19Z</time></trkpt><trkpt lat="44.73786522063433" lon="9.117379752745588"><ele>1152.0</ele><time>2026-05-03T10:59:21Z</time></trkpt><trkpt lat="44.73792630018305" lon="9.117324342063835"><ele>1149.3333333333333</ele><time>2026-05-03T10:59:23Z</time></trkpt><trkpt lat="44.73798765243411" lon="9.117272631115807"><ele>1146.6666666666665</ele><time>2026-05-03T10:59:25Z</time></trkpt><trkpt lat="44.738072523251724" lon="9.117230204744775"><ele>1144.0</ele><time>2026-05-03T10:59:27Z</time></trkpt><trkpt lat="44.73816674047983" lon="9.117149589112287"><ele>1144.0</ele><time>2026-05-03T10:59:29Z</time></trkpt><trkpt lat="44.7382810372885" lon="9.117134008693581"><ele>1144.0</ele><time>2026-05-03T10:59:31Z</time></trkpt><trkpt lat="44.73839639050116" lon="9.11712871911785"><ele>1144.0</ele><time>2026-05-03T10:59:33Z</time></trkpt><trkpt lat="44.73851686830466" lon="9.11709102422766"><ele>1144.0</ele><time>2026-05-03T10:59:35Z</time></trkpt><trkpt lat="44.73863882824618" lon="9.117057355178897"><ele>1141.0</ele><time>2026-05-03T10:59:37Z</time></trkpt><trkpt lat="44.738742271282746" lon="9.117009092893163"><ele>1138.0</ele><time>2026-05-03T10:59:39Z</time></trkpt><trkpt lat="44.73883144643483" lon="9.116975822468941"><ele>1135.0</ele><time>2026-05-03T10:59:41Z</time></trkpt><trkpt lat="44.738899128586404" lon="9.116940213292803"><ele>1132.0</ele><time>2026-05-03T10:59:43Z</time></trkpt><trkpt lat="44.73895364989302" lon="9.117041873976568"><ele>1129.0</ele><time>2026-05-03T10:59:46Z</time></trkpt><trkpt lat="44.738916946751054" lon="9.117167228351212"><ele>1129.0</ele><time>2026-05-03T10:59:48Z</time></trkpt><trkpt lat="44.73883465021103" lon="9.117256191122076"><ele>1129.0</ele><time>2026-05-03T10:59:50Z</time></trkpt><trkpt lat="44.73879180405571" lon="9.117383063357913"><ele>1129.0</ele><time>2026-05-03T10:59:51.999Z</time></trkpt><trkpt lat="44.738745881211976" lon="9.117493657099184"><ele>1129.0</ele><time>2026-05-03T10:59:53.999Z</time></trkpt><trkpt lat="44.738728655147916" lon="9.117608925107714"><ele>1129.0</ele><time>2026-05-03T10:59:55.999Z</time></trkpt><trkpt lat="44.738758756020125" lon="9.11771586569218"><ele>1128.4</ele><time>2026-05-03T10:59:57.999Z</time></trkpt><trkpt lat="44.73883604864834" lon="9.117778402063538"><ele>1127.8000000000002</ele><time>2026-05-03T10:59:59.999Z</time></trkpt><trkpt lat="44.738929904492146" lon="9.1177507236527"><ele>1127.1999999999998</ele><time>2026-05-03T11:00:01.999Z</time></trkpt><trkpt lat="44.73904191848498" lon="9.117720581265381"><ele>1126.6</ele><time>2026-05-03T11:00:03.999Z</time></trkpt><trkpt lat="44.73914607760244" lon="9.117693304403945"><ele>1126.0</ele><time>2026-05-03T11:00:05.999Z</time></trkpt><trkpt lat="44.73925487198998" lon="9.117662698851593"><ele>1126.0</ele><time>2026-05-03T11:00:07.999Z</time></trkpt><trkpt lat="44.73935060741863" lon="9.117650256367126"><ele>1126.0</ele><time>2026-05-03T11:00:09.999Z</time></trkpt><trkpt lat="44.73943734917753" lon="9.117623143022877"><ele>1126.0</ele><time>2026-05-03T11:00:11.999Z</time></trkpt><trkpt lat="44.73953602960586" lon="9.117591423675188"><ele>1126.0</ele><time>2026-05-03T11:00:13.999Z</time></trkpt><trkpt lat="44.739630954030645" lon="9.117551246785002"><ele>1126.0</ele><time>2026-05-03T11:00:15.999Z</time></trkpt><trkpt lat="44.73972649251523" lon="9.117528710390001"><ele>1123.6666666666665</ele><time>2026-05-03T11:00:17.999Z</time></trkpt><trkpt lat="44.739816144344495" lon="9.117499683013591"><ele>1121.3333333333333</ele><time>2026-05-03T11:00:19.999Z</time></trkpt><trkpt lat="44.73990121092916" lon="9.117464387476529"><ele>1119.0</ele><time>2026-05-03T11:00:21.999Z</time></trkpt><trkpt lat="44.73998419405314" lon="9.117427514348016"><ele>1116.6666666666667</ele><time>2026-05-03T11:00:23.999Z</time></trkpt><trkpt lat="44.740067816043826" lon="9.117393583505255"><ele>1114.3333333333335</ele><time>2026-05-03T11:00:25.999Z</time></trkpt><trkpt lat="44.74015071429298" lon="9.117359930227998"><ele>1112.0</ele><time>2026-05-03T11:00:27.999Z</time></trkpt><trkpt lat="44.74022994023762" lon="9.117324546189991"><ele>1108.2</ele><time>2026-05-03T11:00:29.999Z</time></trkpt><trkpt lat="44.74030382435186" lon="9.117284626782737"><ele>1104.4</ele><time>2026-05-03T11:00:31.999Z</time></trkpt><trkpt lat="44.74037093198182" lon="9.117220766811464"><ele>1100.6</ele><time>2026-05-03T11:00:33.999Z</time></trkpt><trkpt lat="44.74043603057208" lon="9.117153244212405"><ele>1096.8</ele><time>2026-05-03T11:00:35.999Z</time></trkpt><trkpt lat="44.740508466722346" lon="9.11704777379462"><ele>1093.0</ele><time>2026-05-03T11:00:37.999Z</time></trkpt><trkpt lat="44.740592705790334" lon="9.116928858176486"><ele>1093.0</ele><time>2026-05-03T11:00:39.999Z</time></trkpt><trkpt lat="44.740621945484115" lon="9.116846384916421"><ele>1093.0</ele><time>2026-05-03T11:00:40.999Z</time></trkpt><trkpt lat="44.74063538521156" lon="9.116746091290556"><ele>1093.0</ele><time>2026-05-03T11:00:41.999Z</time></trkpt><trkpt lat="44.74064835530234" lon="9.116586868516762"><ele>1093.0</ele><time>2026-05-03T11:00:43.998Z</time></trkpt><trkpt lat="44.740676765507516" lon="9.116456727180022"><ele>1093.0</ele><time>2026-05-03T11:00:45.998Z</time></trkpt><trkpt lat="44.74070114198627" lon="9.116287752520225"><ele>1092.5</ele><time>2026-05-03T11:00:47.998Z</time></trkpt><trkpt lat="44.74068767960802" lon="9.116180997875253"><ele>1092.0</ele><time>2026-05-03T11:00:48.998Z</time></trkpt><trkpt lat="44.740671365355155" lon="9.116095129132358"><ele>1091.5</ele><time>2026-05-03T11:00:49.998Z</time></trkpt><trkpt lat="44.740663318836475" lon="9.115919563285889"><ele>1091.0</ele><time>2026-05-03T11:00:51.998Z</time></trkpt><trkpt lat="44.74066240601068" lon="9.115824951470003"><ele>1090.5</ele><time>2026-05-03T11:00:52.998Z</time></trkpt><trkpt lat="44.7406609396753" lon="9.115732842118623"><ele>1090.0</ele><time>2026-05-03T11:00:54Z</time></trkpt><trkpt lat="44.74065487700221" lon="9.115577060154939"><ele>1090.0</ele><time>2026-05-03T11:00:56Z</time></trkpt><trkpt lat="44.74065689384074" lon="9.1154337785482"><ele>1090.0</ele><time>2026-05-03T11:00:58Z</time></trkpt><trkpt lat="44.740721219329004" lon="9.115362839237049"><ele>1090.0</ele><time>2026-05-03T11:01:00Z</time></trkpt><trkpt lat="44.74082936409753" lon="9.115360477612226"><ele>1090.0</ele><time>2026-05-03T11:01:02Z</time></trkpt><trkpt lat="44.74094043437442" lon="9.115390043468366"><ele>1090.0</ele><time>2026-05-03T11:01:04Z</time></trkpt><trkpt lat="44.74105339182772" lon="9.1154137398642"><ele>1087.4</ele><time>2026-05-03T11:01:06Z</time></trkpt><trkpt lat="44.741162612787676" lon="9.115443590660911"><ele>1084.8</ele><time>2026-05-03T11:01:08Z</time></trkpt><trkpt lat="44.74122631242856" lon="9.115440436334582"><ele>1082.2</ele><time>2026-05-03T11:01:09Z</time></trkpt><trkpt lat="44.74129114806955" lon="9.115434253880895"><ele>1079.6</ele><time>2026-05-03T11:01:10Z</time></trkpt><trkpt lat="44.74141174927098" lon="9.115406171945269"><ele>1077.0</ele><time>2026-05-03T11:01:12Z</time></trkpt><trkpt lat="44.74152676301238" lon="9.115378345909804"><ele>1077.0</ele><time>2026-05-03T11:01:14Z</time></trkpt><trkpt lat="44.741633647426376" lon="9.11538890806578"><ele>1077.0</ele><time>2026-05-03T11:01:16Z</time></trkpt><trkpt lat="44.74174074692173" lon="9.115414759717892"><ele>1077.0</ele><time>2026-05-03T11:01:18Z</time></trkpt><trkpt lat="44.7418492124874" lon="9.115424238171192"><ele>1077.0</ele><time>2026-05-03T11:01:20Z</time></trkpt><trkpt lat="44.74195651204611" lon="9.115427883696928"><ele>1077.0</ele><time>2026-05-03T11:01:22Z</time></trkpt><trkpt lat="44.74205815624737" lon="9.115374623900689"><ele>1073.8</ele><time>2026-05-03T11:01:24Z</time></trkpt><trkpt lat="44.74214273002137" lon="9.115272660434718"><ele>1070.6</ele><time>2026-05-03T11:01:26Z</time></trkpt><trkpt lat="44.74223550219286" lon="9.115187303099193"><ele>1067.3999999999999</ele><time>2026-05-03T11:01:28Z</time></trkpt><trkpt lat="44.7423380240729" lon="9.115113966101507"><ele>1064.2</ele><time>2026-05-03T11:01:30Z</time></trkpt><trkpt lat="44.74243821072059" lon="9.115093281796218"><ele>1061.0</ele><time>2026-05-03T11:01:32Z</time></trkpt><trkpt lat="44.74253162121216" lon="9.115047700904865"><ele>1061.0</ele><time>2026-05-03T11:01:34Z</time></trkpt><trkpt lat="44.742623815689285" lon="9.115008475776648"><ele>1061.0</ele><time>2026-05-03T11:01:37Z</time></trkpt><trkpt lat="44.74269052500919" lon="9.115018466607006"><ele>1061.0</ele><time>2026-05-03T11:01:39Z</time></trkpt><trkpt lat="44.742755424332366" lon="9.115054528041101"><ele>1061.0</ele><time>2026-05-03T11:01:41Z</time></trkpt><trkpt lat="44.742861349845995" lon="9.115083357989572"><ele>1061.0</ele><time>2026-05-03T11:01:43Z</time></trkpt><trkpt lat="44.74295655435325" lon="9.115057851312812"><ele>1061.0</ele><time>2026-05-03T11:01:45Z</time></trkpt><trkpt lat="44.743049912427814" lon="9.114964440417076"><ele>1058.2</ele><time>2026-05-03T11:01:47Z</time></trkpt><trkpt lat="44.74310222559247" lon="9.114869629468938"><ele>1055.3999999999999</ele><time>2026-05-03T11:01:49Z</time></trkpt><trkpt lat="44.74314492347606" lon="9.11479358146558"><ele>1052.6</ele><time>2026-05-03T11:01:50Z</time></trkpt><trkpt lat="44.74322068167135" lon="9.114687454987521"><ele>1049.8</ele><time>2026-05-03T11:01:52Z</time></trkpt><trkpt lat="44.743301242352445" lon="9.114562248012476"><ele>1047.0</ele><time>2026-05-03T11:01:54Z</time></trkpt><trkpt lat="44.74339741335846" lon="9.114451413512786"><ele>1047.0</ele><time>2026-05-03T11:01:56Z</time></trkpt><trkpt lat="44.743481597349565" lon="9.114349405015355"><ele>1047.0</ele><time>2026-05-03T11:01:57.999Z</time></trkpt><trkpt lat="44.743549216860835" lon="9.11425825149794"><ele>1047.0</ele><time>2026-05-03T11:01:59.999Z</time></trkpt><trkpt lat="44.74361035936347" lon="9.114154975586013"><ele>1047.0</ele><time>2026-05-03T11:02:01.999Z</time></trkpt><trkpt lat="44.743658092085454" lon="9.11401861285824"><ele>1047.0</ele><time>2026-05-03T11:02:03.999Z</time></trkpt><trkpt lat="44.743715146331915" lon="9.113866899467983"><ele>1042.2</ele><time>2026-05-03T11:02:05.999Z</time></trkpt><trkpt lat="44.743726989375276" lon="9.113734352823444"><ele>1037.4</ele><time>2026-05-03T11:02:07.999Z</time></trkpt><trkpt lat="44.74374871696094" lon="9.11364211932057"><ele>1032.6</ele><time>2026-05-03T11:02:09.999Z</time></trkpt><trkpt lat="44.74380809941133" lon="9.113603652387265"><ele>1027.8</ele><time>2026-05-03T11:02:10.999Z</time></trkpt><trkpt lat="44.743922734046095" lon="9.113546963126097"><ele>1023.0</ele><time>2026-05-03T11:02:12.999Z</time></trkpt><trkpt lat="44.744032274049275" lon="9.113465589425479"><ele>1023.0</ele><time>2026-05-03T11:02:14.999Z</time></trkpt><trkpt lat="44.744081201221775" lon="9.113403153889744"><ele>1023.0</ele><time>2026-05-03T11:02:15.999Z</time></trkpt><trkpt lat="44.7441243962286" lon="9.1133287999091"><ele>1023.0</ele><time>2026-05-03T11:02:16.999Z</time></trkpt><trkpt lat="44.74416679833104" lon="9.113256497322178"><ele>1023.0</ele><time>2026-05-03T11:02:17.999Z</time></trkpt><trkpt lat="44.74421152941636" lon="9.113192340428192"><ele>1023.0</ele><time>2026-05-03T11:02:18.999Z</time></trkpt><trkpt lat="44.74425405536055" lon="9.113122628765014"><ele>1023.0</ele><time>2026-05-03T11:02:19.999Z</time></trkpt><trkpt lat="44.74431826114722" lon="9.112998277659115"><ele>1023.0</ele><time>2026-05-03T11:02:21.999Z</time></trkpt><trkpt lat="44.74436861179214" lon="9.112886004398874"><ele>1020.4</ele><time>2026-05-03T11:02:23.999Z</time></trkpt><trkpt lat="44.74441482125757" lon="9.1127749623582"><ele>1017.8</ele><time>2026-05-03T11:02:25.999Z</time></trkpt><trkpt lat="44.74445239089145" lon="9.112650351073745"><ele>1015.2</ele><time>2026-05-03T11:02:27.999Z</time></trkpt><trkpt lat="44.74441251974037" lon="9.112491395975281"><ele>1012.6</ele><time>2026-05-03T11:02:29.999Z</time></trkpt><trkpt lat="44.74434600919939" lon="9.112364695050028"><ele>1010.0</ele><time>2026-05-03T11:02:31.999Z</time></trkpt><trkpt lat="44.744284314673415" lon="9.112214756328855"><ele>1010.0000000000001</ele><time>2026-05-03T11:02:33.999Z</time></trkpt><trkpt lat="44.74423931564022" lon="9.112076234856348"><ele>1010.0</ele><time>2026-05-03T11:02:35.999Z</time></trkpt><trkpt lat="44.744216982897456" lon="9.111991193648244"><ele>1010.0</ele><time>2026-05-03T11:02:36.999Z</time></trkpt><trkpt lat="44.74419841059597" lon="9.111902548341961"><ele>1010.0</ele><time>2026-05-03T11:02:37.999Z</time></trkpt><trkpt lat="44.74421297069501" lon="9.111770385827148"><ele>1010.0000000000001</ele><time>2026-05-03T11:02:39.999Z</time></trkpt><trkpt lat="44.744249120901436" lon="9.111630286303912"><ele>1010.0</ele><time>2026-05-03T11:02:41.999Z</time></trkpt><trkpt lat="44.7442677282548" lon="9.111448505020206"><ele>1009.0</ele><time>2026-05-03T11:02:43.999Z</time></trkpt><trkpt lat="44.74427168709259" lon="9.111288396914464"><ele>1008.0</ele><time>2026-05-03T11:02:45.999Z</time></trkpt><trkpt lat="44.7442726279795" lon="9.111139749673802"><ele>1007.0</ele><time>2026-05-03T11:02:47.999Z</time></trkpt><trkpt lat="44.74428360305784" lon="9.110997340834501"><ele>1006.0</ele><time>2026-05-03T11:02:49.998Z</time></trkpt><trkpt lat="44.74434946374667" lon="9.110873620787542"><ele>1005.0</ele><time>2026-05-03T11:02:51.998Z</time></trkpt><trkpt lat="44.744452407258194" lon="9.110766193545762"><ele>1001.8333333333334</ele><time>2026-05-03T11:02:53.998Z</time></trkpt><trkpt lat="44.74452118811258" lon="9.110745515839046"><ele>998.6666666666667</ele><time>2026-05-03T11:02:54.998Z</time></trkpt><trkpt lat="44.74459018251945" lon="9.110707360618708"><ele>995.5</ele><time>2026-05-03T11:02:55.998Z</time></trkpt><trkpt lat="44.74465216290246" lon="9.110675121214367"><ele>992.3333333333334</ele><time>2026-05-03T11:02:56.998Z</time></trkpt><trkpt lat="44.744766288765256" lon="9.110634866842961"><ele>989.1666666666667</ele><time>2026-05-03T11:02:58.998Z</time></trkpt><trkpt lat="44.744871777157634" lon="9.11065299594397"><ele>986.0</ele><time>2026-05-03T11:03:01Z</time></trkpt><trkpt lat="44.74496210001515" lon="9.11070082436866"><ele>986.0000000000001</ele><time>2026-05-03T11:03:03Z</time></trkpt><trkpt lat="44.744994105566136" lon="9.110848291329326"><ele>986.0</ele><time>2026-05-03T11:03:05Z</time></trkpt><trkpt lat="44.745003230661425" lon="9.111030162869062"><ele>986.0</ele><time>2026-05-03T11:03:07Z</time></trkpt><trkpt lat="44.74499347185659" lon="9.111124948429783"><ele>986.0</ele><time>2026-05-03T11:03:08Z</time></trkpt><trkpt lat="44.744988737876945" lon="9.111217936604337"><ele>986.0000000000001</ele><time>2026-05-03T11:03:09Z</time></trkpt><trkpt lat="44.74500200443027" lon="9.111320635848173"><ele>986.0</ele><time>2026-05-03T11:03:10Z</time></trkpt><trkpt lat="44.74501002902059" lon="9.111422646378"><ele>986.0</ele><time>2026-05-03T11:03:11Z</time></trkpt><trkpt lat="44.745040798780984" lon="9.111518887778043"><ele>986.0</ele><time>2026-05-03T11:03:12Z</time></trkpt><trkpt lat="44.74508784419496" lon="9.111607445712087"><ele>986.0</ele><time>2026-05-03T11:03:13Z</time></trkpt><trkpt lat="44.74514104515642" lon="9.111683791190023"><ele>986.0</ele><time>2026-05-03T11:03:14Z</time></trkpt><trkpt lat="44.74519699940166" lon="9.111746389903402"><ele>986.0</ele><time>2026-05-03T11:03:15Z</time></trkpt><trkpt lat="44.74525848131853" lon="9.11179973991433"><ele>986.0</ele><time>2026-05-03T11:03:16Z</time></trkpt><trkpt lat="44.74531907085181" lon="9.111838384117327"><ele>986.0</ele><time>2026-05-03T11:03:17Z</time></trkpt><trkpt lat="44.74538053519476" lon="9.111875364435825"><ele>982.1666666666667</ele><time>2026-05-03T11:03:18Z</time></trkpt><trkpt lat="44.74544018246456" lon="9.111909954244892"><ele>978.3333333333334</ele><time>2026-05-03T11:03:19Z</time></trkpt><trkpt lat="44.745537603142374" lon="9.111978539208936"><ele>974.5</ele><time>2026-05-03T11:03:21Z</time></trkpt><trkpt lat="44.74561326418091" lon="9.112066088674458"><ele>970.6666666666667</ele><time>2026-05-03T11:03:23Z</time></trkpt><trkpt lat="44.74566416392003" lon="9.112169869408751"><ele>966.8333333333334</ele><time>2026-05-03T11:03:25Z</time></trkpt><trkpt lat="44.745684220158246" lon="9.112276503464516"><ele>963.0</ele><time>2026-05-03T11:03:27Z</time></trkpt><trkpt lat="44.7456529093242" lon="9.112378760106305"><ele>963.0</ele><time>2026-05-03T11:03:29Z</time></trkpt><trkpt lat="44.74561609021669" lon="9.112496791512303"><ele>963.0</ele><time>2026-05-03T11:03:31Z</time></trkpt><trkpt lat="44.74560519639096" lon="9.112611424498976"><ele>963.0</ele><time>2026-05-03T11:03:33Z</time></trkpt><trkpt lat="44.74557986112111" lon="9.112743951603758"><ele>963.0</ele><time>2026-05-03T11:03:35Z</time></trkpt><trkpt lat="44.745556149862814" lon="9.11284479559292"><ele>963.0</ele><time>2026-05-03T11:03:37Z</time></trkpt><trkpt lat="44.745546428967025" lon="9.112935865262505"><ele>963.0</ele><time>2026-05-03T11:03:39Z</time></trkpt><trkpt lat="44.74554474326101" lon="9.11304380196302"><ele>963.0</ele><time>2026-05-03T11:03:42Z</time></trkpt><trkpt lat="44.74556529837132" lon="9.113151057510157"><ele>963.0</ele><time>2026-05-03T11:03:44Z</time></trkpt><trkpt lat="44.745661470061954" lon="9.113165309125444"><ele>963.0</ele><time>2026-05-03T11:03:46Z</time></trkpt><trkpt lat="44.74572164649765" lon="9.113135171968922"><ele>963.0</ele><time>2026-05-03T11:03:48Z</time></trkpt><trkpt lat="44.7457956540335" lon="9.113096859000835"><ele>963.0</ele><time>2026-05-03T11:03:50Z</time></trkpt><trkpt lat="44.74587603130759" lon="9.113042640638504"><ele>963.0</ele><time>2026-05-03T11:03:53Z</time></trkpt><trkpt lat="44.7459756601046" lon="9.112945756812046"><ele>958.5</ele><time>2026-05-03T11:03:55Z</time></trkpt><trkpt lat="44.746049298429014" lon="9.11285392488539"><ele>954.0</ele><time>2026-05-03T11:03:57Z</time></trkpt><trkpt lat="44.746107304168135" lon="9.112781460842085"><ele>949.5</ele><time>2026-05-03T11:03:58Z</time></trkpt><trkpt lat="44.7461445118955" lon="9.112701319059761"><ele>945.0</ele><time>2026-05-03T11:03:59Z</time></trkpt><trkpt lat="44.746174855991555" lon="9.112613971164068"><ele>940.5</ele><time>2026-05-03T11:04:00Z</time></trkpt><trkpt lat="44.7461961802476" lon="9.112457840318772"><ele>936.0</ele><time>2026-05-03T11:04:01.999Z</time></trkpt><trkpt lat="44.74622646118559" lon="9.112311971369177"><ele>935.5999999999999</ele><time>2026-05-03T11:04:03.999Z</time></trkpt><trkpt lat="44.7462529946381" lon="9.11217224510576"><ele>935.1999999999999</ele><time>2026-05-03T11:04:05.999Z</time></trkpt><trkpt lat="44.746249582978585" lon="9.11207677189802"><ele>934.8000000000001</ele><time>2026-05-03T11:04:07.999Z</time></trkpt><trkpt lat="44.74626440375641" lon="9.111924628290776"><ele>934.4000000000001</ele><time>2026-05-03T11:04:09.999Z</time></trkpt><trkpt lat="44.74623023649944" lon="9.111818423725204"><ele>934.0</ele><time>2026-05-03T11:04:10.999Z</time></trkpt><trkpt lat="44.74626066187833" lon="9.111701097412194"><ele>934.0</ele><time>2026-05-03T11:04:11.999Z</time></trkpt><trkpt lat="44.7463433421441" lon="9.111595122785445"><ele>934.0000000000001</ele><time>2026-05-03T11:04:12.999Z</time></trkpt><trkpt lat="44.74643441125477" lon="9.11154138724344"><ele>934.0000000000001</ele><time>2026-05-03T11:04:13.999Z</time></trkpt><trkpt lat="44.7465171122734" lon="9.11150135228422"><ele>934.0</ele><time>2026-05-03T11:04:14.999Z</time></trkpt><trkpt lat="44.7465930722021" lon="9.111461438568208"><ele>934.0</ele><time>2026-05-03T11:04:15.999Z</time></trkpt><trkpt lat="44.746678245785596" lon="9.111414671356433"><ele>935.0</ele><time>2026-05-03T11:04:16.999Z</time></trkpt><trkpt lat="44.746749981205355" lon="9.11137434477746"><ele>936.0000000000001</ele><time>2026-05-03T11:04:17.999Z</time></trkpt><trkpt lat="44.74684200956456" lon="9.111316557820423"><ele>937.0000000000001</ele><time>2026-05-03T11:04:19.999Z</time></trkpt><trkpt lat="44.74692869644723" lon="9.111256383764509"><ele>938.0</ele><time>2026-05-03T11:04:21.999Z</time></trkpt><trkpt lat="44.7469960072798" lon="9.111177190584865"><ele>939.0</ele><time>2026-05-03T11:04:23.999Z</time></trkpt><trkpt lat="44.747072525984024" lon="9.111069923012362"><ele>935.1666666666666</ele><time>2026-05-03T11:04:25.999Z</time></trkpt><trkpt lat="44.747140325436774" lon="9.110939387819053"><ele>931.3333333333333</ele><time>2026-05-03T11:04:27.999Z</time></trkpt><trkpt lat="44.74718724748175" lon="9.110863817882734"><ele>927.5</ele><time>2026-05-03T11:04:28.999Z</time></trkpt><trkpt lat="44.74726573456899" lon="9.110841279875597"><ele>923.6666666666666</ele><time>2026-05-03T11:04:29.999Z</time></trkpt><trkpt lat="44.74733405838813" lon="9.110829368629227"><ele>919.8333333333333</ele><time>2026-05-03T11:04:30.999Z</time></trkpt><trkpt lat="44.747445293233966" lon="9.110806497444328"><ele>916.0</ele><time>2026-05-03T11:04:32.999Z</time></trkpt><trkpt lat="44.74754340418554" lon="9.11076579366703"><ele>915.3333333333333</ele><time>2026-05-03T11:04:34.999Z</time></trkpt><trkpt lat="44.74762611880544" lon="9.110706279772142"><ele>914.6666666666666</ele><time>2026-05-03T11:04:36.999Z</time></trkpt><trkpt lat="44.74769568410721" lon="9.110703213101853"><ele>914.0</ele><time>2026-05-03T11:04:39.999Z</time></trkpt><trkpt lat="44.74776921273182" lon="9.110709911647604"><ele>913.3333333333333</ele><time>2026-05-03T11:04:42.999Z</time></trkpt><trkpt lat="44.747845336304216" lon="9.11072633423945"><ele>912.6666666666666</ele><time>2026-05-03T11:04:44.999Z</time></trkpt><trkpt lat="44.747929238025485" lon="9.110741064079926"><ele>912.0</ele><time>2026-05-03T11:04:46.999Z</time></trkpt><trkpt lat="44.74801451347755" lon="9.110755510718928"><ele>909.8</ele><time>2026-05-03T11:04:48.999Z</time></trkpt><trkpt lat="44.74810798584324" lon="9.110774682247119"><ele>907.6</ele><time>2026-05-03T11:04:50.999Z</time></trkpt><trkpt lat="44.748211439349056" lon="9.110738267276062"><ele>905.3999999999999</ele><time>2026-05-03T11:04:52.998Z</time></trkpt><trkpt lat="44.748318588355865" lon="9.110701762710562"><ele>903.1999999999999</ele><time>2026-05-03T11:04:54.998Z</time></trkpt><trkpt lat="44.7484200778831" lon="9.110669476227965"><ele>901.0</ele><time>2026-05-03T11:04:56.998Z</time></trkpt><trkpt lat="44.748489169735905" lon="9.110650131728464"><ele>899.8</ele><time>2026-05-03T11:04:58.998Z</time></trkpt><trkpt lat="44.748580377845805" lon="9.110626942692523"><ele>898.5999999999999</ele><time>2026-05-03T11:05:00.998Z</time></trkpt><trkpt lat="44.7486891180446" lon="9.110606914170377"><ele>897.4</ele><time>2026-05-03T11:05:02.998Z</time></trkpt><trkpt lat="44.748793208520915" lon="9.110592698778067"><ele>896.2</ele><time>2026-05-03T11:05:04.998Z</time></trkpt><trkpt lat="44.74889385467237" lon="9.110595721529808"><ele>895.0</ele><time>2026-05-03T11:05:07Z</time></trkpt><trkpt lat="44.749010544022696" lon="9.110623633115832"><ele>894.9999999999999</ele><time>2026-05-03T11:05:09Z</time></trkpt><trkpt lat="44.74907214520064" lon="9.11064495678629"><ele>895.0</ele><time>2026-05-03T11:05:10Z</time></trkpt><trkpt lat="44.74913748462013" lon="9.110665120847973"><ele>895.0</ele><time>2026-05-03T11:05:11Z</time></trkpt><trkpt lat="44.74921028759778" lon="9.110677217857168"><ele>895.0</ele><time>2026-05-03T11:05:12Z</time></trkpt><trkpt lat="44.74928858668745" lon="9.110696216848824"><ele>894.9999999999999</ele><time>2026-05-03T11:05:13Z</time></trkpt><trkpt lat="44.74937483374789" lon="9.11072288910018"><ele>895.0</ele><time>2026-05-03T11:05:14Z</time></trkpt><trkpt lat="44.74946318389596" lon="9.110762193830796"><ele>893.8</ele><time>2026-05-03T11:05:15Z</time></trkpt><trkpt lat="44.749549681147016" lon="9.110825515923949"><ele>892.6</ele><time>2026-05-03T11:05:16Z</time></trkpt><trkpt lat="44.7496334371899" lon="9.110897447565517"><ele>891.4000000000001</ele><time>2026-05-03T11:05:17Z</time></trkpt><trkpt lat="44.74970744337294" lon="9.110985369580805"><ele>890.2</ele><time>2026-05-03T11:05:18Z</time></trkpt><trkpt lat="44.74977670560867" lon="9.111079431318764"><ele>889.0</ele><time>2026-05-03T11:05:19Z</time></trkpt><trkpt lat="44.749855051898216" lon="9.111163499546242"><ele>889.0</ele><time>2026-05-03T11:05:20Z</time></trkpt><trkpt lat="44.74995216572919" lon="9.111239827778084"><ele>889.0</ele><time>2026-05-03T11:05:21Z</time></trkpt><trkpt lat="44.75006125428577" lon="9.111317697679247"><ele>889.0</ele><time>2026-05-03T11:05:22Z</time></trkpt><trkpt lat="44.75018216473183" lon="9.111387017280837"><ele>889.0</ele><time>2026-05-03T11:05:23Z</time></trkpt><trkpt lat="44.750302166927845" lon="9.11142826753519"><ele>886.0</ele><time>2026-05-03T11:05:24Z</time></trkpt><trkpt lat="44.75039330978959" lon="9.111457515582998"><ele>883.0000000000001</ele><time>2026-05-03T11:05:25Z</time></trkpt><trkpt lat="44.75047119051162" lon="9.111488558505124"><ele>880.0000000000001</ele><time>2026-05-03T11:05:26Z</time></trkpt><trkpt lat="44.75054564405709" lon="9.11154521980371"><ele>877.0</ele><time>2026-05-03T11:05:27Z</time></trkpt><trkpt lat="44.750609199231036" lon="9.111657051828338"><ele>874.0</ele><time>2026-05-03T11:05:28Z</time></trkpt><trkpt lat="44.75063874187998" lon="9.111816781184103"><ele>871.5</ele><time>2026-05-03T11:05:29Z</time></trkpt><trkpt lat="44.75067676953798" lon="9.111982057233515"><ele>869.0</ele><time>2026-05-03T11:05:30Z</time></trkpt><trkpt lat="44.750741708503526" lon="9.112127767880628"><ele>866.5</ele><time>2026-05-03T11:05:31Z</time></trkpt><trkpt lat="44.75083127160524" lon="9.11225957462576"><ele>864.0</ele><time>2026-05-03T11:05:32Z</time></trkpt><trkpt lat="44.75092303325598" lon="9.112387233379197"><ele>861.25</ele><time>2026-05-03T11:05:33Z</time></trkpt><trkpt lat="44.75102665617651" lon="9.112509157470184"><ele>858.5</ele><time>2026-05-03T11:05:34Z</time></trkpt><trkpt lat="44.751137157994634" lon="9.112624329576194"><ele>855.75</ele><time>2026-05-03T11:05:35Z</time></trkpt><trkpt lat="44.75124694053868" lon="9.112745807907354"><ele>853.0</ele><time>2026-05-03T11:05:36Z</time></trkpt><trkpt lat="44.751353211863865" lon="9.112876488494498"><ele>850.25</ele><time>2026-05-03T11:05:37Z</time></trkpt><trkpt lat="44.751458106190405" lon="9.113001651815658"><ele>847.5</ele><time>2026-05-03T11:05:38Z</time></trkpt><trkpt lat="44.75155232813519" lon="9.113097578178476"><ele>844.75</ele><time>2026-05-03T11:05:39Z</time></trkpt><trkpt lat="44.75163485592706" lon="9.113183595811057"><ele>842.0</ele><time>2026-05-03T11:05:40Z</time></trkpt><trkpt lat="44.751710686552435" lon="9.113269380056172"><ele>840.6666666666667</ele><time>2026-05-03T11:05:41Z</time></trkpt><trkpt lat="44.751792931050026" lon="9.113344903715433"><ele>839.3333333333334</ele><time>2026-05-03T11:05:42Z</time></trkpt><trkpt lat="44.7518714765843" lon="9.113397876457778"><ele>838.0</ele><time>2026-05-03T11:05:43Z</time></trkpt><trkpt lat="44.75193891897058" lon="9.113437024219271"><ele>836.6666666666667</ele><time>2026-05-03T11:05:44Z</time></trkpt><trkpt lat="44.752045480166466" lon="9.113464519015546"><ele>835.3333333333334</ele><time>2026-05-03T11:05:46Z</time></trkpt><trkpt lat="44.7521075538006" lon="9.113444618410231"><ele>834.0</ele><time>2026-05-03T11:05:48Z</time></trkpt><trkpt lat="44.75215495035837" lon="9.113380105902358"><ele>832.1666666666666</ele><time>2026-05-03T11:05:55Z</time></trkpt><trkpt lat="44.75220375047798" lon="9.113277547591393"><ele>830.3333333333333</ele><time>2026-05-03T11:05:59Z</time></trkpt><trkpt lat="44.7522169409801" lon="9.113116413781592"><ele>828.5</ele><time>2026-05-03T11:06:01Z</time></trkpt><trkpt lat="44.75218363051822" lon="9.113030403014326"><ele>826.6666666666666</ele><time>2026-05-03T11:06:02Z</time></trkpt><trkpt lat="44.75214228881879" lon="9.112951263407059"><ele>824.8333333333333</ele><time>2026-05-03T11:06:03Z</time></trkpt><trkpt lat="44.75209371747656" lon="9.112873687244907"><ele>823.0</ele><time>2026-05-03T11:06:03.999Z</time></trkpt><trkpt lat="44.75203980404778" lon="9.11279718721349"><ele>822.9999999999999</ele><time>2026-05-03T11:06:04.999Z</time></trkpt><trkpt lat="44.75197646875223" lon="9.112733575633278"><ele>823.0</ele><time>2026-05-03T11:06:05.999Z</time></trkpt><trkpt lat="44.751919452074425" lon="9.11266913724824"><ele>823.0</ele><time>2026-05-03T11:06:06.999Z</time></trkpt><trkpt lat="44.75185632015228" lon="9.112608788138425"><ele>823.0</ele><time>2026-05-03T11:06:07.999Z</time></trkpt><trkpt lat="44.75182398466203" lon="9.112502956059414"><ele>822.9999999999999</ele><time>2026-05-03T11:06:08.999Z</time></trkpt><trkpt lat="44.75180898567221" lon="9.112390209249506"><ele>823.0</ele><time>2026-05-03T11:06:09.999Z</time></trkpt><trkpt lat="44.75186298248759" lon="9.11227652318672"><ele>822.8</ele><time>2026-05-03T11:06:10.999Z</time></trkpt><trkpt lat="44.75188692565535" lon="9.11213316596167"><ele>822.5999999999999</ele><time>2026-05-03T11:06:11.999Z</time></trkpt><trkpt lat="44.751919919326916" lon="9.111981601560668"><ele>822.4000000000001</ele><time>2026-05-03T11:06:12.999Z</time></trkpt><trkpt lat="44.75197446406089" lon="9.111839666072184"><ele>822.2</ele><time>2026-05-03T11:06:13.999Z</time></trkpt><trkpt lat="44.75197802437831" lon="9.11169438314166"><ele>822.0</ele><time>2026-05-03T11:06:14.999Z</time></trkpt><trkpt lat="44.75192279279909" lon="9.111514923409594"><ele>822.3333333333334</ele><time>2026-05-03T11:06:16.999Z</time></trkpt><trkpt lat="44.75193919280448" lon="9.111374985943698"><ele>822.6666666666667</ele><time>2026-05-03T11:06:17.999Z</time></trkpt><trkpt lat="44.751960888247666" lon="9.11126581096359"><ele>823.0</ele><time>2026-05-03T11:06:18.999Z</time></trkpt><trkpt lat="44.75198041473105" lon="9.111150661005615"><ele>823.3333333333334</ele><time>2026-05-03T11:06:19.999Z</time></trkpt><trkpt lat="44.75198667893492" lon="9.111038415334804"><ele>823.6666666666667</ele><time>2026-05-03T11:06:20.999Z</time></trkpt><trkpt lat="44.75197265492063" lon="9.110932371799462"><ele>824.0</ele><time>2026-05-03T11:06:21.999Z</time></trkpt><trkpt lat="44.751946147690205" lon="9.110819434815255"><ele>825.2</ele><time>2026-05-03T11:06:22.999Z</time></trkpt><trkpt lat="44.751927919426755" lon="9.110702625225947"><ele>826.4000000000001</ele><time>2026-05-03T11:06:23.999Z</time></trkpt><trkpt lat="44.751893747769365" lon="9.110596167285886"><ele>827.6</ele><time>2026-05-03T11:06:24.999Z</time></trkpt><trkpt lat="44.75186948494356" lon="9.11048381002176"><ele>828.8</ele><time>2026-05-03T11:06:25.999Z</time></trkpt><trkpt lat="44.751876590317195" lon="9.110381742449427"><ele>830.0</ele><time>2026-05-03T11:06:26.999Z</time></trkpt><trkpt lat="44.75199051442175" lon="9.11026967190953"><ele>830.0000000000001</ele><time>2026-05-03T11:06:28.999Z</time></trkpt><trkpt lat="44.752073731035814" lon="9.110257592637169"><ele>830.0</ele><time>2026-05-03T11:06:29.999Z</time></trkpt><trkpt lat="44.75215488184017" lon="9.1102437851288"><ele>830.0</ele><time>2026-05-03T11:06:30.999Z</time></trkpt><trkpt lat="44.752240090964676" lon="9.110235567715101"><ele>830.0</ele><time>2026-05-03T11:06:31.999Z</time></trkpt><trkpt lat="44.75232954638462" lon="9.110235173960035"><ele>830.0000000000001</ele><time>2026-05-03T11:06:32.999Z</time></trkpt><trkpt lat="44.75240172873732" lon="9.110208430749077"><ele>830.0</ele><time>2026-05-03T11:06:33.999Z</time></trkpt><trkpt lat="44.75247520192303" lon="9.110162325362406"><ele>830.0000000000001</ele><time>2026-05-03T11:06:34.999Z</time></trkpt><trkpt lat="44.75254851541678" lon="9.110113538085162"><ele>830.0</ele><time>2026-05-03T11:06:35.999Z</time></trkpt><trkpt lat="44.75262020142448" lon="9.110052610792682"><ele>830.0</ele><time>2026-05-03T11:06:36.999Z</time></trkpt><trkpt lat="44.752678895207495" lon="9.109974117798373"><ele>830.0</ele><time>2026-05-03T11:06:37.999Z</time></trkpt><trkpt lat="44.75273806844068" lon="9.109892534356327"><ele>830.0000000000001</ele><time>2026-05-03T11:06:38.999Z</time></trkpt><trkpt lat="44.75279641960035" lon="9.109810423803069"><ele>830.0</ele><time>2026-05-03T11:06:39.999Z</time></trkpt><trkpt lat="44.7528587731975" lon="9.109738224109801"><ele>828.3333333333334</ele><time>2026-05-03T11:06:40.999Z</time></trkpt><trkpt lat="44.7529256847096" lon="9.109668679390966"><ele>826.6666666666667</ele><time>2026-05-03T11:06:41.999Z</time></trkpt><trkpt lat="44.7529891314064" lon="9.109596732952696"><ele>825.0</ele><time>2026-05-03T11:06:42.999Z</time></trkpt><trkpt lat="44.7530436199169" lon="9.109533592056533"><ele>823.3333333333333</ele><time>2026-05-03T11:06:43.999Z</time></trkpt><trkpt lat="44.75309401751029" lon="9.10946555553302"><ele>821.6666666666666</ele><time>2026-05-03T11:06:44.999Z</time></trkpt><trkpt lat="44.753151958284235" lon="9.109331608237031"><ele>820.0</ele><time>2026-05-03T11:06:46.999Z</time></trkpt><trkpt lat="44.7531898553554" lon="9.109236829106969"><ele>820.0</ele><time>2026-05-03T11:06:48.999Z</time></trkpt><trkpt lat="44.75323771402226" lon="9.109155566828196"><ele>820.0</ele><time>2026-05-03T11:06:50.999Z</time></trkpt><trkpt lat="44.753301428796384" lon="9.108998193210056"><ele>820.0</ele><time>2026-05-03T11:06:52.999Z</time></trkpt><trkpt lat="44.75333775122054" lon="9.10889347540924"><ele>820.0</ele><time>2026-05-03T11:06:53.999Z</time></trkpt><trkpt lat="44.75337031462144" lon="9.108773905025892"><ele>820.0</ele><time>2026-05-03T11:06:54.998Z</time></trkpt><trkpt lat="44.753394702584345" lon="9.108648310194285"><ele>820.6</ele><time>2026-05-03T11:06:55.998Z</time></trkpt><trkpt lat="44.753413314270986" lon="9.108509923401556"><ele>821.2</ele><time>2026-05-03T11:06:56.998Z</time></trkpt><trkpt lat="44.75342517916442" lon="9.108376101001246"><ele>821.8</ele><time>2026-05-03T11:06:57.998Z</time></trkpt><trkpt lat="44.75342950524662" lon="9.10824768592025"><ele>822.4</ele><time>2026-05-03T11:06:58.998Z</time></trkpt><trkpt lat="44.753432271699815" lon="9.108126784727162"><ele>823.0</ele><time>2026-05-03T11:06:59.998Z</time></trkpt><trkpt lat="44.753446676369485" lon="9.108002294967303"><ele>821.8</ele><time>2026-05-03T11:07:00.998Z</time></trkpt><trkpt lat="44.7534528189062" lon="9.107862768318073"><ele>820.5999999999999</ele><time>2026-05-03T11:07:01.998Z</time></trkpt><trkpt lat="44.753439177880686" lon="9.107726501656314"><ele>819.4000000000001</ele><time>2026-05-03T11:07:02.998Z</time></trkpt><trkpt lat="44.753402512822035" lon="9.107580242626334"><ele>818.2</ele><time>2026-05-03T11:07:03.998Z</time></trkpt><trkpt lat="44.75334428178404" lon="9.107439776538266"><ele>817.0</ele><time>2026-05-03T11:07:04.998Z</time></trkpt><trkpt lat="44.75325969860063" lon="9.107311235846687"><ele>814.0</ele><time>2026-05-03T11:07:05.998Z</time></trkpt><trkpt lat="44.75318111985775" lon="9.107174295970438"><ele>811.0</ele><time>2026-05-03T11:07:06.998Z</time></trkpt><trkpt lat="44.753114443305165" lon="9.10702987940896"><ele>808.0</ele><time>2026-05-03T11:07:07.998Z</time></trkpt><trkpt lat="44.753054753790494" lon="9.106885606040732"><ele>805.0</ele><time>2026-05-03T11:07:08.998Z</time></trkpt><trkpt lat="44.75299257199867" lon="9.106757619579682"><ele>805.0</ele><time>2026-05-03T11:07:09.998Z</time></trkpt><trkpt lat="44.75292359795944" lon="9.106655064133264"><ele>805.0</ele><time>2026-05-03T11:07:10.998Z</time></trkpt><trkpt lat="44.75283694857399" lon="9.106597112319733"><ele>805.0</ele><time>2026-05-03T11:07:12Z</time></trkpt><trkpt lat="44.7527354734996" lon="9.1065802105755"><ele>805.0</ele><time>2026-05-03T11:07:13Z</time></trkpt><trkpt lat="44.752626267317645" lon="9.106588214239506"><ele>805.0</ele><time>2026-05-03T11:07:14Z</time></trkpt><trkpt lat="44.75251651641879" lon="9.10660185935518"><ele>806.6</ele><time>2026-05-03T11:07:15Z</time></trkpt><trkpt lat="44.75241634795803" lon="9.10660077076338"><ele>808.2</ele><time>2026-05-03T11:07:16Z</time></trkpt><trkpt lat="44.75231662825068" lon="9.106567284793625"><ele>809.8</ele><time>2026-05-03T11:07:17Z</time></trkpt><trkpt lat="44.75223424515789" lon="9.106490566231827"><ele>811.4</ele><time>2026-05-03T11:07:18Z</time></trkpt><trkpt lat="44.75214697768599" lon="9.10643788429301"><ele>813.0</ele><time>2026-05-03T11:07:19Z</time></trkpt><trkpt lat="44.75206242586247" lon="9.106401577096687"><ele>809.6666666666666</ele><time>2026-05-03T11:07:20Z</time></trkpt><trkpt lat="44.751986835215284" lon="9.106365496824306"><ele>806.3333333333333</ele><time>2026-05-03T11:07:21Z</time></trkpt><trkpt lat="44.75190992940419" lon="9.106329238018109"><ele>803.0</ele><time>2026-05-03T11:07:22Z</time></trkpt><trkpt lat="44.75183001938453" lon="9.10630296583037"><ele>799.6666666666666</ele><time>2026-05-03T11:07:23Z</time></trkpt><trkpt lat="44.751741164728514" lon="9.106273858261652"><ele>796.3333333333333</ele><time>2026-05-03T11:07:24Z</time></trkpt><trkpt lat="44.75165452380024" lon="9.106224275872712"><ele>793.0</ele><time>2026-05-03T11:07:25Z</time></trkpt><trkpt lat="44.751564941033166" lon="9.106159191152459"><ele>793.0</ele><time>2026-05-03T11:07:26Z</time></trkpt><trkpt lat="44.75149077882346" lon="9.106057351559954"><ele>793.0</ele><time>2026-05-03T11:07:27Z</time></trkpt><trkpt lat="44.751399150722676" lon="9.105963277873917"><ele>793.0</ele><time>2026-05-03T11:07:28Z</time></trkpt><trkpt lat="44.751278066328545" lon="9.10588424806878"><ele>793.0</ele><time>2026-05-03T11:07:29Z</time></trkpt><trkpt lat="44.75113986952616" lon="9.105804990159214"><ele>789.0</ele><time>2026-05-03T11:07:30Z</time></trkpt><trkpt lat="44.751002177268376" lon="9.105708793242496"><ele>785.0</ele><time>2026-05-03T11:07:31Z</time></trkpt><trkpt lat="44.75085601174767" lon="9.105634881354339"><ele>781.0</ele><time>2026-05-03T11:07:32Z</time></trkpt><trkpt lat="44.75070862353025" lon="9.10555707873108"><ele>781.0</ele><time>2026-05-03T11:07:33Z</time></trkpt><trkpt lat="44.75056926575892" lon="9.10547931884145"><ele>781.0</ele><time>2026-05-03T11:07:34Z</time></trkpt><trkpt lat="44.75043054858603" lon="9.10541222165296"><ele>781.0</ele><time>2026-05-03T11:07:35Z</time></trkpt><trkpt lat="44.75030473006577" lon="9.105318038979025"><ele>781.0</ele><time>2026-05-03T11:07:36Z</time></trkpt><trkpt lat="44.75019605085448" lon="9.10518716845401"><ele>782.75</ele><time>2026-05-03T11:07:37Z</time></trkpt><trkpt lat="44.75009472253502" lon="9.105067708839764"><ele>784.5</ele><time>2026-05-03T11:07:38Z</time></trkpt><trkpt lat="44.750000379133915" lon="9.104942188030728"><ele>786.25</ele><time>2026-05-03T11:07:39Z</time></trkpt><trkpt lat="44.749907220447234" lon="9.104805107242472"><ele>788.0</ele><time>2026-05-03T11:07:40Z</time></trkpt><trkpt lat="44.74980365727302" lon="9.104658482185206"><ele>785.0</ele><time>2026-05-03T11:07:41Z</time></trkpt><trkpt lat="44.74968104491189" lon="9.104535048916796"><ele>782.0</ele><time>2026-05-03T11:07:42Z</time></trkpt><trkpt lat="44.74958270325406" lon="9.104395162942016"><ele>779.0</ele><time>2026-05-03T11:07:43Z</time></trkpt><trkpt lat="44.749466928114565" lon="9.104297525422918"><ele>776.0</ele><time>2026-05-03T11:07:44Z</time></trkpt><trkpt lat="44.749366198837095" lon="9.104181913656113"><ele>773.75</ele><time>2026-05-03T11:07:45Z</time></trkpt><trkpt lat="44.74926608945816" lon="9.104066086709768"><ele>771.5</ele><time>2026-05-03T11:07:46Z</time></trkpt><trkpt lat="44.74917035492563" lon="9.103958472814695"><ele>769.25</ele><time>2026-05-03T11:07:47Z</time></trkpt><trkpt lat="44.74908477185412" lon="9.1038462001929"><ele>767.0</ele><time>2026-05-03T11:07:48Z</time></trkpt><trkpt lat="44.748974689046165" lon="9.103773222312615"><ele>767.0</ele><time>2026-05-03T11:07:49Z</time></trkpt><trkpt lat="44.74883702730452" lon="9.103758367942884"><ele>767.0</ele><time>2026-05-03T11:07:50Z</time></trkpt><trkpt lat="44.748682741829704" lon="9.103712297453116"><ele>767.0</ele><time>2026-05-03T11:07:51Z</time></trkpt><trkpt lat="44.74850691356522" lon="9.103684670138081"><ele>767.5</ele><time>2026-05-03T11:07:52Z</time></trkpt><trkpt lat="44.74835522366609" lon="9.103629494002716"><ele>768.0</ele><time>2026-05-03T11:07:53Z</time></trkpt><trkpt lat="44.748218246489145" lon="9.103555131918995"><ele>768.5</ele><time>2026-05-03T11:07:54Z</time></trkpt><trkpt lat="44.7480987032948" lon="9.103470954859885"><ele>769.0</ele><time>2026-05-03T11:07:55Z</time></trkpt><trkpt lat="44.74798735866869" lon="9.103390305660609"><ele>769.0</ele><time>2026-05-03T11:07:56Z</time></trkpt><trkpt lat="44.747888505896476" lon="9.103315270972939"><ele>769.0</ele><time>2026-05-03T11:07:57Z</time></trkpt><trkpt lat="44.74780086321189" lon="9.103234839567078"><ele>769.0</ele><time>2026-05-03T11:07:58Z</time></trkpt><trkpt lat="44.747728852274385" lon="9.103142676538203"><ele>769.0</ele><time>2026-05-03T11:07:59Z</time></trkpt><trkpt lat="44.74767313293163" lon="9.103041186810422"><ele>769.0</ele><time>2026-05-03T11:08:00Z</time></trkpt><trkpt lat="44.747632064077756" lon="9.102916577529584"><ele>770.0</ele><time>2026-05-03T11:08:01Z</time></trkpt><trkpt lat="44.74761255867063" lon="9.10277254853915"><ele>771.0</ele><time>2026-05-03T11:08:02Z</time></trkpt><trkpt lat="44.7476027054709" lon="9.10261881731128"><ele>772.0</ele><time>2026-05-03T11:08:03Z</time></trkpt><trkpt lat="44.7475953425905" lon="9.102472051249386"><ele>773.0</ele><time>2026-05-03T11:08:04Z</time></trkpt><trkpt lat="44.74759202467087" lon="9.102336410931976"><ele>774.0</ele><time>2026-05-03T11:08:05Z</time></trkpt><trkpt lat="44.74759161667829" lon="9.102203500131573"><ele>774.0</ele><time>2026-05-03T11:08:06Z</time></trkpt><trkpt lat="44.74757610757578" lon="9.102085794742601"><ele>774.0</ele><time>2026-05-03T11:08:07Z</time></trkpt><trkpt lat="44.74758006274907" lon="9.101974280988557"><ele>774.0</ele><time>2026-05-03T11:08:08Z</time></trkpt><trkpt lat="44.747579825358756" lon="9.101868610759142"><ele>774.0</ele><time>2026-05-03T11:08:09Z</time></trkpt><trkpt lat="44.74757971441882" lon="9.101768427703032"><ele>774.0</ele><time>2026-05-03T11:08:10Z</time></trkpt><trkpt lat="44.747575541800416" lon="9.101666787554395"><ele>774.0</ele><time>2026-05-03T11:08:10.999Z</time></trkpt><trkpt lat="44.74756694982647" lon="9.101559697160912"><ele>773.5</ele><time>2026-05-03T11:08:11.999Z</time></trkpt><trkpt lat="44.74755811733138" lon="9.10145414277702"><ele>773.0</ele><time>2026-05-03T11:08:12.999Z</time></trkpt><trkpt lat="44.747544301821534" lon="9.101343183276066"><ele>772.5</ele><time>2026-05-03T11:08:13.999Z</time></trkpt><trkpt lat="44.74752983608764" lon="9.101228479093384"><ele>772.0</ele><time>2026-05-03T11:08:14.999Z</time></trkpt><trkpt lat="44.747510575030134" lon="9.101110910219033"><ele>771.5</ele><time>2026-05-03T11:08:15.999Z</time></trkpt><trkpt lat="44.74748926982537" lon="9.100990324426506"><ele>771.0</ele><time>2026-05-03T11:08:16.999Z</time></trkpt><trkpt lat="44.7474724083488" lon="9.100868464442616"><ele>770.5</ele><time>2026-05-03T11:08:17.999Z</time></trkpt><trkpt lat="44.747459503596474" lon="9.100741314475494"><ele>770.0</ele><time>2026-05-03T11:08:18.999Z</time></trkpt><trkpt lat="44.74745045525005" lon="9.100609488744643"><ele>769.5</ele><time>2026-05-03T11:08:19.999Z</time></trkpt><trkpt lat="44.74744831600553" lon="9.10047899998305"><ele>769.0</ele><time>2026-05-03T11:08:20.999Z</time></trkpt><trkpt lat="44.7474474355111" lon="9.100359731465929"><ele>768.5</ele><time>2026-05-03T11:08:21.999Z</time></trkpt><trkpt lat="44.747441174026484" lon="9.10024215861324"><ele>768.0</ele><time>2026-05-03T11:08:22.999Z</time></trkpt><trkpt lat="44.74742225284603" lon="9.100110056462178"><ele>768.0</ele><time>2026-05-03T11:08:23.999Z</time></trkpt><trkpt lat="44.74738498121273" lon="9.099988541432609"><ele>768.0</ele><time>2026-05-03T11:08:24.999Z</time></trkpt><trkpt lat="44.74732975419184" lon="9.099871258554396"><ele>768.0</ele><time>2026-05-03T11:08:25.999Z</time></trkpt><trkpt lat="44.74724733773023" lon="9.099767632339617"><ele>768.0</ele><time>2026-05-03T11:08:26.999Z</time></trkpt><trkpt lat="44.747176966402286" lon="9.099665591095706"><ele>768.0</ele><time>2026-05-03T11:08:27.999Z</time></trkpt><trkpt lat="44.74710975592073" lon="9.099539004542613"><ele>766.0</ele><time>2026-05-03T11:08:28.999Z</time></trkpt><trkpt lat="44.74705735396963" lon="9.09939298248303"><ele>764.0</ele><time>2026-05-03T11:08:29.999Z</time></trkpt><trkpt lat="44.74702916324064" lon="9.099227159019625"><ele>762.0</ele><time>2026-05-03T11:08:30.999Z</time></trkpt><trkpt lat="44.7470037624775" lon="9.09906677158144"><ele>760.0</ele><time>2026-05-03T11:08:31.999Z</time></trkpt><trkpt lat="44.74698313394197" lon="9.098905572604997"><ele>761.0</ele><time>2026-05-03T11:08:32.999Z</time></trkpt><trkpt lat="44.74695013679195" lon="9.098751649575217"><ele>762.0</ele><time>2026-05-03T11:08:33.999Z</time></trkpt><trkpt lat="44.74689512425044" lon="9.09860201917952"><ele>763.0</ele><time>2026-05-03T11:08:34.999Z</time></trkpt><trkpt lat="44.746823480393836" lon="9.098449541226392"><ele>764.0</ele><time>2026-05-03T11:08:35.999Z</time></trkpt><trkpt lat="44.74674875890468" lon="9.098295774426752"><ele>762.75</ele><time>2026-05-03T11:08:36.999Z</time></trkpt><trkpt lat="44.74667546021251" lon="9.098139357271092"><ele>761.5</ele><time>2026-05-03T11:08:37.999Z</time></trkpt><trkpt lat="44.746603943422045" lon="9.097978833621896"><ele>760.25</ele><time>2026-05-03T11:08:38.999Z</time></trkpt><trkpt lat="44.74653715005014" lon="9.097818825784795"><ele>759.0</ele><time>2026-05-03T11:08:39.999Z</time></trkpt><trkpt lat="44.74647541556943" lon="9.097671982823616"><ele>759.0</ele><time>2026-05-03T11:08:40.999Z</time></trkpt><trkpt lat="44.74641595051198" lon="9.097540604453043"><ele>759.0</ele><time>2026-05-03T11:08:41.999Z</time></trkpt><trkpt lat="44.74635142527786" lon="9.097408356616024"><ele>759.0</ele><time>2026-05-03T11:08:42.999Z</time></trkpt><trkpt lat="44.746294251144796" lon="9.097274616284327"><ele>759.0</ele><time>2026-05-03T11:08:43.999Z</time></trkpt><trkpt lat="44.74623404707385" lon="9.097138771154743"><ele>759.0</ele><time>2026-05-03T11:08:44.999Z</time></trkpt><trkpt lat="44.746176658484224" lon="9.097002745409203"><ele>758.1666666666666</ele><time>2026-05-03T11:08:45.999Z</time></trkpt><trkpt lat="44.746131638049874" lon="9.096874700148845"><ele>757.3333333333334</ele><time>2026-05-03T11:08:46.999Z</time></trkpt><trkpt lat="44.74609308196998" lon="9.096758610459329"><ele>756.5</ele><time>2026-05-03T11:08:47.999Z</time></trkpt><trkpt lat="44.74606613894517" lon="9.096645689374498"><ele>755.6666666666667</ele><time>2026-05-03T11:08:48.999Z</time></trkpt><trkpt lat="44.74605698066267" lon="9.096537177465668"><ele>754.8333333333334</ele><time>2026-05-03T11:08:49.999Z</time></trkpt><trkpt lat="44.74607404003006" lon="9.096438048758433"><ele>754.0</ele><time>2026-05-03T11:08:50.999Z</time></trkpt><trkpt lat="44.74610782050081" lon="9.096344095891917"><ele>754.0</ele><time>2026-05-03T11:08:51.999Z</time></trkpt><trkpt lat="44.7461610542334" lon="9.09625932959233"><ele>754.0</ele><time>2026-05-03T11:08:52.999Z</time></trkpt><trkpt lat="44.746218388621074" lon="9.096163991016791"><ele>754.0</ele><time>2026-05-03T11:08:53.999Z</time></trkpt><trkpt lat="44.74626728485245" lon="9.096056786458346"><ele>754.0</ele><time>2026-05-03T11:08:54.999Z</time></trkpt><trkpt lat="44.74630608004685" lon="9.095949547015021"><ele>754.0</ele><time>2026-05-03T11:08:55.999Z</time></trkpt><trkpt lat="44.74633983694977" lon="9.095840521560811"><ele>754.0</ele><time>2026-05-03T11:08:56.999Z</time></trkpt><trkpt lat="44.7463686193355" lon="9.095723875118413"><ele>755.2</ele><time>2026-05-03T11:08:57.999Z</time></trkpt><trkpt lat="44.74638594332169" lon="9.09559727757875"><ele>756.4000000000001</ele><time>2026-05-03T11:08:58.999Z</time></trkpt><trkpt lat="44.74638863158" lon="9.095460079394286"><ele>757.6</ele><time>2026-05-03T11:08:59.999Z</time></trkpt><trkpt lat="44.74638386866544" lon="9.095317631576133"><ele>758.8</ele><time>2026-05-03T11:09:00.999Z</time></trkpt><trkpt lat="44.74632297467326" lon="9.095201510159038"><ele>760.0</ele><time>2026-05-03T11:09:01.998Z</time></trkpt><trkpt lat="44.74625872031272" lon="9.095081394926734"><ele>760.0</ele><time>2026-05-03T11:09:02.998Z</time></trkpt><trkpt lat="44.74619327282672" lon="9.094953212848363"><ele>760.0</ele><time>2026-05-03T11:09:03.998Z</time></trkpt><trkpt lat="44.746119633368565" lon="9.09485345298683"><ele>760.0</ele><time>2026-05-03T11:09:04.998Z</time></trkpt><trkpt lat="44.746049652667686" lon="9.094755954146692"><ele>760.0</ele><time>2026-05-03T11:09:05.998Z</time></trkpt><trkpt lat="44.745981525606744" lon="9.09465836651958"><ele>760.0</ele><time>2026-05-03T11:09:06.998Z</time></trkpt><trkpt lat="44.74590690226831" lon="9.094572795589913"><ele>757.4</ele><time>2026-05-03T11:09:07.998Z</time></trkpt><trkpt lat="44.74586906854201" lon="9.094445115673333"><ele>754.8</ele><time>2026-05-03T11:09:08.998Z</time></trkpt><trkpt lat="44.745814492104046" lon="9.094323658750005"><ele>752.2</ele><time>2026-05-03T11:09:09.998Z</time></trkpt><trkpt lat="44.74575243733861" lon="9.094204225466303"><ele>749.6</ele><time>2026-05-03T11:09:10.998Z</time></trkpt><trkpt lat="44.745671816784444" lon="9.094105266654694"><ele>747.0</ele><time>2026-05-03T11:09:11.998Z</time></trkpt><trkpt lat="44.74557465084948" lon="9.094041956910411"><ele>745.4000000000001</ele><time>2026-05-03T11:09:12.998Z</time></trkpt><trkpt lat="44.74547559461851" lon="9.093978237727807"><ele>743.8000000000001</ele><time>2026-05-03T11:09:13.998Z</time></trkpt><trkpt lat="44.74538334584066" lon="9.093926077531275"><ele>742.2</ele><time>2026-05-03T11:09:14.998Z</time></trkpt><trkpt lat="44.745293101373086" lon="9.09387594821634"><ele>740.6</ele><time>2026-05-03T11:09:15.998Z</time></trkpt><trkpt lat="44.745204726344724" lon="9.093834181180071"><ele>739.0</ele><time>2026-05-03T11:09:16.998Z</time></trkpt><trkpt lat="44.74511975359681" lon="9.093791511627142"><ele>738.0</ele><time>2026-05-03T11:09:18Z</time></trkpt><trkpt lat="44.745041360744544" lon="9.093740196175814"><ele>737.0</ele><time>2026-05-03T11:09:19Z</time></trkpt><trkpt lat="44.744961416966596" lon="9.093700338208693"><ele>736.0</ele><time>2026-05-03T11:09:20Z</time></trkpt><trkpt lat="44.7448803267072" lon="9.093673983967221"><ele>735.0</ele><time>2026-05-03T11:09:21Z</time></trkpt><trkpt lat="44.74481576720019" lon="9.09366018560713"><ele>734.0</ele><time>2026-05-03T11:09:22Z</time></trkpt><trkpt lat="44.74475267136882" lon="9.093665577257804"><ele>733.0</ele><time>2026-05-03T11:09:24Z</time></trkpt><trkpt lat="44.74482835100016" lon="9.093580518392004"><ele>733.0</ele><time>2026-05-03T11:09:28Z</time></trkpt><trkpt lat="44.74489588144981" lon="9.093610588741003"><ele>733.0</ele><time>2026-05-03T11:09:29Z</time></trkpt><trkpt lat="44.74502132377026" lon="9.093606521626558"><ele>733.0</ele><time>2026-05-03T11:09:31Z</time></trkpt><trkpt lat="44.74509865075216" lon="9.093573310247399"><ele>733.0</ele><time>2026-05-03T11:09:32Z</time></trkpt><trkpt lat="44.745174248941154" lon="9.093518798993848"><ele>733.0</ele><time>2026-05-03T11:09:33Z</time></trkpt><trkpt lat="44.745260065836256" lon="9.093466491561779"><ele>732.2</ele><time>2026-05-03T11:09:34Z</time></trkpt><trkpt lat="44.74535494067219" lon="9.093417788943555"><ele>731.4</ele><time>2026-05-03T11:09:35Z</time></trkpt><trkpt lat="44.74544443990916" lon="9.093374117279431"><ele>730.6</ele><time>2026-05-03T11:09:36Z</time></trkpt><trkpt lat="44.74553070364103" lon="9.09331474686565"><ele>729.8000000000001</ele><time>2026-05-03T11:09:37Z</time></trkpt><trkpt lat="44.745607238200314" lon="9.093218065063306"><ele>729.0</ele><time>2026-05-03T11:09:38Z</time></trkpt><trkpt lat="44.74567794837194" lon="9.093112964910977"><ele>729.0</ele><time>2026-05-03T11:09:39Z</time></trkpt><trkpt lat="44.74576036057909" lon="9.093019131540443"><ele>729.0</ele><time>2026-05-03T11:09:40Z</time></trkpt><trkpt lat="44.74583514237392" lon="9.09290335608365"><ele>729.0</ele><time>2026-05-03T11:09:41Z</time></trkpt><trkpt lat="44.74589025586727" lon="9.092763447738243"><ele>729.0</ele><time>2026-05-03T11:09:42Z</time></trkpt><trkpt lat="44.745953068342644" lon="9.092656723954722"><ele>729.0</ele><time>2026-05-03T11:09:43Z</time></trkpt><trkpt lat="44.74599783809564" lon="9.092537267975638"><ele>728.2</ele><time>2026-05-03T11:09:44Z</time></trkpt><trkpt lat="44.7460349868807" lon="9.092418548091281"><ele>727.4000000000001</ele><time>2026-05-03T11:09:45Z</time></trkpt><trkpt lat="44.746065220850134" lon="9.092295861286107"><ele>726.6</ele><time>2026-05-03T11:09:46Z</time></trkpt><trkpt lat="44.74609058243309" lon="9.09218170461355"><ele>725.8</ele><time>2026-05-03T11:09:47Z</time></trkpt><trkpt lat="44.74611382972814" lon="9.092080804246267"><ele>725.0</ele><time>2026-05-03T11:09:48Z</time></trkpt><trkpt lat="44.74615034039735" lon="9.091926663696517"><ele>725.0</ele><time>2026-05-03T11:09:50Z</time></trkpt><trkpt lat="44.74616853155009" lon="9.091833725165563"><ele>725.0</ele><time>2026-05-03T11:09:52Z</time></trkpt><trkpt lat="44.74617872818484" lon="9.091738761667099"><ele>725.0</ele><time>2026-05-03T11:09:56Z</time></trkpt><trkpt lat="44.74634397330036" lon="9.091715269149555"><ele>725.0</ele><time>2026-05-03T11:10:33.999Z</time></trkpt><trkpt lat="44.7464193208457" lon="9.091691052373044"><ele>725.0</ele><time>2026-05-03T11:10:35.999Z</time></trkpt><trkpt lat="44.746493931813696" lon="9.09163230665191"><ele>723.1666666666666</ele><time>2026-05-03T11:10:37.999Z</time></trkpt><trkpt lat="44.746557500768006" lon="9.0915693146156"><ele>721.3333333333333</ele><time>2026-05-03T11:10:39.999Z</time></trkpt><trkpt lat="44.74665534393145" lon="9.091556619768786"><ele>719.5</ele><time>2026-05-03T11:10:41.999Z</time></trkpt><trkpt lat="44.74676015177152" lon="9.091471968049548"><ele>717.6666666666666</ele><time>2026-05-03T11:10:43.999Z</time></trkpt><trkpt lat="44.74682461912698" lon="9.091437108917667"><ele>715.8333333333334</ele><time>2026-05-03T11:10:44.999Z</time></trkpt><trkpt lat="44.746897516617224" lon="9.091412725072148"><ele>714.0</ele><time>2026-05-03T11:10:45.999Z</time></trkpt><trkpt lat="44.74701814613486" lon="9.091392606323293"><ele>714.0</ele><time>2026-05-03T11:10:47.999Z</time></trkpt><trkpt lat="44.74709707639371" lon="9.091336915310228"><ele>714.0</ele><time>2026-05-03T11:10:49.999Z</time></trkpt><trkpt lat="44.74717567138357" lon="9.091277231514946"><ele>714.0</ele><time>2026-05-03T11:10:51.999Z</time></trkpt><trkpt lat="44.74722921830839" lon="9.091220142095708"><ele>714.0</ele><time>2026-05-03T11:10:52.999Z</time></trkpt><trkpt lat="44.74728593607785" lon="9.091175047853028"><ele>714.0</ele><time>2026-05-03T11:10:53.999Z</time></trkpt><trkpt lat="44.7473432553752" lon="9.09112233425472"><ele>714.0</ele><time>2026-05-03T11:10:54.999Z</time></trkpt><trkpt lat="44.74742326180766" lon="9.091014946712162"><ele>714.0</ele><time>2026-05-03T11:10:56.999Z</time></trkpt><trkpt lat="44.7474646627491" lon="9.09094082654762"><ele>714.0</ele><time>2026-05-03T11:10:58.999Z</time></trkpt><trkpt lat="44.747513696989536" lon="9.090840529321039"><ele>714.0</ele><time>2026-05-03T11:11:00.999Z</time></trkpt><trkpt lat="44.747590479142865" lon="9.090737484338385"><ele>714.0</ele><time>2026-05-03T11:11:02.999Z</time></trkpt><trkpt lat="44.747683407338734" lon="9.09064027418299"><ele>714.0</ele><time>2026-05-03T11:11:04.999Z</time></trkpt><trkpt lat="44.74773776884843" lon="9.090562038340723"><ele>714.1666666666666</ele><time>2026-05-03T11:11:05.999Z</time></trkpt><trkpt lat="44.74777832192307" lon="9.090470444788448"><ele>714.3333333333334</ele><time>2026-05-03T11:11:06.998Z</time></trkpt><trkpt lat="44.747818276948415" lon="9.090380445245968"><ele>714.5</ele><time>2026-05-03T11:11:07.998Z</time></trkpt><trkpt lat="44.74785422299475" lon="9.090297231344671"><ele>714.6666666666667</ele><time>2026-05-03T11:11:08.998Z</time></trkpt><trkpt lat="44.74789557986508" lon="9.090215294383883"><ele>714.8333333333334</ele><time>2026-05-03T11:11:09.998Z</time></trkpt><trkpt lat="44.74794533300402" lon="9.090147586548882"><ele>715.0</ele><time>2026-05-03T11:11:10.998Z</time></trkpt><trkpt lat="44.748040039992915" lon="9.090047632448785"><ele>715.0</ele><time>2026-05-03T11:11:12.998Z</time></trkpt><trkpt lat="44.74810926519595" lon="9.089978799717093"><ele>715.0</ele><time>2026-05-03T11:11:14.998Z</time></trkpt><trkpt lat="44.7481959772589" lon="9.089891449203153"><ele>715.0</ele><time>2026-05-03T11:11:16.998Z</time></trkpt><trkpt lat="44.748294501323926" lon="9.089822197222086"><ele>715.0</ele><time>2026-05-03T11:11:18.998Z</time></trkpt><trkpt lat="44.74835959499816" lon="9.089768195348364"><ele>715.0</ele><time>2026-05-03T11:11:19.998Z</time></trkpt><trkpt lat="44.74841285089932" lon="9.08969421687751"><ele>713.5</ele><time>2026-05-03T11:11:20.998Z</time></trkpt><trkpt lat="44.7484703153194" lon="9.08962820500934"><ele>712.0</ele><time>2026-05-03T11:11:21.998Z</time></trkpt><trkpt lat="44.74852896538641" lon="9.08955867136503"><ele>710.5</ele><time>2026-05-03T11:11:22.998Z</time></trkpt><trkpt lat="44.74858663385491" lon="9.089486484657645"><ele>709.0</ele><time>2026-05-03T11:11:24Z</time></trkpt><trkpt lat="44.74863575835617" lon="9.089425977302426"><ele>707.5</ele><time>2026-05-03T11:11:25Z</time></trkpt><trkpt lat="44.74869883966202" lon="9.089325168356847"><ele>706.0</ele><time>2026-05-03T11:11:27Z</time></trkpt><trkpt lat="44.74878500571806" lon="9.089222148905668"><ele>705.6666666666667</ele><time>2026-05-03T11:11:29Z</time></trkpt><trkpt lat="44.74882114686102" lon="9.089137794297253"><ele>705.3333333333334</ele><time>2026-05-03T11:11:30Z</time></trkpt><trkpt lat="44.74884915676368" lon="9.089053932212334"><ele>705.0</ele><time>2026-05-03T11:11:31Z</time></trkpt><trkpt lat="44.74888724718227" lon="9.088964115301577"><ele>704.6666666666666</ele><time>2026-05-03T11:11:32Z</time></trkpt><trkpt lat="44.7489084955226" lon="9.088861247820871"><ele>704.3333333333333</ele><time>2026-05-03T11:11:33Z</time></trkpt><trkpt lat="44.74890741235416" lon="9.0887621447902"><ele>704.0</ele><time>2026-05-03T11:11:34Z</time></trkpt><trkpt lat="44.74894202571427" lon="9.088580113977313"><ele>704.0</ele><time>2026-05-03T11:11:36Z</time></trkpt><trkpt lat="44.74896298162947" lon="9.088491978326893"><ele>704.0</ele><time>2026-05-03T11:11:37Z</time></trkpt><trkpt lat="44.748981464093376" lon="9.088399486155852"><ele>704.0</ele><time>2026-05-03T11:11:38Z</time></trkpt><trkpt lat="44.748998772259746" lon="9.08831262464475"><ele>704.0</ele><time>2026-05-03T11:11:39Z</time></trkpt><trkpt lat="44.74900899687214" lon="9.088216799652205"><ele>704.0</ele><time>2026-05-03T11:11:40Z</time></trkpt><trkpt lat="44.749015387713996" lon="9.08809139261497"><ele>704.0</ele><time>2026-05-03T11:11:41Z</time></trkpt><trkpt lat="44.74901609389063" lon="9.08796917775343"><ele>704.0</ele><time>2026-05-03T11:11:42Z</time></trkpt><trkpt lat="44.749024113527796" lon="9.087852832965963"><ele>704.0</ele><time>2026-05-03T11:11:43Z</time></trkpt><trkpt lat="44.7490442750982" lon="9.08773247852468"><ele>704.0</ele><time>2026-05-03T11:11:44Z</time></trkpt><trkpt lat="44.74905975788204" lon="9.087636879061572"><ele>704.0</ele><time>2026-05-03T11:11:45Z</time></trkpt><trkpt lat="44.74907143069356" lon="9.087549542560179"><ele>704.0</ele><time>2026-05-03T11:11:46Z</time></trkpt><trkpt lat="44.74909444251075" lon="9.08740230116916"><ele>704.0</ele><time>2026-05-03T11:11:48Z</time></trkpt><trkpt lat="44.74913782798889" lon="9.087251814520124"><ele>704.0</ele><time>2026-05-03T11:11:50Z</time></trkpt><trkpt lat="44.74917028127687" lon="9.08710237922407"><ele>703.4000000000001</ele><time>2026-05-03T11:11:52Z</time></trkpt><trkpt lat="44.749146964256134" lon="9.086982004212297"><ele>702.8</ele><time>2026-05-03T11:11:54Z</time></trkpt><trkpt lat="44.74912339619689" lon="9.08685636615646"><ele>702.2</ele><time>2026-05-03T11:11:56Z</time></trkpt><trkpt lat="44.749103442491794" lon="9.086689154369045"><ele>701.5999999999999</ele><time>2026-05-03T11:11:58Z</time></trkpt><trkpt lat="44.74910011989191" lon="9.08653644702492"><ele>701.0</ele><time>2026-05-03T11:12:00Z</time></trkpt><trkpt lat="44.74909672360762" lon="9.086371975805699"><ele>700.1999999999999</ele><time>2026-05-03T11:12:02Z</time></trkpt><trkpt lat="44.749099914087736" lon="9.086222543242492"><ele>699.4</ele><time>2026-05-03T11:12:04Z</time></trkpt><trkpt lat="44.749106361645914" lon="9.086117937201173"><ele>698.6</ele><time>2026-05-03T11:12:06Z</time></trkpt><trkpt lat="44.749117777633394" lon="9.086026463871672"><ele>697.8</ele><time>2026-05-03T11:12:08Z</time></trkpt><trkpt lat="44.749148412397076" lon="9.085857288448674"><ele>697.0</ele><time>2026-05-03T11:12:10Z</time></trkpt><trkpt lat="44.74917284555793" lon="9.085709482649834"><ele>696.2</ele><time>2026-05-03T11:12:12Z</time></trkpt><trkpt lat="44.74919912599358" lon="9.085594840747348"><ele>695.4000000000001</ele><time>2026-05-03T11:12:14Z</time></trkpt><trkpt lat="44.74921903645506" lon="9.085460984621966"><ele>694.5999999999999</ele><time>2026-05-03T11:12:15.999Z</time></trkpt><trkpt lat="44.74920946890522" lon="9.085298332830401"><ele>693.8</ele><time>2026-05-03T11:12:17.999Z</time></trkpt><trkpt lat="44.7492074450477" lon="9.085142960131684"><ele>693.0</ele><time>2026-05-03T11:12:19.999Z</time></trkpt><trkpt lat="44.74920925719888" lon="9.08500989489069"><ele>691.8333333333334</ele><time>2026-05-03T11:12:21.999Z</time></trkpt><trkpt lat="44.749205917675965" lon="9.08489074274434"><ele>690.6666666666666</ele><time>2026-05-03T11:12:23.999Z</time></trkpt><trkpt lat="44.74922096006549" lon="9.08478630064965"><ele>689.5</ele><time>2026-05-03T11:12:25.999Z</time></trkpt><trkpt lat="44.74926058971019" lon="9.084680874780998"><ele>688.3333333333333</ele><time>2026-05-03T11:12:27.999Z</time></trkpt><trkpt lat="44.74930313214418" lon="9.084585371215242"><ele>687.1666666666666</ele><time>2026-05-03T11:12:29.999Z</time></trkpt><trkpt lat="44.7493142373862" lon="9.084478896452548"><ele>686.0</ele><time>2026-05-03T11:12:31.999Z</time></trkpt><trkpt lat="44.74931397521142" lon="9.084374244422843"><ele>686.0</ele><time>2026-05-03T11:12:33.999Z</time></trkpt><trkpt lat="44.749295305016815" lon="9.08427856210754"><ele>686.0</ele><time>2026-05-03T11:12:35.999Z</time></trkpt><trkpt lat="44.74926889161207" lon="9.084156446986057"><ele>686.0</ele><time>2026-05-03T11:12:38.999Z</time></trkpt><trkpt lat="44.74925063946023" lon="9.084045671390495"><ele>686.0</ele><time>2026-05-03T11:12:41.999Z</time></trkpt><trkpt lat="44.74924711145041" lon="9.083947849593073"><ele>686.0</ele><time>2026-05-03T11:12:44.999Z</time></trkpt><trkpt lat="44.7492512525558" lon="9.083857726941341"><ele>686.0</ele><time>2026-05-03T11:12:48.999Z</time></trkpt><trkpt lat="44.74925815605326" lon="9.083751390983766"><ele>684.8333333333333</ele><time>2026-05-03T11:12:55.999Z</time></trkpt><trkpt lat="44.74926040240323" lon="9.083626062514805"><ele>683.6666666666666</ele><time>2026-05-03T11:12:57.999Z</time></trkpt><trkpt lat="44.74925849309882" lon="9.083523951828385"><ele>682.5</ele><time>2026-05-03T11:12:59.999Z</time></trkpt><trkpt lat="44.74924426294309" lon="9.083426518000815"><ele>681.3333333333334</ele><time>2026-05-03T11:13:01.999Z</time></trkpt><trkpt lat="44.749212409676765" lon="9.083332008459237"><ele>680.1666666666667</ele><time>2026-05-03T11:13:03.999Z</time></trkpt><trkpt lat="44.74916642649314" lon="9.083229878971235"><ele>679.0</ele><time>2026-05-03T11:13:05.998Z</time></trkpt><trkpt lat="44.749140101259954" lon="9.083108577860756"><ele>678.4000000000001</ele><time>2026-05-03T11:13:07.998Z</time></trkpt><trkpt lat="44.749141547606015" lon="9.083001458128853"><ele>677.8</ele><time>2026-05-03T11:13:09.998Z</time></trkpt><trkpt lat="44.74915790704938" lon="9.08289329533839"><ele>677.2</ele><time>2026-05-03T11:13:12.998Z</time></trkpt><trkpt lat="44.74913063647722" lon="9.082736364521278"><ele>676.5999999999999</ele><time>2026-05-03T11:13:14.998Z</time></trkpt><trkpt lat="44.74908272136078" lon="9.082609380440587"><ele>676.0</ele><time>2026-05-03T11:13:16.998Z</time></trkpt><trkpt lat="44.74901255982237" lon="9.08247395518247"><ele>676.0</ele><time>2026-05-03T11:13:18.998Z</time></trkpt><trkpt lat="44.748975814332915" lon="9.08239894783074"><ele>676.0</ele><time>2026-05-03T11:13:19.998Z</time></trkpt><trkpt lat="44.74891149620406" lon="9.082272011287754"><ele>676.0</ele><time>2026-05-03T11:13:21.998Z</time></trkpt><trkpt lat="44.74887267065252" lon="9.082112299583697"><ele>676.0</ele><time>2026-05-03T11:13:23.998Z</time></trkpt><trkpt lat="44.74886903499655" lon="9.081972178192395"><ele>676.0</ele><time>2026-05-03T11:13:25.998Z</time></trkpt><trkpt lat="44.74886873026483" lon="9.081871587524953"><ele>676.0</ele><time>2026-05-03T11:13:27.998Z</time></trkpt><trkpt lat="44.748868823100864" lon="9.081743569960365"><ele>676.0</ele><time>2026-05-03T11:14:00Z</time></trkpt><trkpt lat="44.74892658874844" lon="9.0816997565707"><ele>676.0</ele><time>2026-05-03T11:14:02Z</time></trkpt><trkpt lat="44.749023370324664" lon="9.081779929476152"><ele>676.0</ele><time>2026-05-03T11:14:04Z</time></trkpt><trkpt lat="44.749094761728756" lon="9.081887995618477"><ele>676.0</ele><time>2026-05-03T11:14:07Z</time></trkpt><trkpt lat="44.7491314494564" lon="9.081976226078401"><ele>676.0</ele><time>2026-05-03T11:14:09Z</time></trkpt><trkpt lat="44.74918526240938" lon="9.082077896064234"><ele>676.0</ele><time>2026-05-03T11:14:11Z</time></trkpt><trkpt lat="44.74926578029161" lon="9.082156713569136"><ele>676.0</ele><time>2026-05-03T11:14:13Z</time></trkpt><trkpt lat="44.74934117145419" lon="9.082243753926976"><ele>676.0</ele><time>2026-05-03T11:14:15Z</time></trkpt><trkpt lat="44.7494261236364" lon="9.08236448148113"><ele>676.0</ele><time>2026-05-03T11:14:17Z</time></trkpt><trkpt lat="44.74948951494358" lon="9.082472312279416"><ele>676.0</ele><time>2026-05-03T11:14:19Z</time></trkpt><trkpt lat="44.74956814401043" lon="9.082594902554911"><ele>673.6666666666667</ele><time>2026-05-03T11:14:21Z</time></trkpt><trkpt lat="44.74964562742505" lon="9.082682955724435"><ele>671.3333333333334</ele><time>2026-05-03T11:14:22.999Z</time></trkpt><trkpt lat="44.74971835567892" lon="9.082742563044045"><ele>669.0</ele><time>2026-05-03T11:14:24.999Z</time></trkpt><trkpt lat="44.74978715456494" lon="9.082804394609383"><ele>666.6666666666666</ele><time>2026-05-03T11:14:26.999Z</time></trkpt><trkpt lat="44.749857711741434" lon="9.082851372521404"><ele>664.3333333333333</ele><time>2026-05-03T11:14:28.999Z</time></trkpt><trkpt lat="44.7499233916863" lon="9.082885096605484"><ele>662.0</ele><time>2026-05-03T11:14:30.999Z</time></trkpt><trkpt lat="44.74998645419373" lon="9.082889003508447"><ele>662.0</ele><time>2026-05-03T11:14:32.999Z</time></trkpt><trkpt lat="44.75005199664471" lon="9.082893175994057"><ele>662.0</ele><time>2026-05-03T11:14:34.999Z</time></trkpt><trkpt lat="44.75013097466918" lon="9.082918234129263"><ele>662.0</ele><time>2026-05-03T11:14:36.999Z</time></trkpt><trkpt lat="44.75021241932633" lon="9.082950026068454"><ele>662.0</ele><time>2026-05-03T11:14:39.999Z</time></trkpt><trkpt lat="44.75028651153337" lon="9.082941814330521"><ele>662.0</ele><time>2026-05-03T11:14:42.999Z</time></trkpt><trkpt lat="44.75035977855091" lon="9.082970176025707"><ele>662.0</ele><time>2026-05-03T11:14:44.999Z</time></trkpt><trkpt lat="44.750435466684756" lon="9.083004850406704"><ele>660.5</ele><time>2026-05-03T11:14:47.999Z</time></trkpt><trkpt lat="44.75051604478731" lon="9.083070569323542"><ele>659.0</ele><time>2026-05-03T11:14:50.999Z</time></trkpt><trkpt lat="44.75058389619168" lon="9.083111372705222"><ele>657.5</ele><time>2026-05-03T11:14:54.999Z</time></trkpt><trkpt lat="44.75063822240581" lon="9.083170815530972"><ele>656.0</ele><time>2026-05-03T11:14:58.999Z</time></trkpt><trkpt lat="44.75068349762261" lon="9.083239352669974"><ele>654.5</ele><time>2026-05-03T11:15:01.999Z</time></trkpt><trkpt lat="44.75073766595612" lon="9.08330154883981"><ele>653.0</ele><time>2026-05-03T11:15:04.999Z</time></trkpt><trkpt lat="44.750801441538805" lon="9.083368281241645"><ele>653.0</ele><time>2026-05-03T11:15:07.999Z</time></trkpt><trkpt lat="44.75086397355834" lon="9.083462051139872"><ele>653.0</ele><time>2026-05-03T11:15:10.999Z</time></trkpt><trkpt lat="44.750925116943556" lon="9.083498087202184"><ele>653.0</ele><time>2026-05-03T11:15:12.998Z</time></trkpt><trkpt lat="44.7509875318595" lon="9.083518589241306"><ele>653.0</ele><time>2026-05-03T11:15:16.998Z</time></trkpt><trkpt lat="44.750996165904056" lon="9.083651126392912"><ele>653.0</ele><time>2026-05-03T11:15:26.998Z</time></trkpt><trkpt lat="44.751008290829645" lon="9.083748163858521"><ele>653.0</ele><time>2026-05-03T11:15:28.998Z</time></trkpt><trkpt lat="44.75102706989534" lon="9.083875339189296"><ele>653.0</ele><time>2026-05-03T11:15:30.998Z</time></trkpt><trkpt lat="44.75103683745686" lon="9.083997014063382"><ele>653.0</ele><time>2026-05-03T11:15:33.998Z</time></trkpt><trkpt lat="44.751040991119424" lon="9.08409079525041"><ele>653.0</ele><time>2026-05-03T11:15:37Z</time></trkpt><trkpt lat="44.751085968687235" lon="9.084204296670746"><ele>653.0</ele><time>2026-05-03T11:15:40Z</time></trkpt><trkpt lat="44.751135523426875" lon="9.084278865264002"><ele>653.0</ele><time>2026-05-03T11:15:42Z</time></trkpt><trkpt lat="44.75121570092629" lon="9.084363786280814"><ele>653.0</ele><time>2026-05-03T11:15:44Z</time></trkpt><trkpt lat="44.75126866969287" lon="9.084433975766098"><ele>650.6666666666666</ele><time>2026-05-03T11:15:47Z</time></trkpt><trkpt lat="44.751324543550645" lon="9.084484387132651"><ele>648.3333333333333</ele><time>2026-05-03T11:15:50Z</time></trkpt><trkpt lat="44.75141145835635" lon="9.084510919390638"><ele>646.0</ele><time>2026-05-03T11:15:53Z</time></trkpt><trkpt lat="44.75148461015015" lon="9.084549949281836"><ele>643.6666666666666</ele><time>2026-05-03T11:15:55Z</time></trkpt><trkpt lat="44.75157205606591" lon="9.084623895919412"><ele>641.3333333333334</ele><time>2026-05-03T11:15:57Z</time></trkpt><trkpt lat="44.7516246214611" lon="9.084676078370746"><ele>639.0</ele><time>2026-05-03T11:15:58Z</time></trkpt><trkpt lat="44.75170464586241" lon="9.08472230019547"><ele>639.0</ele><time>2026-05-03T11:16:00Z</time></trkpt><trkpt lat="44.75178304416518" lon="9.084787155039452"><ele>639.0</ele><time>2026-05-03T11:16:04Z</time></trkpt><trkpt lat="44.751871723553116" lon="9.084803978479798"><ele>639.0</ele><time>2026-05-03T11:16:06Z</time></trkpt><trkpt lat="44.751952306758014" lon="9.084812121077968"><ele>639.0</ele><time>2026-05-03T11:16:08Z</time></trkpt><trkpt lat="44.752047986236335" lon="9.08484192330057"><ele>639.0</ele><time>2026-05-03T11:16:10Z</time></trkpt><trkpt lat="44.75216203208687" lon="9.084878626713937"><ele>636.1666666666666</ele><time>2026-05-03T11:16:12Z</time></trkpt><trkpt lat="44.75225001008576" lon="9.084869331637822"><ele>633.3333333333334</ele><time>2026-05-03T11:16:14Z</time></trkpt><trkpt lat="44.75232207073061" lon="9.084863238367223"><ele>630.5</ele><time>2026-05-03T11:16:17Z</time></trkpt><trkpt lat="44.75239916155543" lon="9.084843078637165"><ele>627.6666666666667</ele><time>2026-05-03T11:16:21Z</time></trkpt><trkpt lat="44.7524725009544" lon="9.084839832314671"><ele>624.8333333333334</ele><time>2026-05-03T11:16:22.999Z</time></trkpt><trkpt lat="44.75256614453559" lon="9.084863028526486"><ele>622.0</ele><time>2026-05-03T11:16:24.999Z</time></trkpt><trkpt lat="44.752661003820315" lon="9.08483962492313"><ele>620.8333333333334</ele><time>2026-05-03T11:16:26.999Z</time></trkpt><trkpt lat="44.752698526747984" lon="9.084972732902674"><ele>619.6666666666667</ele><time>2026-05-03T11:16:29.999Z</time></trkpt><trkpt lat="44.75277294121965" lon="9.085024006860754"><ele>618.5</ele><time>2026-05-03T11:16:31.999Z</time></trkpt><trkpt lat="44.752838802633136" lon="9.08506030376149"><ele>617.3333333333334</ele><time>2026-05-03T11:16:33.999Z</time></trkpt><trkpt lat="44.752890626896324" lon="9.085131892005043"><ele>616.1666666666666</ele><time>2026-05-03T11:16:35.999Z</time></trkpt><trkpt lat="44.752959208421565" lon="9.085192626241657"><ele>615.0</ele><time>2026-05-03T11:16:39.999Z</time></trkpt><trkpt lat="44.75302594655483" lon="9.085237364693734"><ele>611.1666666666666</ele><time>2026-05-03T11:16:43.999Z</time></trkpt><trkpt lat="44.7530895217231" lon="9.085260441628828"><ele>607.3333333333334</ele><time>2026-05-03T11:16:45.999Z</time></trkpt><trkpt lat="44.75317109195053" lon="9.085234465910593"><ele>603.5</ele><time>2026-05-03T11:16:48.999Z</time></trkpt><trkpt lat="44.75323231703038" lon="9.08520028845086"><ele>599.6666666666667</ele><time>2026-05-03T11:16:50.999Z</time></trkpt><trkpt lat="44.75331315408568" lon="9.0852314508931"><ele>595.8333333333334</ele><time>2026-05-03T11:16:51.999Z</time></trkpt><trkpt lat="44.75338597975308" lon="9.085246227610925"><ele>592.0</ele><time>2026-05-03T11:16:53.999Z</time></trkpt><trkpt lat="44.75346490422464" lon="9.08529980044486"><ele>587.8333333333334</ele><time>2026-05-03T11:16:56.999Z</time></trkpt><trkpt lat="44.753550647206545" lon="9.085319770581124"><ele>583.6666666666667</ele><time>2026-05-03T11:16:59.999Z</time></trkpt><trkpt lat="44.75361899430731" lon="9.085350929291812"><ele>579.5</ele><time>2026-05-03T11:17:01.999Z</time></trkpt><trkpt lat="44.75369597861499" lon="9.085274114544783"><ele>575.3333333333334</ele><time>2026-05-03T11:17:03.999Z</time></trkpt><trkpt lat="44.75374193109053" lon="9.085164199913994"><ele>571.1666666666666</ele><time>2026-05-03T11:17:05.999Z</time></trkpt><trkpt lat="44.75378701229288" lon="9.085074360747232"><ele>567.0</ele><time>2026-05-03T11:17:07.999Z</time></trkpt><trkpt lat="44.753837389819914" lon="9.085000664276414"><ele>567.1428571428571</ele><time>2026-05-03T11:17:09.999Z</time></trkpt><trkpt lat="44.75390175231377" lon="9.084922543947615"><ele>567.2857142857142</ele><time>2026-05-03T11:17:11.999Z</time></trkpt><trkpt lat="44.75394823658497" lon="9.08486007204559"><ele>567.4285714285714</ele><time>2026-05-03T11:17:16.998Z</time></trkpt><trkpt lat="44.753998397628926" lon="9.084783674022118"><ele>567.5714285714286</ele><time>2026-05-03T11:17:36.998Z</time></trkpt><trkpt lat="44.75406769967672" lon="9.084768185935314"><ele>567.7142857142857</ele><time>2026-05-03T11:17:41Z</time></trkpt><trkpt lat="44.75404846419518" lon="9.084682313186779"><ele>567.8571428571429</ele><time>2026-05-03T11:17:44Z</time></trkpt><trkpt lat="44.75405459405099" lon="9.084582123176055"><ele>568.0</ele><time>2026-05-03T11:17:47Z</time></trkpt><trkpt lat="44.75404484021299" lon="9.084493902402391"><ele>568.0</ele><time>2026-05-03T11:17:49Z</time></trkpt><trkpt lat="44.75404588042806" lon="9.084396676988321"><ele>568.0</ele><time>2026-05-03T11:17:53Z</time></trkpt><trkpt lat="44.75409423777186" lon="9.084252942558177"><ele>568.0</ele><time>2026-05-03T11:17:56Z</time></trkpt><trkpt lat="44.75407617408855" lon="9.084167516887815"><ele>568.0</ele><time>2026-05-03T11:17:58Z</time></trkpt><trkpt lat="44.754084895765075" lon="9.08403552793072"><ele>568.0</ele><time>2026-05-03T11:18:01Z</time></trkpt><trkpt lat="44.754063054795196" lon="9.083940800637928"><ele>568.0</ele><time>2026-05-03T11:18:03Z</time></trkpt><trkpt lat="44.75406184699501" lon="9.083825613553229"><ele>568.1666666666667</ele><time>2026-05-03T11:18:05Z</time></trkpt><trkpt lat="44.754086319116965" lon="9.083679211029642"><ele>568.3333333333334</ele><time>2026-05-03T11:18:07Z</time></trkpt><trkpt lat="44.75406319768248" lon="9.083522737190302"><ele>568.5</ele><time>2026-05-03T11:18:09Z</time></trkpt><trkpt lat="44.75404754422247" lon="9.08340931722559"><ele>568.6666666666666</ele><time>2026-05-03T11:18:10Z</time></trkpt><trkpt lat="44.754027243488714" lon="9.083316580668047"><ele>568.8333333333333</ele><time>2026-05-03T11:18:11Z</time></trkpt><trkpt lat="44.753998849791714" lon="9.083234557954999"><ele>569.0</ele><time>2026-05-03T11:18:12Z</time></trkpt><trkpt lat="44.753950397193854" lon="9.08311193606857"><ele>568.2</ele><time>2026-05-03T11:18:13Z</time></trkpt><trkpt lat="44.753918899620956" lon="9.082978259675471"><ele>567.4</ele><time>2026-05-03T11:18:15Z</time></trkpt><trkpt lat="44.75389649044394" lon="9.082832768214278"><ele>566.6</ele><time>2026-05-03T11:18:17Z</time></trkpt><trkpt lat="44.75385707853824" lon="9.082757511613734"><ele>565.8</ele><time>2026-05-03T11:18:18Z</time></trkpt><trkpt lat="44.75382892801508" lon="9.082669133258333"><ele>565.0</ele><time>2026-05-03T11:18:19Z</time></trkpt><trkpt lat="44.75376771490388" lon="9.082519120505065"><ele>563.8</ele><time>2026-05-03T11:18:21Z</time></trkpt><trkpt lat="44.753756075491395" lon="9.082399244846135"><ele>562.6</ele><time>2026-05-03T11:18:23Z</time></trkpt><trkpt lat="44.75368762957776" lon="9.082283636223858"><ele>561.4</ele><time>2026-05-03T11:18:25Z</time></trkpt><trkpt lat="44.753610753340155" lon="9.08219414123983"><ele>560.2</ele><time>2026-05-03T11:18:27Z</time></trkpt><trkpt lat="44.75352659111032" lon="9.082162768936321"><ele>559.0</ele><time>2026-05-03T11:18:28.999Z</time></trkpt><trkpt lat="44.753431260768544" lon="9.081990675204567"><ele>561.3333333333334</ele><time>2026-05-03T11:18:29.999Z</time></trkpt><trkpt lat="44.75336619386423" lon="9.081974990721617"><ele>563.6666666666667</ele><time>2026-05-03T11:18:32.999Z</time></trkpt><trkpt lat="44.75329988713668" lon="9.081974963422443"><ele>566.0</ele><time>2026-05-03T11:18:38.999Z</time></trkpt><trkpt lat="44.75328662806884" lon="9.081884669090908"><ele>568.3333333333334</ele><time>2026-05-03T11:18:42.999Z</time></trkpt><trkpt lat="44.75329408547817" lon="9.081787607804952"><ele>570.6666666666666</ele><time>2026-05-03T11:18:44.999Z</time></trkpt><trkpt lat="44.753277370455166" lon="9.081602492690704"><ele>573.0</ele><time>2026-05-03T11:18:46.999Z</time></trkpt><trkpt lat="44.753246744353994" lon="9.08150485513201"><ele>573.0</ele><time>2026-05-03T11:18:47.999Z</time></trkpt><trkpt lat="44.75320902122015" lon="9.081401743623301"><ele>573.0</ele><time>2026-05-03T11:18:48.999Z</time></trkpt><trkpt lat="44.75317685995322" lon="9.081299902243748"><ele>573.0</ele><time>2026-05-03T11:18:49.999Z</time></trkpt><trkpt lat="44.753132706215354" lon="9.081213891595626"><ele>573.0</ele><time>2026-05-03T11:18:50.999Z</time></trkpt><trkpt lat="44.753083719934864" lon="9.081135266876176"><ele>573.0</ele><time>2026-05-03T11:18:53.999Z</time></trkpt><trkpt lat="44.75306690238668" lon="9.080955287983"><ele>573.0</ele><time>2026-05-03T11:18:55.999Z</time></trkpt><trkpt lat="44.7530463473125" lon="9.080831191830825"><ele>572.5</ele><time>2026-05-03T11:18:56.999Z</time></trkpt><trkpt lat="44.75303551464339" lon="9.080722585843516"><ele>572.0</ele><time>2026-05-03T11:18:57.999Z</time></trkpt><trkpt lat="44.753010198558904" lon="9.080635561797587"><ele>571.5</ele><time>2026-05-03T11:18:58.999Z</time></trkpt><trkpt lat="44.75293459544167" lon="9.080489860162245"><ele>571.0</ele><time>2026-05-03T11:19:00.999Z</time></trkpt><trkpt lat="44.75289583028741" lon="9.080413060190983"><ele>570.5</ele><time>2026-05-03T11:19:01.999Z</time></trkpt><trkpt lat="44.752854572351524" lon="9.08030548911358"><ele>570.0</ele><time>2026-05-03T11:19:03.999Z</time></trkpt><trkpt lat="44.75280455514094" lon="9.080250361592965"><ele>570.0</ele><time>2026-05-03T11:19:05.999Z</time></trkpt><trkpt lat="44.752740414229564" lon="9.080198407929782"><ele>570.0</ele><time>2026-05-03T11:19:08.999Z</time></trkpt><trkpt lat="44.752697457112546" lon="9.080124205878336"><ele>570.0</ele><time>2026-05-03T11:19:11.999Z</time></trkpt><trkpt lat="44.75270095350511" lon="9.08002300787926"><ele>570.0</ele><time>2026-05-03T11:19:13.999Z</time></trkpt><trkpt lat="44.75274627646079" lon="9.079945869238598"><ele>570.0</ele><time>2026-05-03T11:19:16.999Z</time></trkpt><trkpt lat="44.752816259400106" lon="9.079898008197507"><ele>570.0</ele><time>2026-05-03T11:19:33.998Z</time></trkpt><trkpt lat="44.752892056351705" lon="9.079860510755617"><ele>570.0</ele><time>2026-05-03T11:19:36.998Z</time></trkpt><trkpt lat="44.75294062916272" lon="9.079773078496576"><ele>570.1666666666666</ele><time>2026-05-03T11:19:40.998Z</time></trkpt><trkpt lat="44.753018922846614" lon="9.079695320217148"><ele>570.3333333333334</ele><time>2026-05-03T11:19:43.998Z</time></trkpt><trkpt lat="44.75305965610595" lon="9.079627032345071"><ele>570.5</ele><time>2026-05-03T11:19:47Z</time></trkpt><trkpt lat="44.753072140631645" lon="9.079527102942487"><ele>570.6666666666667</ele><time>2026-05-03T11:19:50Z</time></trkpt><trkpt lat="44.753130530475744" lon="9.079413285401998"><ele>570.8333333333334</ele><time>2026-05-03T11:19:53Z</time></trkpt><trkpt lat="44.75314754123211" lon="9.079292454099745"><ele>571.0</ele><time>2026-05-03T11:19:55Z</time></trkpt><trkpt lat="44.753145205670705" lon="9.079174551740829"><ele>571.1666666666667</ele><time>2026-05-03T11:19:57Z</time></trkpt><trkpt lat="44.753140888260425" lon="9.079026035045642"><ele>571.3333333333334</ele><time>2026-05-03T11:19:59Z</time></trkpt><trkpt lat="44.75315986605798" lon="9.07892087214151"><ele>571.5</ele><time>2026-05-03T11:20:01Z</time></trkpt><trkpt lat="44.75319644435139" lon="9.078803859783136"><ele>571.6666666666666</ele><time>2026-05-03T11:20:03Z</time></trkpt><trkpt lat="44.75321936212241" lon="9.078714848559521"><ele>571.8333333333333</ele><time>2026-05-03T11:20:04Z</time></trkpt><trkpt lat="44.75323993573931" lon="9.078630331335411"><ele>572.0</ele><time>2026-05-03T11:20:05Z</time></trkpt><trkpt lat="44.75326599590638" lon="9.078536623010907"><ele>571.9999999999999</ele><time>2026-05-03T11:20:06Z</time></trkpt><trkpt lat="44.75329437359249" lon="9.07841472071318"><ele>572.0</ele><time>2026-05-03T11:20:08Z</time></trkpt><trkpt lat="44.75331790055998" lon="9.07833126588903"><ele>572.0</ele><time>2026-05-03T11:20:11Z</time></trkpt><trkpt lat="44.75335394814292" lon="9.07820872986744"><ele>572.0</ele><time>2026-05-03T11:20:14Z</time></trkpt><trkpt lat="44.75341467512138" lon="9.07816931735237"><ele>572.0</ele><time>2026-05-03T11:20:16Z</time></trkpt><trkpt lat="44.75345427882666" lon="9.078098144451808"><ele>571.9999999999999</ele><time>2026-05-03T11:20:17Z</time></trkpt><trkpt lat="44.75350566064008" lon="9.078041609280852"><ele>572.0</ele><time>2026-05-03T11:20:18Z</time></trkpt><trkpt lat="44.753582827685264" lon="9.07795110193945"><ele>570.5</ele><time>2026-05-03T11:20:20Z</time></trkpt><trkpt lat="44.753700568078294" lon="9.077868532751062"><ele>569.0</ele><time>2026-05-03T11:20:22Z</time></trkpt><trkpt lat="44.753763039699045" lon="9.077821835880611"><ele>567.5</ele><time>2026-05-03T11:20:23Z</time></trkpt><trkpt lat="44.753850006351676" lon="9.077754862394368"><ele>566.0</ele><time>2026-05-03T11:20:25Z</time></trkpt><trkpt lat="44.753888152457094" lon="9.07768272846749"><ele>564.5</ele><time>2026-05-03T11:20:27Z</time></trkpt><trkpt lat="44.75397118839458" lon="9.077669394880246"><ele>563.0</ele><time>2026-05-03T11:20:31Z</time></trkpt><trkpt lat="44.754049186293436" lon="9.07773909585498"><ele>563.0</ele><time>2026-05-03T11:20:32.999Z</time></trkpt><trkpt lat="44.75412616320853" lon="9.077774519611198"><ele>563.0</ele><time>2026-05-03T11:20:34.999Z</time></trkpt><trkpt lat="44.75421232032431" lon="9.077833257856225"><ele>563.0</ele><time>2026-05-03T11:20:36.999Z</time></trkpt><trkpt lat="44.75429273590443" lon="9.07782809303038"><ele>563.0</ele><time>2026-05-03T11:20:40.999Z</time></trkpt><trkpt lat="44.75437394880083" lon="9.077815338728227"><ele>563.0</ele><time>2026-05-03T11:20:42.999Z</time></trkpt><trkpt lat="44.754460386654216" lon="9.07787853881869"><ele>563.0</ele><time>2026-05-03T11:20:44.999Z</time></trkpt><trkpt lat="44.75453648048695" lon="9.07798703144573"><ele>558.4</ele><time>2026-05-03T11:20:46.999Z</time></trkpt><trkpt lat="44.754627231550096" lon="9.078026394371571"><ele>553.8</ele><time>2026-05-03T11:20:48.999Z</time></trkpt><trkpt lat="44.754754564159306" lon="9.078014157962292"><ele>549.2</ele><time>2026-05-03T11:20:50.999Z</time></trkpt><trkpt lat="44.754854877231246" lon="9.077970642134748"><ele>544.6</ele><time>2026-05-03T11:20:52.999Z</time></trkpt><trkpt lat="44.75494213544375" lon="9.07792354247931"><ele>540.0</ele><time>2026-05-03T11:20:54.999Z</time></trkpt><trkpt lat="44.75504559632171" lon="9.077912463238517"><ele>540.0</ele><time>2026-05-03T11:20:56.999Z</time></trkpt><trkpt lat="44.755111975620046" lon="9.077923008134617"><ele>540.0</ele><time>2026-05-03T11:20:57.999Z</time></trkpt><trkpt lat="44.75518735405629" lon="9.0779328143317"><ele>540.0</ele><time>2026-05-03T11:20:58.999Z</time></trkpt><trkpt lat="44.755264487322876" lon="9.077921622507057"><ele>540.0</ele><time>2026-05-03T11:20:59.999Z</time></trkpt><trkpt lat="44.75533458936348" lon="9.077928872948581"><ele>540.0</ele><time>2026-05-03T11:21:00.999Z</time></trkpt><trkpt lat="44.75541903318192" lon="9.077926380609066"><ele>540.0</ele><time>2026-05-03T11:21:01.999Z</time></trkpt><trkpt lat="44.75550615712321" lon="9.077907374110332"><ele>535.6</ele><time>2026-05-03T11:21:02.999Z</time></trkpt><trkpt lat="44.75555132542607" lon="9.077835489820544"><ele>531.2</ele><time>2026-05-03T11:21:04.999Z</time></trkpt><trkpt lat="44.755567767638766" lon="9.07770808099643"><ele>526.8</ele><time>2026-05-03T11:21:06.999Z</time></trkpt><trkpt lat="44.755525549371626" lon="9.077555658773303"><ele>522.4</ele><time>2026-05-03T11:21:08.999Z</time></trkpt><trkpt lat="44.75553395232956" lon="9.077385155416572"><ele>518.0</ele><time>2026-05-03T11:21:10.999Z</time></trkpt><trkpt lat="44.755541215271016" lon="9.077296658503785"><ele>517.5</ele><time>2026-05-03T11:21:11.999Z</time></trkpt><trkpt lat="44.75556533194447" lon="9.077192138012983"><ele>517.0</ele><time>2026-05-03T11:21:13.999Z</time></trkpt><trkpt lat="44.755576891083464" lon="9.077065698041878"><ele>516.5</ele><time>2026-05-03T11:21:16.999Z</time></trkpt><trkpt lat="44.75560042599953" lon="9.076949580205316"><ele>516.0</ele><time>2026-05-03T11:21:18.999Z</time></trkpt><trkpt lat="44.75563792672455" lon="9.076811174564904"><ele>515.5</ele><time>2026-05-03T11:21:22.998Z</time></trkpt><trkpt lat="44.755695692319236" lon="9.076737447495141"><ele>515.0</ele><time>2026-05-03T11:21:24.998Z</time></trkpt><trkpt lat="44.75578972279319" lon="9.076633151241985"><ele>516.0</ele><time>2026-05-03T11:21:26.998Z</time></trkpt><trkpt lat="44.75587250925606" lon="9.076543627111487"><ele>517.0</ele><time>2026-05-03T11:21:28.998Z</time></trkpt><trkpt lat="44.75593215057691" lon="9.076446560591547"><ele>518.0</ele><time>2026-05-03T11:21:30.998Z</time></trkpt><trkpt lat="44.755969145577005" lon="9.076344886101293"><ele>519.0</ele><time>2026-05-03T11:21:32.998Z</time></trkpt><trkpt lat="44.756017913311325" lon="9.076278895917262"><ele>520.0</ele><time>2026-05-03T11:21:43.998Z</time></trkpt><trkpt lat="44.75606878011384" lon="9.076183914293733"><ele>521.0</ele><time>2026-05-03T11:21:55Z</time></trkpt><trkpt lat="44.75610982812242" lon="9.076083624629346"><ele>515.2</ele><time>2026-05-03T11:22:08Z</time></trkpt><trkpt lat="44.75621195313444" lon="9.076102935305638"><ele>509.40000000000003</ele><time>2026-05-03T11:22:11Z</time></trkpt><trkpt lat="44.75627606412213" lon="9.07609933947756"><ele>503.6</ele><time>2026-05-03T11:22:13Z</time></trkpt><trkpt lat="44.756388557500976" lon="9.076100632252304"><ele>497.8</ele><time>2026-05-03T11:22:15Z</time></trkpt><trkpt lat="44.756476264876525" lon="9.076105626312202"><ele>492.0</ele><time>2026-05-03T11:22:16Z</time></trkpt><trkpt lat="44.75657796915377" lon="9.07610155389689"><ele>492.0</ele><time>2026-05-03T11:22:18Z</time></trkpt><trkpt lat="44.7566862792863" lon="9.076056961402518"><ele>492.0</ele><time>2026-05-03T11:22:20Z</time></trkpt><trkpt lat="44.756753668422476" lon="9.076036411361592"><ele>492.0</ele><time>2026-05-03T11:22:21Z</time></trkpt><trkpt lat="44.75683327823726" lon="9.076044210833425"><ele>492.0</ele><time>2026-05-03T11:22:23Z</time></trkpt><trkpt lat="44.756909442197" lon="9.076075507372547"><ele>492.0</ele><time>2026-05-03T11:22:25Z</time></trkpt><trkpt lat="44.75698081292924" lon="9.076115885005038"><ele>492.0</ele><time>2026-05-03T11:22:28Z</time></trkpt><trkpt lat="44.75709143296816" lon="9.076091831730304"><ele>488.20000000000005</ele><time>2026-05-03T11:22:32Z</time></trkpt><trkpt lat="44.7571795432337" lon="9.07605273642185"><ele>484.40000000000003</ele><time>2026-05-03T11:22:34Z</time></trkpt><trkpt lat="44.75726093366284" lon="9.075954967184947"><ele>480.59999999999997</ele><time>2026-05-03T11:22:36Z</time></trkpt><trkpt lat="44.7573378012344" lon="9.075876425987968"><ele>476.79999999999995</ele><time>2026-05-03T11:22:37.999Z</time></trkpt><trkpt lat="44.75740616293831" lon="9.07581341264576"><ele>473.0</ele><time>2026-05-03T11:22:39.999Z</time></trkpt><trkpt lat="44.75748934434477" lon="9.075679885182485"><ele>472.42857142857144</ele><time>2026-05-03T11:22:41.999Z</time></trkpt><trkpt lat="44.75751092950236" lon="9.075594167806459"><ele>471.85714285714283</ele><time>2026-05-03T11:22:42.999Z</time></trkpt><trkpt lat="44.757589256848235" lon="9.075518676122654"><ele>471.2857142857143</ele><time>2026-05-03T11:22:44.999Z</time></trkpt><trkpt lat="44.7576514191416" lon="9.075482597203749"><ele>470.7142857142857</ele><time>2026-05-03T11:22:45.999Z</time></trkpt><trkpt lat="44.75770551080423" lon="9.07542432217366"><ele>470.1428571428571</ele><time>2026-05-03T11:22:46.999Z</time></trkpt><trkpt lat="44.7577538853731" lon="9.075327860525665"><ele>469.57142857142856</ele><time>2026-05-03T11:22:48.999Z</time></trkpt><trkpt lat="44.757752144249224" lon="9.07523134637185"><ele>469.0</ele><time>2026-05-03T11:22:50.999Z</time></trkpt><trkpt lat="44.75776848886768" lon="9.07505675339964"><ele>465.50000000000006</ele><time>2026-05-03T11:22:53.999Z</time></trkpt><trkpt lat="44.757791309942434" lon="9.074927159310946"><ele>462.0</ele><time>2026-05-03T11:22:55.999Z</time></trkpt><trkpt lat="44.757840354759395" lon="9.07480214163329"><ele>458.5</ele><time>2026-05-03T11:22:57.999Z</time></trkpt><trkpt lat="44.75785941693193" lon="9.074717139176654"><ele>455.0</ele><time>2026-05-03T11:22:58.999Z</time></trkpt><trkpt lat="44.75787896658335" lon="9.074627994439478"><ele>451.50000000000006</ele><time>2026-05-03T11:22:59.999Z</time></trkpt><trkpt lat="44.75789443309351" lon="9.07453540229593"><ele>448.0</ele><time>2026-05-03T11:23:00.999Z</time></trkpt><trkpt lat="44.757914990840234" lon="9.07444938911961"><ele>448.0</ele><time>2026-05-03T11:23:01.999Z</time></trkpt><trkpt lat="44.75795238463198" lon="9.074304289813863"><ele>447.99999999999994</ele><time>2026-05-03T11:23:03.999Z</time></trkpt><trkpt lat="44.75799389878048" lon="9.074152567475567"><ele>447.99999999999994</ele><time>2026-05-03T11:23:05.999Z</time></trkpt><trkpt lat="44.758032492832534" lon="9.074041947866204"><ele>448.0</ele><time>2026-05-03T11:23:07.999Z</time></trkpt><trkpt lat="44.75809697808535" lon="9.073926992504946"><ele>448.0</ele><time>2026-05-03T11:23:09.999Z</time></trkpt><trkpt lat="44.7581780793129" lon="9.073851588212067"><ele>447.2</ele><time>2026-05-03T11:23:11.999Z</time></trkpt><trkpt lat="44.75826309135394" lon="9.073784632600253"><ele>446.4</ele><time>2026-05-03T11:23:13.999Z</time></trkpt><trkpt lat="44.758343997675254" lon="9.073726470504027"><ele>445.59999999999997</ele><time>2026-05-03T11:23:15.999Z</time></trkpt><trkpt lat="44.75842435494588" lon="9.073634124524343"><ele>444.79999999999995</ele><time>2026-05-03T11:23:17.999Z</time></trkpt><trkpt lat="44.75849744416565" lon="9.07354331077405"><ele>444.0</ele><time>2026-05-03T11:23:19.999Z</time></trkpt><trkpt lat="44.758570727183084" lon="9.073472160810912"><ele>441.6</ele><time>2026-05-03T11:23:21.999Z</time></trkpt><trkpt lat="44.75864535353704" lon="9.073408242505904"><ele>439.2</ele><time>2026-05-03T11:23:23.999Z</time></trkpt><trkpt lat="44.75874761712122" lon="9.07336376579332"><ele>436.80000000000007</ele><time>2026-05-03T11:23:25.999Z</time></trkpt><trkpt lat="44.75882665199112" lon="9.07333185803653"><ele>434.40000000000003</ele><time>2026-05-03T11:23:27.998Z</time></trkpt><trkpt lat="44.75891015049804" lon="9.073300361016884"><ele>432.0</ele><time>2026-05-03T11:23:29.998Z</time></trkpt><trkpt lat="44.75899636872919" lon="9.073251265240968"><ele>431.3333333333333</ele><time>2026-05-03T11:23:31.998Z</time></trkpt><trkpt lat="44.75904781489667" lon="9.073183838852742"><ele>430.66666666666663</ele><time>2026-05-03T11:23:33.998Z</time></trkpt><trkpt lat="44.75910717285414" lon="9.073105679151714"><ele>430.0</ele><time>2026-05-03T11:23:36.998Z</time></trkpt><trkpt lat="44.75916973316178" lon="9.07302272820194"><ele>429.3333333333333</ele><time>2026-05-03T11:23:38.998Z</time></trkpt><trkpt lat="44.759225617097144" lon="9.072951720836114"><ele>428.66666666666663</ele><time>2026-05-03T11:23:40.998Z</time></trkpt><trkpt lat="44.759298565877536" lon="9.07291130637675"><ele>428.0</ele><time>2026-05-03T11:23:43.998Z</time></trkpt><trkpt lat="44.759368975195855" lon="9.072889028751833"><ele>425.66666666666663</ele><time>2026-05-03T11:23:45.998Z</time></trkpt><trkpt lat="44.75944696888394" lon="9.072889548629751"><ele>423.3333333333333</ele><time>2026-05-03T11:23:47.998Z</time></trkpt><trkpt lat="44.75951265243465" lon="9.072869552503262"><ele>421.0</ele><time>2026-05-03T11:23:49.998Z</time></trkpt><trkpt lat="44.7595788391764" lon="9.072859703648563"><ele>418.66666666666663</ele><time>2026-05-03T11:23:51.998Z</time></trkpt><trkpt lat="44.759668413777405" lon="9.072888797339004"><ele>416.3333333333333</ele><time>2026-05-03T11:23:53.998Z</time></trkpt><trkpt lat="44.759737449537745" lon="9.072900503285606"><ele>414.0</ele><time>2026-05-03T11:23:55.998Z</time></trkpt><trkpt lat="44.7598246578448" lon="9.072935528681883"><ele>414.0</ele><time>2026-05-03T11:23:59Z</time></trkpt><trkpt lat="44.75989473126369" lon="9.072970399967394"><ele>414.0</ele><time>2026-05-03T11:24:01Z</time></trkpt><trkpt lat="44.75998610179107" lon="9.072903248852219"><ele>414.0</ele><time>2026-05-03T11:24:03Z</time></trkpt><trkpt lat="44.76010647236999" lon="9.072735888865823"><ele>414.0</ele><time>2026-05-03T11:24:05Z</time></trkpt><trkpt lat="44.76017482005047" lon="9.072607362941406"><ele>413.4</ele><time>2026-05-03T11:24:06Z</time></trkpt><trkpt lat="44.76022193688663" lon="9.072517293327737"><ele>412.79999999999995</ele><time>2026-05-03T11:24:07Z</time></trkpt><trkpt lat="44.760296166576374" lon="9.072371110428772"><ele>412.20000000000005</ele><time>2026-05-03T11:24:09Z</time></trkpt><trkpt lat="44.76033746610728" lon="9.07222998754638"><ele>411.6</ele><time>2026-05-03T11:24:11Z</time></trkpt><trkpt lat="44.76037505188804" lon="9.07213892289709"><ele>411.0</ele><time>2026-05-03T11:24:12Z</time></trkpt><trkpt lat="44.76042504490884" lon="9.072067363546134"><ele>410.0</ele><time>2026-05-03T11:24:13Z</time></trkpt><trkpt lat="44.760510181074274" lon="9.071975193827365"><ele>409.0</ele><time>2026-05-03T11:24:15Z</time></trkpt><trkpt lat="44.76057828341686" lon="9.071927688463887"><ele>408.0</ele><time>2026-05-03T11:24:17Z</time></trkpt><trkpt lat="44.76066783972129" lon="9.071938765552494"><ele>407.0</ele><time>2026-05-03T11:24:19Z</time></trkpt><trkpt lat="44.76076145623157" lon="9.071881832948398"><ele>406.0</ele><time>2026-05-03T11:24:21Z</time></trkpt><trkpt lat="44.76081484305829" lon="9.071819848255968"><ele>405.0</ele><time>2026-05-03T11:24:23Z</time></trkpt><trkpt lat="44.76087939205631" lon="9.071768970357137"><ele>405.0</ele><time>2026-05-03T11:24:26Z</time></trkpt><trkpt lat="44.76094944194666" lon="9.071682420274477"><ele>405.0</ele><time>2026-05-03T11:25:21.999Z</time></trkpt><trkpt lat="44.76104648792817" lon="9.071725228554996"><ele>405.0</ele><time>2026-05-03T11:29:13.999Z</time></trkpt><trkpt lat="44.76115525222699" lon="9.071715630795701"><ele>405.0</ele><time>2026-05-03T11:29:15.999Z</time></trkpt><trkpt lat="44.76121934366869" lon="9.071714545543598"><ele>405.0</ele><time>2026-05-03T11:29:16.999Z</time></trkpt><trkpt lat="44.76128276382268" lon="9.071710351455252"><ele>405.0</ele><time>2026-05-03T11:29:17.999Z</time></trkpt><trkpt lat="44.76135305458372" lon="9.07171268656112"><ele>404.2</ele><time>2026-05-03T11:29:18.999Z</time></trkpt><trkpt lat="44.7614754070385" lon="9.071696250801388"><ele>403.4</ele><time>2026-05-03T11:29:20.999Z</time></trkpt><trkpt lat="44.76158186693418" lon="9.071674015436042"><ele>402.6</ele><time>2026-05-03T11:29:22.999Z</time></trkpt><trkpt lat="44.76169205433362" lon="9.071705463515922"><ele>401.8</ele><time>2026-05-03T11:29:24.999Z</time></trkpt><trkpt lat="44.761786969057646" lon="9.071729546384907"><ele>401.0</ele><time>2026-05-03T11:29:26.999Z</time></trkpt><trkpt lat="44.76188232139465" lon="9.071751866024504"><ele>399.99999999999994</ele><time>2026-05-03T11:29:28.999Z</time></trkpt><trkpt lat="44.76196982686994" lon="9.071794318538494"><ele>399.0</ele><time>2026-05-03T11:29:30.999Z</time></trkpt><trkpt lat="44.7620531184395" lon="9.071784862355734"><ele>398.0</ele><time>2026-05-03T11:29:32.999Z</time></trkpt><trkpt lat="44.76212500839152" lon="9.07176172513604"><ele>397.0</ele><time>2026-05-03T11:29:34.999Z</time></trkpt><trkpt lat="44.76221905488274" lon="9.071733729867521"><ele>395.99999999999994</ele><time>2026-05-03T11:29:36.999Z</time></trkpt><trkpt lat="44.7622961486897" lon="9.071719457368708"><ele>395.0</ele><time>2026-05-03T11:29:37.999Z</time></trkpt><trkpt lat="44.76236857301572" lon="9.071708665464245"><ele>394.99999999999994</ele><time>2026-05-03T11:29:38.999Z</time></trkpt><trkpt lat="44.762504075639896" lon="9.071742393489277"><ele>395.0</ele><time>2026-05-03T11:29:40.998Z</time></trkpt><trkpt lat="44.762575928667246" lon="9.07177705277581"><ele>395.0</ele><time>2026-05-03T11:29:41.998Z</time></trkpt><trkpt lat="44.76265149126314" lon="9.071819533710405"><ele>395.0</ele><time>2026-05-03T11:29:42.998Z</time></trkpt><trkpt lat="44.7627103086744" lon="9.071855382010884"><ele>394.99999999999994</ele><time>2026-05-03T11:29:43.998Z</time></trkpt><trkpt lat="44.76277178238474" lon="9.07190817032816"><ele>395.0</ele><time>2026-05-03T11:29:44.998Z</time></trkpt><trkpt lat="44.76283251747072" lon="9.071958894108217"><ele>394.0</ele><time>2026-05-03T11:29:45.998Z</time></trkpt><trkpt lat="44.76288915523531" lon="9.071998383553526"><ele>393.0</ele><time>2026-05-03T11:29:46.998Z</time></trkpt><trkpt lat="44.76297669160556" lon="9.072053818320772"><ele>392.0</ele><time>2026-05-03T11:29:48.998Z</time></trkpt><trkpt lat="44.763096903828014" lon="9.072067380157664"><ele>391.0</ele><time>2026-05-03T11:29:50.998Z</time></trkpt><trkpt lat="44.763185129820094" lon="9.072060485193166"><ele>390.0</ele><time>2026-05-03T11:29:51.998Z</time></trkpt><trkpt lat="44.76327793363185" lon="9.072076047577749"><ele>390.0</ele><time>2026-05-03T11:29:52.998Z</time></trkpt><trkpt lat="44.7633837899527" lon="9.07210123925952"><ele>390.0</ele><time>2026-05-03T11:29:53.998Z</time></trkpt><trkpt lat="44.76348873610926" lon="9.072128171384271"><ele>390.0</ele><time>2026-05-03T11:29:54.998Z</time></trkpt><trkpt lat="44.76361056364537" lon="9.072150322131987"><ele>390.0</ele><time>2026-05-03T11:29:55.998Z</time></trkpt><trkpt lat="44.76373242045416" lon="9.0721836759799"><ele>390.0</ele><time>2026-05-03T11:29:56.998Z</time></trkpt><trkpt lat="44.763859217340055" lon="9.072225656523033"><ele>390.0</ele><time>2026-05-03T11:29:57.998Z</time></trkpt><trkpt lat="44.763989253544956" lon="9.072289919086653"><ele>390.0</ele><time>2026-05-03T11:29:58.998Z</time></trkpt><trkpt lat="44.764122483293974" lon="9.072375218885798"><ele>390.0</ele><time>2026-05-03T11:29:59.998Z</time></trkpt><trkpt lat="44.764270101934244" lon="9.072489995586395"><ele>388.33333333333337</ele><time>2026-05-03T11:30:00.998Z</time></trkpt><trkpt lat="44.76441282441591" lon="9.072584716627153"><ele>386.6666666666667</ele><time>2026-05-03T11:30:01.998Z</time></trkpt><trkpt lat="44.764554015299666" lon="9.072662729425044"><ele>385.0</ele><time>2026-05-03T11:30:02.998Z</time></trkpt><trkpt lat="44.764701657593854" lon="9.072737183728426"><ele>385.0</ele><time>2026-05-03T11:30:03.998Z</time></trkpt><trkpt lat="44.76485512599481" lon="9.072774724582676"><ele>385.0</ele><time>2026-05-03T11:30:04.998Z</time></trkpt><trkpt lat="44.765015156840455" lon="9.072790622756619"><ele>385.0</ele><time>2026-05-03T11:30:05.998Z</time></trkpt><trkpt lat="44.76517421142416" lon="9.07279588021004"><ele>384.6666666666667</ele><time>2026-05-03T11:30:06.998Z</time></trkpt><trkpt lat="44.76532916011469" lon="9.072800097545764"><ele>384.33333333333337</ele><time>2026-05-03T11:30:07.998Z</time></trkpt><trkpt lat="44.76548507944" lon="9.072811226322573"><ele>384.0</ele><time>2026-05-03T11:30:08.998Z</time></trkpt><trkpt lat="44.76564091232241" lon="9.072838911884354"><ele>384.0</ele><time>2026-05-03T11:30:09.998Z</time></trkpt><trkpt lat="44.76579838499666" lon="9.072883012932472"><ele>384.0</ele><time>2026-05-03T11:30:10.998Z</time></trkpt><trkpt lat="44.76595824343426" lon="9.072934697022923"><ele>384.0</ele><time>2026-05-03T11:30:11.998Z</time></trkpt><trkpt lat="44.76611980270675" lon="9.072989971729449"><ele>383.6666666666667</ele><time>2026-05-03T11:30:12.998Z</time></trkpt><trkpt lat="44.76628079140254" lon="9.073050885895906"><ele>383.33333333333337</ele><time>2026-05-03T11:30:13.998Z</time></trkpt><trkpt lat="44.766440770409346" lon="9.07312367568819"><ele>383.0</ele><time>2026-05-03T11:30:14.998Z</time></trkpt><trkpt lat="44.76660322157453" lon="9.073204597578632"><ele>382.6666666666667</ele><time>2026-05-03T11:30:16Z</time></trkpt><trkpt lat="44.76676588721522" lon="9.073291024747995"><ele>382.3333333333333</ele><time>2026-05-03T11:30:17Z</time></trkpt><trkpt lat="44.7669146882135" lon="9.07338017868428"><ele>382.0</ele><time>2026-05-03T11:30:18Z</time></trkpt><trkpt lat="44.76705999648636" lon="9.073468497729614"><ele>381.3333333333333</ele><time>2026-05-03T11:30:19Z</time></trkpt><trkpt lat="44.76721133127262" lon="9.073549927868816"><ele>380.6666666666667</ele><time>2026-05-03T11:30:20Z</time></trkpt><trkpt lat="44.76735836643144" lon="9.073615559889975"><ele>380.0</ele><time>2026-05-03T11:30:21Z</time></trkpt><trkpt lat="44.76749930874468" lon="9.073671080886674"><ele>380.0</ele><time>2026-05-03T11:30:22Z</time></trkpt><trkpt lat="44.7676304739016" lon="9.0737238187922"><ele>380.0</ele><time>2026-05-03T11:30:23Z</time></trkpt><trkpt lat="44.76775406710127" lon="9.073768198486798"><ele>380.0</ele><time>2026-05-03T11:30:24Z</time></trkpt><trkpt lat="44.76788329594551" lon="9.073790406330453"><ele>380.0</ele><time>2026-05-03T11:30:25Z</time></trkpt><trkpt lat="44.768020518494325" lon="9.073780382369383"><ele>379.25</ele><time>2026-05-03T11:30:26Z</time></trkpt><trkpt lat="44.76816072772518" lon="9.073736968486005"><ele>378.5</ele><time>2026-05-03T11:30:27Z</time></trkpt><trkpt lat="44.76830160135691" lon="9.073668144328389"><ele>377.75</ele><time>2026-05-03T11:30:28Z</time></trkpt><trkpt lat="44.76844014714136" lon="9.07359583912929"><ele>377.0</ele><time>2026-05-03T11:30:29Z</time></trkpt><trkpt lat="44.76857650627132" lon="9.073517839334793"><ele>376.6666666666667</ele><time>2026-05-03T11:30:30Z</time></trkpt><trkpt lat="44.768714081231494" lon="9.073434909387665"><ele>376.3333333333333</ele><time>2026-05-03T11:30:31Z</time></trkpt><trkpt lat="44.76885555805247" lon="9.073355855263664"><ele>376.0</ele><time>2026-05-03T11:30:32Z</time></trkpt><trkpt lat="44.768998259511896" lon="9.07329003880841"><ele>376.25</ele><time>2026-05-03T11:30:33Z</time></trkpt><trkpt lat="44.76913263151603" lon="9.073248343385517"><ele>376.5</ele><time>2026-05-03T11:30:34Z</time></trkpt><trkpt lat="44.76926426338145" lon="9.073221497387392"><ele>376.75</ele><time>2026-05-03T11:30:35Z</time></trkpt><trkpt lat="44.769382244166444" lon="9.073202740287323"><ele>377.0</ele><time>2026-05-03T11:30:36Z</time></trkpt><trkpt lat="44.76948956723281" lon="9.073184912433732"><ele>376.0</ele><time>2026-05-03T11:30:37Z</time></trkpt><trkpt lat="44.76958688981588" lon="9.07316717721985"><ele>375.0</ele><time>2026-05-03T11:30:38Z</time></trkpt><trkpt lat="44.769674371877706" lon="9.073150825736851"><ele>374.0</ele><time>2026-05-03T11:30:39Z</time></trkpt><trkpt lat="44.769744798040705" lon="9.07313469442844"><ele>373.0</ele><time>2026-05-03T11:30:40Z</time></trkpt><trkpt lat="44.76986633900808" lon="9.073126468882256"><ele>372.0</ele><time>2026-05-03T11:30:42Z</time></trkpt><trkpt lat="44.76994111159817" lon="9.073142027728899"><ele>372.0</ele><time>2026-05-03T11:30:43Z</time></trkpt><trkpt lat="44.770027081037966" lon="9.073159440938714"><ele>372.0</ele><time>2026-05-03T11:30:44Z</time></trkpt><trkpt lat="44.77012083148927" lon="9.073150544157189"><ele>372.0</ele><time>2026-05-03T11:30:45Z</time></trkpt><trkpt lat="44.77021855525239" lon="9.073132383547419"><ele>372.0</ele><time>2026-05-03T11:30:46Z</time></trkpt><trkpt lat="44.77032417791523" lon="9.073116922990932"><ele>372.0</ele><time>2026-05-03T11:30:47Z</time></trkpt><trkpt lat="44.7704318024749" lon="9.073120432279"><ele>372.75</ele><time>2026-05-03T11:30:48Z</time></trkpt><trkpt lat="44.770543912406524" lon="9.073138801940036"><ele>373.5</ele><time>2026-05-03T11:30:49Z</time></trkpt><trkpt lat="44.77065799279995" lon="9.073180521432318"><ele>374.25</ele><time>2026-05-03T11:30:49.999Z</time></trkpt><trkpt lat="44.77077232896767" lon="9.073237035262958"><ele>375.0</ele><time>2026-05-03T11:30:50.999Z</time></trkpt><trkpt lat="44.77089076750358" lon="9.073294311671711"><ele>375.0</ele><time>2026-05-03T11:30:51.999Z</time></trkpt><trkpt lat="44.771015291844655" lon="9.073355239106666"><ele>375.0</ele><time>2026-05-03T11:30:52.999Z</time></trkpt><trkpt lat="44.771145729570065" lon="9.073412333260558"><ele>375.0</ele><time>2026-05-03T11:30:53.999Z</time></trkpt><trkpt lat="44.77128250523435" lon="9.07345561673356"><ele>375.0</ele><time>2026-05-03T11:30:54.999Z</time></trkpt><trkpt lat="44.771425513997826" lon="9.07347348238527"><ele>375.3333333333333</ele><time>2026-05-03T11:30:55.999Z</time></trkpt><trkpt lat="44.77157403083506" lon="9.073465186288182"><ele>375.66666666666663</ele><time>2026-05-03T11:30:56.999Z</time></trkpt><trkpt lat="44.77172409207658" lon="9.073427475563493"><ele>376.0</ele><time>2026-05-03T11:30:57.999Z</time></trkpt><trkpt lat="44.77187302291061" lon="9.073363085237446"><ele>372.3333333333333</ele><time>2026-05-03T11:30:58.999Z</time></trkpt><trkpt lat="44.772016603891565" lon="9.073271746582334"><ele>368.6666666666667</ele><time>2026-05-03T11:30:59.999Z</time></trkpt><trkpt lat="44.772152566230176" lon="9.073152871954557"><ele>365.0</ele><time>2026-05-03T11:31:00.999Z</time></trkpt><trkpt lat="44.77227844289018" lon="9.073010041659225"><ele>365.0</ele><time>2026-05-03T11:31:01.999Z</time></trkpt><trkpt lat="44.772403948958484" lon="9.07288099051241"><ele>365.0</ele><time>2026-05-03T11:31:02.999Z</time></trkpt><trkpt lat="44.77252527694716" lon="9.072755211928992"><ele>365.0</ele><time>2026-05-03T11:31:03.999Z</time></trkpt><trkpt lat="44.77264424577011" lon="9.07263528722061"><ele>365.25</ele><time>2026-05-03T11:31:04.999Z</time></trkpt><trkpt lat="44.772770181141915" lon="9.072533124879659"><ele>365.5</ele><time>2026-05-03T11:31:05.999Z</time></trkpt><trkpt lat="44.77290340975705" lon="9.072458442265123"><ele>365.75</ele><time>2026-05-03T11:31:06.999Z</time></trkpt><trkpt lat="44.77304682790573" lon="9.072416926625685"><ele>366.0</ele><time>2026-05-03T11:31:07.999Z</time></trkpt><trkpt lat="44.77319657176951" lon="9.072400938089151"><ele>364.0</ele><time>2026-05-03T11:31:08.999Z</time></trkpt><trkpt lat="44.773349321044506" lon="9.07240591858967"><ele>362.0</ele><time>2026-05-03T11:31:09.999Z</time></trkpt><trkpt lat="44.77350656870035" lon="9.072416218668044"><ele>360.0</ele><time>2026-05-03T11:31:10.999Z</time></trkpt><trkpt lat="44.77366534771737" lon="9.072425085302603"><ele>360.0</ele><time>2026-05-03T11:31:11.999Z</time></trkpt><trkpt lat="44.773812888292184" lon="9.072437048877584"><ele>360.0</ele><time>2026-05-03T11:31:12.999Z</time></trkpt><trkpt lat="44.77394992558731" lon="9.072437210599496"><ele>360.0</ele><time>2026-05-03T11:31:13.999Z</time></trkpt><trkpt lat="44.77408716548701" lon="9.0724067340453"><ele>360.0</ele><time>2026-05-03T11:31:14.999Z</time></trkpt><trkpt lat="44.77422450098016" lon="9.072340588428395"><ele>359.75</ele><time>2026-05-03T11:31:15.999Z</time></trkpt><trkpt lat="44.77435657148418" lon="9.072239933358917"><ele>359.5</ele><time>2026-05-03T11:31:16.999Z</time></trkpt><trkpt lat="44.77448583766371" lon="9.07213533257978"><ele>359.25</ele><time>2026-05-03T11:31:17.999Z</time></trkpt><trkpt lat="44.77462560259014" lon="9.072058890775422"><ele>359.0</ele><time>2026-05-03T11:31:18.999Z</time></trkpt><trkpt lat="44.77476904247013" lon="9.071976398966285"><ele>359.0</ele><time>2026-05-03T11:31:19.999Z</time></trkpt><trkpt lat="44.77490795961436" lon="9.071870443123055"><ele>359.0</ele><time>2026-05-03T11:31:20.999Z</time></trkpt><trkpt lat="44.775039366846734" lon="9.07173998866258"><ele>359.0</ele><time>2026-05-03T11:31:21.999Z</time></trkpt><trkpt lat="44.77516717938403" lon="9.071597893974513"><ele>357.0</ele><time>2026-05-03T11:31:22.999Z</time></trkpt><trkpt lat="44.7752958759613" lon="9.071468585217595"><ele>355.0</ele><time>2026-05-03T11:31:23.999Z</time></trkpt><trkpt lat="44.77543446144407" lon="9.071356537875628"><ele>353.0</ele><time>2026-05-03T11:31:24.999Z</time></trkpt><trkpt lat="44.7755818645527" lon="9.07126625377939"><ele>353.0</ele><time>2026-05-03T11:31:25.999Z</time></trkpt><trkpt lat="44.775735375972275" lon="9.07119400755807"><ele>353.0</ele><time>2026-05-03T11:31:26.999Z</time></trkpt><trkpt lat="44.775889263083826" lon="9.071115337604764"><ele>353.0</ele><time>2026-05-03T11:31:27.999Z</time></trkpt><trkpt lat="44.77604641426175" lon="9.07104458195257"><ele>354.33333333333337</ele><time>2026-05-03T11:31:28.999Z</time></trkpt><trkpt lat="44.77620112094012" lon="9.070966390821518"><ele>355.6666666666667</ele><time>2026-05-03T11:31:29.999Z</time></trkpt><trkpt lat="44.776362046957985" lon="9.070887524149388"><ele>357.0</ele><time>2026-05-03T11:31:30.999Z</time></trkpt><trkpt lat="44.77652360665851" lon="9.07080597684613"><ele>355.0</ele><time>2026-05-03T11:31:31.999Z</time></trkpt><trkpt lat="44.77668389710242" lon="9.070725957499219"><ele>353.0</ele><time>2026-05-03T11:31:32.999Z</time></trkpt><trkpt lat="44.77683746482047" lon="9.070647374203494"><ele>351.0</ele><time>2026-05-03T11:31:33.999Z</time></trkpt><trkpt lat="44.776980161666835" lon="9.070575371309246"><ele>351.0</ele><time>2026-05-03T11:31:34.999Z</time></trkpt><trkpt lat="44.77711617869145" lon="9.070507922388158"><ele>351.0</ele><time>2026-05-03T11:31:35.999Z</time></trkpt><trkpt lat="44.7772613647988" lon="9.070446746932713"><ele>351.0</ele><time>2026-05-03T11:31:36.999Z</time></trkpt><trkpt lat="44.77740399869259" lon="9.070387350423253"><ele>351.0</ele><time>2026-05-03T11:31:37.999Z</time></trkpt><trkpt lat="44.77755205324661" lon="9.070331707375532"><ele>350.6666666666667</ele><time>2026-05-03T11:31:38.999Z</time></trkpt><trkpt lat="44.777702536788965" lon="9.07027534967981"><ele>350.33333333333337</ele><time>2026-05-03T11:31:39.999Z</time></trkpt><trkpt lat="44.777858365144006" lon="9.07021125487803"><ele>350.0</ele><time>2026-05-03T11:31:40.998Z</time></trkpt><trkpt lat="44.77801445415773" lon="9.070144471578065"><ele>350.0</ele><time>2026-05-03T11:31:41.998Z</time></trkpt><trkpt lat="44.778168753705025" lon="9.070079774615001"><ele>350.0</ele><time>2026-05-03T11:31:42.998Z</time></trkpt><trkpt lat="44.77831515140612" lon="9.070022513857824"><ele>350.0</ele><time>2026-05-03T11:31:43.998Z</time></trkpt><trkpt lat="44.77845167711952" lon="9.069972376545637"><ele>348.75</ele><time>2026-05-03T11:31:44.998Z</time></trkpt><trkpt lat="44.77857792178592" lon="9.069924589726892"><ele>347.5</ele><time>2026-05-03T11:31:45.998Z</time></trkpt><trkpt lat="44.77869672021954" lon="9.06988161602586"><ele>346.25</ele><time>2026-05-03T11:31:46.998Z</time></trkpt><trkpt lat="44.77881572576266" lon="9.06983943745276"><ele>345.0</ele><time>2026-05-03T11:31:47.998Z</time></trkpt><trkpt lat="44.778936943495566" lon="9.069793771624614"><ele>345.0</ele><time>2026-05-03T11:31:48.998Z</time></trkpt><trkpt lat="44.779060196423806" lon="9.069743706311948"><ele>345.0</ele><time>2026-05-03T11:31:49.998Z</time></trkpt><trkpt lat="44.77918144120596" lon="9.069695112663515"><ele>345.0</ele><time>2026-05-03T11:31:50.998Z</time></trkpt><trkpt lat="44.779302449341344" lon="9.069645567622144"><ele>345.0</ele><time>2026-05-03T11:31:51.998Z</time></trkpt><trkpt lat="44.77942608031429" lon="9.069604445125147"><ele>344.25</ele><time>2026-05-03T11:31:52.998Z</time></trkpt><trkpt lat="44.77955088540544" lon="9.069573128933392"><ele>343.5</ele><time>2026-05-03T11:31:53.998Z</time></trkpt><trkpt lat="44.77967455186815" lon="9.069549232127867"><ele>342.75</ele><time>2026-05-03T11:31:54.998Z</time></trkpt><trkpt lat="44.779796991111276" lon="9.069527140037302"><ele>342.0</ele><time>2026-05-03T11:31:55.998Z</time></trkpt><trkpt lat="44.77991931760537" lon="9.069506577899935"><ele>342.0</ele><time>2026-05-03T11:31:56.998Z</time></trkpt><trkpt lat="44.780030722350794" lon="9.069486311035693"><ele>342.0</ele><time>2026-05-03T11:31:57.998Z</time></trkpt><trkpt lat="44.78013501965188" lon="9.069471492065087"><ele>342.0</ele><time>2026-05-03T11:31:58.998Z</time></trkpt><trkpt lat="44.78022383641878" lon="9.069455010050381"><ele>342.0</ele><time>2026-05-03T11:31:59.998Z</time></trkpt><trkpt lat="44.780301694841754" lon="9.06942611003943"><ele>342.0</ele><time>2026-05-03T11:32:00.998Z</time></trkpt><trkpt lat="44.78037924376293" lon="9.069431206286636"><ele>342.25</ele><time>2026-05-03T11:32:01.998Z</time></trkpt><trkpt lat="44.7804537261163" lon="9.069419037812434"><ele>342.5</ele><time>2026-05-03T11:32:02.998Z</time></trkpt><trkpt lat="44.780500911594096" lon="9.069161402554979"><ele>342.75</ele><time>2026-05-03T11:32:03.998Z</time></trkpt><trkpt lat="44.78054284727213" lon="9.069022692931378"><ele>343.0</ele><time>2026-05-03T11:32:04.998Z</time></trkpt><trkpt lat="44.78057996029445" lon="9.068876227691916"><ele>343.0</ele><time>2026-05-03T11:32:05.998Z</time></trkpt><trkpt lat="44.780624513669316" lon="9.06872745509704"><ele>343.0</ele><time>2026-05-03T11:32:06.998Z</time></trkpt><trkpt lat="44.78067173591572" lon="9.068571423371841"><ele>343.0</ele><time>2026-05-03T11:32:07.998Z</time></trkpt><trkpt lat="44.78073148954277" lon="9.068415219101288"><ele>343.0</ele><time>2026-05-03T11:32:08.998Z</time></trkpt><trkpt lat="44.78080920914845" lon="9.068268467454654"><ele>342.75</ele><time>2026-05-03T11:32:09.998Z</time></trkpt><trkpt lat="44.78089758909987" lon="9.068148549594772"><ele>342.5</ele><time>2026-05-03T11:32:10.998Z</time></trkpt><trkpt lat="44.78099229889212" lon="9.06805659171139"><ele>342.25</ele><time>2026-05-03T11:32:11.998Z</time></trkpt><trkpt lat="44.78110468340739" lon="9.067990433872154"><ele>342.0</ele><time>2026-05-03T11:32:12.998Z</time></trkpt><trkpt lat="44.78123317261595" lon="9.067945435970021"><ele>342.0</ele><time>2026-05-03T11:32:13.998Z</time></trkpt><trkpt lat="44.781366745679996" lon="9.067897567796376"><ele>342.0</ele><time>2026-05-03T11:32:14.998Z</time></trkpt><trkpt lat="44.78149900671764" lon="9.067837233019686"><ele>342.0</ele><time>2026-05-03T11:32:15.998Z</time></trkpt><trkpt lat="44.78163340056262" lon="9.06777802108815"><ele>342.0</ele><time>2026-05-03T11:32:16.998Z</time></trkpt><trkpt lat="44.78177083305967" lon="9.067730037701926"><ele>342.5</ele><time>2026-05-03T11:32:17.998Z</time></trkpt><trkpt lat="44.781910936278585" lon="9.06767292247676"><ele>343.0</ele><time>2026-05-03T11:32:18.998Z</time></trkpt><trkpt lat="44.782046494402024" lon="9.067614668843488"><ele>343.5</ele><time>2026-05-03T11:32:19.998Z</time></trkpt><trkpt lat="44.78217926256259" lon="9.067558974396388"><ele>344.0</ele><time>2026-05-03T11:32:20.998Z</time></trkpt><trkpt lat="44.78231319428743" lon="9.067503484572951"><ele>344.0</ele><time>2026-05-03T11:32:22Z</time></trkpt><trkpt lat="44.782441220335" lon="9.067449428029837"><ele>344.0</ele><time>2026-05-03T11:32:23Z</time></trkpt><trkpt lat="44.782569353474074" lon="9.06738830447481"><ele>344.0</ele><time>2026-05-03T11:32:24Z</time></trkpt><trkpt lat="44.7826936244024" lon="9.06731308569751"><ele>344.0</ele><time>2026-05-03T11:32:25Z</time></trkpt><trkpt lat="44.78281558506173" lon="9.067218468603503"><ele>342.5</ele><time>2026-05-03T11:32:26Z</time></trkpt><trkpt lat="44.78293361970347" lon="9.067113176527997"><ele>341.0</ele><time>2026-05-03T11:32:27Z</time></trkpt><trkpt lat="44.78304675502648" lon="9.066998190218184"><ele>339.5</ele><time>2026-05-03T11:32:28Z</time></trkpt><trkpt lat="44.78315850556904" lon="9.066867593209253"><ele>338.0</ele><time>2026-05-03T11:32:29Z</time></trkpt><trkpt lat="44.78327092249688" lon="9.06674611343378"><ele>338.0</ele><time>2026-05-03T11:32:30Z</time></trkpt><trkpt lat="44.783374549519976" lon="9.066616378299026"><ele>338.0</ele><time>2026-05-03T11:32:31Z</time></trkpt><trkpt lat="44.783475294541354" lon="9.066500894652387"><ele>338.0</ele><time>2026-05-03T11:32:32Z</time></trkpt><trkpt lat="44.78357496642165" lon="9.066386111819217"><ele>338.0</ele><time>2026-05-03T11:32:33Z</time></trkpt><trkpt lat="44.78367390155607" lon="9.066273978363842"><ele>337.75</ele><time>2026-05-03T11:32:34Z</time></trkpt><trkpt lat="44.783768302387756" lon="9.06616623102728"><ele>337.5</ele><time>2026-05-03T11:32:35Z</time></trkpt><trkpt lat="44.783860347880896" lon="9.06605413602282"><ele>337.25</ele><time>2026-05-03T11:32:36Z</time></trkpt><trkpt lat="44.783945023436154" lon="9.06596479287706"><ele>337.0</ele><time>2026-05-03T11:32:37Z</time></trkpt><trkpt lat="44.78402465269669" lon="9.06587703956951"><ele>337.0</ele><time>2026-05-03T11:32:38Z</time></trkpt><trkpt lat="44.78410977135212" lon="9.06580952901444"><ele>337.0</ele><time>2026-05-03T11:32:39Z</time></trkpt><trkpt lat="44.78420750749741" lon="9.065764666836795"><ele>337.0</ele><time>2026-05-03T11:32:40Z</time></trkpt><trkpt lat="44.78430421813395" lon="9.065727620435855"><ele>337.0</ele><time>2026-05-03T11:32:41Z</time></trkpt><trkpt lat="44.78439563475211" lon="9.065666994602672"><ele>337.0</ele><time>2026-05-03T11:32:42Z</time></trkpt><trkpt lat="44.78447621760174" lon="9.06562105963338"><ele>336.8</ele><time>2026-05-03T11:32:43Z</time></trkpt><trkpt lat="44.78455150725813" lon="9.065580886071814"><ele>336.6</ele><time>2026-05-03T11:32:44Z</time></trkpt><trkpt lat="44.784634455637764" lon="9.065545155064397"><ele>336.40000000000003</ele><time>2026-05-03T11:32:45Z</time></trkpt><trkpt lat="44.78472233655668" lon="9.06550529895371"><ele>336.20000000000005</ele><time>2026-05-03T11:32:46Z</time></trkpt><trkpt lat="44.7848111146537" lon="9.06546326089798"><ele>336.0</ele><time>2026-05-03T11:32:47Z</time></trkpt><trkpt lat="44.78490918713274" lon="9.06541216749996"><ele>336.0</ele><time>2026-05-03T11:32:48Z</time></trkpt><trkpt lat="44.78500278769953" lon="9.065349613716633"><ele>336.0</ele><time>2026-05-03T11:32:49Z</time></trkpt><trkpt lat="44.78509886552031" lon="9.065284913126044"><ele>336.0</ele><time>2026-05-03T11:32:50Z</time></trkpt><trkpt lat="44.78518918969942" lon="9.065222279389413"><ele>336.0</ele><time>2026-05-03T11:32:51Z</time></trkpt><trkpt lat="44.78527671171586" lon="9.065151983807459"><ele>336.0</ele><time>2026-05-03T11:32:52Z</time></trkpt><trkpt lat="44.785358841816894" lon="9.065074949568539"><ele>336.6</ele><time>2026-05-03T11:32:53Z</time></trkpt><trkpt lat="44.78543514317536" lon="9.064994541128641"><ele>337.20000000000005</ele><time>2026-05-03T11:32:54Z</time></trkpt><trkpt lat="44.78551579842169" lon="9.064927836284756"><ele>337.79999999999995</ele><time>2026-05-03T11:32:54.999Z</time></trkpt><trkpt lat="44.785597251433494" lon="9.064851030500684"><ele>338.4</ele><time>2026-05-03T11:32:55.999Z</time></trkpt><trkpt lat="44.78566994953007" lon="9.064779140318285"><ele>339.0</ele><time>2026-05-03T11:32:56.999Z</time></trkpt><trkpt lat="44.785738828916195" lon="9.064703697765427"><ele>338.0</ele><time>2026-05-03T11:32:57.999Z</time></trkpt><trkpt lat="44.78580100204959" lon="9.06462514302566"><ele>337.0</ele><time>2026-05-03T11:32:58.999Z</time></trkpt><trkpt lat="44.785857172898936" lon="9.064545730988378"><ele>336.0</ele><time>2026-05-03T11:32:59.999Z</time></trkpt><trkpt lat="44.78591095348044" lon="9.064465735348692"><ele>335.0</ele><time>2026-05-03T11:33:00.999Z</time></trkpt><trkpt lat="44.7859673268822" lon="9.06439786594609"><ele>334.0</ele><time>2026-05-03T11:33:01.999Z</time></trkpt><trkpt lat="44.78603040243185" lon="9.06434809927513"><ele>333.0</ele><time>2026-05-03T11:33:02.999Z</time></trkpt><trkpt lat="44.78608749025595" lon="9.064305474286357"><ele>332.5</ele><time>2026-05-03T11:33:03.999Z</time></trkpt><trkpt lat="44.78621546256923" lon="9.064440386385483"><ele>332.0</ele><time>2026-05-03T11:33:05.999Z</time></trkpt><trkpt lat="44.786237738720615" lon="9.06453484129439"><ele>331.5</ele><time>2026-05-03T11:33:06.999Z</time></trkpt><trkpt lat="44.786238628765176" lon="9.064627752738414"><ele>331.0</ele><time>2026-05-03T11:33:07.999Z</time></trkpt><trkpt lat="44.78624846839418" lon="9.064717125954566"><ele>330.5</ele><time>2026-05-03T11:33:08.999Z</time></trkpt><trkpt lat="44.78626076972606" lon="9.06481512868452"><ele>330.0</ele><time>2026-05-03T11:33:09.999Z</time></trkpt><trkpt lat="44.786274435320436" lon="9.064928821990915"><ele>330.0</ele><time>2026-05-03T11:33:10.999Z</time></trkpt><trkpt lat="44.78628710151333" lon="9.06505957405668"><ele>330.0</ele><time>2026-05-03T11:33:11.999Z</time></trkpt><trkpt lat="44.7863017596939" lon="9.065199684054775"><ele>330.0</ele><time>2026-05-03T11:33:12.999Z</time></trkpt><trkpt lat="44.78631762732484" lon="9.065346060010047"><ele>330.0</ele><time>2026-05-03T11:33:13.999Z</time></trkpt><trkpt lat="44.78633851765448" lon="9.065495525789979"><ele>330.0</ele><time>2026-05-03T11:33:14.999Z</time></trkpt><trkpt lat="44.78637907721737" lon="9.065645444018237"><ele>330.25</ele><time>2026-05-03T11:33:15.999Z</time></trkpt><trkpt lat="44.786430502759174" lon="9.065791772498683"><ele>330.5</ele><time>2026-05-03T11:33:16.999Z</time></trkpt><trkpt lat="44.78648703540607" lon="9.065940782274241"><ele>330.75</ele><time>2026-05-03T11:33:17.999Z</time></trkpt><trkpt lat="44.78654725192003" lon="9.066092775604536"><ele>331.0</ele><time>2026-05-03T11:33:18.999Z</time></trkpt><trkpt lat="44.786609366980606" lon="9.066243903316675"><ele>331.0</ele><time>2026-05-03T11:33:19.999Z</time></trkpt><trkpt lat="44.78666209331114" lon="9.066405322760048"><ele>331.0</ele><time>2026-05-03T11:33:20.999Z</time></trkpt><trkpt lat="44.78671197350971" lon="9.06657306180217"><ele>331.0</ele><time>2026-05-03T11:33:21.999Z</time></trkpt><trkpt lat="44.78675821915167" lon="9.066743200722746"><ele>331.0</ele><time>2026-05-03T11:33:22.999Z</time></trkpt><trkpt lat="44.7868059825857" lon="9.066912596706128"><ele>331.5</ele><time>2026-05-03T11:33:23.999Z</time></trkpt><trkpt lat="44.786856394603824" lon="9.06708135460048"><ele>332.0</ele><time>2026-05-03T11:33:24.999Z</time></trkpt><trkpt lat="44.78690762582926" lon="9.06724851051126"><ele>332.5</ele><time>2026-05-03T11:33:25.999Z</time></trkpt><trkpt lat="44.786959648115285" lon="9.067418664326537"><ele>333.0</ele><time>2026-05-03T11:33:26.999Z</time></trkpt><trkpt lat="44.78701091735731" lon="9.067587442471734"><ele>333.25</ele><time>2026-05-03T11:33:27.999Z</time></trkpt><trkpt lat="44.78706089702235" lon="9.067758572275228"><ele>333.5</ele><time>2026-05-03T11:33:28.999Z</time></trkpt><trkpt lat="44.78711359782085" lon="9.067928672363546"><ele>333.75</ele><time>2026-05-03T11:33:29.999Z</time></trkpt><trkpt lat="44.787167989127504" lon="9.068096679926112"><ele>334.0</ele><time>2026-05-03T11:33:30.999Z</time></trkpt><trkpt lat="44.78722403913572" lon="9.068265752609822"><ele>333.75</ele><time>2026-05-03T11:33:31.999Z</time></trkpt><trkpt lat="44.78727935961868" lon="9.06843442365994"><ele>333.5</ele><time>2026-05-03T11:33:32.999Z</time></trkpt><trkpt lat="44.78733813839598" lon="9.068604087917237"><ele>333.25</ele><time>2026-05-03T11:33:33.999Z</time></trkpt><trkpt lat="44.78740316926588" lon="9.068769498285262"><ele>333.0</ele><time>2026-05-03T11:33:34.999Z</time></trkpt><trkpt lat="44.787472035011" lon="9.06893642919323"><ele>333.0</ele><time>2026-05-03T11:33:35.999Z</time></trkpt><trkpt lat="44.78754044128384" lon="9.069106594296354"><ele>333.0</ele><time>2026-05-03T11:33:36.999Z</time></trkpt><trkpt lat="44.78761033640881" lon="9.069279142784985"><ele>333.0</ele><time>2026-05-03T11:33:37.999Z</time></trkpt><trkpt lat="44.78767906152111" lon="9.06945238537767"><ele>333.0</ele><time>2026-05-03T11:33:38.999Z</time></trkpt><trkpt lat="44.787750222432486" lon="9.069626402792116"><ele>333.25</ele><time>2026-05-03T11:33:39.999Z</time></trkpt><trkpt lat="44.78782264982334" lon="9.069803173228252"><ele>333.5</ele><time>2026-05-03T11:33:40.999Z</time></trkpt><trkpt lat="44.78789177643163" lon="9.069980179000702"><ele>333.75</ele><time>2026-05-03T11:33:41.999Z</time></trkpt><trkpt lat="44.78796177569921" lon="9.070158251278405"><ele>334.0</ele><time>2026-05-03T11:33:42.999Z</time></trkpt><trkpt lat="44.78803051207718" lon="9.070339107565285"><ele>334.25</ele><time>2026-05-03T11:33:43.999Z</time></trkpt><trkpt lat="44.78809729508757" lon="9.070524156731766"><ele>334.5</ele><time>2026-05-03T11:33:44.998Z</time></trkpt><trkpt lat="44.78816914931289" lon="9.070709039916478"><ele>334.75</ele><time>2026-05-03T11:33:45.998Z</time></trkpt><trkpt lat="44.78823906877018" lon="9.07089652623077"><ele>335.0</ele><time>2026-05-03T11:33:46.998Z</time></trkpt><trkpt lat="44.788307855003794" lon="9.071085963124478"><ele>335.33333333333337</ele><time>2026-05-03T11:33:47.998Z</time></trkpt><trkpt lat="44.78837563159331" lon="9.071277637598708"><ele>335.6666666666667</ele><time>2026-05-03T11:33:48.998Z</time></trkpt><trkpt lat="44.78844700510137" lon="9.071465400048975"><ele>336.0</ele><time>2026-05-03T11:33:49.998Z</time></trkpt><trkpt lat="44.78851836936547" lon="9.071652884550263"><ele>336.5</ele><time>2026-05-03T11:33:50.998Z</time></trkpt><trkpt lat="44.78858931117858" lon="9.0718395630325"><ele>337.0</ele><time>2026-05-03T11:33:51.998Z</time></trkpt><trkpt lat="44.78866061622381" lon="9.072023450398413"><ele>337.5</ele><time>2026-05-03T11:33:52.998Z</time></trkpt><trkpt lat="44.78873432227041" lon="9.072201531958356"><ele>338.0</ele><time>2026-05-03T11:33:53.998Z</time></trkpt><trkpt lat="44.788818312858474" lon="9.072368713362078"><ele>338.75</ele><time>2026-05-03T11:33:54.998Z</time></trkpt><trkpt lat="44.788911879165504" lon="9.072522935139494"><ele>339.5</ele><time>2026-05-03T11:33:55.998Z</time></trkpt><trkpt lat="44.789015931389116" lon="9.072662241573648"><ele>340.25</ele><time>2026-05-03T11:33:56.998Z</time></trkpt><trkpt lat="44.78912879630092" lon="9.072788164742365"><ele>341.0</ele><time>2026-05-03T11:33:57.998Z</time></trkpt><trkpt lat="44.7892340850254" lon="9.072920513018603"><ele>341.0</ele><time>2026-05-03T11:33:58.998Z</time></trkpt><trkpt lat="44.78934155273148" lon="9.07305857350393"><ele>341.0</ele><time>2026-05-03T11:33:59.998Z</time></trkpt><trkpt lat="44.789432378057555" lon="9.073210151129725"><ele>341.0</ele><time>2026-05-03T11:34:00.998Z</time></trkpt><trkpt lat="44.789497686775924" lon="9.073393966759893"><ele>341.0</ele><time>2026-05-03T11:34:01.998Z</time></trkpt><trkpt lat="44.789542659832584" lon="9.073579268690287"><ele>341.25</ele><time>2026-05-03T11:34:02.998Z</time></trkpt><trkpt lat="44.78960570272296" lon="9.073757114855542"><ele>341.5</ele><time>2026-05-03T11:34:03.998Z</time></trkpt><trkpt lat="44.789687414037886" lon="9.073922995924066"><ele>341.75</ele><time>2026-05-03T11:34:04.998Z</time></trkpt><trkpt lat="44.789770834670676" lon="9.074084765188868"><ele>342.0</ele><time>2026-05-03T11:34:05.998Z</time></trkpt><trkpt lat="44.78984291009911" lon="9.07425263842518"><ele>343.75</ele><time>2026-05-03T11:34:06.998Z</time></trkpt><trkpt lat="44.78990534628163" lon="9.074425350054605"><ele>345.5</ele><time>2026-05-03T11:34:07.998Z</time></trkpt><trkpt lat="44.78995868493381" lon="9.074601501879272"><ele>347.25</ele><time>2026-05-03T11:34:08.998Z</time></trkpt><trkpt lat="44.790003360204544" lon="9.074779587809813"><ele>349.0</ele><time>2026-05-03T11:34:09.998Z</time></trkpt><trkpt lat="44.790050723641336" lon="9.074955894710762"><ele>348.75</ele><time>2026-05-03T11:34:10.998Z</time></trkpt><trkpt lat="44.790105010222234" lon="9.075128407298536"><ele>348.5</ele><time>2026-05-03T11:34:11.998Z</time></trkpt><trkpt lat="44.79016458931809" lon="9.075303042086695"><ele>348.25</ele><time>2026-05-03T11:34:12.998Z</time></trkpt><trkpt lat="44.790234430342714" lon="9.075472391784718"><ele>348.0</ele><time>2026-05-03T11:34:13.998Z</time></trkpt><trkpt lat="44.79031319913902" lon="9.075637861728763"><ele>350.0</ele><time>2026-05-03T11:34:14.998Z</time></trkpt><trkpt lat="44.79039700953824" lon="9.07580225336431"><ele>352.0</ele><time>2026-05-03T11:34:15.998Z</time></trkpt><trkpt lat="44.79047779891324" lon="9.075965726431129"><ele>354.0</ele><time>2026-05-03T11:34:16.998Z</time></trkpt><trkpt lat="44.79055913383608" lon="9.076133294622103"><ele>356.0</ele><time>2026-05-03T11:34:17.998Z</time></trkpt><trkpt lat="44.790639364921326" lon="9.076296689363305"><ele>356.0</ele><time>2026-05-03T11:34:18.998Z</time></trkpt><trkpt lat="44.79071791445022" lon="9.076472424517174"><ele>356.0</ele><time>2026-05-03T11:34:19.998Z</time></trkpt><trkpt lat="44.790798183292274" lon="9.076634659987327"><ele>356.0</ele><time>2026-05-03T11:34:20.998Z</time></trkpt><trkpt lat="44.790885675708175" lon="9.076792823388162"><ele>356.0</ele><time>2026-05-03T11:34:21.998Z</time></trkpt><trkpt lat="44.7909674766138" lon="9.076950366750177"><ele>356.0</ele><time>2026-05-03T11:34:22.998Z</time></trkpt><trkpt lat="44.79105132572924" lon="9.077103115012024"><ele>356.0</ele><time>2026-05-03T11:34:23.998Z</time></trkpt><trkpt lat="44.79113665166555" lon="9.077246200435372"><ele>356.0</ele><time>2026-05-03T11:34:24.998Z</time></trkpt><trkpt lat="44.791220552955785" lon="9.077391956855953"><ele>356.0</ele><time>2026-05-03T11:34:25.998Z</time></trkpt><trkpt lat="44.79130948912355" lon="9.07753457423808"><ele>356.25</ele><time>2026-05-03T11:34:26.998Z</time></trkpt><trkpt lat="44.79140604995314" lon="9.077675801979463"><ele>356.5</ele><time>2026-05-03T11:34:28Z</time></trkpt><trkpt lat="44.791504712443405" lon="9.07781712910034"><ele>356.75</ele><time>2026-05-03T11:34:29Z</time></trkpt><trkpt lat="44.791600686048085" lon="9.077965484039192"><ele>357.0</ele><time>2026-05-03T11:34:30Z</time></trkpt><trkpt lat="44.79169642857013" lon="9.078116205107609"><ele>357.0</ele><time>2026-05-03T11:34:31Z</time></trkpt><trkpt lat="44.791797324692126" lon="9.078258736384562"><ele>357.0</ele><time>2026-05-03T11:34:32Z</time></trkpt><trkpt lat="44.7918987942897" lon="9.078400205893718"><ele>357.0</ele><time>2026-05-03T11:34:33Z</time></trkpt><trkpt lat="44.791997840587875" lon="9.078544656712978"><ele>357.0</ele><time>2026-05-03T11:34:34Z</time></trkpt><trkpt lat="44.792093961768835" lon="9.078689130419534"><ele>356.25</ele><time>2026-05-03T11:34:35Z</time></trkpt><trkpt lat="44.79218933913181" lon="9.078834486279366"><ele>355.5</ele><time>2026-05-03T11:34:36Z</time></trkpt><trkpt lat="44.79228583520144" lon="9.078979831133038"><ele>354.75</ele><time>2026-05-03T11:34:37Z</time></trkpt><trkpt lat="44.79237453562119" lon="9.079134291632679"><ele>354.0</ele><time>2026-05-03T11:34:38Z</time></trkpt><trkpt lat="44.792452389500724" lon="9.07930124677115"><ele>355.5</ele><time>2026-05-03T11:34:39Z</time></trkpt><trkpt lat="44.792520512288604" lon="9.07948017383671"><ele>357.0</ele><time>2026-05-03T11:34:40Z</time></trkpt><trkpt lat="44.79258590083527" lon="9.079661445834962"><ele>358.5</ele><time>2026-05-03T11:34:41Z</time></trkpt><trkpt lat="44.792644612078576" lon="9.07985003006481"><ele>360.0</ele><time>2026-05-03T11:34:42Z</time></trkpt><trkpt lat="44.792700502607374" lon="9.080041005233298"><ele>360.0</ele><time>2026-05-03T11:34:43Z</time></trkpt><trkpt lat="44.7927576771425" lon="9.080232837406648"><ele>360.0</ele><time>2026-05-03T11:34:44Z</time></trkpt><trkpt lat="44.792807476088726" lon="9.080432295624675"><ele>360.0</ele><time>2026-05-03T11:34:45Z</time></trkpt><trkpt lat="44.79286052167072" lon="9.080629280144095"><ele>360.0</ele><time>2026-05-03T11:34:46Z</time></trkpt><trkpt lat="44.792915485426214" lon="9.080825545533045"><ele>361.25</ele><time>2026-05-03T11:34:47Z</time></trkpt><trkpt lat="44.792970226172294" lon="9.081021419951798"><ele>362.5</ele><time>2026-05-03T11:34:48Z</time></trkpt><trkpt lat="44.79302557407423" lon="9.08121766628985"><ele>363.75</ele><time>2026-05-03T11:34:49Z</time></trkpt><trkpt lat="44.79308767966503" lon="9.081409536062976"><ele>365.0</ele><time>2026-05-03T11:34:50Z</time></trkpt><trkpt lat="44.79316180054907" lon="9.081590014000712"><ele>365.6666666666667</ele><time>2026-05-03T11:34:51Z</time></trkpt><trkpt lat="44.7932474655973" lon="9.081761790610024"><ele>366.3333333333333</ele><time>2026-05-03T11:34:52Z</time></trkpt><trkpt lat="44.79333888023151" lon="9.081932315158419"><ele>367.0</ele><time>2026-05-03T11:34:53Z</time></trkpt><trkpt lat="44.793426068597" lon="9.082105316993538"><ele>367.0</ele><time>2026-05-03T11:34:54Z</time></trkpt><trkpt lat="44.793511883098304" lon="9.082280391042174"><ele>367.0</ele><time>2026-05-03T11:34:55Z</time></trkpt><trkpt lat="44.79359910996612" lon="9.082455893563925"><ele>367.0</ele><time>2026-05-03T11:34:56Z</time></trkpt><trkpt lat="44.79367766845744" lon="9.082641302696393"><ele>367.0</ele><time>2026-05-03T11:34:57Z</time></trkpt><trkpt lat="44.793750059037805" lon="9.082833083826712"><ele>367.0</ele><time>2026-05-03T11:34:58Z</time></trkpt><trkpt lat="44.793810624099706" lon="9.083031331702758"><ele>367.0</ele><time>2026-05-03T11:34:59Z</time></trkpt><trkpt lat="44.79386753167493" lon="9.0832335033028"><ele>367.0</ele><time>2026-05-03T11:35:00Z</time></trkpt><trkpt lat="44.793919762884215" lon="9.083438470691435"><ele>367.0</ele><time>2026-05-03T11:35:01Z</time></trkpt><trkpt lat="44.793972376253265" lon="9.083644603103009"><ele>367.0</ele><time>2026-05-03T11:35:02Z</time></trkpt><trkpt lat="44.794023335482" lon="9.08385049100567"><ele>367.0</ele><time>2026-05-03T11:35:02.999Z</time></trkpt><trkpt lat="44.79406820766852" lon="9.084055682059741"><ele>367.0</ele><time>2026-05-03T11:35:03.999Z</time></trkpt><trkpt lat="44.79410438792685" lon="9.084262201050233"><ele>367.0</ele><time>2026-05-03T11:35:04.999Z</time></trkpt><trkpt lat="44.794128645102" lon="9.084469384183336"><ele>368.5</ele><time>2026-05-03T11:35:05.999Z</time></trkpt><trkpt lat="44.79414991770475" lon="9.08467580381803"><ele>370.0</ele><time>2026-05-03T11:35:06.999Z</time></trkpt><trkpt lat="44.79417157288275" lon="9.084879851336398"><ele>371.5</ele><time>2026-05-03T11:35:07.999Z</time></trkpt><trkpt lat="44.7941929182689" lon="9.085083568768308"><ele>373.0</ele><time>2026-05-03T11:35:08.999Z</time></trkpt><trkpt lat="44.79421224307868" lon="9.085287379753515"><ele>373.75</ele><time>2026-05-03T11:35:09.999Z</time></trkpt><trkpt lat="44.79422629213445" lon="9.085491158486061"><ele>374.5</ele><time>2026-05-03T11:35:10.999Z</time></trkpt><trkpt lat="44.79423787084702" lon="9.08569793818177"><ele>375.25</ele><time>2026-05-03T11:35:11.999Z</time></trkpt><trkpt lat="44.79425329364166" lon="9.085907910204934"><ele>376.0</ele><time>2026-05-03T11:35:12.999Z</time></trkpt><trkpt lat="44.79427038204893" lon="9.086122687812535"><ele>376.0</ele><time>2026-05-03T11:35:13.999Z</time></trkpt><trkpt lat="44.79428871627066" lon="9.086337206444279"><ele>376.0</ele><time>2026-05-03T11:35:14.999Z</time></trkpt><trkpt lat="44.79430189415859" lon="9.0865366510753"><ele>376.0</ele><time>2026-05-03T11:35:15.999Z</time></trkpt><trkpt lat="44.794316984471145" lon="9.086734060425258"><ele>376.0</ele><time>2026-05-03T11:35:16.999Z</time></trkpt><trkpt lat="44.79433558165528" lon="9.08693276971428"><ele>374.75</ele><time>2026-05-03T11:35:17.999Z</time></trkpt><trkpt lat="44.79435654355323" lon="9.087133674053318"><ele>373.5</ele><time>2026-05-03T11:35:18.999Z</time></trkpt><trkpt lat="44.794385830402334" lon="9.08733208048642"><ele>372.25</ele><time>2026-05-03T11:35:19.999Z</time></trkpt><trkpt lat="44.79442308889957" lon="9.087531408747447"><ele>371.0</ele><time>2026-05-03T11:35:20.999Z</time></trkpt><trkpt lat="44.79445949725517" lon="9.087734703097242"><ele>371.0</ele><time>2026-05-03T11:35:21.999Z</time></trkpt><trkpt lat="44.794493250575165" lon="9.087938082252386"><ele>371.0</ele><time>2026-05-03T11:35:22.999Z</time></trkpt><trkpt lat="44.79452584603147" lon="9.088141318984533"><ele>371.0</ele><time>2026-05-03T11:35:23.999Z</time></trkpt><trkpt lat="44.79456094397588" lon="9.088345801898388"><ele>371.0</ele><time>2026-05-03T11:35:24.999Z</time></trkpt><trkpt lat="44.794596939699424" lon="9.088549497474778"><ele>371.5</ele><time>2026-05-03T11:35:25.999Z</time></trkpt><trkpt lat="44.7946291179784" lon="9.088752501962597"><ele>372.0</ele><time>2026-05-03T11:35:26.999Z</time></trkpt><trkpt lat="44.79466167205332" lon="9.088955101044741"><ele>372.5</ele><time>2026-05-03T11:35:27.999Z</time></trkpt><trkpt lat="44.79469565041783" lon="9.089157153030666"><ele>373.0</ele><time>2026-05-03T11:35:28.999Z</time></trkpt><trkpt lat="44.7947301456763" lon="9.089358278796228"><ele>373.5</ele><time>2026-05-03T11:35:29.999Z</time></trkpt><trkpt lat="44.79476463298843" lon="9.089558360672195"><ele>374.0</ele><time>2026-05-03T11:35:30.999Z</time></trkpt><trkpt lat="44.79480079883761" lon="9.089756819885103"><ele>374.5</ele><time>2026-05-03T11:35:31.999Z</time></trkpt><trkpt lat="44.79483462383804" lon="9.089955005292799"><ele>375.0</ele><time>2026-05-03T11:35:32.999Z</time></trkpt><trkpt lat="44.79486779726336" lon="9.090153082577123"><ele>376.5</ele><time>2026-05-03T11:35:33.999Z</time></trkpt><trkpt lat="44.79490209798465" lon="9.090348968515455"><ele>378.0</ele><time>2026-05-03T11:35:34.999Z</time></trkpt><trkpt lat="44.79493666752983" lon="9.090549347887292"><ele>379.5</ele><time>2026-05-03T11:35:35.999Z</time></trkpt><trkpt lat="44.79497228730272" lon="9.0907488352515"><ele>381.0</ele><time>2026-05-03T11:35:36.999Z</time></trkpt><trkpt lat="44.79501166570936" lon="9.090950548950598"><ele>381.3333333333333</ele><time>2026-05-03T11:35:37.999Z</time></trkpt><trkpt lat="44.795050895822875" lon="9.0911531609637"><ele>381.66666666666663</ele><time>2026-05-03T11:35:38.999Z</time></trkpt><trkpt lat="44.79509019118475" lon="9.091357625714737"><ele>382.0</ele><time>2026-05-03T11:35:39.999Z</time></trkpt><trkpt lat="44.7951281975288" lon="9.09156327380097"><ele>381.66666666666663</ele><time>2026-05-03T11:35:40.999Z</time></trkpt><trkpt lat="44.79516737232888" lon="9.091771989405464"><ele>381.3333333333333</ele><time>2026-05-03T11:35:41.999Z</time></trkpt><trkpt lat="44.79520819629654" lon="9.091982476244533"><ele>381.0</ele><time>2026-05-03T11:35:42.999Z</time></trkpt><trkpt lat="44.795248465528715" lon="9.092195621388226"><ele>381.0</ele><time>2026-05-03T11:35:43.999Z</time></trkpt><trkpt lat="44.795291543469894" lon="9.092412146006142"><ele>381.0</ele><time>2026-05-03T11:35:44.999Z</time></trkpt><trkpt lat="44.79534054145586" lon="9.092632616971372"><ele>381.0</ele><time>2026-05-03T11:35:45.999Z</time></trkpt><trkpt lat="44.795388671875415" lon="9.092863360846513"><ele>381.6666666666667</ele><time>2026-05-03T11:35:46.999Z</time></trkpt><trkpt lat="44.79543202903836" lon="9.093094887610777"><ele>382.33333333333337</ele><time>2026-05-03T11:35:47.999Z</time></trkpt><trkpt lat="44.79547792012018" lon="9.093325983471342"><ele>383.0</ele><time>2026-05-03T11:35:48.999Z</time></trkpt><trkpt lat="44.795526984787145" lon="9.09355620387008"><ele>384.33333333333337</ele><time>2026-05-03T11:35:49.999Z</time></trkpt><trkpt lat="44.795571830542244" lon="9.09378601039009"><ele>385.6666666666667</ele><time>2026-05-03T11:35:50.999Z</time></trkpt><trkpt lat="44.79561048911392" lon="9.09399559349487"><ele>387.0</ele><time>2026-05-03T11:35:51.999Z</time></trkpt><trkpt lat="44.79564375636237" lon="9.0941797089976"><ele>387.20000000000005</ele><time>2026-05-03T11:35:52.999Z</time></trkpt><trkpt lat="44.795670358800756" lon="9.094335624987874"><ele>387.4</ele><time>2026-05-03T11:35:53.999Z</time></trkpt><trkpt lat="44.795690108184935" lon="9.09447011719964"><ele>387.6</ele><time>2026-05-03T11:35:54.998Z</time></trkpt><trkpt lat="44.79570584775514" lon="9.094587324840251"><ele>387.79999999999995</ele><time>2026-05-03T11:35:55.998Z</time></trkpt><trkpt lat="44.79571647390052" lon="9.094685421847304"><ele>388.0</ele><time>2026-05-03T11:35:56.998Z</time></trkpt><trkpt lat="44.79572970798202" lon="9.094829260064126"><ele>388.0</ele><time>2026-05-03T11:35:58.998Z</time></trkpt><trkpt lat="44.79588371048698" lon="9.094823123976614"><ele>388.0</ele><time>2026-05-03T11:36:00.998Z</time></trkpt><trkpt lat="44.79595588840167" lon="9.094776133472775"><ele>388.0</ele><time>2026-05-03T11:36:01.998Z</time></trkpt><trkpt lat="44.79603337409941" lon="9.094735367858428"><ele>388.0</ele><time>2026-05-03T11:36:02.998Z</time></trkpt><trkpt lat="44.79610657504665" lon="9.094711263556139"><ele>388.0</ele><time>2026-05-03T11:36:03.998Z</time></trkpt><trkpt lat="44.79617755277443" lon="9.094687137431038"><ele>387.1666666666667</ele><time>2026-05-03T11:36:04.998Z</time></trkpt><trkpt lat="44.79625051821342" lon="9.094661610912855"><ele>386.33333333333337</ele><time>2026-05-03T11:36:05.998Z</time></trkpt><trkpt lat="44.796322902366136" lon="9.094631303768274"><ele>385.5</ele><time>2026-05-03T11:36:06.998Z</time></trkpt><trkpt lat="44.796395234748594" lon="9.094588555353802"><ele>384.6666666666667</ele><time>2026-05-03T11:36:07.998Z</time></trkpt><trkpt lat="44.796469362032035" lon="9.09453168307373"><ele>383.83333333333337</ele><time>2026-05-03T11:36:08.998Z</time></trkpt><trkpt lat="44.796550968657606" lon="9.094478024592426"><ele>383.0</ele><time>2026-05-03T11:36:09.998Z</time></trkpt><trkpt lat="44.79662274681963" lon="9.094390932932953"><ele>383.0</ele><time>2026-05-03T11:36:10.998Z</time></trkpt><trkpt lat="44.79668802272544" lon="9.0943065607865"><ele>383.0</ele><time>2026-05-03T11:36:11.998Z</time></trkpt><trkpt lat="44.79674979464022" lon="9.094219532572394"><ele>383.0</ele><time>2026-05-03T11:36:12.998Z</time></trkpt><trkpt lat="44.796811505968854" lon="9.094149086426077"><ele>383.0</ele><time>2026-05-03T11:36:13.998Z</time></trkpt><trkpt lat="44.796879878336526" lon="9.094093611193774"><ele>383.0</ele><time>2026-05-03T11:36:14.998Z</time></trkpt><trkpt lat="44.796950893213975" lon="9.094032917119947"><ele>383.0</ele><time>2026-05-03T11:36:15.998Z</time></trkpt><trkpt lat="44.79702032538699" lon="9.09396800501805"><ele>382.0</ele><time>2026-05-03T11:36:16.998Z</time></trkpt><trkpt lat="44.79708619188735" lon="9.093891698522688"><ele>381.0</ele><time>2026-05-03T11:36:17.998Z</time></trkpt><trkpt lat="44.797139727332315" lon="9.093820576463449"><ele>380.0</ele><time>2026-05-03T11:36:18.998Z</time></trkpt><trkpt lat="44.79718954561081" lon="9.093763135487912"><ele>379.0</ele><time>2026-05-03T11:36:19.998Z</time></trkpt><trkpt lat="44.797286296626375" lon="9.093677817615724"><ele>378.0</ele><time>2026-05-03T11:36:21.998Z</time></trkpt><trkpt lat="44.797421532856234" lon="9.093647214894482"><ele>378.0</ele><time>2026-05-03T11:36:23.998Z</time></trkpt><trkpt lat="44.797489292937975" lon="9.09363669306174"><ele>378.0</ele><time>2026-05-03T11:36:24.998Z</time></trkpt><trkpt lat="44.797560589795395" lon="9.093624457182298"><ele>378.0</ele><time>2026-05-03T11:36:25.998Z</time></trkpt><trkpt lat="44.797639202262886" lon="9.09357501933057"><ele>378.0</ele><time>2026-05-03T11:36:26.998Z</time></trkpt><trkpt lat="44.79770134401867" lon="9.093493999067274"><ele>378.0</ele><time>2026-05-03T11:36:27.998Z</time></trkpt><trkpt lat="44.79775017416678" lon="9.093426982715746"><ele>378.0</ele><time>2026-05-03T11:36:28.998Z</time></trkpt><trkpt lat="44.79780020844316" lon="9.093358313465494"><ele>378.0</ele><time>2026-05-03T11:36:29.998Z</time></trkpt><trkpt lat="44.797889477826764" lon="9.093246369657097"><ele>376.0</ele><time>2026-05-03T11:36:31.998Z</time></trkpt><trkpt lat="44.797975254632775" lon="9.093162323596573"><ele>374.0</ele><time>2026-05-03T11:36:34Z</time></trkpt><trkpt lat="44.798093609067365" lon="9.093151087098894"><ele>372.0</ele><time>2026-05-03T11:36:36Z</time></trkpt><trkpt lat="44.798196062755636" lon="9.09313351904823"><ele>370.0</ele><time>2026-05-03T11:36:38Z</time></trkpt><trkpt lat="44.798267717066466" lon="9.093124039822563"><ele>368.0</ele><time>2026-05-03T11:36:40Z</time></trkpt><trkpt lat="44.798334679260364" lon="9.093117173362232"><ele>368.0</ele><time>2026-05-03T11:36:42Z</time></trkpt><trkpt lat="44.798405311290644" lon="9.093110370243105"><ele>368.0</ele><time>2026-05-03T11:36:44Z</time></trkpt><trkpt lat="44.79849946272286" lon="9.09310212069499"><ele>368.0</ele><time>2026-05-03T11:36:46Z</time></trkpt><trkpt lat="44.7985821786195" lon="9.093094873159563"><ele>368.0</ele><time>2026-05-03T11:36:49Z</time></trkpt><trkpt lat="44.79866465082368" lon="9.093088811224126"><ele>368.0</ele><time>2026-05-03T11:36:51Z</time></trkpt><trkpt lat="44.798912878633864" lon="9.093078794077469"><ele>368.0</ele><time>2026-05-03T11:36:59Z</time></trkpt><trkpt lat="44.79900020862817" lon="9.093135563056647"><ele>368.0</ele><time>2026-05-03T11:37:01Z</time></trkpt><trkpt lat="44.79918584195344" lon="9.093112832182056"><ele>368.0</ele><time>2026-05-03T11:37:06.999Z</time></trkpt><trkpt lat="44.799277706589194" lon="9.09308380173476"><ele>368.0</ele><time>2026-05-03T11:37:08.999Z</time></trkpt><trkpt lat="44.79936289100128" lon="9.093050725714455"><ele>369.2</ele><time>2026-05-03T11:37:10.999Z</time></trkpt><trkpt lat="44.79944019467155" lon="9.093023142877483"><ele>370.4</ele><time>2026-05-03T11:37:13.999Z</time></trkpt><trkpt lat="44.799491317908554" lon="9.093140972381946"><ele>371.59999999999997</ele><time>2026-05-03T11:37:14.999Z</time></trkpt><trkpt lat="44.79956384258071" lon="9.093084267135776"><ele>372.79999999999995</ele><time>2026-05-03T11:37:16.999Z</time></trkpt><trkpt lat="44.79965312085297" lon="9.093052344899876"><ele>374.0</ele><time>2026-05-03T11:37:18.999Z</time></trkpt><trkpt lat="44.79974780527455" lon="9.093015290698112"><ele>374.0</ele><time>2026-05-03T11:37:20.999Z</time></trkpt><trkpt lat="44.79983942214293" lon="9.092970109785474"><ele>374.0</ele><time>2026-05-03T11:37:22.999Z</time></trkpt><trkpt lat="44.79990921915893" lon="9.092944097620617"><ele>374.0</ele><time>2026-05-03T11:37:24.999Z</time></trkpt><trkpt lat="44.800005919988834" lon="9.092913405165259"><ele>374.0</ele><time>2026-05-03T11:37:27.999Z</time></trkpt><trkpt lat="44.80013940020107" lon="9.092901487971107"><ele>374.0</ele><time>2026-05-03T11:37:29.999Z</time></trkpt><trkpt lat="44.80022821697131" lon="9.092920286397085"><ele>375.0</ele><time>2026-05-03T11:37:30.999Z</time></trkpt><trkpt lat="44.80032990817763" lon="9.092953556083609"><ele>376.0</ele><time>2026-05-03T11:37:31.999Z</time></trkpt><trkpt lat="44.80043103445548" lon="9.093006573714131"><ele>377.0</ele><time>2026-05-03T11:37:32.999Z</time></trkpt><trkpt lat="44.80054728169346" lon="9.093062947763391"><ele>378.0</ele><time>2026-05-03T11:37:33.999Z</time></trkpt><trkpt lat="44.80066667878072" lon="9.093113287319506"><ele>378.0</ele><time>2026-05-03T11:37:34.999Z</time></trkpt><trkpt lat="44.800800223217855" lon="9.093167288339703"><ele>378.0</ele><time>2026-05-03T11:37:35.999Z</time></trkpt><trkpt lat="44.80094980262888" lon="9.093221915096914"><ele>378.0</ele><time>2026-05-03T11:37:36.999Z</time></trkpt><trkpt lat="44.80110914961744" lon="9.093272512835368"><ele>379.75</ele><time>2026-05-03T11:37:37.999Z</time></trkpt><trkpt lat="44.801248046028924" lon="9.093301601863796"><ele>381.5</ele><time>2026-05-03T11:37:38.999Z</time></trkpt><trkpt lat="44.80137770899056" lon="9.09332785273477"><ele>383.25</ele><time>2026-05-03T11:37:39.999Z</time></trkpt><trkpt lat="44.801506643890214" lon="9.093357020405033"><ele>385.0</ele><time>2026-05-03T11:37:40.999Z</time></trkpt><trkpt lat="44.80161146263207" lon="9.093420498487092"><ele>385.0</ele><time>2026-05-03T11:37:41.999Z</time></trkpt><trkpt lat="44.80171353881966" lon="9.093514506840082"><ele>385.0</ele><time>2026-05-03T11:37:42.999Z</time></trkpt><trkpt lat="44.801802448617785" lon="9.093638662177803"><ele>385.0</ele><time>2026-05-03T11:37:43.999Z</time></trkpt><trkpt lat="44.80190256712686" lon="9.093763595108665"><ele>385.0</ele><time>2026-05-03T11:37:44.999Z</time></trkpt><trkpt lat="44.80200567946462" lon="9.093891269437695"><ele>386.0</ele><time>2026-05-03T11:37:45.999Z</time></trkpt><trkpt lat="44.80211619887456" lon="9.093997330970568"><ele>387.0</ele><time>2026-05-03T11:37:46.999Z</time></trkpt><trkpt lat="44.802228880515464" lon="9.09409042729636"><ele>388.0</ele><time>2026-05-03T11:37:47.999Z</time></trkpt><trkpt lat="44.80233365988414" lon="9.094193495414423"><ele>389.0</ele><time>2026-05-03T11:37:48.999Z</time></trkpt><trkpt lat="44.80241609114916" lon="9.094317717374643"><ele>389.75</ele><time>2026-05-03T11:37:49.999Z</time></trkpt><trkpt lat="44.80248662187387" lon="9.094456129569139"><ele>390.5</ele><time>2026-05-03T11:37:50.999Z</time></trkpt><trkpt lat="44.80254565311102" lon="9.094607612731643"><ele>391.25</ele><time>2026-05-03T11:37:51.999Z</time></trkpt><trkpt lat="44.80260398370519" lon="9.09476481508373"><ele>392.0</ele><time>2026-05-03T11:37:52.999Z</time></trkpt><trkpt lat="44.80266615568823" lon="9.094926531933583"><ele>393.6</ele><time>2026-05-03T11:37:53.999Z</time></trkpt><trkpt lat="44.80273546118221" lon="9.095084680224518"><ele>395.20000000000005</ele><time>2026-05-03T11:37:54.999Z</time></trkpt><trkpt lat="44.80279582011616" lon="9.09523104602694"><ele>396.8</ele><time>2026-05-03T11:37:55.998Z</time></trkpt><trkpt lat="44.80284898574706" lon="9.095358644272858"><ele>398.4</ele><time>2026-05-03T11:37:56.998Z</time></trkpt><trkpt lat="44.80291626314635" lon="9.09543026126039"><ele>400.0</ele><time>2026-05-03T11:37:57.998Z</time></trkpt><trkpt lat="44.803007282300086" lon="9.095476960965817"><ele>400.0</ele><time>2026-05-03T11:37:58.998Z</time></trkpt><trkpt lat="44.80311350330308" lon="9.095476607276588"><ele>400.0</ele><time>2026-05-03T11:37:59.998Z</time></trkpt><trkpt lat="44.80318465027308" lon="9.095428273870128"><ele>400.0</ele><time>2026-05-03T11:38:00.998Z</time></trkpt><trkpt lat="44.80323986335379" lon="9.095338607650248"><ele>400.0</ele><time>2026-05-03T11:38:01.998Z</time></trkpt><trkpt lat="44.80327612377535" lon="9.09521152571921"><ele>400.0</ele><time>2026-05-03T11:38:02.998Z</time></trkpt><trkpt lat="44.80331301525337" lon="9.095063480525415"><ele>400.0</ele><time>2026-05-03T11:38:03.998Z</time></trkpt><trkpt lat="44.80337938046379" lon="9.094948002112778"><ele>400.0</ele><time>2026-05-03T11:38:04.998Z</time></trkpt><trkpt lat="44.803452832675504" lon="9.094843415816532"><ele>400.0</ele><time>2026-05-03T11:38:05.998Z</time></trkpt><trkpt lat="44.803518432944415" lon="9.094707746352366"><ele>400.0</ele><time>2026-05-03T11:38:06.998Z</time></trkpt><trkpt lat="44.80356811547605" lon="9.094560194696573"><ele>400.0</ele><time>2026-05-03T11:38:07.998Z</time></trkpt><trkpt lat="44.80360364291469" lon="9.094401066987443"><ele>402.5</ele><time>2026-05-03T11:38:08.998Z</time></trkpt><trkpt lat="44.80361232289701" lon="9.094224290267064"><ele>405.0</ele><time>2026-05-03T11:38:09.998Z</time></trkpt><trkpt lat="44.80358230519366" lon="9.09401172066211"><ele>407.5</ele><time>2026-05-03T11:38:10.998Z</time></trkpt><trkpt lat="44.80351443698605" lon="9.09383678917692"><ele>410.0</ele><time>2026-05-03T11:38:12.998Z</time></trkpt><trkpt lat="44.803510371627716" lon="9.093745980042243"><ele>410.0</ele><time>2026-05-03T11:38:13.998Z</time></trkpt><trkpt lat="44.80353099870349" lon="9.0935543911902"><ele>410.0</ele><time>2026-05-03T11:38:14.998Z</time></trkpt><trkpt lat="44.80365973429953" lon="9.093528801362737"><ele>410.0</ele><time>2026-05-03T11:38:15.998Z</time></trkpt><trkpt lat="44.80373571793307" lon="9.093522414041598"><ele>410.0</ele><time>2026-05-03T11:38:16.998Z</time></trkpt><trkpt lat="44.80383962129686" lon="9.093544794076177"><ele>410.0</ele><time>2026-05-03T11:38:17.998Z</time></trkpt><trkpt lat="44.803927543030255" lon="9.093613794820323"><ele>410.0</ele><time>2026-05-03T11:38:18.998Z</time></trkpt><trkpt lat="44.803977539780945" lon="9.093742113465094"><ele>410.0</ele><time>2026-05-03T11:38:19.998Z</time></trkpt><trkpt lat="44.80399840068877" lon="9.093881793677605"><ele>410.0</ele><time>2026-05-03T11:38:20.998Z</time></trkpt><trkpt lat="44.804013529580565" lon="9.094057565886166"><ele>410.0</ele><time>2026-05-03T11:38:21.998Z</time></trkpt><trkpt lat="44.80398180798178" lon="9.094221536217438"><ele>415.0</ele><time>2026-05-03T11:38:22.998Z</time></trkpt><trkpt lat="44.803907217975095" lon="9.094387036023228"><ele>420.0</ele><time>2026-05-03T11:38:23.998Z</time></trkpt><trkpt lat="44.803858948837785" lon="9.094547839455066"><ele>425.0</ele><time>2026-05-03T11:38:24.998Z</time></trkpt><trkpt lat="44.80386312593962" lon="9.094722609941412"><ele>430.0</ele><time>2026-05-03T11:38:25.998Z</time></trkpt><trkpt lat="44.80387415220415" lon="9.09489263410282"><ele>431.75</ele><time>2026-05-03T11:38:26.998Z</time></trkpt><trkpt lat="44.80386714433047" lon="9.09505293607986"><ele>433.5</ele><time>2026-05-03T11:38:27.998Z</time></trkpt><trkpt lat="44.80385670024624" lon="9.095220559701419"><ele>435.25</ele><time>2026-05-03T11:38:28.998Z</time></trkpt><trkpt lat="44.80386247805912" lon="9.095386577913096"><ele>437.0</ele><time>2026-05-03T11:38:29.998Z</time></trkpt><trkpt lat="44.80388783665783" lon="9.095561648328303"><ele>437.0</ele><time>2026-05-03T11:38:30.998Z</time></trkpt><trkpt lat="44.80393479913307" lon="9.095739852568695"><ele>437.0</ele><time>2026-05-03T11:38:31.998Z</time></trkpt><trkpt lat="44.80397129119048" lon="9.095911665280118"><ele>437.0</ele><time>2026-05-03T11:38:32.998Z</time></trkpt><trkpt lat="44.80400289150082" lon="9.096075514715022"><ele>437.0</ele><time>2026-05-03T11:38:33.998Z</time></trkpt><trkpt lat="44.80405936264896" lon="9.096227315406729"><ele>436.5</ele><time>2026-05-03T11:38:34.998Z</time></trkpt><trkpt lat="44.804139591626736" lon="9.096358428852357"><ele>436.0</ele><time>2026-05-03T11:38:35.998Z</time></trkpt><trkpt lat="44.80423817432498" lon="9.096486499774882"><ele>435.5</ele><time>2026-05-03T11:38:36.998Z</time></trkpt><trkpt lat="44.804342415859956" lon="9.09658875253359"><ele>435.0</ele><time>2026-05-03T11:38:37.998Z</time></trkpt><trkpt lat="44.80445831503569" lon="9.096656364522138"><ele>438.0</ele><time>2026-05-03T11:38:39Z</time></trkpt><trkpt lat="44.80458098293112" lon="9.09667262147315"><ele>441.0</ele><time>2026-05-03T11:38:40Z</time></trkpt><trkpt lat="44.80470677309234" lon="9.096701185100995"><ele>444.0</ele><time>2026-05-03T11:38:41Z</time></trkpt><trkpt lat="44.804833921719364" lon="9.0967104062413"><ele>447.0</ele><time>2026-05-03T11:38:42Z</time></trkpt><trkpt lat="44.80495907913734" lon="9.096720218802174"><ele>447.0</ele><time>2026-05-03T11:38:43Z</time></trkpt><trkpt lat="44.80507730143455" lon="9.096800351736631"><ele>447.0</ele><time>2026-05-03T11:38:44Z</time></trkpt><trkpt lat="44.80519542652075" lon="9.09687961195207"><ele>447.0</ele><time>2026-05-03T11:38:45Z</time></trkpt><trkpt lat="44.8052898740565" lon="9.096953538421667"><ele>447.0</ele><time>2026-05-03T11:38:46Z</time></trkpt><trkpt lat="44.80541047017352" lon="9.097031765051545"><ele>455.0</ele><time>2026-05-03T11:38:47Z</time></trkpt><trkpt lat="44.805564206582815" lon="9.096935914689803"><ele>463.0</ele><time>2026-05-03T11:38:49Z</time></trkpt><trkpt lat="44.80556241871445" lon="9.096775906181485"><ele>471.0</ele><time>2026-05-03T11:38:51Z</time></trkpt><trkpt lat="44.805489774341204" lon="9.096658156525397"><ele>479.0</ele><time>2026-05-03T11:38:53Z</time></trkpt><trkpt lat="44.80543066297743" lon="9.096584115750867"><ele>479.75</ele><time>2026-05-03T11:38:54Z</time></trkpt><trkpt lat="44.80534510095741" lon="9.096529484915953"><ele>480.5</ele><time>2026-05-03T11:38:55Z</time></trkpt><trkpt lat="44.80522695601309" lon="9.096464800658955"><ele>481.25</ele><time>2026-05-03T11:38:56Z</time></trkpt><trkpt lat="44.805086159176845" lon="9.096368150660702"><ele>482.0</ele><time>2026-05-03T11:38:57Z</time></trkpt><trkpt lat="44.804975722437774" lon="9.096303840414718"><ele>478.75</ele><time>2026-05-03T11:38:58Z</time></trkpt><trkpt lat="44.80486199847265" lon="9.096209587610405"><ele>475.5</ele><time>2026-05-03T11:38:59Z</time></trkpt><trkpt lat="44.80478718706552" lon="9.096067946026428"><ele>472.25</ele><time>2026-05-03T11:39:00Z</time></trkpt><trkpt lat="44.80472709701367" lon="9.095919158121397"><ele>469.0</ele><time>2026-05-03T11:39:01Z</time></trkpt><trkpt lat="44.804678781848516" lon="9.095739747913537"><ele>469.0</ele><time>2026-05-03T11:39:02Z</time></trkpt><trkpt lat="44.80466780508702" lon="9.095537810134243"><ele>469.0</ele><time>2026-05-03T11:39:03Z</time></trkpt><trkpt lat="44.80467185442165" lon="9.0953140617634"><ele>469.0</ele><time>2026-05-03T11:39:04Z</time></trkpt><trkpt lat="44.804683280942" lon="9.09510679882212"><ele>466.25</ele><time>2026-05-03T11:39:05Z</time></trkpt><trkpt lat="44.804696748432306" lon="9.09491926181568"><ele>463.5</ele><time>2026-05-03T11:39:06Z</time></trkpt><trkpt lat="44.80471334662583" lon="9.09473732753988"><ele>460.75</ele><time>2026-05-03T11:39:06.999Z</time></trkpt><trkpt lat="44.80473261711321" lon="9.094555744149897"><ele>458.0</ele><time>2026-05-03T11:39:07.999Z</time></trkpt><trkpt lat="44.80475824388017" lon="9.094402073039006"><ele>458.0</ele><time>2026-05-03T11:39:08.999Z</time></trkpt><trkpt lat="44.80480085607506" lon="9.094275399382452"><ele>457.99999999999994</ele><time>2026-05-03T11:39:09.999Z</time></trkpt><trkpt lat="44.80486810746263" lon="9.094208855909"><ele>457.99999999999994</ele><time>2026-05-03T11:39:10.999Z</time></trkpt><trkpt lat="44.804955578416894" lon="9.094177584449774"><ele>458.0</ele><time>2026-05-03T11:39:11.999Z</time></trkpt><trkpt lat="44.8050565579538" lon="9.094131328775523"><ele>458.0</ele><time>2026-05-03T11:39:12.999Z</time></trkpt><trkpt lat="44.80516056474377" lon="9.094100059914808"><ele>451.75</ele><time>2026-05-03T11:39:13.999Z</time></trkpt><trkpt lat="44.805278665063575" lon="9.094084224259817"><ele>445.5</ele><time>2026-05-03T11:39:14.999Z</time></trkpt><trkpt lat="44.8054173895525" lon="9.094087351391684"><ele>439.25</ele><time>2026-05-03T11:39:15.999Z</time></trkpt><trkpt lat="44.80554414628524" lon="9.09408549616792"><ele>433.0</ele><time>2026-05-03T11:39:16.999Z</time></trkpt><trkpt lat="44.80567218128676" lon="9.094053258315789"><ele>441.0</ele><time>2026-05-03T11:39:17.999Z</time></trkpt><trkpt lat="44.80579539788538" lon="9.094093448131193"><ele>449.0</ele><time>2026-05-03T11:39:18.999Z</time></trkpt><trkpt lat="44.80590954550626" lon="9.094156827845193"><ele>457.0</ele><time>2026-05-03T11:39:19.999Z</time></trkpt><trkpt lat="44.806015665751694" lon="9.09425504206547"><ele>465.0</ele><time>2026-05-03T11:39:20.999Z</time></trkpt><trkpt lat="44.80609138818505" lon="9.094388757575338"><ele>466.5</ele><time>2026-05-03T11:39:21.999Z</time></trkpt><trkpt lat="44.80615214470296" lon="9.094530808393616"><ele>468.0</ele><time>2026-05-03T11:39:22.999Z</time></trkpt><trkpt lat="44.806218817566545" lon="9.09467549919624"><ele>469.5</ele><time>2026-05-03T11:39:23.999Z</time></trkpt><trkpt lat="44.806298873517484" lon="9.094796972325758"><ele>471.0</ele><time>2026-05-03T11:39:24.999Z</time></trkpt><trkpt lat="44.806405497842185" lon="9.094878848079984"><ele>476.25</ele><time>2026-05-03T11:39:25.999Z</time></trkpt><trkpt lat="44.806524843732035" lon="9.094930858772045"><ele>481.5</ele><time>2026-05-03T11:39:26.999Z</time></trkpt><trkpt lat="44.80663986793679" lon="9.094969573658727"><ele>486.75</ele><time>2026-05-03T11:39:27.999Z</time></trkpt><trkpt lat="44.80675762262" lon="9.094992896850894"><ele>492.0</ele><time>2026-05-03T11:39:28.999Z</time></trkpt><trkpt lat="44.806867483291015" lon="9.094973401289481"><ele>492.5</ele><time>2026-05-03T11:39:29.999Z</time></trkpt><trkpt lat="44.80699055262624" lon="9.094956101883119"><ele>493.0</ele><time>2026-05-03T11:39:30.999Z</time></trkpt><trkpt lat="44.80709964169364" lon="9.094916981999848"><ele>493.5</ele><time>2026-05-03T11:39:31.999Z</time></trkpt><trkpt lat="44.807206627557846" lon="9.094891096219706"><ele>494.0</ele><time>2026-05-03T11:39:32.999Z</time></trkpt><trkpt lat="44.80731367059311" lon="9.094889148274742"><ele>496.0</ele><time>2026-05-03T11:39:33.999Z</time></trkpt><trkpt lat="44.80741493962783" lon="9.09492249055402"><ele>498.0</ele><time>2026-05-03T11:39:34.999Z</time></trkpt><trkpt lat="44.807507439112086" lon="9.09498460870899"><ele>500.0</ele><time>2026-05-03T11:39:35.999Z</time></trkpt><trkpt lat="44.8075882518261" lon="9.095066947166435"><ele>502.0</ele><time>2026-05-03T11:39:36.999Z</time></trkpt><trkpt lat="44.807665721791004" lon="9.095155001523603"><ele>504.0</ele><time>2026-05-03T11:39:37.999Z</time></trkpt><trkpt lat="44.80774193362234" lon="9.095234394452616"><ele>505.6666666666667</ele><time>2026-05-03T11:39:38.999Z</time></trkpt><trkpt lat="44.807820865069516" lon="9.095307627283534"><ele>507.33333333333337</ele><time>2026-05-03T11:39:39.999Z</time></trkpt><trkpt lat="44.807914693149286" lon="9.095348162560208"><ele>509.0</ele><time>2026-05-03T11:39:40.999Z</time></trkpt><trkpt lat="44.808003098482715" lon="9.095347700056776"><ele>510.6666666666667</ele><time>2026-05-03T11:39:41.999Z</time></trkpt><trkpt lat="44.8080713720757" lon="9.095294170812574"><ele>512.3333333333334</ele><time>2026-05-03T11:39:42.999Z</time></trkpt><trkpt lat="44.80811547434569" lon="9.095214255597469"><ele>514.0</ele><time>2026-05-03T11:39:43.999Z</time></trkpt><trkpt lat="44.808155618141434" lon="9.095101119946419"><ele>514.0</ele><time>2026-05-03T11:39:45.999Z</time></trkpt><trkpt lat="44.808166216336915" lon="9.094984698669899"><ele>514.0</ele><time>2026-05-03T11:39:47.999Z</time></trkpt><trkpt lat="44.8081832185946" lon="9.094846851319078"><ele>514.0</ele><time>2026-05-03T11:39:49.999Z</time></trkpt><trkpt lat="44.8082012574662" lon="9.094741634160197"><ele>514.0</ele><time>2026-05-03T11:39:50.999Z</time></trkpt><trkpt lat="44.80822996926446" lon="9.094631610951675"><ele>514.0</ele><time>2026-05-03T11:39:51.999Z</time></trkpt><trkpt lat="44.80826865883266" lon="9.09452592705284"><ele>514.0</ele><time>2026-05-03T11:39:52.999Z</time></trkpt><trkpt lat="44.808326669619895" lon="9.094429144213295"><ele>514.2</ele><time>2026-05-03T11:39:53.999Z</time></trkpt><trkpt lat="44.80839609859937" lon="9.094321025488773"><ele>514.4</ele><time>2026-05-03T11:39:54.999Z</time></trkpt><trkpt lat="44.808469104519034" lon="9.094213020409544"><ele>514.6</ele><time>2026-05-03T11:39:55.998Z</time></trkpt><trkpt lat="44.80853816233313" lon="9.094108850049546"><ele>514.8</ele><time>2026-05-03T11:39:56.998Z</time></trkpt><trkpt lat="44.808624252672786" lon="9.094042179542406"><ele>515.0</ele><time>2026-05-03T11:39:57.998Z</time></trkpt><trkpt lat="44.8087129469892" lon="9.094019260566961"><ele>515.0</ele><time>2026-05-03T11:39:58.998Z</time></trkpt><trkpt lat="44.8088069561635" lon="9.09405423027154"><ele>515.0</ele><time>2026-05-03T11:39:59.998Z</time></trkpt><trkpt lat="44.80889205561263" lon="9.094102354007306"><ele>515.0</ele><time>2026-05-03T11:40:00.998Z</time></trkpt><trkpt lat="44.808978401309" lon="9.094137131795469"><ele>515.0</ele><time>2026-05-03T11:40:01.998Z</time></trkpt><trkpt lat="44.80906241312339" lon="9.094167756915892"><ele>515.0</ele><time>2026-05-03T11:40:02.998Z</time></trkpt><trkpt lat="44.80914540642291" lon="9.094204632867113"><ele>515.0</ele><time>2026-05-03T11:40:03.998Z</time></trkpt><trkpt lat="44.8092282144437" lon="9.094240334044875"><ele>515.0</ele><time>2026-05-03T11:40:04.998Z</time></trkpt><trkpt lat="44.80931008135093" lon="9.094276955183075"><ele>515.0</ele><time>2026-05-03T11:40:05.998Z</time></trkpt><trkpt lat="44.809397118776296" lon="9.09431169771634"><ele>515.0</ele><time>2026-05-03T11:40:06.998Z</time></trkpt><trkpt lat="44.80949325854823" lon="9.094353726378365"><ele>515.0</ele><time>2026-05-03T11:40:07.998Z</time></trkpt><trkpt lat="44.80959195703268" lon="9.094411532181262"><ele>518.25</ele><time>2026-05-03T11:40:08.998Z</time></trkpt><trkpt lat="44.809680794662846" lon="9.094508769783584"><ele>521.5</ele><time>2026-05-03T11:40:09.998Z</time></trkpt><trkpt lat="44.80974734156578" lon="9.094649562141964"><ele>524.75</ele><time>2026-05-03T11:40:10.998Z</time></trkpt><trkpt lat="44.80978169758611" lon="9.094816929413406"><ele>528.0</ele><time>2026-05-03T11:40:11.998Z</time></trkpt><trkpt lat="44.8097726578261" lon="9.094993128453893"><ele>530.0</ele><time>2026-05-03T11:40:12.998Z</time></trkpt><trkpt lat="44.809745598012654" lon="9.095145973100887"><ele>532.0</ele><time>2026-05-03T11:40:13.998Z</time></trkpt><trkpt lat="44.809743563666174" lon="9.095258071273902"><ele>534.0</ele><time>2026-05-03T11:40:14.998Z</time></trkpt><trkpt lat="44.80978425979598" lon="9.095345298575145"><ele>536.0</ele><time>2026-05-03T11:40:15.998Z</time></trkpt><trkpt lat="44.80986753864978" lon="9.095394217577505"><ele>538.0</ele><time>2026-05-03T11:40:16.998Z</time></trkpt><trkpt lat="44.80996052018008" lon="9.095383565972847"><ele>540.0</ele><time>2026-05-03T11:40:17.998Z</time></trkpt><trkpt lat="44.8100528268502" lon="9.095357095143493"><ele>540.0</ele><time>2026-05-03T11:40:18.998Z</time></trkpt><trkpt lat="44.81015570097923" lon="9.095341767716087"><ele>540.0</ele><time>2026-05-03T11:40:19.998Z</time></trkpt><trkpt lat="44.810258910007306" lon="9.095321362574323"><ele>540.0</ele><time>2026-05-03T11:40:20.998Z</time></trkpt><trkpt lat="44.810359102924686" lon="9.095265772314443"><ele>540.0</ele><time>2026-05-03T11:40:21.998Z</time></trkpt><trkpt lat="44.81045041146157" lon="9.095190184853111"><ele>540.0</ele><time>2026-05-03T11:40:22.998Z</time></trkpt><trkpt lat="44.810532333740525" lon="9.095096702101479"><ele>542.25</ele><time>2026-05-03T11:40:23.998Z</time></trkpt><trkpt lat="44.810598486707185" lon="9.09499091475796"><ele>544.5</ele><time>2026-05-03T11:40:24.998Z</time></trkpt><trkpt lat="44.81065612295171" lon="9.094850867513955"><ele>546.75</ele><time>2026-05-03T11:40:25.998Z</time></trkpt><trkpt lat="44.81071340461078" lon="9.094698649771038"><ele>549.0</ele><time>2026-05-03T11:40:26.998Z</time></trkpt><trkpt lat="44.810755535223734" lon="9.094548096709369"><ele>549.0</ele><time>2026-05-03T11:40:27.998Z</time></trkpt><trkpt lat="44.81079079735918" lon="9.09442035340882"><ele>549.0</ele><time>2026-05-03T11:40:28.998Z</time></trkpt><trkpt lat="44.810825362385756" lon="9.094303826595532"><ele>549.0</ele><time>2026-05-03T11:40:29.998Z</time></trkpt><trkpt lat="44.810886765300666" lon="9.094155200392345"><ele>549.0</ele><time>2026-05-03T11:40:30.998Z</time></trkpt><trkpt lat="44.810947144154326" lon="9.09409798059165"><ele>549.0</ele><time>2026-05-03T11:40:31.998Z</time></trkpt><trkpt lat="44.811026921339625" lon="9.09405021680479"><ele>550.4</ele><time>2026-05-03T11:40:32.998Z</time></trkpt><trkpt lat="44.81111865276014" lon="9.094011197072131"><ele>551.8</ele><time>2026-05-03T11:40:33.998Z</time></trkpt><trkpt lat="44.811215618472445" lon="9.09398177194348"><ele>553.2</ele><time>2026-05-03T11:40:34.998Z</time></trkpt><trkpt lat="44.81131625750006" lon="9.09396652508002"><ele>554.6</ele><time>2026-05-03T11:40:35.998Z</time></trkpt><trkpt lat="44.8114136423932" lon="9.093938528534641"><ele>556.0</ele><time>2026-05-03T11:40:36.998Z</time></trkpt><trkpt lat="44.81151863489496" lon="9.093944684420475"><ele>556.0</ele><time>2026-05-03T11:40:37.998Z</time></trkpt><trkpt lat="44.81161724813994" lon="9.093951547437337"><ele>556.0</ele><time>2026-05-03T11:40:38.998Z</time></trkpt><trkpt lat="44.81171763605886" lon="9.093954209143144"><ele>556.0</ele><time>2026-05-03T11:40:39.998Z</time></trkpt><trkpt lat="44.81182439319677" lon="9.09395669833187"><ele>556.0</ele><time>2026-05-03T11:40:40.998Z</time></trkpt><trkpt lat="44.81193376526823" lon="9.093958816700152"><ele>556.0</ele><time>2026-05-03T11:40:41.998Z</time></trkpt><trkpt lat="44.81204526599862" lon="9.09396146878023"><ele>560.5</ele><time>2026-05-03T11:40:42.998Z</time></trkpt><trkpt lat="44.81215172232388" lon="9.093964104894255"><ele>565.0</ele><time>2026-05-03T11:40:43.998Z</time></trkpt><trkpt lat="44.81226490221801" lon="9.093969198556172"><ele>569.5</ele><time>2026-05-03T11:40:45Z</time></trkpt><trkpt lat="44.81239638242598" lon="9.093974586617895"><ele>574.0</ele><time>2026-05-03T11:40:46Z</time></trkpt><trkpt lat="44.812533170323036" lon="9.093980666232929"><ele>578.5</ele><time>2026-05-03T11:40:47Z</time></trkpt><trkpt lat="44.81267425264825" lon="9.093983975684873"><ele>583.0</ele><time>2026-05-03T11:40:48Z</time></trkpt><trkpt lat="44.812804576906636" lon="9.093972660447742"><ele>587.5</ele><time>2026-05-03T11:40:49Z</time></trkpt><trkpt lat="44.81291533604603" lon="9.093954584164166"><ele>592.0</ele><time>2026-05-03T11:40:50Z</time></trkpt><trkpt lat="44.81301888296838" lon="9.093916869853484"><ele>592.0</ele><time>2026-05-03T11:40:51Z</time></trkpt><trkpt lat="44.81311116448487" lon="9.093852643046265"><ele>592.0</ele><time>2026-05-03T11:40:52Z</time></trkpt><trkpt lat="44.81318677656756" lon="9.093760777387635"><ele>592.0</ele><time>2026-05-03T11:40:53Z</time></trkpt><trkpt lat="44.813239910474415" lon="9.093635147961903"><ele>592.0</ele><time>2026-05-03T11:40:54Z</time></trkpt><trkpt lat="44.81327971541133" lon="9.093519552334872"><ele>592.0</ele><time>2026-05-03T11:40:55Z</time></trkpt><trkpt lat="44.813323294446725" lon="9.093395054720434"><ele>595.0</ele><time>2026-05-03T11:40:56Z</time></trkpt><trkpt lat="44.81332975126949" lon="9.093212916789303"><ele>598.0</ele><time>2026-05-03T11:40:57Z</time></trkpt><trkpt lat="44.8133049206081" lon="9.093048486714048"><ele>601.0</ele><time>2026-05-03T11:40:58Z</time></trkpt><trkpt lat="44.81327508219685" lon="9.092883685562807"><ele>604.0</ele><time>2026-05-03T11:40:59Z</time></trkpt><trkpt lat="44.813242715524964" lon="9.092726056691166"><ele>604.0</ele><time>2026-05-03T11:41:00Z</time></trkpt><trkpt lat="44.813202950459186" lon="9.092579213194636"><ele>604.0</ele><time>2026-05-03T11:41:01Z</time></trkpt><trkpt lat="44.81316476967761" lon="9.092439397319552"><ele>604.0</ele><time>2026-05-03T11:41:02Z</time></trkpt><trkpt lat="44.813138202675525" lon="9.092332616855302"><ele>604.0</ele><time>2026-05-03T11:41:03Z</time></trkpt><trkpt lat="44.81314669849388" lon="9.09218845201897"><ele>604.0</ele><time>2026-05-03T11:41:05Z</time></trkpt><trkpt lat="44.81323981958677" lon="9.092211636557062"><ele>604.0</ele><time>2026-05-03T11:41:07Z</time></trkpt><trkpt lat="44.813307894116406" lon="9.09232265130583"><ele>604.0</ele><time>2026-05-03T11:41:08Z</time></trkpt><trkpt lat="44.81336399604376" lon="9.09248605223583"><ele>604.0</ele><time>2026-05-03T11:41:09Z</time></trkpt><trkpt lat="44.81344606510614" lon="9.092613455631547"><ele>604.0</ele><time>2026-05-03T11:41:10Z</time></trkpt><trkpt lat="44.81350644519994" lon="9.092719914736383"><ele>607.2</ele><time>2026-05-03T11:41:11Z</time></trkpt><trkpt lat="44.81356320831366" lon="9.092801718338107"><ele>610.4</ele><time>2026-05-03T11:41:12Z</time></trkpt><trkpt lat="44.81364680805732" lon="9.092842842086837"><ele>613.6</ele><time>2026-05-03T11:41:13Z</time></trkpt><trkpt lat="44.81372135003505" lon="9.092785089783973"><ele>616.8</ele><time>2026-05-03T11:41:14Z</time></trkpt><trkpt lat="44.81376240188575" lon="9.09266623128787"><ele>620.0</ele><time>2026-05-03T11:41:14.999Z</time></trkpt><trkpt lat="44.81378619241866" lon="9.092517478160994"><ele>623.25</ele><time>2026-05-03T11:41:15.999Z</time></trkpt><trkpt lat="44.81378187092309" lon="9.092346973550109"><ele>626.5</ele><time>2026-05-03T11:41:16.999Z</time></trkpt><trkpt lat="44.81376577239324" lon="9.092165513308037"><ele>629.75</ele><time>2026-05-03T11:41:17.999Z</time></trkpt><trkpt lat="44.81374530005705" lon="9.091994656251234"><ele>633.0</ele><time>2026-05-03T11:41:18.999Z</time></trkpt><trkpt lat="44.81371218380764" lon="9.091800113393587"><ele>633.0</ele><time>2026-05-03T11:41:19.999Z</time></trkpt><trkpt lat="44.81364957292479" lon="9.091643947585398"><ele>633.0</ele><time>2026-05-03T11:41:20.999Z</time></trkpt><trkpt lat="44.813600084904905" lon="9.091549607418862"><ele>633.0</ele><time>2026-05-03T11:41:21.999Z</time></trkpt><trkpt lat="44.81357895717738" lon="9.091460065432212"><ele>633.0</ele><time>2026-05-03T11:41:22.999Z</time></trkpt><trkpt lat="44.81366182873037" lon="9.091342140142409"><ele>633.0</ele><time>2026-05-03T11:41:24.999Z</time></trkpt><trkpt lat="44.813755594359094" lon="9.09138391319017"><ele>633.0</ele><time>2026-05-03T11:41:25.999Z</time></trkpt><trkpt lat="44.813830565942624" lon="9.091500807088757"><ele>633.0</ele><time>2026-05-03T11:41:26.999Z</time></trkpt><trkpt lat="44.81392125629078" lon="9.091599402430132"><ele>633.0</ele><time>2026-05-03T11:41:27.999Z</time></trkpt><trkpt lat="44.81402264547792" lon="9.091733046904283"><ele>633.0</ele><time>2026-05-03T11:41:28.999Z</time></trkpt><trkpt lat="44.8140968545541" lon="9.091823052038892"><ele>633.0</ele><time>2026-05-03T11:41:29.999Z</time></trkpt><trkpt lat="44.81417636789219" lon="9.091884852566272"><ele>633.0</ele><time>2026-05-03T11:41:30.999Z</time></trkpt><trkpt lat="44.81426077052203" lon="9.091908715155846"><ele>633.0</ele><time>2026-05-03T11:41:31.999Z</time></trkpt><trkpt lat="44.814335717665344" lon="9.091854594779488"><ele>633.0</ele><time>2026-05-03T11:41:32.999Z</time></trkpt><trkpt lat="44.814402227381954" lon="9.09178962524989"><ele>633.0</ele><time>2026-05-03T11:41:33.999Z</time></trkpt><trkpt lat="44.81440665650032" lon="9.091619315612359"><ele>637.8</ele><time>2026-05-03T11:41:34.999Z</time></trkpt><trkpt lat="44.814453891216914" lon="9.091500623903666"><ele>642.5999999999999</ele><time>2026-05-03T11:41:35.999Z</time></trkpt><trkpt lat="44.81452831990124" lon="9.09147984524905"><ele>647.4000000000001</ele><time>2026-05-03T11:41:36.999Z</time></trkpt><trkpt lat="44.814634417674355" lon="9.091466175504356"><ele>652.2</ele><time>2026-05-03T11:41:37.999Z</time></trkpt><trkpt lat="44.814749015767546" lon="9.09144422403509"><ele>657.0</ele><time>2026-05-03T11:41:38.999Z</time></trkpt><trkpt lat="44.81484819878679" lon="9.091440445672315"><ele>657.0</ele><time>2026-05-03T11:41:39.999Z</time></trkpt><trkpt lat="44.814939146984855" lon="9.091399815106378"><ele>657.0</ele><time>2026-05-03T11:41:40.999Z</time></trkpt><trkpt lat="44.815006691884214" lon="9.09135618446359"><ele>657.0</ele><time>2026-05-03T11:41:41.999Z</time></trkpt><trkpt lat="44.81505311038147" lon="9.091281749375492"><ele>657.0</ele><time>2026-05-03T11:41:42.999Z</time></trkpt><trkpt lat="44.81507444460905" lon="9.091118738277197"><ele>657.0</ele><time>2026-05-03T11:41:44.999Z</time></trkpt><trkpt lat="44.815007527332774" lon="9.091005438170827"><ele>657.0</ele><time>2026-05-03T11:41:45.999Z</time></trkpt><trkpt lat="44.81491516961211" lon="9.0909499621112"><ele>657.0</ele><time>2026-05-03T11:41:46.999Z</time></trkpt><trkpt lat="44.81483440885017" lon="9.09092051012686"><ele>657.0</ele><time>2026-05-03T11:41:47.999Z</time></trkpt><trkpt lat="44.8147400332211" lon="9.090873645474437"><ele>657.0</ele><time>2026-05-03T11:41:49.999Z</time></trkpt><trkpt lat="44.81482028906773" lon="9.090827016426465"><ele>657.0</ele><time>2026-05-03T11:42:24.998Z</time></trkpt><trkpt lat="44.81476902980045" lon="9.090761075248201"><ele>657.0</ele><time>2026-05-03T11:42:25.998Z</time></trkpt><trkpt lat="44.81486999044259" lon="9.090796832059016"><ele>657.0</ele><time>2026-05-03T11:42:34.998Z</time></trkpt><trkpt lat="44.81495579681339" lon="9.090787588992884"><ele>657.0</ele><time>2026-05-03T11:42:35.998Z</time></trkpt><trkpt lat="44.815053805671525" lon="9.090810004175546"><ele>657.0</ele><time>2026-05-03T11:42:36.998Z</time></trkpt><trkpt lat="44.81517354433964" lon="9.09082342923618"><ele>657.0</ele><time>2026-05-03T11:42:37.998Z</time></trkpt><trkpt lat="44.815292790768225" lon="9.090829680191948"><ele>657.0</ele><time>2026-05-03T11:42:38.998Z</time></trkpt><trkpt lat="44.815404170103434" lon="9.09083565670652"><ele>658.4000000000001</ele><time>2026-05-03T11:42:39.998Z</time></trkpt><trkpt lat="44.8155211787618" lon="9.090837287825645"><ele>659.8000000000001</ele><time>2026-05-03T11:42:40.998Z</time></trkpt><trkpt lat="44.81562503580147" lon="9.090837652711683"><ele>661.2</ele><time>2026-05-03T11:42:41.998Z</time></trkpt><trkpt lat="44.8157050060026" lon="9.090839728631725"><ele>662.6</ele><time>2026-05-03T11:42:42.998Z</time></trkpt><trkpt lat="44.81579723379727" lon="9.0908403071482"><ele>664.0</ele><time>2026-05-03T11:42:43.998Z</time></trkpt><trkpt lat="44.81587867119078" lon="9.090883234678842"><ele>664.0</ele><time>2026-05-03T11:42:44.998Z</time></trkpt><trkpt lat="44.81597522554489" lon="9.090801274531097"><ele>664.0</ele><time>2026-05-03T11:42:45.998Z</time></trkpt><trkpt lat="44.81607608665998" lon="9.090822077354833"><ele>664.0</ele><time>2026-05-03T11:42:46.998Z</time></trkpt><trkpt lat="44.81616663019868" lon="9.0908555653569"><ele>664.0</ele><time>2026-05-03T11:42:47.998Z</time></trkpt><trkpt lat="44.816237077446864" lon="9.090957734969777"><ele>664.0</ele><time>2026-05-03T11:42:48.998Z</time></trkpt><trkpt lat="44.81633507273915" lon="9.091046897975465"><ele>669.0</ele><time>2026-05-03T11:42:49.998Z</time></trkpt><trkpt lat="44.816421315058236" lon="9.091167481519335"><ele>674.0</ele><time>2026-05-03T11:42:51Z</time></trkpt><trkpt lat="44.81650681754535" lon="9.09128719855479"><ele>679.0</ele><time>2026-05-03T11:42:52Z</time></trkpt><trkpt lat="44.81659187112408" lon="9.091417231574443"><ele>684.0</ele><time>2026-05-03T11:42:53Z</time></trkpt><trkpt lat="44.8166726592718" lon="9.091545471364741"><ele>681.75</ele><time>2026-05-03T11:42:54Z</time></trkpt><trkpt lat="44.81675289390934" lon="9.091676439896014"><ele>679.5</ele><time>2026-05-03T11:42:55Z</time></trkpt><trkpt lat="44.81683144463947" lon="9.091805196521733"><ele>677.25</ele><time>2026-05-03T11:42:56Z</time></trkpt><trkpt lat="44.81690471567813" lon="9.091922117679125"><ele>675.0</ele><time>2026-05-03T11:42:57Z</time></trkpt><trkpt lat="44.81697106024677" lon="9.092022606030545"><ele>680.1666666666666</ele><time>2026-05-03T11:42:58Z</time></trkpt><trkpt lat="44.817031378539966" lon="9.09209549368885"><ele>685.3333333333334</ele><time>2026-05-03T11:42:59Z</time></trkpt><trkpt lat="44.81710280896052" lon="9.092166007387837"><ele>690.5</ele><time>2026-05-03T11:43:01Z</time></trkpt><trkpt lat="44.817064300579226" lon="9.092052010712036"><ele>695.6666666666667</ele><time>2026-05-03T11:43:04Z</time></trkpt><trkpt lat="44.81706317093801" lon="9.091946775398638"><ele>700.8333333333334</ele><time>2026-05-03T11:43:05Z</time></trkpt><trkpt lat="44.81706052165045" lon="9.091835655416341"><ele>706.0</ele><time>2026-05-03T11:43:06Z</time></trkpt><trkpt lat="44.81705571545229" lon="9.091711199415284"><ele>707.6666666666667</ele><time>2026-05-03T11:43:07Z</time></trkpt><trkpt lat="44.817034347174854" lon="9.091542129222358"><ele>709.3333333333334</ele><time>2026-05-03T11:43:09Z</time></trkpt><trkpt lat="44.81701740443979" lon="9.0914478041161"><ele>711.0</ele><time>2026-05-03T11:43:10Z</time></trkpt><trkpt lat="44.816989094666404" lon="9.091356578990633"><ele>712.6666666666666</ele><time>2026-05-03T11:43:11Z</time></trkpt><trkpt lat="44.81695381300597" lon="9.091282224074313"><ele>714.3333333333333</ele><time>2026-05-03T11:43:12Z</time></trkpt><trkpt lat="44.81691212823146" lon="9.091180698575384"><ele>716.0</ele><time>2026-05-03T11:43:13Z</time></trkpt><trkpt lat="44.81688300186914" lon="9.09108868844353"><ele>718.5</ele><time>2026-05-03T11:43:14Z</time></trkpt><trkpt lat="44.817151677420014" lon="9.090590350069542"><ele>721.0</ele><time>2026-05-03T11:43:17Z</time></trkpt><trkpt lat="44.817164644339265" lon="9.09043447808816"><ele>721.0</ele><time>2026-05-03T11:43:18.999Z</time></trkpt><trkpt lat="44.817103962704834" lon="9.090279092232915"><ele>721.0</ele><time>2026-05-03T11:43:20.999Z</time></trkpt><trkpt lat="44.81707575836417" lon="9.090148555225644"><ele>721.0</ele><time>2026-05-03T11:43:21.999Z</time></trkpt><trkpt lat="44.81703984029701" lon="9.09002060740271"><ele>721.0</ele><time>2026-05-03T11:43:22.999Z</time></trkpt><trkpt lat="44.81698742912882" lon="9.089895394898756"><ele>721.0</ele><time>2026-05-03T11:43:23.999Z</time></trkpt><trkpt lat="44.81692734770451" lon="9.089777243749035"><ele>721.4</ele><time>2026-05-03T11:43:24.999Z</time></trkpt><trkpt lat="44.81685615097007" lon="9.089667182390311"><ele>721.8</ele><time>2026-05-03T11:43:25.999Z</time></trkpt><trkpt lat="44.816779450848" lon="9.089571270522685"><ele>722.1999999999999</ele><time>2026-05-03T11:43:26.999Z</time></trkpt><trkpt lat="44.81671284163847" lon="9.089502748216745"><ele>722.5999999999999</ele><time>2026-05-03T11:43:27.999Z</time></trkpt><trkpt lat="44.81664762903609" lon="9.08941457190468"><ele>723.0</ele><time>2026-05-03T11:43:28.999Z</time></trkpt><trkpt lat="44.81659807910883" lon="9.089311411626724"><ele>724.0</ele><time>2026-05-03T11:43:29.999Z</time></trkpt><trkpt lat="44.81656428811907" lon="9.089227487003184"><ele>725.0</ele><time>2026-05-03T11:43:30.999Z</time></trkpt><trkpt lat="44.81649405945707" lon="9.089128114846215"><ele>726.0</ele><time>2026-05-03T11:43:32.999Z</time></trkpt><trkpt lat="44.81640202376184" lon="9.089035492729"><ele>727.0</ele><time>2026-05-03T11:43:34.999Z</time></trkpt><trkpt lat="44.81636242028841" lon="9.088956698136316"><ele>728.0</ele><time>2026-05-03T11:43:35.999Z</time></trkpt><trkpt lat="44.81626300072556" lon="9.088857294159341"><ele>728.0</ele><time>2026-05-03T11:43:37.999Z</time></trkpt><trkpt lat="44.81617646268614" lon="9.088735473630791"><ele>728.0</ele><time>2026-05-03T11:43:39.999Z</time></trkpt><trkpt lat="44.81613135688848" lon="9.088667010853742"><ele>728.0</ele><time>2026-05-03T11:43:40.999Z</time></trkpt><trkpt lat="44.81604862443875" lon="9.088597980339953"><ele>728.0</ele><time>2026-05-03T11:43:42.999Z</time></trkpt><trkpt lat="44.81600799391271" lon="9.088522022199024"><ele>728.0</ele><time>2026-05-03T11:43:44.999Z</time></trkpt><trkpt lat="44.81602152631211" lon="9.088373092156246"><ele>728.0</ele><time>2026-05-03T11:43:46.999Z</time></trkpt><trkpt lat="44.816029232541695" lon="9.088282129501305"><ele>728.0</ele><time>2026-05-03T11:43:47.999Z</time></trkpt><trkpt lat="44.81603948646349" lon="9.08819396527016"><ele>728.0</ele><time>2026-05-03T11:43:48.999Z</time></trkpt><trkpt lat="44.81605171818536" lon="9.088007282294114"><ele>728.0</ele><time>2026-05-03T11:43:50.999Z</time></trkpt><trkpt lat="44.81604517654846" lon="9.087914632263375"><ele>728.0</ele><time>2026-05-03T11:43:51.999Z</time></trkpt><trkpt lat="44.81604540015127" lon="9.08780367379022"><ele>728.0</ele><time>2026-05-03T11:43:52.999Z</time></trkpt><trkpt lat="44.816041881389154" lon="9.087707946448356"><ele>728.2</ele><time>2026-05-03T11:43:53.999Z</time></trkpt><trkpt lat="44.816028880049366" lon="9.087535840564254"><ele>728.4</ele><time>2026-05-03T11:43:55.999Z</time></trkpt><trkpt lat="44.81601295820578" lon="9.087409520103682"><ele>728.6</ele><time>2026-05-03T11:43:56.999Z</time></trkpt><trkpt lat="44.816011255747576" lon="9.087268611769446"><ele>728.8000000000001</ele><time>2026-05-03T11:43:57.999Z</time></trkpt><trkpt lat="44.81600906342793" lon="9.087123703198813"><ele>729.0</ele><time>2026-05-03T11:43:58.999Z</time></trkpt><trkpt lat="44.81602066800756" lon="9.086983525003642"><ele>726.2</ele><time>2026-05-03T11:43:59.999Z</time></trkpt><trkpt lat="44.816026176914114" lon="9.086854995425696"><ele>723.4000000000001</ele><time>2026-05-03T11:44:00.999Z</time></trkpt><trkpt lat="44.8160349845246" lon="9.086730572476846"><ele>720.6</ele><time>2026-05-03T11:44:01.999Z</time></trkpt><trkpt lat="44.81603583110355" lon="9.086585614593112"><ele>717.8</ele><time>2026-05-03T11:44:03.999Z</time></trkpt><trkpt lat="44.81603208673905" lon="9.086473273024398"><ele>715.0</ele><time>2026-05-03T11:44:20.998Z</time></trkpt><trkpt lat="44.81606920198825" lon="9.086354834639542"><ele>712.6666666666667</ele><time>2026-05-03T11:44:23.998Z</time></trkpt><trkpt lat="44.816094419113725" lon="9.0862254408086"><ele>710.3333333333334</ele><time>2026-05-03T11:44:26.998Z</time></trkpt><trkpt lat="44.81614149320022" lon="9.08614410063467"><ele>708.0</ele><time>2026-05-03T11:44:28.998Z</time></trkpt><trkpt lat="44.81619387057105" lon="9.086062352876624"><ele>705.6666666666666</ele><time>2026-05-03T11:44:32.998Z</time></trkpt><trkpt lat="44.81624492385922" lon="9.085971350273185"><ele>703.3333333333333</ele><time>2026-05-03T11:44:34.998Z</time></trkpt><trkpt lat="44.81627120741529" lon="9.085876672004332"><ele>701.0</ele><time>2026-05-03T11:44:36.998Z</time></trkpt><trkpt lat="44.81630924269376" lon="9.08576771044328"><ele>698.8</ele><time>2026-05-03T11:44:38.998Z</time></trkpt><trkpt lat="44.81639637520749" lon="9.085656417976983"><ele>696.5999999999999</ele><time>2026-05-03T11:44:40.998Z</time></trkpt><trkpt lat="44.816467314962345" lon="9.085565466440741"><ele>694.4</ele><time>2026-05-03T11:44:42.998Z</time></trkpt><trkpt lat="44.81649714761777" lon="9.085471847403191"><ele>692.2</ele><time>2026-05-03T11:44:44.998Z</time></trkpt><trkpt lat="44.81648935726625" lon="9.085300485424444"><ele>690.0</ele><time>2026-05-03T11:44:46.998Z</time></trkpt><trkpt lat="44.81646369135081" lon="9.085213555204506"><ele>690.0</ele><time>2026-05-03T11:44:47.998Z</time></trkpt><trkpt lat="44.8164220757247" lon="9.085111076501455"><ele>690.0</ele><time>2026-05-03T11:44:48.998Z</time></trkpt><trkpt lat="44.81637575913" lon="9.085026472265051"><ele>690.0</ele><time>2026-05-03T11:44:49.998Z</time></trkpt><trkpt lat="44.81633149105937" lon="9.084952335072543"><ele>690.0</ele><time>2026-05-03T11:44:50.998Z</time></trkpt><trkpt lat="44.81625282398173" lon="9.08486298906216"><ele>690.0</ele><time>2026-05-03T11:44:52.998Z</time></trkpt><trkpt lat="44.816194150278356" lon="9.084734721461041"><ele>690.0</ele><time>2026-05-03T11:44:54.998Z</time></trkpt><trkpt lat="44.816158735837305" lon="9.084642853672424"><ele>689.5</ele><time>2026-05-03T11:44:57Z</time></trkpt><trkpt lat="44.8160838405712" lon="9.08453193592581"><ele>689.0</ele><time>2026-05-03T11:44:59Z</time></trkpt><trkpt lat="44.816026290907175" lon="9.084464596535861"><ele>688.5</ele><time>2026-05-03T11:45:00Z</time></trkpt><trkpt lat="44.81596725207974" lon="9.084409707062994"><ele>688.0</ele><time>2026-05-03T11:45:01Z</time></trkpt><trkpt lat="44.81591888761701" lon="9.084344378224015"><ele>687.5</ele><time>2026-05-03T11:45:02Z</time></trkpt><trkpt lat="44.81588626451847" lon="9.084220532427805"><ele>687.0</ele><time>2026-05-03T11:45:04Z</time></trkpt><trkpt lat="44.815847826235434" lon="9.084123940333749"><ele>685.6666666666666</ele><time>2026-05-03T11:45:05Z</time></trkpt><trkpt lat="44.81581377146803" lon="9.084029213654494"><ele>684.3333333333334</ele><time>2026-05-03T11:45:06Z</time></trkpt><trkpt lat="44.815751696948645" lon="9.083874079403673"><ele>683.0</ele><time>2026-05-03T11:45:08Z</time></trkpt><trkpt lat="44.81571561371623" lon="9.083800124993994"><ele>681.6666666666667</ele><time>2026-05-03T11:45:09Z</time></trkpt><trkpt lat="44.81567651015336" lon="9.083722269804344"><ele>680.3333333333334</ele><time>2026-05-03T11:45:11Z</time></trkpt><trkpt lat="44.815646213636114" lon="9.083606893125648"><ele>679.0</ele><time>2026-05-03T11:45:14Z</time></trkpt><trkpt lat="44.81559592515962" lon="9.083506296472212"><ele>679.0</ele><time>2026-05-03T11:45:21Z</time></trkpt><trkpt lat="44.81554845426956" lon="9.083387440073801"><ele>679.0</ele><time>2026-05-03T11:45:22.999Z</time></trkpt><trkpt lat="44.81546459665169" lon="9.08325021059479"><ele>679.0</ele><time>2026-05-03T11:45:24.999Z</time></trkpt><trkpt lat="44.81542000061192" lon="9.083170674509317"><ele>679.0</ele><time>2026-05-03T11:45:25.999Z</time></trkpt><trkpt lat="44.815376982536485" lon="9.083086467563765"><ele>679.0</ele><time>2026-05-03T11:45:26.999Z</time></trkpt><trkpt lat="44.81533983485377" lon="9.083002612364483"><ele>679.0</ele><time>2026-05-03T11:45:27.999Z</time></trkpt><trkpt lat="44.81529452566866" lon="9.082935538482356"><ele>678.1666666666667</ele><time>2026-05-03T11:45:28.999Z</time></trkpt><trkpt lat="44.81526277401965" lon="9.082824845174356"><ele>677.3333333333334</ele><time>2026-05-03T11:45:30.999Z</time></trkpt><trkpt lat="44.815226309593186" lon="9.082722545077097"><ele>676.5</ele><time>2026-05-03T11:45:32.999Z</time></trkpt><trkpt lat="44.815200297389424" lon="9.08263442921981"><ele>675.6666666666666</ele><time>2026-05-03T11:45:34.999Z</time></trkpt><trkpt lat="44.81518333487904" lon="9.082531560017996"><ele>674.8333333333333</ele><time>2026-05-03T11:45:36.999Z</time></trkpt><trkpt lat="44.81516215136414" lon="9.082430746557739"><ele>674.0</ele><time>2026-05-03T11:45:38.999Z</time></trkpt><trkpt lat="44.81512402596506" lon="9.08231339705417"><ele>676.6666666666666</ele><time>2026-05-03T11:45:40.999Z</time></trkpt><trkpt lat="44.81505853223619" lon="9.082262425148889"><ele>679.3333333333333</ele><time>2026-05-03T11:45:42.999Z</time></trkpt><trkpt lat="44.81501703155819" lon="9.08216493533993"><ele>682.0</ele><time>2026-05-03T11:45:44.999Z</time></trkpt><trkpt lat="44.81497087329135" lon="9.08208301634516"><ele>684.6666666666666</ele><time>2026-05-03T11:45:46.999Z</time></trkpt><trkpt lat="44.814940027401896" lon="9.081998312064522"><ele>687.3333333333334</ele><time>2026-05-03T11:45:48.999Z</time></trkpt><trkpt lat="44.814880314147" lon="9.081912903085676"><ele>690.0</ele><time>2026-05-03T11:45:50.999Z</time></trkpt><trkpt lat="44.81484569491984" lon="9.081802232691494"><ele>690.0</ele><time>2026-05-03T11:45:52.999Z</time></trkpt><trkpt lat="44.81481193112361" lon="9.081714223666545"><ele>690.0</ele><time>2026-05-03T11:45:54.999Z</time></trkpt><trkpt lat="44.8147864297818" lon="9.08160503597545"><ele>690.0</ele><time>2026-05-03T11:45:56.999Z</time></trkpt><trkpt lat="44.81472767572423" lon="9.0815091345719"><ele>690.0</ele><time>2026-05-03T11:45:58.999Z</time></trkpt><trkpt lat="44.81472202110578" lon="9.081385679204173"><ele>690.0</ele><time>2026-05-03T11:46:00.999Z</time></trkpt><trkpt lat="44.81470818339628" lon="9.081279910688277"><ele>690.0</ele><time>2026-05-03T11:46:02.999Z</time></trkpt><trkpt lat="44.8146878963956" lon="9.081168415050806"><ele>689.0</ele><time>2026-05-03T11:46:04.999Z</time></trkpt><trkpt lat="44.81467430717977" lon="9.081060223336662"><ele>688.0</ele><time>2026-05-03T11:46:06.999Z</time></trkpt><trkpt lat="44.814634993302796" lon="9.08095421778417"><ele>687.0</ele><time>2026-05-03T11:46:08.999Z</time></trkpt><trkpt lat="44.8145985769765" lon="9.080850009868177"><ele>686.0</ele><time>2026-05-03T11:46:10.999Z</time></trkpt><trkpt lat="44.81458549392371" lon="9.080696799887797"><ele>685.0</ele><time>2026-05-03T11:46:12.999Z</time></trkpt><trkpt lat="44.81453620411227" lon="9.080565086024222"><ele>684.0</ele><time>2026-05-03T11:46:14.998Z</time></trkpt><trkpt lat="44.81449032896236" lon="9.080464255087701"><ele>683.0</ele><time>2026-05-03T11:46:16.998Z</time></trkpt><trkpt lat="44.81446552864567" lon="9.080364522453023"><ele>682.0</ele><time>2026-05-03T11:46:19.998Z</time></trkpt><trkpt lat="44.81445010945805" lon="9.08026494341417"><ele>681.0</ele><time>2026-05-03T11:46:31.998Z</time></trkpt><trkpt lat="44.81444072309352" lon="9.080146835217432"><ele>680.0</ele><time>2026-05-03T11:46:34.998Z</time></trkpt><trkpt lat="44.81444105525132" lon="9.080054102615993"><ele>679.0</ele><time>2026-05-03T11:46:36.998Z</time></trkpt><trkpt lat="44.814439143107776" lon="9.079915010920331"><ele>679.0</ele><time>2026-05-03T11:46:38.998Z</time></trkpt><trkpt lat="44.8144388433262" lon="9.079793067138004"><ele>679.0</ele><time>2026-05-03T11:46:40.998Z</time></trkpt><trkpt lat="44.814445772225056" lon="9.07966726516125"><ele>679.0</ele><time>2026-05-03T11:46:42.998Z</time></trkpt><trkpt lat="44.81442785024782" lon="9.079552574692016"><ele>679.0</ele><time>2026-05-03T11:46:44.998Z</time></trkpt><trkpt lat="44.81436664737272" lon="9.07942330431504"><ele>679.0</ele><time>2026-05-03T11:46:46.998Z</time></trkpt><trkpt lat="44.8142999168849" lon="9.079280931766954"><ele>677.5</ele><time>2026-05-03T11:46:48.998Z</time></trkpt><trkpt lat="44.81425301601261" lon="9.079108871874189"><ele>676.0</ele><time>2026-05-03T11:46:50.998Z</time></trkpt><trkpt lat="44.814229873210294" lon="9.079008249902442"><ele>674.5</ele><time>2026-05-03T11:46:51.998Z</time></trkpt><trkpt lat="44.81421586082554" lon="9.078912400734247"><ele>673.0</ele><time>2026-05-03T11:46:52.998Z</time></trkpt><trkpt lat="44.8142094401829" lon="9.078823086779307"><ele>671.5</ele><time>2026-05-03T11:46:53.998Z</time></trkpt><trkpt lat="44.81420460183397" lon="9.078668777415047"><ele>670.0</ele><time>2026-05-03T11:46:55.998Z</time></trkpt><trkpt lat="44.814216252577005" lon="9.078528004749534"><ele>669.2</ele><time>2026-05-03T11:46:57.998Z</time></trkpt><trkpt lat="44.81423142366919" lon="9.078392791227714"><ele>668.4</ele><time>2026-05-03T11:46:59.998Z</time></trkpt><trkpt lat="44.81426687663982" lon="9.078231372267838"><ele>667.5999999999999</ele><time>2026-05-03T11:47:02Z</time></trkpt><trkpt lat="44.81429607346484" lon="9.078048188770541"><ele>666.8</ele><time>2026-05-03T11:47:04Z</time></trkpt><trkpt lat="44.81431771759105" lon="9.077952472554216"><ele>666.0</ele><time>2026-05-03T11:47:05Z</time></trkpt><trkpt lat="44.81434935733488" lon="9.077854951587542"><ele>666.0</ele><time>2026-05-03T11:47:06Z</time></trkpt><trkpt lat="44.81438715079113" lon="9.077764337201366"><ele>666.0</ele><time>2026-05-03T11:47:07Z</time></trkpt><trkpt lat="44.814429026201225" lon="9.077674581335236"><ele>666.0</ele><time>2026-05-03T11:47:08Z</time></trkpt><trkpt lat="44.81448281454261" lon="9.077579706008404"><ele>666.0</ele><time>2026-05-03T11:47:09Z</time></trkpt><trkpt lat="44.81454874623554" lon="9.077484139713812"><ele>666.0</ele><time>2026-05-03T11:47:10Z</time></trkpt><trkpt lat="44.81461638107626" lon="9.07739527418156"><ele>666.0</ele><time>2026-05-03T11:47:11Z</time></trkpt><trkpt lat="44.81467982082091" lon="9.077304375456189"><ele>666.4</ele><time>2026-05-03T11:47:12Z</time></trkpt><trkpt lat="44.81474336943775" lon="9.07721911229926"><ele>666.8</ele><time>2026-05-03T11:47:13Z</time></trkpt><trkpt lat="44.81482038265971" lon="9.077129257068245"><ele>667.1999999999999</ele><time>2026-05-03T11:47:14Z</time></trkpt><trkpt lat="44.81490794557456" lon="9.077031322990857"><ele>667.5999999999999</ele><time>2026-05-03T11:47:15Z</time></trkpt><trkpt lat="44.81500292380582" lon="9.076921591328325"><ele>668.0</ele><time>2026-05-03T11:47:16Z</time></trkpt><trkpt lat="44.815098378839636" lon="9.07680020682164"><ele>668.5</ele><time>2026-05-03T11:47:17Z</time></trkpt><trkpt lat="44.81519482165174" lon="9.076672069066642"><ele>669.0</ele><time>2026-05-03T11:47:18Z</time></trkpt><trkpt lat="44.815286779502394" lon="9.076576838477795"><ele>669.5</ele><time>2026-05-03T11:47:19Z</time></trkpt><trkpt lat="44.81537789312141" lon="9.076498592508132"><ele>670.0</ele><time>2026-05-03T11:47:20Z</time></trkpt><trkpt lat="44.81546826019234" lon="9.076426863468376"><ele>671.6</ele><time>2026-05-03T11:47:21Z</time></trkpt><trkpt lat="44.81556686843711" lon="9.076345601562462"><ele>673.2</ele><time>2026-05-03T11:47:22Z</time></trkpt><trkpt lat="44.81566347407995" lon="9.076284678509474"><ele>674.8</ele><time>2026-05-03T11:47:23Z</time></trkpt><trkpt lat="44.815740715975" lon="9.07619789000368"><ele>676.4</ele><time>2026-05-03T11:47:24Z</time></trkpt><trkpt lat="44.815810501217605" lon="9.076130306277784"><ele>678.0</ele><time>2026-05-03T11:47:25Z</time></trkpt><trkpt lat="44.815860861602374" lon="9.076058511722318"><ele>678.0</ele><time>2026-05-03T11:47:26Z</time></trkpt><trkpt lat="44.815905761091855" lon="9.075964338620114"><ele>678.0</ele><time>2026-05-03T11:47:27Z</time></trkpt><trkpt lat="44.81596331242638" lon="9.075895670106524"><ele>678.0</ele><time>2026-05-03T11:47:27.999Z</time></trkpt><trkpt lat="44.81602136398825" lon="9.075822740770624"><ele>678.0</ele><time>2026-05-03T11:47:28.999Z</time></trkpt><trkpt lat="44.81607277005047" lon="9.07575503054862"><ele>678.0</ele><time>2026-05-03T11:47:29.999Z</time></trkpt><trkpt lat="44.81612321376781" lon="9.075690588545328"><ele>678.0</ele><time>2026-05-03T11:47:30.999Z</time></trkpt><trkpt lat="44.81617263463916" lon="9.075631204900818"><ele>678.0</ele><time>2026-05-03T11:47:31.999Z</time></trkpt><trkpt lat="44.816215575418084" lon="9.075564752424572"><ele>677.75</ele><time>2026-05-03T11:47:32.999Z</time></trkpt><trkpt lat="44.81627553949592" lon="9.07550547844095"><ele>677.5</ele><time>2026-05-03T11:47:34.999Z</time></trkpt><trkpt lat="44.816499067802674" lon="9.075724966900985"><ele>677.25</ele><time>2026-05-03T11:47:39.999Z</time></trkpt><trkpt lat="44.8165800376592" lon="9.07579829050441"><ele>677.0</ele><time>2026-05-03T11:47:42.999Z</time></trkpt><trkpt lat="44.81664663396788" lon="9.07579407751279"><ele>676.9999999999999</ele><time>2026-05-03T11:47:43.999Z</time></trkpt><trkpt lat="44.81671842488534" lon="9.075779840110682"><ele>677.0</ele><time>2026-05-03T11:47:44.999Z</time></trkpt><trkpt lat="44.81678603371334" lon="9.075773965704714"><ele>677.0</ele><time>2026-05-03T11:47:45.999Z</time></trkpt><trkpt lat="44.81685636357488" lon="9.0757693295352"><ele>677.0</ele><time>2026-05-03T11:47:46.999Z</time></trkpt><trkpt lat="44.81692526389722" lon="9.075764167880383"><ele>677.0</ele><time>2026-05-03T11:47:47.999Z</time></trkpt><trkpt lat="44.816990750813304" lon="9.075755690160332"><ele>676.9999999999999</ele><time>2026-05-03T11:47:48.999Z</time></trkpt><trkpt lat="44.817069057679646" lon="9.075743019671311"><ele>677.0</ele><time>2026-05-03T11:47:49.999Z</time></trkpt><trkpt lat="44.81715640074239" lon="9.07572159762419"><ele>676.8571428571428</ele><time>2026-05-03T11:47:50.999Z</time></trkpt><trkpt lat="44.81724138388958" lon="9.075699640847244"><ele>676.7142857142857</ele><time>2026-05-03T11:47:51.999Z</time></trkpt><trkpt lat="44.8173117017312" lon="9.075678444168814"><ele>676.5714285714286</ele><time>2026-05-03T11:47:52.999Z</time></trkpt><trkpt lat="44.8173743979935" lon="9.075652738941455"><ele>676.4285714285713</ele><time>2026-05-03T11:47:53.999Z</time></trkpt><trkpt lat="44.81743819698926" lon="9.075620915735616"><ele>676.2857142857142</ele><time>2026-05-03T11:47:54.999Z</time></trkpt><trkpt lat="44.81749591694814" lon="9.07558006250147"><ele>676.1428571428571</ele><time>2026-05-03T11:47:55.999Z</time></trkpt><trkpt lat="44.817569366679095" lon="9.075500891501004"><ele>676.0</ele><time>2026-05-03T11:47:57.999Z</time></trkpt><trkpt lat="44.81761586644225" lon="9.075372395951621"><ele>676.0</ele><time>2026-05-03T11:47:59.999Z</time></trkpt><trkpt lat="44.817666674772305" lon="9.075231859760969"><ele>676.0</ele><time>2026-05-03T11:48:01.999Z</time></trkpt><trkpt lat="44.817697051856385" lon="9.075126498177704"><ele>676.0</ele><time>2026-05-03T11:48:02.999Z</time></trkpt><trkpt lat="44.8177187411873" lon="9.075005435748926"><ele>676.0</ele><time>2026-05-03T11:48:03.999Z</time></trkpt><trkpt lat="44.81775218265872" lon="9.074910212480832"><ele>676.0</ele><time>2026-05-03T11:48:04.999Z</time></trkpt><trkpt lat="44.817798972548026" lon="9.074804473131671"><ele>676.0</ele><time>2026-05-03T11:48:06.999Z</time></trkpt><trkpt lat="44.81790581707548" lon="9.074762354441956"><ele>676.0</ele><time>2026-05-03T11:48:08.999Z</time></trkpt><trkpt lat="44.81799151893536" lon="9.074765355419135"><ele>676.0</ele><time>2026-05-03T11:48:09.999Z</time></trkpt><trkpt lat="44.81807181760151" lon="9.074777530661773"><ele>676.0</ele><time>2026-05-03T11:48:10.999Z</time></trkpt><trkpt lat="44.818136053267075" lon="9.074798932511055"><ele>676.0</ele><time>2026-05-03T11:48:11.999Z</time></trkpt><trkpt lat="44.81824156379697" lon="9.074763598308293"><ele>676.0</ele><time>2026-05-03T11:48:13.999Z</time></trkpt><trkpt lat="44.81834272434983" lon="9.074685616033717"><ele>676.0</ele><time>2026-05-03T11:48:15.999Z</time></trkpt><trkpt lat="44.818404856618926" lon="9.074643035366087"><ele>676.0</ele><time>2026-05-03T11:48:16.999Z</time></trkpt><trkpt lat="44.81846292206203" lon="9.074599523881897"><ele>676.0</ele><time>2026-05-03T11:48:17.999Z</time></trkpt><trkpt lat="44.81856490703551" lon="9.074515635238704"><ele>676.0</ele><time>2026-05-03T11:48:19.998Z</time></trkpt><trkpt lat="44.818626060982226" lon="9.074479017505206"><ele>676.0</ele><time>2026-05-03T11:48:20.998Z</time></trkpt><trkpt lat="44.81868726667928" lon="9.074452478212361"><ele>676.0</ele><time>2026-05-03T11:48:21.998Z</time></trkpt><trkpt lat="44.81879791298734" lon="9.07441672867914"><ele>676.5999999999999</ele><time>2026-05-03T11:48:23.998Z</time></trkpt><trkpt lat="44.818915231824114" lon="9.074392776650821"><ele>677.2</ele><time>2026-05-03T11:48:25.998Z</time></trkpt><trkpt lat="44.81902008684313" lon="9.074371311398751"><ele>677.8</ele><time>2026-05-03T11:48:27.998Z</time></trkpt><trkpt lat="44.81911693558437" lon="9.074384182098541"><ele>678.4000000000001</ele><time>2026-05-03T11:48:30.998Z</time></trkpt><trkpt lat="44.81923029151426" lon="9.074414434149002"><ele>679.0</ele><time>2026-05-03T11:48:32.998Z</time></trkpt><trkpt lat="44.819347948633215" lon="9.074464315294223"><ele>679.4000000000001</ele><time>2026-05-03T11:48:34.998Z</time></trkpt><trkpt lat="44.81944641105879" lon="9.074524822578102"><ele>679.8</ele><time>2026-05-03T11:48:36.998Z</time></trkpt><trkpt lat="44.819550750430274" lon="9.074578482391143"><ele>680.2</ele><time>2026-05-03T11:48:38.998Z</time></trkpt><trkpt lat="44.8196366626916" lon="9.074621124959695"><ele>680.5999999999999</ele><time>2026-05-03T11:48:40.998Z</time></trkpt><trkpt lat="44.81974049018831" lon="9.074641315557205"><ele>681.0</ele><time>2026-05-03T11:48:43.998Z</time></trkpt><trkpt lat="44.819813869376944" lon="9.074691713543723"><ele>681.0</ele><time>2026-05-03T11:48:45.998Z</time></trkpt><trkpt lat="44.81993427602846" lon="9.074686694603155"><ele>681.0</ele><time>2026-05-03T11:48:48.998Z</time></trkpt><trkpt lat="44.82003846117486" lon="9.074640020600553"><ele>681.0</ele><time>2026-05-03T11:48:50.998Z</time></trkpt><trkpt lat="44.8202773704233" lon="9.074572185321113"><ele>679.8333333333334</ele><time>2026-05-03T11:48:53.998Z</time></trkpt><trkpt lat="44.82036069346808" lon="9.07458272057556"><ele>678.6666666666666</ele><time>2026-05-03T11:48:54.998Z</time></trkpt><trkpt lat="44.82043188291009" lon="9.074595028471313"><ele>677.5</ele><time>2026-05-03T11:48:55.998Z</time></trkpt><trkpt lat="44.8205074658965" lon="9.074595357537973"><ele>676.3333333333333</ele><time>2026-05-03T11:48:56.998Z</time></trkpt><trkpt lat="44.82058281719373" lon="9.0745874504676"><ele>675.1666666666666</ele><time>2026-05-03T11:48:57.998Z</time></trkpt><trkpt lat="44.8206474821105" lon="9.074578407800022"><ele>674.0</ele><time>2026-05-03T11:48:58.998Z</time></trkpt><trkpt lat="44.820744348840705" lon="9.074578053976525"><ele>674.0</ele><time>2026-05-03T11:49:00.998Z</time></trkpt><trkpt lat="44.820845137670254" lon="9.074615371073127"><ele>674.0</ele><time>2026-05-03T11:49:02.998Z</time></trkpt><trkpt lat="44.82092817813045" lon="9.074733088216544"><ele>674.0</ele><time>2026-05-03T11:49:04.998Z</time></trkpt><trkpt lat="44.82097308211816" lon="9.07481529194501"><ele>674.0</ele><time>2026-05-03T11:49:05.998Z</time></trkpt><trkpt lat="44.82103894650802" lon="9.074922745391468"><ele>674.0</ele><time>2026-05-03T11:49:06.998Z</time></trkpt><trkpt lat="44.821097076286556" lon="9.075018393958208"><ele>672.2</ele><time>2026-05-03T11:49:08Z</time></trkpt><trkpt lat="44.82115569045016" lon="9.07511267165253"><ele>670.4000000000001</ele><time>2026-05-03T11:49:09Z</time></trkpt><trkpt lat="44.821232660816136" lon="9.075219828984734"><ele>668.6</ele><time>2026-05-03T11:49:10Z</time></trkpt><trkpt lat="44.82130854556612" lon="9.075338343112252"><ele>666.8</ele><time>2026-05-03T11:49:11Z</time></trkpt><trkpt lat="44.82138072264555" lon="9.075466410495212"><ele>665.0</ele><time>2026-05-03T11:49:12Z</time></trkpt><trkpt lat="44.82144260949468" lon="9.075565881303536"><ele>665.0</ele><time>2026-05-03T11:49:13Z</time></trkpt><trkpt lat="44.82150174701745" lon="9.075648508489586"><ele>665.0</ele><time>2026-05-03T11:49:14Z</time></trkpt><trkpt lat="44.82155662248683" lon="9.075711969762306"><ele>665.0</ele><time>2026-05-03T11:49:15Z</time></trkpt><trkpt lat="44.821635032235896" lon="9.075752442829506"><ele>665.0</ele><time>2026-05-03T11:49:17Z</time></trkpt><trkpt lat="44.821736625743405" lon="9.07576350376272"><ele>665.0</ele><time>2026-05-03T11:49:19Z</time></trkpt><trkpt lat="44.82180856918298" lon="9.075750015888985"><ele>665.0</ele><time>2026-05-03T11:49:22Z</time></trkpt><trkpt lat="44.8218323030349" lon="9.075634852775831"><ele>662.8</ele><time>2026-05-03T11:49:24Z</time></trkpt><trkpt lat="44.82189382628229" lon="9.075574515850096"><ele>660.6</ele><time>2026-05-03T11:49:26Z</time></trkpt><trkpt lat="44.82199744708307" lon="9.075483381637406"><ele>658.4000000000001</ele><time>2026-05-03T11:49:28Z</time></trkpt><trkpt lat="44.82206549638789" lon="9.07532240587714"><ele>656.2</ele><time>2026-05-03T11:49:30.999Z</time></trkpt><trkpt lat="44.82217239001618" lon="9.075328266184385"><ele>654.0</ele><time>2026-05-03T11:50:07.999Z</time></trkpt><trkpt lat="44.82228613266551" lon="9.075346494828693"><ele>654.0</ele><time>2026-05-03T11:50:09.999Z</time></trkpt><trkpt lat="44.822350363426" lon="9.075335332466251"><ele>654.0</ele><time>2026-05-03T11:50:10.999Z</time></trkpt><trkpt lat="44.82241543898676" lon="9.075300264014059"><ele>654.0</ele><time>2026-05-03T11:50:11.999Z</time></trkpt><trkpt lat="44.822487280692826" lon="9.075232228996938"><ele>654.0</ele><time>2026-05-03T11:50:13.999Z</time></trkpt><trkpt lat="44.82254717111905" lon="9.075179008963092"><ele>654.0</ele><time>2026-05-03T11:50:16.999Z</time></trkpt><trkpt lat="44.822641932060264" lon="9.075087967939533"><ele>654.0</ele><time>2026-05-03T11:50:18.999Z</time></trkpt><trkpt lat="44.822704705596415" lon="9.07503292743683"><ele>653.4000000000001</ele><time>2026-05-03T11:50:19.999Z</time></trkpt><trkpt lat="44.82277507738183" lon="9.074964346657975"><ele>652.8</ele><time>2026-05-03T11:50:20.998Z</time></trkpt><trkpt lat="44.82284936975764" lon="9.074888211367638"><ele>652.2</ele><time>2026-05-03T11:50:21.998Z</time></trkpt><trkpt lat="44.82292341110138" lon="9.07481576622084"><ele>651.5999999999999</ele><time>2026-05-03T11:50:22.998Z</time></trkpt><trkpt lat="44.82300629251753" lon="9.074763223160158"><ele>651.0</ele><time>2026-05-03T11:50:23.998Z</time></trkpt><trkpt lat="44.823109745571614" lon="9.07469870706576"><ele>649.25</ele><time>2026-05-03T11:50:24.998Z</time></trkpt><trkpt lat="44.82323207700008" lon="9.074663928688386"><ele>647.5</ele><time>2026-05-03T11:50:25.998Z</time></trkpt><trkpt lat="44.82336032785898" lon="9.07462820004333"><ele>645.75</ele><time>2026-05-03T11:50:26.998Z</time></trkpt><trkpt lat="44.8234948855224" lon="9.074587332618545"><ele>644.0</ele><time>2026-05-03T11:50:27.998Z</time></trkpt><trkpt lat="44.82363212844315" lon="9.074544792911944"><ele>643.5</ele><time>2026-05-03T11:50:28.998Z</time></trkpt><trkpt lat="44.82377274155248" lon="9.074499454990727"><ele>643.0</ele><time>2026-05-03T11:50:29.998Z</time></trkpt><trkpt lat="44.82390696856323" lon="9.074466583763671"><ele>642.5</ele><time>2026-05-03T11:50:30.998Z</time></trkpt><trkpt lat="44.824044324558606" lon="9.07441849850414"><ele>642.0</ele><time>2026-05-03T11:50:31.998Z</time></trkpt><trkpt lat="44.82417891977876" lon="9.074363869621468"><ele>643.0</ele><time>2026-05-03T11:50:32.998Z</time></trkpt><trkpt lat="44.82431665938963" lon="9.074302848620457"><ele>644.0</ele><time>2026-05-03T11:50:33.998Z</time></trkpt><trkpt lat="44.82442543620079" lon="9.074246247565032"><ele>645.0</ele><time>2026-05-03T11:50:34.998Z</time></trkpt><trkpt lat="44.824532467527995" lon="9.07418998844139"><ele>646.0</ele><time>2026-05-03T11:50:35.998Z</time></trkpt><trkpt lat="44.82463561560747" lon="9.07413996565587"><ele>646.0</ele><time>2026-05-03T11:50:36.998Z</time></trkpt><trkpt lat="44.82473139100239" lon="9.07411222197009"><ele>646.0</ele><time>2026-05-03T11:50:37.998Z</time></trkpt><trkpt lat="44.824833496023" lon="9.074091356973078"><ele>646.0</ele><time>2026-05-03T11:50:38.998Z</time></trkpt><trkpt lat="44.82493637534128" lon="9.07406596969712"><ele>646.0</ele><time>2026-05-03T11:50:39.998Z</time></trkpt><trkpt lat="44.825028419349714" lon="9.074048950961938"><ele>646.0</ele><time>2026-05-03T11:50:40.998Z</time></trkpt><trkpt lat="44.82509276294261" lon="9.074030576384722"><ele>644.1999999999999</ele><time>2026-05-03T11:50:41.998Z</time></trkpt><trkpt lat="44.82516030984988" lon="9.074003528829044"><ele>642.4</ele><time>2026-05-03T11:50:43.998Z</time></trkpt><trkpt lat="44.82530695489948" lon="9.073957104368985"><ele>640.6</ele><time>2026-05-03T11:50:46.998Z</time></trkpt><trkpt lat="44.82537675714814" lon="9.073985126119531"><ele>638.8</ele><time>2026-05-03T11:50:47.998Z</time></trkpt><trkpt lat="44.825444606476786" lon="9.074025961566253"><ele>637.0</ele><time>2026-05-03T11:50:49.998Z</time></trkpt><trkpt lat="44.82549033773306" lon="9.074139229297367"><ele>637.0</ele><time>2026-05-03T11:50:51.998Z</time></trkpt><trkpt lat="44.82531522612907" lon="9.074615605167468"><ele>637.0</ele><time>2026-05-03T11:50:52.998Z</time></trkpt><trkpt lat="44.825281907613274" lon="9.074783302523567"><ele>637.0</ele><time>2026-05-03T11:50:54.998Z</time></trkpt><trkpt lat="44.82528156528105" lon="9.074919338796517"><ele>637.0</ele><time>2026-05-03T11:50:56.998Z</time></trkpt><trkpt lat="44.82533972782154" lon="9.074965429164717"><ele>637.0</ele><time>2026-05-03T11:50:58.998Z</time></trkpt><trkpt lat="44.825425799923366" lon="9.075055818406154"><ele>637.0</ele><time>2026-05-03T11:51:00.998Z</time></trkpt><trkpt lat="44.82552208455838" lon="9.07516924674942"><ele>637.0</ele><time>2026-05-03T11:51:02.998Z</time></trkpt><trkpt lat="44.825546913579515" lon="9.075268405705812"><ele>638.4000000000001</ele><time>2026-05-03T11:51:04.998Z</time></trkpt><trkpt lat="44.82550508560001" lon="9.075448857289928"><ele>639.8000000000001</ele><time>2026-05-03T11:51:06.998Z</time></trkpt><trkpt lat="44.825445923744226" lon="9.07557905037207"><ele>641.2</ele><time>2026-05-03T11:51:08.998Z</time></trkpt><trkpt lat="44.8254153288914" lon="9.075658181943561"><ele>642.6</ele><time>2026-05-03T11:51:09.998Z</time></trkpt><trkpt lat="44.825346438626156" lon="9.075781776678681"><ele>644.0</ele><time>2026-05-03T11:51:11.997Z</time></trkpt><trkpt lat="44.82529415883577" lon="9.07583927949867"><ele>645.0</ele><time>2026-05-03T11:51:12.997Z</time></trkpt><trkpt lat="44.82522531631177" lon="9.075965658659783"><ele>646.0</ele><time>2026-05-03T11:51:15Z</time></trkpt><trkpt lat="44.825183156450116" lon="9.076054483478927"><ele>647.0</ele><time>2026-05-03T11:51:16Z</time></trkpt><trkpt lat="44.82508417198563" lon="9.076162626010326"><ele>648.0</ele><time>2026-05-03T11:51:18Z</time></trkpt><trkpt lat="44.82496940562038" lon="9.07625191229851"><ele>649.0</ele><time>2026-05-03T11:51:20Z</time></trkpt><trkpt lat="44.8249093973288" lon="9.07628998936722"><ele>650.0</ele><time>2026-05-03T11:51:21Z</time></trkpt><trkpt lat="44.8248475327764" lon="9.076349172013236"><ele>651.0</ele><time>2026-05-03T11:51:22Z</time></trkpt><trkpt lat="44.824778874953196" lon="9.076408037350234"><ele>652.0</ele><time>2026-05-03T11:51:23Z</time></trkpt><trkpt lat="44.82471066960344" lon="9.07642382441947"><ele>653.0</ele><time>2026-05-03T11:51:24Z</time></trkpt><trkpt lat="44.824655131021714" lon="9.076475815948793"><ele>654.0</ele><time>2026-05-03T11:51:25Z</time></trkpt><trkpt lat="44.824586807233715" lon="9.076608241178478"><ele>655.0</ele><time>2026-05-03T11:51:27Z</time></trkpt><trkpt lat="44.82456435952868" lon="9.076794185899153"><ele>655.0</ele><time>2026-05-03T11:51:29Z</time></trkpt><trkpt lat="44.82454979179478" lon="9.07689427837995"><ele>655.0</ele><time>2026-05-03T11:51:30Z</time></trkpt><trkpt lat="44.824535616472446" lon="9.076992188796112"><ele>655.0</ele><time>2026-05-03T11:51:30.999Z</time></trkpt><trkpt lat="44.82449954002133" lon="9.077110859475502"><ele>655.0</ele><time>2026-05-03T11:51:32.999Z</time></trkpt><trkpt lat="44.82445797539984" lon="9.07721924293101"><ele>655.0</ele><time>2026-05-03T11:51:34.999Z</time></trkpt><trkpt lat="44.82443396758012" lon="9.077305326271773"><ele>655.0</ele><time>2026-05-03T11:51:35.999Z</time></trkpt><trkpt lat="44.82438636036436" lon="9.077391108343896"><ele>655.6666666666667</ele><time>2026-05-03T11:51:36.999Z</time></trkpt><trkpt lat="44.82433298409752" lon="9.07744469801376"><ele>656.3333333333334</ele><time>2026-05-03T11:51:37.999Z</time></trkpt><trkpt lat="44.82428304218703" lon="9.077499359416484"><ele>657.0</ele><time>2026-05-03T11:51:38.999Z</time></trkpt><trkpt lat="44.824199695257704" lon="9.077576050411773"><ele>657.6666666666666</ele><time>2026-05-03T11:51:40.999Z</time></trkpt><trkpt lat="44.82415323685859" lon="9.077639495812347"><ele>658.3333333333333</ele><time>2026-05-03T11:51:44.999Z</time></trkpt><trkpt lat="44.82407798001292" lon="9.077746995662821"><ele>659.0</ele><time>2026-05-03T11:51:47.999Z</time></trkpt><trkpt lat="44.82399452548689" lon="9.077863419980218"><ele>659.0</ele><time>2026-05-03T11:51:49.999Z</time></trkpt><trkpt lat="44.823969663729734" lon="9.077945354885735"><ele>659.0</ele><time>2026-05-03T11:51:50.999Z</time></trkpt><trkpt lat="44.82395075423641" lon="9.078090993209635"><ele>659.0</ele><time>2026-05-03T11:51:52.999Z</time></trkpt><trkpt lat="44.82393259401659" lon="9.078205847011038"><ele>659.0</ele><time>2026-05-03T11:51:53.999Z</time></trkpt><trkpt lat="44.82391652020121" lon="9.078302669473493"><ele>659.0</ele><time>2026-05-03T11:51:54.999Z</time></trkpt><trkpt lat="44.823893008056324" lon="9.078413525034193"><ele>659.0</ele><time>2026-05-03T11:51:55.999Z</time></trkpt><trkpt lat="44.82385549425289" lon="9.07849805583938"><ele>657.6666666666666</ele><time>2026-05-03T11:51:56.999Z</time></trkpt><trkpt lat="44.82379663377901" lon="9.078652229756788"><ele>656.3333333333333</ele><time>2026-05-03T11:51:58.999Z</time></trkpt><trkpt lat="44.82376275032141" lon="9.07875615592026"><ele>655.0</ele><time>2026-05-03T11:51:59.999Z</time></trkpt><trkpt lat="44.823729353366886" lon="9.078865777738478"><ele>653.6666666666666</ele><time>2026-05-03T11:52:00.999Z</time></trkpt><trkpt lat="44.823701616640946" lon="9.078963919235742"><ele>652.3333333333334</ele><time>2026-05-03T11:52:01.999Z</time></trkpt><trkpt lat="44.823686926122235" lon="9.07907355178533"><ele>651.0</ele><time>2026-05-03T11:52:02.999Z</time></trkpt><trkpt lat="44.82365284998402" lon="9.07924090121235"><ele>649.25</ele><time>2026-05-03T11:52:04.999Z</time></trkpt><trkpt lat="44.82360020165065" lon="9.079326341440227"><ele>647.5</ele><time>2026-05-03T11:52:05.999Z</time></trkpt><trkpt lat="44.82353690468409" lon="9.079505790508229"><ele>645.75</ele><time>2026-05-03T11:52:06.999Z</time></trkpt><trkpt lat="44.823456165440504" lon="9.079635064549073"><ele>644.0</ele><time>2026-05-03T11:52:07.999Z</time></trkpt><trkpt lat="44.82334597034641" lon="9.079757418266544"><ele>644.0</ele><time>2026-05-03T11:52:08.999Z</time></trkpt><trkpt lat="44.82324082045202" lon="9.07984743640693"><ele>644.0</ele><time>2026-05-03T11:52:09.999Z</time></trkpt><trkpt lat="44.82316025094371" lon="9.07991398450129"><ele>644.0</ele><time>2026-05-03T11:52:10.999Z</time></trkpt><trkpt lat="44.82311089600948" lon="9.079976863952318"><ele>644.0</ele><time>2026-05-03T11:52:11.999Z</time></trkpt><trkpt lat="44.82307993034428" lon="9.080056002577805"><ele>644.0</ele><time>2026-05-03T11:52:12.999Z</time></trkpt><trkpt lat="44.82303178957238" lon="9.080182663396323"><ele>644.0</ele><time>2026-05-03T11:52:14.999Z</time></trkpt><trkpt lat="44.82297680651312" lon="9.080317113121064"><ele>643.8333333333333</ele><time>2026-05-03T11:52:16.999Z</time></trkpt><trkpt lat="44.82294722528028" lon="9.080403126241883"><ele>643.6666666666666</ele><time>2026-05-03T11:52:17.999Z</time></trkpt><trkpt lat="44.822927032655436" lon="9.080506667490315"><ele>643.5</ele><time>2026-05-03T11:52:18.999Z</time></trkpt><trkpt lat="44.82292614857417" lon="9.08061370969302"><ele>643.3333333333334</ele><time>2026-05-03T11:52:19.999Z</time></trkpt><trkpt lat="44.82294804559939" lon="9.080725644382579"><ele>643.1666666666667</ele><time>2026-05-03T11:52:20.999Z</time></trkpt><trkpt lat="44.822984951550616" lon="9.080836143017908"><ele>643.0</ele><time>2026-05-03T11:52:21.999Z</time></trkpt><trkpt lat="44.82303479262148" lon="9.080922326449864"><ele>641.6</ele><time>2026-05-03T11:52:22.999Z</time></trkpt><trkpt lat="44.82307716027261" lon="9.081041257758113"><ele>640.1999999999999</ele><time>2026-05-03T11:52:24.998Z</time></trkpt><trkpt lat="44.82299705887525" lon="9.081098699199522"><ele>638.8</ele><time>2026-05-03T11:52:27.998Z</time></trkpt><trkpt lat="44.82290518066302" lon="9.08110765418035"><ele>637.4</ele><time>2026-05-03T11:52:29.998Z</time></trkpt><trkpt lat="44.822823149573274" lon="9.08119063101114"><ele>636.0</ele><time>2026-05-03T11:52:31.998Z</time></trkpt><trkpt lat="44.82275980631326" lon="9.081297701445816"><ele>636.0</ele><time>2026-05-03T11:52:33.998Z</time></trkpt><trkpt lat="44.82268067774684" lon="9.081386747052326"><ele>636.0</ele><time>2026-05-03T11:52:35.998Z</time></trkpt><trkpt lat="44.82259079791437" lon="9.081496251163749"><ele>636.0</ele><time>2026-05-03T11:52:37.998Z</time></trkpt><trkpt lat="44.822544259101264" lon="9.081560541635803"><ele>636.0</ele><time>2026-05-03T11:52:38.998Z</time></trkpt><trkpt lat="44.822457993772005" lon="9.081660456946112"><ele>636.0</ele><time>2026-05-03T11:52:40.998Z</time></trkpt><trkpt lat="44.822401327985794" lon="9.081726214339566"><ele>634.0</ele><time>2026-05-03T11:52:42.998Z</time></trkpt><trkpt lat="44.82231898747897" lon="9.081774093430285"><ele>632.0</ele><time>2026-05-03T11:52:45.998Z</time></trkpt><trkpt lat="44.82228456088233" lon="9.081887916399335"><ele>630.0</ele><time>2026-05-03T11:52:48.998Z</time></trkpt><trkpt lat="44.82228072675366" lon="9.081993588704973"><ele>628.0</ele><time>2026-05-03T11:52:50.998Z</time></trkpt><trkpt lat="44.82229029405465" lon="9.082092654653072"><ele>626.0</ele><time>2026-05-03T11:52:52.998Z</time></trkpt><trkpt lat="44.82230870883567" lon="9.082216992094624"><ele>624.0</ele><time>2026-05-03T11:52:55.998Z</time></trkpt><trkpt lat="44.82235074738694" lon="9.082346859936926"><ele>622.3333333333334</ele><time>2026-05-03T11:52:57.998Z</time></trkpt><trkpt lat="44.822410134541414" lon="9.082453222723673"><ele>620.6666666666666</ele><time>2026-05-03T11:52:59.998Z</time></trkpt><trkpt lat="44.82246968156972" lon="9.082513099975728"><ele>619.0</ele><time>2026-05-03T11:53:01.998Z</time></trkpt><trkpt lat="44.82252155070572" lon="9.082605948192672"><ele>617.3333333333333</ele><time>2026-05-03T11:53:03.998Z</time></trkpt><trkpt lat="44.822547843074936" lon="9.082727740169814"><ele>615.6666666666666</ele><time>2026-05-03T11:53:05.998Z</time></trkpt><trkpt lat="44.82257437278789" lon="9.082828330165572"><ele>614.0</ele><time>2026-05-03T11:53:07.998Z</time></trkpt><trkpt lat="44.82265259072244" lon="9.082922937199871"><ele>613.5</ele><time>2026-05-03T11:53:09.998Z</time></trkpt><trkpt lat="44.82266387015649" lon="9.083029296902755"><ele>613.0</ele><time>2026-05-03T11:53:13.998Z</time></trkpt><trkpt lat="44.82269214218277" lon="9.083142432037588"><ele>612.5</ele><time>2026-05-03T11:53:16.997Z</time></trkpt><trkpt lat="44.822714558202954" lon="9.083235881400281"><ele>612.0</ele><time>2026-05-03T11:53:18.997Z</time></trkpt><trkpt lat="44.82276081186419" lon="9.08332732531107"><ele>611.5</ele><time>2026-05-03T11:53:51.999Z</time></trkpt><trkpt lat="44.82283803910738" lon="9.083389013716415"><ele>611.0</ele><time>2026-05-03T11:53:58.999Z</time></trkpt><trkpt lat="44.82292579697193" lon="9.083374159161357"><ele>611.0</ele><time>2026-05-03T11:54:00.999Z</time></trkpt><trkpt lat="44.822996396772496" lon="9.083270463440344"><ele>611.0</ele><time>2026-05-03T11:54:02.999Z</time></trkpt><trkpt lat="44.82308264501751" lon="9.083090170609047"><ele>611.0</ele><time>2026-05-03T11:54:04.999Z</time></trkpt><trkpt lat="44.8231167533891" lon="9.083004485291179"><ele>611.0</ele><time>2026-05-03T11:54:05.999Z</time></trkpt><trkpt lat="44.823161283656795" lon="9.082941639855996"><ele>611.0</ele><time>2026-05-03T11:54:06.999Z</time></trkpt><trkpt lat="44.82329994884444" lon="9.082920830188208"><ele>611.0</ele><time>2026-05-03T11:54:08.999Z</time></trkpt><trkpt lat="44.82340486037335" lon="9.082957589060044"><ele>611.0</ele><time>2026-05-03T11:54:09.999Z</time></trkpt><trkpt lat="44.82351192280698" lon="9.082915132260622"><ele>611.0</ele><time>2026-05-03T11:54:10.999Z</time></trkpt><trkpt lat="44.82359020408187" lon="9.082889842138295"><ele>611.0</ele><time>2026-05-03T11:54:11.999Z</time></trkpt><trkpt lat="44.823677286442404" lon="9.082867179228293"><ele>611.0</ele><time>2026-05-03T11:54:12.999Z</time></trkpt><trkpt lat="44.82374012886652" lon="9.082832431406924"><ele>609.75</ele><time>2026-05-03T11:54:13.999Z</time></trkpt><trkpt lat="44.823822557006324" lon="9.082718648287898"><ele>608.5</ele><time>2026-05-03T11:54:15.999Z</time></trkpt><trkpt lat="44.823856227872774" lon="9.082520528693179"><ele>607.25</ele><time>2026-05-03T11:54:17.999Z</time></trkpt><trkpt lat="44.823883462638165" lon="9.082346422465472"><ele>606.0</ele><time>2026-05-03T11:54:18.999Z</time></trkpt><trkpt lat="44.82391575229348" lon="9.082202339662292"><ele>606.0</ele><time>2026-05-03T11:54:19.999Z</time></trkpt><trkpt lat="44.82393604899084" lon="9.08208802699157"><ele>606.0</ele><time>2026-05-03T11:54:20.999Z</time></trkpt><trkpt lat="44.82398829148961" lon="9.081984149787663"><ele>606.0</ele><time>2026-05-03T11:54:22.999Z</time></trkpt><trkpt lat="44.824129610724235" lon="9.082057016535684"><ele>606.0</ele><time>2026-05-03T11:54:24.998Z</time></trkpt><trkpt lat="44.82422461323262" lon="9.082041578462961"><ele>606.0</ele><time>2026-05-03T11:54:25.998Z</time></trkpt><trkpt lat="44.82429019156919" lon="9.082000250211308"><ele>602.8333333333334</ele><time>2026-05-03T11:54:26.998Z</time></trkpt><trkpt lat="44.82434816287644" lon="9.081917252484097"><ele>599.6666666666666</ele><time>2026-05-03T11:54:27.998Z</time></trkpt><trkpt lat="44.82438434905286" lon="9.081823764899132"><ele>596.5</ele><time>2026-05-03T11:54:28.998Z</time></trkpt><trkpt lat="44.82445086184021" lon="9.081732214508298"><ele>593.3333333333333</ele><time>2026-05-03T11:54:30.998Z</time></trkpt><trkpt lat="44.824519834108706" lon="9.081699803599038"><ele>590.1666666666666</ele><time>2026-05-03T11:54:31.998Z</time></trkpt><trkpt lat="44.8246278829956" lon="9.081725761266485"><ele>587.0</ele><time>2026-05-03T11:54:32.998Z</time></trkpt><trkpt lat="44.82472161051274" lon="9.081666286644104"><ele>587.0</ele><time>2026-05-03T11:54:34.998Z</time></trkpt><trkpt lat="44.824783818618435" lon="9.081619452066748"><ele>587.0</ele><time>2026-05-03T11:54:35.998Z</time></trkpt><trkpt lat="44.82483331647205" lon="9.081559035499097"><ele>587.0</ele><time>2026-05-03T11:54:36.998Z</time></trkpt><trkpt lat="44.82487565505147" lon="9.081492815681978"><ele>587.0</ele><time>2026-05-03T11:54:37.998Z</time></trkpt><trkpt lat="44.82496203219675" lon="9.081365996666507"><ele>587.0</ele><time>2026-05-03T11:54:38.998Z</time></trkpt><trkpt lat="44.825058518232616" lon="9.08118569237215"><ele>586.4</ele><time>2026-05-03T11:54:39.998Z</time></trkpt><trkpt lat="44.82513071318264" lon="9.081006707525217"><ele>585.8000000000001</ele><time>2026-05-03T11:54:40.998Z</time></trkpt><trkpt lat="44.825167981509075" lon="9.080908957356801"><ele>585.2</ele><time>2026-05-03T11:54:41.998Z</time></trkpt><trkpt lat="44.82523989955836" lon="9.080836513556925"><ele>584.6</ele><time>2026-05-03T11:54:43.998Z</time></trkpt><trkpt lat="44.82528603726523" lon="9.080757069754561"><ele>584.0</ele><time>2026-05-03T11:54:44.998Z</time></trkpt><trkpt lat="44.825301688334825" lon="9.080667058719207"><ele>585.5</ele><time>2026-05-03T11:54:45.998Z</time></trkpt><trkpt lat="44.82531663375217" lon="9.080533087558502"><ele>587.0</ele><time>2026-05-03T11:54:46.998Z</time></trkpt><trkpt lat="44.825332038050796" lon="9.080440419237878"><ele>588.5</ele><time>2026-05-03T11:54:47.998Z</time></trkpt><trkpt lat="44.825336120287254" lon="9.080348805490209"><ele>590.0</ele><time>2026-05-03T11:54:48.998Z</time></trkpt><trkpt lat="44.82539452813575" lon="9.080299638265846"><ele>591.5</ele><time>2026-05-03T11:54:50.998Z</time></trkpt><trkpt lat="44.82545000848935" lon="9.080384404860828"><ele>593.0</ele><time>2026-05-03T11:54:52.998Z</time></trkpt><trkpt lat="44.82546270593881" lon="9.080487889823473"><ele>592.9999999999999</ele><time>2026-05-03T11:54:55.998Z</time></trkpt><trkpt lat="44.825507997951014" lon="9.080552302343403"><ele>593.0</ele><time>2026-05-03T11:54:59.998Z</time></trkpt><trkpt lat="44.82557052891411" lon="9.080594754013658"><ele>593.0</ele><time>2026-05-03T11:55:02.998Z</time></trkpt><trkpt lat="44.82563843229503" lon="9.080599368032908"><ele>593.0</ele><time>2026-05-03T11:55:05.998Z</time></trkpt><trkpt lat="44.82570335837355" lon="9.080553627659752"><ele>593.0</ele><time>2026-05-03T11:55:07.998Z</time></trkpt><trkpt lat="44.825780253627194" lon="9.08052191774896"><ele>592.9999999999999</ele><time>2026-05-03T11:55:09.998Z</time></trkpt><trkpt lat="44.82582529506505" lon="9.080456528181463"><ele>593.0</ele><time>2026-05-03T11:55:10.998Z</time></trkpt><trkpt lat="44.825920336505376" lon="9.080368518849083"><ele>593.0</ele><time>2026-05-03T11:55:12.998Z</time></trkpt><trkpt lat="44.82596724105405" lon="9.080299482193409"><ele>593.0</ele><time>2026-05-03T11:55:13.998Z</time></trkpt><trkpt lat="44.82601224093842" lon="9.08022530013028"><ele>593.0</ele><time>2026-05-03T11:55:14.998Z</time></trkpt><trkpt lat="44.826059230450944" lon="9.080130638610797"><ele>593.0</ele><time>2026-05-03T11:55:15.997Z</time></trkpt><trkpt lat="44.82609371420579" lon="9.08002042940514"><ele>593.0</ele><time>2026-05-03T11:55:16.997Z</time></trkpt><trkpt lat="44.82611883881638" lon="9.079920508143106"><ele>593.0</ele><time>2026-05-03T11:55:17.997Z</time></trkpt><trkpt lat="44.82614021109338" lon="9.079814279693585"><ele>592.8</ele><time>2026-05-03T11:55:18.997Z</time></trkpt><trkpt lat="44.82618433353675" lon="9.079731403271873"><ele>592.5999999999999</ele><time>2026-05-03T11:55:19.997Z</time></trkpt><trkpt lat="44.826249334315854" lon="9.07969907621416"><ele>592.4000000000001</ele><time>2026-05-03T11:55:20.997Z</time></trkpt><trkpt lat="44.826358916610204" lon="9.07966881623482"><ele>592.2</ele><time>2026-05-03T11:55:21.997Z</time></trkpt><trkpt lat="44.826465772520784" lon="9.079577788935561"><ele>592.0</ele><time>2026-05-03T11:55:22.997Z</time></trkpt><trkpt lat="44.826564939339825" lon="9.07950744346336"><ele>592.0</ele><time>2026-05-03T11:55:23.997Z</time></trkpt><trkpt lat="44.826642863707185" lon="9.07942388901068"><ele>592.0</ele><time>2026-05-03T11:55:24.997Z</time></trkpt><trkpt lat="44.826725850834364" lon="9.07933539406066"><ele>592.0</ele><time>2026-05-03T11:55:25.999Z</time></trkpt><trkpt lat="44.82679774317798" lon="9.07923983685404"><ele>592.0</ele><time>2026-05-03T11:55:26.999Z</time></trkpt><trkpt lat="44.826872707594084" lon="9.079132389966675"><ele>592.0</ele><time>2026-05-03T11:55:27.999Z</time></trkpt><trkpt lat="44.82695278249007" lon="9.079032816901487"><ele>591.5</ele><time>2026-05-03T11:55:28.999Z</time></trkpt><trkpt lat="44.827017290570154" lon="9.07891816175784"><ele>591.0</ele><time>2026-05-03T11:55:29.999Z</time></trkpt><trkpt lat="44.827096263995934" lon="9.078790234432557"><ele>590.5</ele><time>2026-05-03T11:55:30.999Z</time></trkpt><trkpt lat="44.82717097241322" lon="9.078660011101666"><ele>590.0</ele><time>2026-05-03T11:55:31.999Z</time></trkpt><trkpt lat="44.8272403780008" lon="9.078542870682687"><ele>590.0</ele><time>2026-05-03T11:55:32.999Z</time></trkpt><trkpt lat="44.82730071693278" lon="9.07842483209417"><ele>590.0</ele><time>2026-05-03T11:55:33.999Z</time></trkpt><trkpt lat="44.827385996924384" lon="9.078301941103192"><ele>590.0</ele><time>2026-05-03T11:55:34.999Z</time></trkpt><trkpt lat="44.82745481593194" lon="9.07818664482258"><ele>590.0</ele><time>2026-05-03T11:55:35.999Z</time></trkpt><trkpt lat="44.82751699925995" lon="9.078064504729163"><ele>590.0</ele><time>2026-05-03T11:55:36.999Z</time></trkpt><trkpt lat="44.82758471085066" lon="9.077947083812454"><ele>588.1666666666666</ele><time>2026-05-03T11:55:37.999Z</time></trkpt><trkpt lat="44.82765084557085" lon="9.077835283382724"><ele>586.3333333333333</ele><time>2026-05-03T11:55:38.999Z</time></trkpt><trkpt lat="44.82769519939007" lon="9.077745096304602"><ele>584.5</ele><time>2026-05-03T11:55:39.999Z</time></trkpt><trkpt lat="44.82775208527792" lon="9.077627940020374"><ele>582.6666666666666</ele><time>2026-05-03T11:55:41.999Z</time></trkpt><trkpt lat="44.82779323100948" lon="9.077547064582507"><ele>580.8333333333334</ele><time>2026-05-03T11:55:45.999Z</time></trkpt><trkpt lat="44.827863911383766" lon="9.077535014230918"><ele>579.0</ele><time>2026-05-03T11:55:48.999Z</time></trkpt><trkpt lat="44.82794329582709" lon="9.07759635240603"><ele>579.0</ele><time>2026-05-03T11:55:50.999Z</time></trkpt><trkpt lat="44.828062757635045" lon="9.077617401907016"><ele>579.0</ele><time>2026-05-03T11:55:52.999Z</time></trkpt><trkpt lat="44.828126220653715" lon="9.077549992305094"><ele>579.0</ele><time>2026-05-03T11:55:53.999Z</time></trkpt><trkpt lat="44.8281856821555" lon="9.077465273574381"><ele>579.0</ele><time>2026-05-03T11:55:54.999Z</time></trkpt><trkpt lat="44.828253569104" lon="9.07737467360757"><ele>579.0</ele><time>2026-05-03T11:55:55.999Z</time></trkpt><trkpt lat="44.82832363355969" lon="9.077280025153357"><ele>578.2</ele><time>2026-05-03T11:55:56.999Z</time></trkpt><trkpt lat="44.82837908850754" lon="9.077206204015654"><ele>577.4</ele><time>2026-05-03T11:55:57.999Z</time></trkpt><trkpt lat="44.82843613287598" lon="9.077143957203315"><ele>576.6</ele><time>2026-05-03T11:55:58.999Z</time></trkpt><trkpt lat="44.828555497683205" lon="9.07716643144337"><ele>575.8</ele><time>2026-05-03T11:56:00.999Z</time></trkpt><trkpt lat="44.828606984842544" lon="9.077223412015156"><ele>575.0</ele><time>2026-05-03T11:56:01.999Z</time></trkpt><trkpt lat="44.828760325948465" lon="9.07736808733999"><ele>568.75</ele><time>2026-05-03T11:56:03.999Z</time></trkpt><trkpt lat="44.82886526987987" lon="9.077455047317642"><ele>562.5</ele><time>2026-05-03T11:56:04.999Z</time></trkpt><trkpt lat="44.828939059301675" lon="9.077583463219822"><ele>556.25</ele><time>2026-05-03T11:56:05.999Z</time></trkpt><trkpt lat="44.82901024604609" lon="9.077710339870086"><ele>550.0</ele><time>2026-05-03T11:56:06.999Z</time></trkpt><trkpt lat="44.82906572333663" lon="9.077821148940867"><ele>550.0</ele><time>2026-05-03T11:56:07.999Z</time></trkpt><trkpt lat="44.82911627022582" lon="9.077874206574025"><ele>550.0</ele><time>2026-05-03T11:56:09.999Z</time></trkpt><trkpt lat="44.82917154868532" lon="9.077917786503944"><ele>550.0</ele><time>2026-05-03T11:56:12.999Z</time></trkpt><trkpt lat="44.82925745325347" lon="9.077615152923372"><ele>550.0</ele><time>2026-05-03T11:56:15.999Z</time></trkpt><trkpt lat="44.82924388937697" lon="9.077486201931755"><ele>547.0</ele><time>2026-05-03T11:56:16.999Z</time></trkpt><trkpt lat="44.82923109336634" lon="9.077335936012126"><ele>544.0</ele><time>2026-05-03T11:56:17.999Z</time></trkpt><trkpt lat="44.829215671145924" lon="9.077178156647925"><ele>541.0</ele><time>2026-05-03T11:56:18.999Z</time></trkpt><trkpt lat="44.829188249173065" lon="9.076980311951061"><ele>538.0</ele><time>2026-05-03T11:56:19.999Z</time></trkpt><trkpt lat="44.829158483262205" lon="9.07679792100658"><ele>538.0</ele><time>2026-05-03T11:56:20.999Z</time></trkpt><trkpt lat="44.82911164144047" lon="9.076629722176374"><ele>538.0</ele><time>2026-05-03T11:56:21.999Z</time></trkpt><trkpt lat="44.82908116527829" lon="9.076461867161987"><ele>538.0</ele><time>2026-05-03T11:56:22.999Z</time></trkpt><trkpt lat="44.82904147458146" lon="9.076303943982868"><ele>538.0</ele><time>2026-05-03T11:56:23.999Z</time></trkpt><trkpt lat="44.828999677430154" lon="9.076152449924356"><ele>535.4</ele><time>2026-05-03T11:56:24.999Z</time></trkpt><trkpt lat="44.828938631644824" lon="9.076030527318096"><ele>532.8</ele><time>2026-05-03T11:56:25.999Z</time></trkpt><trkpt lat="44.828874572404246" lon="9.075926808953712"><ele>530.2</ele><time>2026-05-03T11:56:26.999Z</time></trkpt><trkpt lat="44.82883903437107" lon="9.075810943982697"><ele>527.6</ele><time>2026-05-03T11:56:27.999Z</time></trkpt><trkpt lat="44.82883271706826" lon="9.075673634223255"><ele>525.0</ele><time>2026-05-03T11:56:28.999Z</time></trkpt><trkpt lat="44.82885514792533" lon="9.075483998021662"><ele>523.0</ele><time>2026-05-03T11:56:29.999Z</time></trkpt><trkpt lat="44.82885019201798" lon="9.07525407994578"><ele>521.0</ele><time>2026-05-03T11:56:30.998Z</time></trkpt><trkpt lat="44.828853516622736" lon="9.075042632921756"><ele>519.0</ele><time>2026-05-03T11:56:31.998Z</time></trkpt><trkpt lat="44.82886654500093" lon="9.074856968365173"><ele>517.0</ele><time>2026-05-03T11:56:32.998Z</time></trkpt><trkpt lat="44.828892570265076" lon="9.074740385612316"><ele>516.8000000000001</ele><time>2026-05-03T11:56:33.998Z</time></trkpt><trkpt lat="44.828958286194094" lon="9.074667180810723"><ele>516.6</ele><time>2026-05-03T11:56:34.998Z</time></trkpt><trkpt lat="44.829009631031866" lon="9.074545980218424"><ele>516.4000000000001</ele><time>2026-05-03T11:56:35.998Z</time></trkpt><trkpt lat="44.829074742231896" lon="9.074429411901937"><ele>516.2</ele><time>2026-05-03T11:56:36.998Z</time></trkpt><trkpt lat="44.82908544479054" lon="9.074251686094387"><ele>516.0</ele><time>2026-05-03T11:56:37.998Z</time></trkpt><trkpt lat="44.82911162512831" lon="9.074055904558428"><ele>516.0</ele><time>2026-05-03T11:56:38.998Z</time></trkpt><trkpt lat="44.82913091202951" lon="9.073876873551622"><ele>516.0</ele><time>2026-05-03T11:56:39.998Z</time></trkpt><trkpt lat="44.829137285992694" lon="9.073706109286764"><ele>516.0</ele><time>2026-05-03T11:56:40.998Z</time></trkpt><trkpt lat="44.82914588579092" lon="9.073537153316186"><ele>516.0</ele><time>2026-05-03T11:56:41.998Z</time></trkpt><trkpt lat="44.8291582564471" lon="9.073376592029035"><ele>515.6666666666666</ele><time>2026-05-03T11:56:42.998Z</time></trkpt><trkpt lat="44.829166017856224" lon="9.073232872056913"><ele>515.3333333333334</ele><time>2026-05-03T11:56:43.998Z</time></trkpt><trkpt lat="44.82914512423188" lon="9.073106386114695"><ele>515.0</ele><time>2026-05-03T11:56:44.998Z</time></trkpt><trkpt lat="44.82913166825675" lon="9.072984592943731"><ele>514.6666666666667</ele><time>2026-05-03T11:56:45.998Z</time></trkpt><trkpt lat="44.82911739870145" lon="9.072850991929748"><ele>514.3333333333334</ele><time>2026-05-03T11:56:47.998Z</time></trkpt><trkpt lat="44.829175618533306" lon="9.072795639888405"><ele>514.0</ele><time>2026-05-03T11:56:53.998Z</time></trkpt><trkpt lat="44.82921432066702" lon="9.072888628660122"><ele>514.0</ele><time>2026-05-03T11:56:56.998Z</time></trkpt><trkpt lat="44.82923170423297" lon="9.072985400521066"><ele>514.0</ele><time>2026-05-03T11:56:58.998Z</time></trkpt><trkpt lat="44.8292495574022" lon="9.073092407693979"><ele>514.0</ele><time>2026-05-03T11:57:01.998Z</time></trkpt><trkpt lat="44.82939141574393" lon="9.073071772287749"><ele>514.0</ele><time>2026-05-03T11:57:04.998Z</time></trkpt><trkpt lat="44.829472965144646" lon="9.072991318625546"><ele>514.0</ele><time>2026-05-03T11:57:05.998Z</time></trkpt><trkpt lat="44.82955193010411" lon="9.072911813579465"><ele>510.0</ele><time>2026-05-03T11:57:06.998Z</time></trkpt><trkpt lat="44.82963027733844" lon="9.072834366833025"><ele>506.0</ele><time>2026-05-03T11:57:07.998Z</time></trkpt><trkpt lat="44.829698686685624" lon="9.072726703035645"><ele>502.0</ele><time>2026-05-03T11:57:08.998Z</time></trkpt><trkpt lat="44.82974825654603" lon="9.072599970524877"><ele>498.0</ele><time>2026-05-03T11:57:09.998Z</time></trkpt><trkpt lat="44.82976845969405" lon="9.072461509993301"><ele>494.0</ele><time>2026-05-03T11:57:10.998Z</time></trkpt><trkpt lat="44.829790820677516" lon="9.072330226925809"><ele>494.0</ele><time>2026-05-03T11:57:11.998Z</time></trkpt><trkpt lat="44.82981673464202" lon="9.072187643437708"><ele>494.0</ele><time>2026-05-03T11:57:12.998Z</time></trkpt><trkpt lat="44.82984375618772" lon="9.072038965717638"><ele>494.0</ele><time>2026-05-03T11:57:13.998Z</time></trkpt><trkpt lat="44.829856410924805" lon="9.071881642675432"><ele>494.0</ele><time>2026-05-03T11:57:14.998Z</time></trkpt><trkpt lat="44.82987339281309" lon="9.071742844625854"><ele>494.0</ele><time>2026-05-03T11:57:15.998Z</time></trkpt><trkpt lat="44.829866332141385" lon="9.07161816821172"><ele>492.8333333333333</ele><time>2026-05-03T11:57:16.998Z</time></trkpt><trkpt lat="44.82985181325422" lon="9.0715090375092"><ele>491.66666666666663</ele><time>2026-05-03T11:57:17.998Z</time></trkpt><trkpt lat="44.829837634897586" lon="9.071411076966866"><ele>490.5</ele><time>2026-05-03T11:57:18.998Z</time></trkpt><trkpt lat="44.8298157310098" lon="9.071319303757969"><ele>489.33333333333337</ele><time>2026-05-03T11:57:19.998Z</time></trkpt><trkpt lat="44.82983170871241" lon="9.071207147412869"><ele>488.1666666666667</ele><time>2026-05-03T11:57:20.998Z</time></trkpt><trkpt lat="44.82986882749064" lon="9.07111504016838"><ele>487.0</ele><time>2026-05-03T11:57:21.998Z</time></trkpt><trkpt lat="44.829886590597354" lon="9.071011052249197"><ele>487.0</ele><time>2026-05-03T11:57:22.997Z</time></trkpt><trkpt lat="44.82995945185319" lon="9.070948435870243"><ele>487.00000000000006</ele><time>2026-05-03T11:57:23.997Z</time></trkpt><trkpt lat="44.83004614867424" lon="9.0709197984946"><ele>487.00000000000006</ele><time>2026-05-03T11:57:24.997Z</time></trkpt><trkpt lat="44.83013990981604" lon="9.070976605974995"><ele>487.0</ele><time>2026-05-03T11:57:25.997Z</time></trkpt><trkpt lat="44.83025123146894" lon="9.071004923146138"><ele>487.0</ele><time>2026-05-03T11:57:26.997Z</time></trkpt><trkpt lat="44.83034676785996" lon="9.071068746557497"><ele>483.5</ele><time>2026-05-03T11:57:27.997Z</time></trkpt><trkpt lat="44.830442454908166" lon="9.071083312162065"><ele>480.0</ele><time>2026-05-03T11:57:28.997Z</time></trkpt><trkpt lat="44.83054042950891" lon="9.07105637098631"><ele>476.5</ele><time>2026-05-03T11:57:29.997Z</time></trkpt><trkpt lat="44.83064653772729" lon="9.070978190905802"><ele>473.0</ele><time>2026-05-03T11:57:30.999Z</time></trkpt><trkpt lat="44.830755424260005" lon="9.07085022271679"><ele>469.66666666666663</ele><time>2026-05-03T11:57:31.999Z</time></trkpt><trkpt lat="44.83088746403336" lon="9.07071792950539"><ele>466.33333333333337</ele><time>2026-05-03T11:57:32.999Z</time></trkpt><trkpt lat="44.8310121241202" lon="9.070616427526819"><ele>463.0</ele><time>2026-05-03T11:57:33.999Z</time></trkpt><trkpt lat="44.83113713832702" lon="9.070514243562604"><ele>463.0</ele><time>2026-05-03T11:57:34.999Z</time></trkpt><trkpt lat="44.83126591742235" lon="9.070446448999999"><ele>463.0</ele><time>2026-05-03T11:57:35.999Z</time></trkpt><trkpt lat="44.831395071913995" lon="9.070386665201031"><ele>463.0</ele><time>2026-05-03T11:57:36.999Z</time></trkpt><trkpt lat="44.8315334698466" lon="9.07035575620629"><ele>463.0</ele><time>2026-05-03T11:57:37.999Z</time></trkpt><trkpt lat="44.83167215228829" lon="9.070336028310379"><ele>460.5</ele><time>2026-05-03T11:57:38.999Z</time></trkpt><trkpt lat="44.83180770678542" lon="9.070323543281514"><ele>458.0</ele><time>2026-05-03T11:57:39.999Z</time></trkpt><trkpt lat="44.831911971963216" lon="9.070302009626504"><ele>455.5</ele><time>2026-05-03T11:57:40.999Z</time></trkpt><trkpt lat="44.8320149965184" lon="9.07024358787722"><ele>453.0</ele><time>2026-05-03T11:57:41.999Z</time></trkpt><trkpt lat="44.83212901434418" lon="9.070156522286007"><ele>453.0</ele><time>2026-05-03T11:57:42.999Z</time></trkpt><trkpt lat="44.8322512409938" lon="9.070066593888932"><ele>453.0</ele><time>2026-05-03T11:57:43.999Z</time></trkpt><trkpt lat="44.8323800611348" lon="9.070002371576129"><ele>453.0</ele><time>2026-05-03T11:57:44.999Z</time></trkpt><trkpt lat="44.83251122080393" lon="9.069955792757836"><ele>453.0</ele><time>2026-05-03T11:57:45.999Z</time></trkpt><trkpt lat="44.83264395433534" lon="9.069916837499232"><ele>450.5</ele><time>2026-05-03T11:57:46.999Z</time></trkpt><trkpt lat="44.832780327521924" lon="9.069881730760383"><ele>448.0</ele><time>2026-05-03T11:57:47.999Z</time></trkpt><trkpt lat="44.83291319715878" lon="9.069846717346474"><ele>445.5</ele><time>2026-05-03T11:57:48.999Z</time></trkpt><trkpt lat="44.833047081959286" lon="9.069809549379489"><ele>443.0</ele><time>2026-05-03T11:57:49.999Z</time></trkpt><trkpt lat="44.833179887028734" lon="9.06976099045912"><ele>443.0</ele><time>2026-05-03T11:57:50.999Z</time></trkpt><trkpt lat="44.83330661833188" lon="9.069703163325213"><ele>443.0</ele><time>2026-05-03T11:57:51.999Z</time></trkpt><trkpt lat="44.83343280287482" lon="9.069628869818665"><ele>443.0</ele><time>2026-05-03T11:57:52.999Z</time></trkpt><trkpt lat="44.83355172283626" lon="9.06953980853267"><ele>443.0</ele><time>2026-05-03T11:57:53.999Z</time></trkpt><trkpt lat="44.83366344726193" lon="9.06943665010617"><ele>439.75</ele><time>2026-05-03T11:57:54.999Z</time></trkpt><trkpt lat="44.83376322479804" lon="9.069316893612411"><ele>436.5</ele><time>2026-05-03T11:57:55.999Z</time></trkpt><trkpt lat="44.833861604399495" lon="9.069181153802585"><ele>433.25</ele><time>2026-05-03T11:57:56.999Z</time></trkpt><trkpt lat="44.83396329290387" lon="9.069022889252702"><ele>430.0</ele><time>2026-05-03T11:57:57.999Z</time></trkpt><trkpt lat="44.8340669441193" lon="9.068858213936519"><ele>429.6666666666667</ele><time>2026-05-03T11:57:58.999Z</time></trkpt><trkpt lat="44.834178748698285" lon="9.068705706699406"><ele>429.33333333333337</ele><time>2026-05-03T11:57:59.999Z</time></trkpt><trkpt lat="44.83429495964755" lon="9.068570099051726"><ele>429.0</ele><time>2026-05-03T11:58:00.999Z</time></trkpt><trkpt lat="44.834423484576824" lon="9.068439642815374"><ele>427.33333333333337</ele><time>2026-05-03T11:58:01.999Z</time></trkpt><trkpt lat="44.83456347295284" lon="9.068326208291223"><ele>425.6666666666667</ele><time>2026-05-03T11:58:02.999Z</time></trkpt><trkpt lat="44.834706962308246" lon="9.068217658208653"><ele>424.0</ele><time>2026-05-03T11:58:03.999Z</time></trkpt><trkpt lat="44.834854840912875" lon="9.068118638233656"><ele>422.6666666666667</ele><time>2026-05-03T11:58:04.999Z</time></trkpt><trkpt lat="44.835010307566584" lon="9.06803453640087"><ele>421.33333333333337</ele><time>2026-05-03T11:58:05.999Z</time></trkpt><trkpt lat="44.83516802775248" lon="9.06795029977384"><ele>420.0</ele><time>2026-05-03T11:58:06.999Z</time></trkpt><trkpt lat="44.83532568965222" lon="9.06787322469347"><ele>418.66666666666663</ele><time>2026-05-03T11:58:07.999Z</time></trkpt><trkpt lat="44.8354845729485" lon="9.06779070300784"><ele>417.3333333333333</ele><time>2026-05-03T11:58:08.999Z</time></trkpt><trkpt lat="44.83563773274693" lon="9.0677055812764"><ele>416.0</ele><time>2026-05-03T11:58:09.999Z</time></trkpt><trkpt lat="44.83578250149619" lon="9.067604187078212"><ele>416.0</ele><time>2026-05-03T11:58:10.999Z</time></trkpt><trkpt lat="44.83592136172601" lon="9.067492408389803"><ele>416.0</ele><time>2026-05-03T11:58:11.999Z</time></trkpt><trkpt lat="44.83605066011126" lon="9.067369762036824"><ele>416.0</ele><time>2026-05-03T11:58:12.999Z</time></trkpt><trkpt lat="44.836182701471955" lon="9.067240410924217"><ele>414.66666666666663</ele><time>2026-05-03T11:58:13.999Z</time></trkpt><trkpt lat="44.836312929004926" lon="9.067094955365205"><ele>413.33333333333337</ele><time>2026-05-03T11:58:14.999Z</time></trkpt><trkpt lat="44.836441035741494" lon="9.066939674411081"><ele>412.0</ele><time>2026-05-03T11:58:15.999Z</time></trkpt><trkpt lat="44.836560743679414" lon="9.066780332236695"><ele>412.0</ele><time>2026-05-03T11:58:16.999Z</time></trkpt><trkpt lat="44.83666788137149" lon="9.066633648296895"><ele>412.0</ele><time>2026-05-03T11:58:17.999Z</time></trkpt><trkpt lat="44.83677342767449" lon="9.066492074584996"><ele>412.0</ele><time>2026-05-03T11:58:18.999Z</time></trkpt><trkpt lat="44.83690188638" lon="9.066362789409398"><ele>409.6666666666667</ele><time>2026-05-03T11:58:19.999Z</time></trkpt><trkpt lat="44.83705238774598" lon="9.066276300619856"><ele>407.33333333333337</ele><time>2026-05-03T11:58:20.999Z</time></trkpt><trkpt lat="44.83721268509549" lon="9.066238332273244"><ele>405.0</ele><time>2026-05-03T11:58:21.999Z</time></trkpt><trkpt lat="44.83736767306497" lon="9.066176767268812"><ele>405.0</ele><time>2026-05-03T11:58:22.999Z</time></trkpt><trkpt lat="44.83753076939258" lon="9.066155406948425"><ele>405.0</ele><time>2026-05-03T11:58:23.999Z</time></trkpt><trkpt lat="44.837693666271875" lon="9.06612730178019"><ele>405.0</ele><time>2026-05-03T11:58:24.999Z</time></trkpt><trkpt lat="44.8378605848302" lon="9.066101419142203"><ele>405.33333333333337</ele><time>2026-05-03T11:58:25.999Z</time></trkpt><trkpt lat="44.83802843090673" lon="9.066065196833982"><ele>405.6666666666667</ele><time>2026-05-03T11:58:26.999Z</time></trkpt><trkpt lat="44.83819367082776" lon="9.066033367724021"><ele>406.0</ele><time>2026-05-03T11:58:27.999Z</time></trkpt><trkpt lat="44.83834316646186" lon="9.065998411629336"><ele>405.75</ele><time>2026-05-03T11:58:28.999Z</time></trkpt><trkpt lat="44.838470114989185" lon="9.065967012252374"><ele>405.5</ele><time>2026-05-03T11:58:29.999Z</time></trkpt><trkpt lat="44.83857427285189" lon="9.065901336566705"><ele>405.25</ele><time>2026-05-03T11:58:30.999Z</time></trkpt><trkpt lat="44.83865229603133" lon="9.065791889420549"><ele>405.0</ele><time>2026-05-03T11:58:31.999Z</time></trkpt><trkpt lat="44.83868883434518" lon="9.065653774481902"><ele>405.0</ele><time>2026-05-03T11:58:32.999Z</time></trkpt><trkpt lat="44.83868576792276" lon="9.065503916721555"><ele>405.0</ele><time>2026-05-03T11:58:33.998Z</time></trkpt><trkpt lat="44.838657323784666" lon="9.06535062412577"><ele>405.0</ele><time>2026-05-03T11:58:34.998Z</time></trkpt><trkpt lat="44.83865154933201" lon="9.065179086457027"><ele>405.0</ele><time>2026-05-03T11:58:35.998Z</time></trkpt><trkpt lat="44.838641756871084" lon="9.065006773346191"><ele>403.75</ele><time>2026-05-03T11:58:36.998Z</time></trkpt><trkpt lat="44.838653726049024" lon="9.064822465346904"><ele>402.5</ele><time>2026-05-03T11:58:37.998Z</time></trkpt><trkpt lat="44.838708419116315" lon="9.064644667551997"><ele>401.25</ele><time>2026-05-03T11:58:38.998Z</time></trkpt><trkpt lat="44.838786301942605" lon="9.064473532428925"><ele>400.0</ele><time>2026-05-03T11:58:39.998Z</time></trkpt><trkpt lat="44.838887115592" lon="9.064318268780399"><ele>400.0</ele><time>2026-05-03T11:58:40.998Z</time></trkpt><trkpt lat="44.83898852274751" lon="9.06416163639494"><ele>400.0</ele><time>2026-05-03T11:58:41.998Z</time></trkpt><trkpt lat="44.83907582627992" lon="9.06398774587426"><ele>400.0</ele><time>2026-05-03T11:58:42.998Z</time></trkpt><trkpt lat="44.83914898566609" lon="9.063806120102127"><ele>401.0</ele><time>2026-05-03T11:58:43.998Z</time></trkpt><trkpt lat="44.83918836048318" lon="9.063601680970173"><ele>402.0</ele><time>2026-05-03T11:58:44.998Z</time></trkpt><trkpt lat="44.839211745950735" lon="9.063394556255986"><ele>403.0</ele><time>2026-05-03T11:58:45.998Z</time></trkpt><trkpt lat="44.83923721627188" lon="9.063196029964725"><ele>404.0</ele><time>2026-05-03T11:58:46.998Z</time></trkpt><trkpt lat="44.83927588422294" lon="9.063009249424193"><ele>407.5</ele><time>2026-05-03T11:58:47.998Z</time></trkpt><trkpt lat="44.83930271367859" lon="9.0628250003992"><ele>411.0</ele><time>2026-05-03T11:58:48.998Z</time></trkpt><trkpt lat="44.839314019664606" lon="9.062635929450929"><ele>414.5</ele><time>2026-05-03T11:58:49.998Z</time></trkpt><trkpt lat="44.83935184166161" lon="9.06245409017968"><ele>418.0</ele><time>2026-05-03T11:58:50.998Z</time></trkpt><trkpt lat="44.83939188033404" lon="9.062270825658098"><ele>419.25</ele><time>2026-05-03T11:58:51.998Z</time></trkpt><trkpt lat="44.8394269261054" lon="9.062088623926943"><ele>420.5</ele><time>2026-05-03T11:58:52.998Z</time></trkpt><trkpt lat="44.839465451657496" lon="9.061907091916304"><ele>421.75</ele><time>2026-05-03T11:58:53.998Z</time></trkpt><trkpt lat="44.83950199969638" lon="9.061732803327827"><ele>423.0</ele><time>2026-05-03T11:58:54.998Z</time></trkpt><trkpt lat="44.83953363337903" lon="9.061567534472509"><ele>423.79999999999995</ele><time>2026-05-03T11:58:55.998Z</time></trkpt><trkpt lat="44.8395692690806" lon="9.061431198611068"><ele>424.6</ele><time>2026-05-03T11:58:56.998Z</time></trkpt><trkpt lat="44.839612777122944" lon="9.061310799417333"><ele>425.40000000000003</ele><time>2026-05-03T11:58:57.998Z</time></trkpt><trkpt lat="44.839678118266846" lon="9.06117735716739"><ele>426.20000000000005</ele><time>2026-05-03T11:58:58.998Z</time></trkpt><trkpt lat="44.83975310692067" lon="9.06106621862218"><ele>427.0</ele><time>2026-05-03T11:58:59.998Z</time></trkpt><trkpt lat="44.839843038239614" lon="9.060973097940309"><ele>427.0</ele><time>2026-05-03T11:59:00.998Z</time></trkpt><trkpt lat="44.83995318038364" lon="9.060922502452398"><ele>427.0</ele><time>2026-05-03T11:59:01.998Z</time></trkpt><trkpt lat="44.84006145564593" lon="9.06085185694691"><ele>427.0</ele><time>2026-05-03T11:59:02.998Z</time></trkpt><trkpt lat="44.84015663162287" lon="9.060769391015143"><ele>427.0</ele><time>2026-05-03T11:59:03.998Z</time></trkpt><trkpt lat="44.840207923430285" lon="9.060624198688235"><ele>428.40000000000003</ele><time>2026-05-03T11:59:04.998Z</time></trkpt><trkpt lat="44.840214984868595" lon="9.060447829467648"><ele>429.80000000000007</ele><time>2026-05-03T11:59:05.998Z</time></trkpt><trkpt lat="44.84019572703106" lon="9.060300529580488"><ele>431.2</ele><time>2026-05-03T11:59:06.998Z</time></trkpt><trkpt lat="44.84023034960097" lon="9.060163307817458"><ele>432.6</ele><time>2026-05-03T11:59:07.998Z</time></trkpt><trkpt lat="44.84027321090238" lon="9.060053541151072"><ele>434.0</ele><time>2026-05-03T11:59:08.998Z</time></trkpt><trkpt lat="44.84034344167461" lon="9.059995739555559"><ele>433.99999999999994</ele><time>2026-05-03T11:59:09.998Z</time></trkpt><trkpt lat="44.840418350319204" lon="9.059965509407103"><ele>434.0</ele><time>2026-05-03T11:59:10.998Z</time></trkpt><trkpt lat="44.840515663642975" lon="9.059982758334076"><ele>434.0</ele><time>2026-05-03T11:59:11.998Z</time></trkpt><trkpt lat="44.84058655813232" lon="9.060067060055713"><ele>434.0</ele><time>2026-05-03T11:59:12.998Z</time></trkpt><trkpt lat="44.8406592321073" lon="9.060128321078347"><ele>433.99999999999994</ele><time>2026-05-03T11:59:13.998Z</time></trkpt><trkpt lat="44.840726341670596" lon="9.060209447654888"><ele>434.0</ele><time>2026-05-03T11:59:14.998Z</time></trkpt><trkpt lat="44.840837141497765" lon="9.060223947281697"><ele>434.0</ele><time>2026-05-03T11:59:15.998Z</time></trkpt><trkpt lat="44.84090390919523" lon="9.06018995420592"><ele>434.0</ele><time>2026-05-03T11:59:16.998Z</time></trkpt><trkpt lat="44.84098474552749" lon="9.060099499927423"><ele>434.0</ele><time>2026-05-03T11:59:17.998Z</time></trkpt><trkpt lat="44.84090874224445" lon="9.060095365825536"><ele>434.0</ele><time>2026-05-03T11:59:18.998Z</time></trkpt><trkpt lat="44.84102593614402" lon="9.05998568651226"><ele>434.0</ele><time>2026-05-03T11:59:20.998Z</time></trkpt><trkpt lat="44.84111337677287" lon="9.059896640493722"><ele>433.25</ele><time>2026-05-03T11:59:21.998Z</time></trkpt><trkpt lat="44.84121065879546" lon="9.05979923430906"><ele>432.5</ele><time>2026-05-03T11:59:22.998Z</time></trkpt><trkpt lat="44.84130662850255" lon="9.059698749800623"><ele>431.75</ele><time>2026-05-03T11:59:23.998Z</time></trkpt><trkpt lat="44.84141324604541" lon="9.059593239778374"><ele>431.0</ele><time>2026-05-03T11:59:24.998Z</time></trkpt><trkpt lat="44.841517411041984" lon="9.059480522706743"><ele>431.0</ele><time>2026-05-03T11:59:25.998Z</time></trkpt><trkpt lat="44.84162219319268" lon="9.059357569272231"><ele>431.0</ele><time>2026-05-03T11:59:26.997Z</time></trkpt><trkpt lat="44.841733529495485" lon="9.059237697291483"><ele>431.0</ele><time>2026-05-03T11:59:27.997Z</time></trkpt><trkpt lat="44.84184751861481" lon="9.059112871857007"><ele>431.0</ele><time>2026-05-03T11:59:28.997Z</time></trkpt><trkpt lat="44.84195922530091" lon="9.058999449129043"><ele>428.5</ele><time>2026-05-03T11:59:29.997Z</time></trkpt><trkpt lat="44.8420630973033" lon="9.058891845287468"><ele>426.0</ele><time>2026-05-03T11:59:30.997Z</time></trkpt><trkpt lat="44.84215224070714" lon="9.058785545496068"><ele>423.5</ele><time>2026-05-03T11:59:31.997Z</time></trkpt><trkpt lat="44.84224790403448" lon="9.058683980415498"><ele>421.0</ele><time>2026-05-03T11:59:32.997Z</time></trkpt><trkpt lat="44.84233883504988" lon="9.058555446968922"><ele>421.0</ele><time>2026-05-03T11:59:33.997Z</time></trkpt><trkpt lat="44.8424410760102" lon="9.058421853376283"><ele>421.0</ele><time>2026-05-03T11:59:34.997Z</time></trkpt><trkpt lat="44.842549410134964" lon="9.05827739026158"><ele>421.0</ele><time>2026-05-03T11:59:35.999Z</time></trkpt><trkpt lat="44.84266492813179" lon="9.058121905741514"><ele>421.0</ele><time>2026-05-03T11:59:36.999Z</time></trkpt><trkpt lat="44.84278960618217" lon="9.05796698248611"><ele>421.75</ele><time>2026-05-03T11:59:37.999Z</time></trkpt><trkpt lat="44.84290290568972" lon="9.057804385585518"><ele>422.5</ele><time>2026-05-03T11:59:38.999Z</time></trkpt><trkpt lat="44.843003056340265" lon="9.057662679920659"><ele>423.25</ele><time>2026-05-03T11:59:39.999Z</time></trkpt><trkpt lat="44.84306316455651" lon="9.057583655287397"><ele>424.0</ele><time>2026-05-03T11:59:40.999Z</time></trkpt><trkpt lat="44.84312563804757" lon="9.057520659497262"><ele>424.00000000000006</ele><time>2026-05-03T11:59:42.999Z</time></trkpt><trkpt lat="44.84318950557126" lon="9.057489266700836"><ele>424.0</ele><time>2026-05-03T11:59:46.999Z</time></trkpt><trkpt lat="44.84323935796556" lon="9.057421204911831"><ele>424.0</ele><time>2026-05-03T11:59:49.999Z</time></trkpt><trkpt lat="44.84333806841792" lon="9.057375989436755"><ele>424.0</ele><time>2026-05-03T11:59:52Z</time></trkpt><trkpt lat="44.84341031259844" lon="9.057350021656655"><ele>424.00000000000006</ele><time>2026-05-03T11:59:53Z</time></trkpt><trkpt lat="44.84348345585527" lon="9.057301616796329"><ele>424.0</ele><time>2026-05-03T11:59:54Z</time></trkpt><trkpt lat="44.84354517606354" lon="9.057220098934277"><ele>424.79999999999995</ele><time>2026-05-03T11:59:55Z</time></trkpt><trkpt lat="44.84358853794718" lon="9.057111925963973"><ele>425.59999999999997</ele><time>2026-05-03T11:59:56Z</time></trkpt><trkpt lat="44.843619381925265" lon="9.056980182550463"><ele>426.4</ele><time>2026-05-03T11:59:57Z</time></trkpt><trkpt lat="44.84363264292068" lon="9.056839970854742"><ele>427.2</ele><time>2026-05-03T11:59:58Z</time></trkpt><trkpt lat="44.843631507000694" lon="9.056685152074644"><ele>428.0</ele><time>2026-05-03T11:59:59Z</time></trkpt><trkpt lat="44.84363262864826" lon="9.056526215174548"><ele>428.0</ele><time>2026-05-03T12:00:00Z</time></trkpt><trkpt lat="44.843657481687316" lon="9.056368499182097"><ele>428.0</ele><time>2026-05-03T12:00:01Z</time></trkpt><trkpt lat="44.84365279929589" lon="9.05620196759242"><ele>428.0</ele><time>2026-05-03T12:00:02Z</time></trkpt><trkpt lat="44.84367925829283" lon="9.056037588037027"><ele>428.0</ele><time>2026-05-03T12:00:03Z</time></trkpt><trkpt lat="44.8437420277741" lon="9.055896186733609"><ele>429.59999999999997</ele><time>2026-05-03T12:00:04Z</time></trkpt><trkpt lat="44.8438112594377" lon="9.055758774389325"><ele>431.19999999999993</ele><time>2026-05-03T12:00:05Z</time></trkpt><trkpt lat="44.84388230988183" lon="9.055624805894453"><ele>432.8</ele><time>2026-05-03T12:00:06Z</time></trkpt><trkpt lat="44.843954997382966" lon="9.055524042717426"><ele>434.4</ele><time>2026-05-03T12:00:07Z</time></trkpt><trkpt lat="44.84401953358834" lon="9.05543123833176"><ele>436.0</ele><time>2026-05-03T12:00:09Z</time></trkpt><trkpt lat="44.844073401785195" lon="9.05537850023413"><ele>436.0</ele><time>2026-05-03T12:00:13Z</time></trkpt><trkpt lat="44.84414791364254" lon="9.055420168662117"><ele>436.0</ele><time>2026-05-03T12:00:14Z</time></trkpt><trkpt lat="44.84423769824813" lon="9.055482536713221"><ele>436.0</ele><time>2026-05-03T12:00:15Z</time></trkpt><trkpt lat="44.84434200651522" lon="9.055512812281162"><ele>436.0</ele><time>2026-05-03T12:00:16Z</time></trkpt><trkpt lat="44.84446459260717" lon="9.05551026909087"><ele>436.0</ele><time>2026-05-03T12:00:17Z</time></trkpt><trkpt lat="44.84459625080402" lon="9.055478894056732"><ele>435.0</ele><time>2026-05-03T12:00:18Z</time></trkpt><trkpt lat="44.84473863692723" lon="9.055449918169385"><ele>434.0</ele><time>2026-05-03T12:00:19Z</time></trkpt><trkpt lat="44.844890917539104" lon="9.05543471600667"><ele>433.0</ele><time>2026-05-03T12:00:20Z</time></trkpt><trkpt lat="44.84503865052588" lon="9.055422505819136"><ele>432.0</ele><time>2026-05-03T12:00:21Z</time></trkpt><trkpt lat="44.845185563667876" lon="9.05540868825769"><ele>430.66666666666663</ele><time>2026-05-03T12:00:22Z</time></trkpt><trkpt lat="44.84533481890358" lon="9.055394720276698"><ele>429.3333333333333</ele><time>2026-05-03T12:00:23Z</time></trkpt><trkpt lat="44.84549413573653" lon="9.055366877341479"><ele>428.0</ele><time>2026-05-03T12:00:24Z</time></trkpt><trkpt lat="44.84565293279629" lon="9.055346623482917"><ele>428.0</ele><time>2026-05-03T12:00:25Z</time></trkpt><trkpt lat="44.845813726021454" lon="9.055326727261178"><ele>428.0</ele><time>2026-05-03T12:00:26Z</time></trkpt><trkpt lat="44.84597398377018" lon="9.055301733153172"><ele>428.0</ele><time>2026-05-03T12:00:27Z</time></trkpt><trkpt lat="44.8461297126534" lon="9.055279909913896"><ele>429.0</ele><time>2026-05-03T12:00:28Z</time></trkpt><trkpt lat="44.84628580524841" lon="9.05526505008867"><ele>430.0</ele><time>2026-05-03T12:00:29Z</time></trkpt><trkpt lat="44.84642173044438" lon="9.055252393991086"><ele>431.0</ele><time>2026-05-03T12:00:30Z</time></trkpt><trkpt lat="44.84654110054227" lon="9.055225643082757"><ele>432.0</ele><time>2026-05-03T12:00:31Z</time></trkpt><trkpt lat="44.84666398055883" lon="9.055217948752716"><ele>432.0</ele><time>2026-05-03T12:00:32Z</time></trkpt><trkpt lat="44.846790863389394" lon="9.055209469063056"><ele>432.0</ele><time>2026-05-03T12:00:33Z</time></trkpt><trkpt lat="44.846923405162485" lon="9.055282863323756"><ele>432.0</ele><time>2026-05-03T12:00:34Z</time></trkpt><trkpt lat="44.84706071401852" lon="9.05534918411998"><ele>432.0</ele><time>2026-05-03T12:00:35Z</time></trkpt><trkpt lat="44.847201613768306" lon="9.055370507773135"><ele>434.75</ele><time>2026-05-03T12:00:36Z</time></trkpt><trkpt lat="44.84732796408554" lon="9.055401466210952"><ele>437.5</ele><time>2026-05-03T12:00:37Z</time></trkpt><trkpt lat="44.847442726971884" lon="9.055461340212817"><ele>440.25</ele><time>2026-05-03T12:00:38Z</time></trkpt><trkpt lat="44.84755081318078" lon="9.055540094379607"><ele>443.0</ele><time>2026-05-03T12:00:39Z</time></trkpt><trkpt lat="44.84764940736268" lon="9.055616164399263"><ele>445.4</ele><time>2026-05-03T12:00:40Z</time></trkpt><trkpt lat="44.84775317366919" lon="9.055651981412863"><ele>447.79999999999995</ele><time>2026-05-03T12:00:41Z</time></trkpt><trkpt lat="44.847866733731465" lon="9.05565346698306"><ele>450.2</ele><time>2026-05-03T12:00:42Z</time></trkpt><trkpt lat="44.84798012301761" lon="9.05560870728407"><ele>452.6</ele><time>2026-05-03T12:00:43Z</time></trkpt><trkpt lat="44.84806809893476" lon="9.055544537212073"><ele>455.0</ele><time>2026-05-03T12:00:44Z</time></trkpt><trkpt lat="44.84814576853595" lon="9.055524893931702"><ele>454.99999999999994</ele><time>2026-05-03T12:00:45Z</time></trkpt><trkpt lat="44.84821706423852" lon="9.055561250619826"><ele>455.0</ele><time>2026-05-03T12:00:46Z</time></trkpt><trkpt lat="44.84824186280351" lon="9.055650222643374"><ele>455.0</ele><time>2026-05-03T12:00:46.999Z</time></trkpt><trkpt lat="44.848232535337246" lon="9.055811483571773"><ele>455.0</ele><time>2026-05-03T12:00:48.999Z</time></trkpt><trkpt lat="44.84825315228339" lon="9.055941582361209"><ele>454.99999999999994</ele><time>2026-05-03T12:00:50.999Z</time></trkpt><trkpt lat="44.848293280557414" lon="9.056049800809586"><ele>455.0</ele><time>2026-05-03T12:00:52.999Z</time></trkpt><trkpt lat="44.848340855119794" lon="9.056134379792011"><ele>453.75</ele><time>2026-05-03T12:00:54.999Z</time></trkpt><trkpt lat="44.8484067423006" lon="9.056285220824371"><ele>452.5</ele><time>2026-05-03T12:00:56.999Z</time></trkpt><trkpt lat="44.84846332074519" lon="9.056400595107657"><ele>451.25</ele><time>2026-05-03T12:00:57.999Z</time></trkpt><trkpt lat="44.84853610093381" lon="9.056526279531441"><ele>450.0</ele><time>2026-05-03T12:00:58.999Z</time></trkpt><trkpt lat="44.84862338385516" lon="9.056651540391139"><ele>450.0</ele><time>2026-05-03T12:00:59.999Z</time></trkpt><trkpt lat="44.84870824705394" lon="9.056803405228194"><ele>450.0</ele><time>2026-05-03T12:01:00.999Z</time></trkpt><trkpt lat="44.848776546320416" lon="9.056976349414033"><ele>450.0</ele><time>2026-05-03T12:01:01.999Z</time></trkpt><trkpt lat="44.84883875016954" lon="9.057173782157177"><ele>450.0</ele><time>2026-05-03T12:01:02.999Z</time></trkpt><trkpt lat="44.8488922702612" lon="9.057361095978422"><ele>448.3333333333333</ele><time>2026-05-03T12:01:03.999Z</time></trkpt><trkpt lat="44.84894926763622" lon="9.057502481073413"><ele>446.66666666666663</ele><time>2026-05-03T12:01:04.999Z</time></trkpt><trkpt lat="44.848989654964576" lon="9.057601552037754"><ele>445.0</ele><time>2026-05-03T12:01:05.999Z</time></trkpt><trkpt lat="44.84901839288762" lon="9.057683500231477"><ele>443.3333333333333</ele><time>2026-05-03T12:01:06.999Z</time></trkpt><trkpt lat="44.84906126172164" lon="9.057803665979701"><ele>441.66666666666663</ele><time>2026-05-03T12:01:08.999Z</time></trkpt><trkpt lat="44.849103413084634" lon="9.057885784738744"><ele>440.0</ele><time>2026-05-03T12:01:11.999Z</time></trkpt><trkpt lat="44.84924309778426" lon="9.05784727742241"><ele>442.8</ele><time>2026-05-03T12:01:14.999Z</time></trkpt><trkpt lat="44.849315982958444" lon="9.057802352856674"><ele>445.6</ele><time>2026-05-03T12:01:15.999Z</time></trkpt><trkpt lat="44.8494051179791" lon="9.057755614458806"><ele>448.4</ele><time>2026-05-03T12:01:16.999Z</time></trkpt><trkpt lat="44.849495183884045" lon="9.057695909110706"><ele>451.2</ele><time>2026-05-03T12:01:17.999Z</time></trkpt><trkpt lat="44.849594242787994" lon="9.057641084885809"><ele>454.0</ele><time>2026-05-03T12:01:18.999Z</time></trkpt><trkpt lat="44.84969382475313" lon="9.057574681275252"><ele>454.00000000000006</ele><time>2026-05-03T12:01:19.999Z</time></trkpt><trkpt lat="44.84978726149466" lon="9.057520481689256"><ele>454.0</ele><time>2026-05-03T12:01:20.999Z</time></trkpt><trkpt lat="44.8498695008783" lon="9.057462169925095"><ele>454.0</ele><time>2026-05-03T12:01:21.999Z</time></trkpt><trkpt lat="44.84994927823123" lon="9.057409877264432"><ele>454.0</ele><time>2026-05-03T12:01:22.999Z</time></trkpt><trkpt lat="44.85002544079053" lon="9.057358407753535"><ele>454.00000000000006</ele><time>2026-05-03T12:01:23.999Z</time></trkpt><trkpt lat="44.85009254020039" lon="9.057317059640267"><ele>454.0</ele><time>2026-05-03T12:01:24.999Z</time></trkpt><trkpt lat="44.850155648902245" lon="9.057265929473557"><ele>453.6666666666667</ele><time>2026-05-03T12:01:25.999Z</time></trkpt><trkpt lat="44.85021984613739" lon="9.057207448437932"><ele>453.33333333333337</ele><time>2026-05-03T12:01:26.999Z</time></trkpt><trkpt lat="44.850278724129964" lon="9.057139625228576"><ele>453.0</ele><time>2026-05-03T12:01:27.999Z</time></trkpt><trkpt lat="44.850331267858444" lon="9.057066346275812"><ele>452.66666666666663</ele><time>2026-05-03T12:01:28.999Z</time></trkpt><trkpt lat="44.85037963720533" lon="9.05699486536843"><ele>452.3333333333333</ele><time>2026-05-03T12:01:29.999Z</time></trkpt><trkpt lat="44.85041758475876" lon="9.056909862225046"><ele>452.0</ele><time>2026-05-03T12:01:30.999Z</time></trkpt><trkpt lat="44.850452301165824" lon="9.056786574027779"><ele>452.0</ele><time>2026-05-03T12:01:31.999Z</time></trkpt><trkpt lat="44.85046940850239" lon="9.056658292903695"><ele>452.00000000000006</ele><time>2026-05-03T12:01:32.999Z</time></trkpt><trkpt lat="44.850492785512095" lon="9.056531903525132"><ele>452.00000000000006</ele><time>2026-05-03T12:01:33.999Z</time></trkpt><trkpt lat="44.85051841783786" lon="9.056408879336521"><ele>452.0</ele><time>2026-05-03T12:01:34.999Z</time></trkpt><trkpt lat="44.850535934655575" lon="9.056275138865383"><ele>452.0</ele><time>2026-05-03T12:01:35.999Z</time></trkpt><trkpt lat="44.85054247446285" lon="9.056139069123486"><ele>453.49999999999994</ele><time>2026-05-03T12:01:36.999Z</time></trkpt><trkpt lat="44.85053980431824" lon="9.056008857973145"><ele>455.0</ele><time>2026-05-03T12:01:37.999Z</time></trkpt><trkpt lat="44.850545372009705" lon="9.055904688020682"><ele>456.5</ele><time>2026-05-03T12:01:38.998Z</time></trkpt><trkpt lat="44.85057918223707" lon="9.055784795610519"><ele>458.0</ele><time>2026-05-03T12:01:40.998Z</time></trkpt><trkpt lat="44.85065794533126" lon="9.055771027570708"><ele>459.49999999999994</ele><time>2026-05-03T12:01:44.001Z</time></trkpt><trkpt lat="44.85073845116773" lon="9.055795814792807"><ele>461.0</ele><time>2026-05-03T12:01:46.001Z</time></trkpt><trkpt lat="44.85078895721924" lon="9.055906096583676"><ele>461.0</ele><time>2026-05-03T12:01:49.001Z</time></trkpt><trkpt lat="44.85083200114203" lon="9.056013357483955"><ele>461.0</ele><time>2026-05-03T12:01:53.001Z</time></trkpt><trkpt lat="44.85096283455626" lon="9.056371967347777"><ele>461.0</ele><time>2026-05-03T12:01:56.001Z</time></trkpt><trkpt lat="44.851041470748136" lon="9.056489033153749"><ele>462.20000000000005</ele><time>2026-05-03T12:01:57.001Z</time></trkpt><trkpt lat="44.85113275271833" lon="9.056591659363008"><ele>463.40000000000003</ele><time>2026-05-03T12:01:58.001Z</time></trkpt><trkpt lat="44.85123341143062" lon="9.05665510749298"><ele>464.6</ele><time>2026-05-03T12:01:59Z</time></trkpt><trkpt lat="44.85132575495533" lon="9.056701046167593"><ele>465.8</ele><time>2026-05-03T12:02:00Z</time></trkpt><trkpt lat="44.851410274858914" lon="9.056701239037471"><ele>467.0</ele><time>2026-05-03T12:02:01Z</time></trkpt><trkpt lat="44.851489016872215" lon="9.056743216987693"><ele>465.16666666666663</ele><time>2026-05-03T12:02:02Z</time></trkpt><trkpt lat="44.85155274161647" lon="9.05677283350926"><ele>463.3333333333333</ele><time>2026-05-03T12:02:03Z</time></trkpt><trkpt lat="44.851670453433385" lon="9.056827533961162"><ele>461.5</ele><time>2026-05-03T12:02:05Z</time></trkpt><trkpt lat="44.851737708060185" lon="9.056886134318184"><ele>459.66666666666663</ele><time>2026-05-03T12:02:06Z</time></trkpt><trkpt lat="44.85178357465954" lon="9.05698704600269"><ele>457.8333333333333</ele><time>2026-05-03T12:02:07Z</time></trkpt><trkpt lat="44.851799873278736" lon="9.057104278738876"><ele>456.0</ele><time>2026-05-03T12:02:08Z</time></trkpt><trkpt lat="44.85181263843096" lon="9.057217461188623"><ele>456.0</ele><time>2026-05-03T12:02:09Z</time></trkpt><trkpt lat="44.851841471740265" lon="9.057324806553941"><ele>456.0</ele><time>2026-05-03T12:02:10Z</time></trkpt><trkpt lat="44.85189415472711" lon="9.057432063358666"><ele>456.0</ele><time>2026-05-03T12:02:11Z</time></trkpt><trkpt lat="44.851952767441766" lon="9.0575214634554"><ele>456.0</ele><time>2026-05-03T12:02:12Z</time></trkpt><trkpt lat="44.85201511265057" lon="9.057592758928179"><ele>456.0</ele><time>2026-05-03T12:02:13Z</time></trkpt><trkpt lat="44.85208311784121" lon="9.05764028992071"><ele>456.0</ele><time>2026-05-03T12:02:14Z</time></trkpt><trkpt lat="44.85216427421505" lon="9.057717575624467"><ele>454.3333333333333</ele><time>2026-05-03T12:02:15Z</time></trkpt><trkpt lat="44.85222977030935" lon="9.057748809165657"><ele>452.66666666666663</ele><time>2026-05-03T12:02:16Z</time></trkpt><trkpt lat="44.85230415292454" lon="9.057813321214562"><ele>451.0</ele><time>2026-05-03T12:02:19Z</time></trkpt><trkpt lat="44.85237424929038" lon="9.057781008520434"><ele>449.3333333333333</ele><time>2026-05-03T12:02:21Z</time></trkpt><trkpt lat="44.85244255075639" lon="9.05775069273208"><ele>447.66666666666663</ele><time>2026-05-03T12:02:22Z</time></trkpt><trkpt lat="44.85251446879577" lon="9.05766851370778"><ele>446.0</ele><time>2026-05-03T12:02:23Z</time></trkpt><trkpt lat="44.8525961174574" lon="9.057573207079875"><ele>446.0</ele><time>2026-05-03T12:02:24Z</time></trkpt><trkpt lat="44.852689575667824" lon="9.057461307395986"><ele>446.0</ele><time>2026-05-03T12:02:25Z</time></trkpt><trkpt lat="44.85277754792835" lon="9.057340007876824"><ele>446.0</ele><time>2026-05-03T12:02:26Z</time></trkpt><trkpt lat="44.85286013937083" lon="9.057227613934112"><ele>446.0</ele><time>2026-05-03T12:02:27Z</time></trkpt><trkpt lat="44.8529219373084" lon="9.057149551064606"><ele>446.0</ele><time>2026-05-03T12:02:28Z</time></trkpt><trkpt lat="44.853030484494056" lon="9.057106993404105"><ele>446.0</ele><time>2026-05-03T12:02:30Z</time></trkpt><trkpt lat="44.85314662038241" lon="9.05721483098516"><ele>446.0</ele><time>2026-05-03T12:02:32Z</time></trkpt><trkpt lat="44.85320708871562" lon="9.057303615322908"><ele>446.0</ele><time>2026-05-03T12:02:33Z</time></trkpt><trkpt lat="44.853268519821825" lon="9.057375396560488"><ele>446.0</ele><time>2026-05-03T12:02:34Z</time></trkpt><trkpt lat="44.85332879219517" lon="9.057426567549953"><ele>446.0</ele><time>2026-05-03T12:02:35Z</time></trkpt><trkpt lat="44.85340521465357" lon="9.057464485708184"><ele>447.0</ele><time>2026-05-03T12:02:37Z</time></trkpt><trkpt lat="44.85349170165698" lon="9.057553978240437"><ele>448.0</ele><time>2026-05-03T12:02:40Z</time></trkpt><trkpt lat="44.85356910108902" lon="9.057647242322654"><ele>449.0</ele><time>2026-05-03T12:02:42Z</time></trkpt><trkpt lat="44.853629211583886" lon="9.057714612492953"><ele>450.0</ele><time>2026-05-03T12:02:44Z</time></trkpt><trkpt lat="44.85368980389922" lon="9.057763346919382"><ele>451.0</ele><time>2026-05-03T12:02:46Z</time></trkpt><trkpt lat="44.853779201732365" lon="9.057844665797067"><ele>451.0</ele><time>2026-05-03T12:02:48.999Z</time></trkpt><trkpt lat="44.85389457132634" lon="9.057929212660673"><ele>451.0</ele><time>2026-05-03T12:02:50.999Z</time></trkpt><trkpt lat="44.85395801448442" lon="9.057965292506104"><ele>451.0</ele><time>2026-05-03T12:02:51.999Z</time></trkpt><trkpt lat="44.85401212145027" lon="9.058033612334778"><ele>451.0</ele><time>2026-05-03T12:02:52.999Z</time></trkpt><trkpt lat="44.85406287264896" lon="9.058151084972279"><ele>451.0</ele><time>2026-05-03T12:02:53.999Z</time></trkpt><trkpt lat="44.85410290002862" lon="9.058258933781854"><ele>450.00000000000006</ele><time>2026-05-03T12:02:54.999Z</time></trkpt><trkpt lat="44.85413806872444" lon="9.058360974458115"><ele>449.0</ele><time>2026-05-03T12:02:55.999Z</time></trkpt><trkpt lat="44.854169962156185" lon="9.058466170611565"><ele>448.0</ele><time>2026-05-03T12:02:56.999Z</time></trkpt><trkpt lat="44.85420344645203" lon="9.05857302703211"><ele>447.0</ele><time>2026-05-03T12:02:57.999Z</time></trkpt><trkpt lat="44.85423893086848" lon="9.058688504259138"><ele>446.00000000000006</ele><time>2026-05-03T12:02:58.999Z</time></trkpt><trkpt lat="44.85428209822567" lon="9.058799736755907"><ele>445.0</ele><time>2026-05-03T12:02:59.999Z</time></trkpt><trkpt lat="44.85433647152845" lon="9.058905256252414"><ele>445.0</ele><time>2026-05-03T12:03:00.999Z</time></trkpt><trkpt lat="44.854401292141304" lon="9.058998656368093"><ele>445.0</ele><time>2026-05-03T12:03:01.999Z</time></trkpt><trkpt lat="44.85447800228319" lon="9.059095122484171"><ele>445.0</ele><time>2026-05-03T12:03:02.999Z</time></trkpt><trkpt lat="44.854566992840645" lon="9.059179255274845"><ele>445.0</ele><time>2026-05-03T12:03:03.999Z</time></trkpt><trkpt lat="44.854656566234375" lon="9.059260220402281"><ele>445.0</ele><time>2026-05-03T12:03:04.999Z</time></trkpt><trkpt lat="44.85474226920779" lon="9.059330590535218"><ele>442.4</ele><time>2026-05-03T12:03:05.999Z</time></trkpt><trkpt lat="44.85482885441429" lon="9.059422286150383"><ele>439.8</ele><time>2026-05-03T12:03:06.999Z</time></trkpt><trkpt lat="44.854922308732355" lon="9.059532754986568"><ele>437.20000000000005</ele><time>2026-05-03T12:03:07.999Z</time></trkpt><trkpt lat="44.85500649564296" lon="9.059636960553183"><ele>434.6</ele><time>2026-05-03T12:03:08.999Z</time></trkpt><trkpt lat="44.855078122407384" lon="9.059679816094471"><ele>432.0</ele><time>2026-05-03T12:03:09.999Z</time></trkpt><trkpt lat="44.85514454229033" lon="9.059715028754168"><ele>432.0</ele><time>2026-05-03T12:03:10.999Z</time></trkpt><trkpt lat="44.85521223987284" lon="9.059734808774547"><ele>432.0</ele><time>2026-05-03T12:03:11.999Z</time></trkpt><trkpt lat="44.855281720289376" lon="9.059744988457988"><ele>432.0</ele><time>2026-05-03T12:03:12.999Z</time></trkpt><trkpt lat="44.855359840677465" lon="9.05972738322482"><ele>432.0</ele><time>2026-05-03T12:03:13.999Z</time></trkpt><trkpt lat="44.855422391968986" lon="9.05968730905406"><ele>432.0</ele><time>2026-05-03T12:03:14.999Z</time></trkpt><trkpt lat="44.85548692676344" lon="9.059644666482603"><ele>432.0</ele><time>2026-05-03T12:03:16.999Z</time></trkpt><trkpt lat="44.8555974593882" lon="9.059688070441942"><ele>432.0</ele><time>2026-05-03T12:03:18.999Z</time></trkpt><trkpt lat="44.85568437214965" lon="9.059727935220263"><ele>432.0</ele><time>2026-05-03T12:03:19.999Z</time></trkpt><trkpt lat="44.855772192406604" lon="9.05976203611413"><ele>432.0</ele><time>2026-05-03T12:03:20.999Z</time></trkpt><trkpt lat="44.855832662295526" lon="9.059809701094006"><ele>432.0</ele><time>2026-05-03T12:03:21.999Z</time></trkpt><trkpt lat="44.85587660502799" lon="9.059882022651738"><ele>432.0</ele><time>2026-05-03T12:03:22.999Z</time></trkpt><trkpt lat="44.855957974581095" lon="9.060016924432814"><ele>432.0</ele><time>2026-05-03T12:03:24.999Z</time></trkpt><trkpt lat="44.85598140284792" lon="9.060113719864871"><ele>433.0</ele><time>2026-05-03T12:03:25.999Z</time></trkpt><trkpt lat="44.8559951092952" lon="9.060246092564162"><ele>434.00000000000006</ele><time>2026-05-03T12:03:26.999Z</time></trkpt><trkpt lat="44.85600125513914" lon="9.06039329912553"><ele>435.00000000000006</ele><time>2026-05-03T12:03:27.999Z</time></trkpt><trkpt lat="44.85602379931116" lon="9.060537175325996"><ele>436.0</ele><time>2026-05-03T12:03:28.999Z</time></trkpt><trkpt lat="44.85606643992172" lon="9.060664891881878"><ele>437.0</ele><time>2026-05-03T12:03:29.999Z</time></trkpt><trkpt lat="44.856082464975124" lon="9.060789473279"><ele>434.66666666666663</ele><time>2026-05-03T12:03:30.999Z</time></trkpt><trkpt lat="44.856120808716256" lon="9.060903829173839"><ele>432.3333333333333</ele><time>2026-05-03T12:03:31.999Z</time></trkpt><trkpt lat="44.85616642928797" lon="9.061008347286778"><ele>430.0</ele><time>2026-05-03T12:03:32.999Z</time></trkpt><trkpt lat="44.856205981669326" lon="9.061119581661012"><ele>427.66666666666663</ele><time>2026-05-03T12:03:33.999Z</time></trkpt><trkpt lat="44.85624447242734" lon="9.061243407794695"><ele>425.3333333333333</ele><time>2026-05-03T12:03:34.999Z</time></trkpt><trkpt lat="44.85627272909611" lon="9.061348634314996"><ele>423.0</ele><time>2026-05-03T12:03:35.999Z</time></trkpt><trkpt lat="44.856296352387304" lon="9.061441460576242"><ele>423.0</ele><time>2026-05-03T12:03:36.999Z</time></trkpt><trkpt lat="44.85634515459446" lon="9.061596746460982"><ele>423.0</ele><time>2026-05-03T12:03:38.999Z</time></trkpt><trkpt lat="44.85628719473688" lon="9.061749466131605"><ele>423.0</ele><time>2026-05-03T12:03:40.998Z</time></trkpt><trkpt lat="44.85623049701612" lon="9.061900937722735"><ele>423.0</ele><time>2026-05-03T12:03:42.998Z</time></trkpt><trkpt lat="44.85620806586943" lon="9.062061883608294"><ele>420.6666666666667</ele><time>2026-05-03T12:03:44.998Z</time></trkpt><trkpt lat="44.856202939465824" lon="9.062159485808731"><ele>418.33333333333337</ele><time>2026-05-03T12:03:45.998Z</time></trkpt><trkpt lat="44.85620115000827" lon="9.06226289822411"><ele>416.0</ele><time>2026-05-03T12:03:46.998Z</time></trkpt><trkpt lat="44.85619988630867" lon="9.062368316939496"><ele>413.6666666666667</ele><time>2026-05-03T12:03:48.001Z</time></trkpt><trkpt lat="44.856216605966935" lon="9.062458431716552"><ele>411.33333333333337</ele><time>2026-05-03T12:03:49.001Z</time></trkpt><trkpt lat="44.85623249809885" lon="9.062548010244006"><ele>409.0</ele><time>2026-05-03T12:03:50.001Z</time></trkpt><trkpt lat="44.856292031296846" lon="9.06269474303077"><ele>407.6666666666667</ele><time>2026-05-03T12:03:52.001Z</time></trkpt><trkpt lat="44.85634022060841" lon="9.062779890617895"><ele>406.33333333333337</ele><time>2026-05-03T12:03:53.001Z</time></trkpt><trkpt lat="44.85638492745782" lon="9.062842756805422"><ele>405.0</ele><time>2026-05-03T12:03:54.001Z</time></trkpt><trkpt lat="44.85648730872973" lon="9.062881435767096"><ele>403.66666666666663</ele><time>2026-05-03T12:03:56.001Z</time></trkpt><trkpt lat="44.85656345920471" lon="9.062884099452031"><ele>402.3333333333333</ele><time>2026-05-03T12:03:58.001Z</time></trkpt><trkpt lat="44.856609650835345" lon="9.062947879590538"><ele>401.0</ele><time>2026-05-03T12:04:02Z</time></trkpt><trkpt lat="44.856591188202906" lon="9.063043194852153"><ele>400.99999999999994</ele><time>2026-05-03T12:04:09Z</time></trkpt><trkpt lat="44.856566467453185" lon="9.06321118612008"><ele>401.0</ele><time>2026-05-03T12:04:11Z</time></trkpt><trkpt lat="44.856557597861105" lon="9.063338445591427"><ele>401.0</ele><time>2026-05-03T12:04:13Z</time></trkpt><trkpt lat="44.856543819240336" lon="9.063438855597765"><ele>401.0</ele><time>2026-05-03T12:04:15Z</time></trkpt><trkpt lat="44.85652333546591" lon="9.06354291113275"><ele>400.99999999999994</ele><time>2026-05-03T12:04:17Z</time></trkpt><trkpt lat="44.856495387307156" lon="9.063640642288071"><ele>401.0</ele><time>2026-05-03T12:04:19Z</time></trkpt><trkpt lat="44.856447155356555" lon="9.063767039972308"><ele>399.4</ele><time>2026-05-03T12:04:21Z</time></trkpt><trkpt lat="44.85641140539617" lon="9.063907037875184"><ele>397.8</ele><time>2026-05-03T12:04:23Z</time></trkpt><trkpt lat="44.85637561800097" lon="9.064061446323931"><ele>396.2</ele><time>2026-05-03T12:04:25Z</time></trkpt><trkpt lat="44.856362367794745" lon="9.06415138792292"><ele>394.59999999999997</ele><time>2026-05-03T12:04:26Z</time></trkpt><trkpt lat="44.85638887718043" lon="9.06429591472661"><ele>393.0</ele><time>2026-05-03T12:04:28Z</time></trkpt><trkpt lat="44.85642419678293" lon="9.064414559920607"><ele>391.3333333333333</ele><time>2026-05-03T12:04:30Z</time></trkpt><trkpt lat="44.856436457834086" lon="9.064513849097548"><ele>389.6666666666667</ele><time>2026-05-03T12:04:32Z</time></trkpt><trkpt lat="44.85639771166151" lon="9.064639048460524"><ele>388.0</ele><time>2026-05-03T12:04:34Z</time></trkpt><trkpt lat="44.85629681624325" lon="9.06472863179724"><ele>386.33333333333337</ele><time>2026-05-03T12:04:36Z</time></trkpt><trkpt lat="44.856208573749335" lon="9.06476223081747"><ele>384.6666666666667</ele><time>2026-05-03T12:04:37Z</time></trkpt><trkpt lat="44.85615262769943" lon="9.064807221551128"><ele>383.0</ele><time>2026-05-03T12:04:38Z</time></trkpt><trkpt lat="44.856076252321664" lon="9.064877691209338"><ele>383.0</ele><time>2026-05-03T12:04:40Z</time></trkpt><trkpt lat="44.85601795399794" lon="9.064925034200192"><ele>383.0</ele><time>2026-05-03T12:04:41Z</time></trkpt><trkpt lat="44.855963429473036" lon="9.065061304986504"><ele>383.0</ele><time>2026-05-03T12:04:43Z</time></trkpt><trkpt lat="44.85594460431684" lon="9.065181042775373"><ele>383.0</ele><time>2026-05-03T12:04:45Z</time></trkpt><trkpt lat="44.85593175516792" lon="9.065285626739946"><ele>383.0</ele><time>2026-05-03T12:04:46Z</time></trkpt><trkpt lat="44.85589037370994" lon="9.06540177218902"><ele>383.0</ele><time>2026-05-03T12:04:47Z</time></trkpt><trkpt lat="44.85587025132905" lon="9.065527849736782"><ele>380.5</ele><time>2026-05-03T12:04:48Z</time></trkpt><trkpt lat="44.855882612369584" lon="9.065614999966613"><ele>378.0</ele><time>2026-05-03T12:04:49Z</time></trkpt><trkpt lat="44.85582799458818" lon="9.065718752588934"><ele>375.5</ele><time>2026-05-03T12:04:50Z</time></trkpt><trkpt lat="44.85579077145922" lon="9.065811968555668"><ele>373.0</ele><time>2026-05-03T12:04:51Z</time></trkpt><trkpt lat="44.85578042934464" lon="9.065901028421216"><ele>370.5</ele><time>2026-05-03T12:04:51.999Z</time></trkpt><trkpt lat="44.85575675216127" lon="9.066071770828703"><ele>368.0</ele><time>2026-05-03T12:04:53.999Z</time></trkpt><trkpt lat="44.85574661290941" lon="9.066180800954713"><ele>366.0</ele><time>2026-05-03T12:04:54.999Z</time></trkpt><trkpt lat="44.85575729906812" lon="9.066302849188096"><ele>364.0</ele><time>2026-05-03T12:04:55.999Z</time></trkpt><trkpt lat="44.855787224434664" lon="9.066488228003443"><ele>362.0</ele><time>2026-05-03T12:04:56.999Z</time></trkpt><trkpt lat="44.85584959652356" lon="9.066641944365939"><ele>360.0</ele><time>2026-05-03T12:04:57.999Z</time></trkpt><trkpt lat="44.85589051721944" lon="9.066771379472891"><ele>358.0</ele><time>2026-05-03T12:04:58.999Z</time></trkpt><trkpt lat="44.855911756663964" lon="9.06688276374611"><ele>359.59999999999997</ele><time>2026-05-03T12:04:59.999Z</time></trkpt><trkpt lat="44.85594923874431" lon="9.0669814634937"><ele>361.2</ele><time>2026-05-03T12:05:00.999Z</time></trkpt><trkpt lat="44.85598720908299" lon="9.067076165606455"><ele>362.8</ele><time>2026-05-03T12:05:01.999Z</time></trkpt><trkpt lat="44.85605049442339" lon="9.06719611147422"><ele>364.4</ele><time>2026-05-03T12:05:02.999Z</time></trkpt><trkpt lat="44.85612792196267" lon="9.067318892437129"><ele>366.0</ele><time>2026-05-03T12:05:03.999Z</time></trkpt><trkpt lat="44.856186382206175" lon="9.067443554109147"><ele>362.8</ele><time>2026-05-03T12:05:04.999Z</time></trkpt><trkpt lat="44.856243565670454" lon="9.067558213104748"><ele>359.6</ele><time>2026-05-03T12:05:05.999Z</time></trkpt><trkpt lat="44.856314156705295" lon="9.067673772085119"><ele>356.4</ele><time>2026-05-03T12:05:06.999Z</time></trkpt><trkpt lat="44.856388719783226" lon="9.067782805061512"><ele>353.2</ele><time>2026-05-03T12:05:07.999Z</time></trkpt><trkpt lat="44.85645491827234" lon="9.067893597344145"><ele>350.0</ele><time>2026-05-03T12:05:08.999Z</time></trkpt><trkpt lat="44.856514267709436" lon="9.067973240388957"><ele>350.0</ele><time>2026-05-03T12:05:09.999Z</time></trkpt><trkpt lat="44.85656326686496" lon="9.068059690908477"><ele>350.0</ele><time>2026-05-03T12:05:10.999Z</time></trkpt><trkpt lat="44.856598330947506" lon="9.068158811791113"><ele>350.0</ele><time>2026-05-03T12:05:11.999Z</time></trkpt><trkpt lat="44.85662043648967" lon="9.068289111711655"><ele>350.0</ele><time>2026-05-03T12:05:12.999Z</time></trkpt><trkpt lat="44.856620188581665" lon="9.06844395811875"><ele>350.0</ele><time>2026-05-03T12:05:13.999Z</time></trkpt><trkpt lat="44.85662674651205" lon="9.068599175562246"><ele>348.0</ele><time>2026-05-03T12:05:14.999Z</time></trkpt><trkpt lat="44.85663466487156" lon="9.068766116834666"><ele>346.0</ele><time>2026-05-03T12:05:15.999Z</time></trkpt><trkpt lat="44.856643786089975" lon="9.068903700802931"><ele>344.0</ele><time>2026-05-03T12:05:16.999Z</time></trkpt><trkpt lat="44.85667310111672" lon="9.069026295596926"><ele>342.0</ele><time>2026-05-03T12:05:17.999Z</time></trkpt><trkpt lat="44.856711968472595" lon="9.06913197674536"><ele>340.0</ele><time>2026-05-03T12:05:18.999Z</time></trkpt><trkpt lat="44.85674961575673" lon="9.069229547360084"><ele>340.8333333333333</ele><time>2026-05-03T12:05:19.999Z</time></trkpt><trkpt lat="44.8567911827761" lon="9.069317560778602"><ele>341.66666666666663</ele><time>2026-05-03T12:05:20.999Z</time></trkpt><trkpt lat="44.85682991338325" lon="9.069409609821378"><ele>342.5</ele><time>2026-05-03T12:05:21.999Z</time></trkpt><trkpt lat="44.85684767955197" lon="9.069529919083068"><ele>343.3333333333333</ele><time>2026-05-03T12:05:22.999Z</time></trkpt><trkpt lat="44.856849561056116" lon="9.069643410099989"><ele>344.1666666666667</ele><time>2026-05-03T12:05:23.999Z</time></trkpt><trkpt lat="44.85686283618902" lon="9.069745704956478"><ele>345.0</ele><time>2026-05-03T12:05:24.999Z</time></trkpt><trkpt lat="44.856885517210245" lon="9.069844857713619"><ele>345.0</ele><time>2026-05-03T12:05:25.999Z</time></trkpt><trkpt lat="44.85691522320225" lon="9.06993261464693"><ele>345.0</ele><time>2026-05-03T12:05:26.999Z</time></trkpt><trkpt lat="44.856947536200394" lon="9.070011128098278"><ele>345.0</ele><time>2026-05-03T12:05:27.999Z</time></trkpt><trkpt lat="44.85701262300313" lon="9.07013321669045"><ele>345.0</ele><time>2026-05-03T12:05:29.999Z</time></trkpt><trkpt lat="44.857091503116315" lon="9.070177064097384"><ele>345.0</ele><time>2026-05-03T12:05:30.999Z</time></trkpt><trkpt lat="44.85720017280592" lon="9.070220061684598"><ele>345.0</ele><time>2026-05-03T12:05:31.999Z</time></trkpt><trkpt lat="44.857309659264" lon="9.070240824671469"><ele>341.4</ele><time>2026-05-03T12:05:32.999Z</time></trkpt><trkpt lat="44.85740290009289" lon="9.070247344969447"><ele>337.8</ele><time>2026-05-03T12:05:33.999Z</time></trkpt><trkpt lat="44.85749706444493" lon="9.07027043334923"><ele>334.20000000000005</ele><time>2026-05-03T12:05:34.999Z</time></trkpt><trkpt lat="44.85759951429608" lon="9.070359360928776"><ele>330.6</ele><time>2026-05-03T12:05:35.999Z</time></trkpt><trkpt lat="44.857700072338666" lon="9.070455727663582"><ele>327.0</ele><time>2026-05-03T12:05:36.999Z</time></trkpt><trkpt lat="44.85779311499961" lon="9.070516918446595"><ele>326.25</ele><time>2026-05-03T12:05:37.999Z</time></trkpt><trkpt lat="44.857891945646536" lon="9.070551861577405"><ele>325.5</ele><time>2026-05-03T12:05:39.999Z</time></trkpt><trkpt lat="44.858016330960155" lon="9.07051839486539"><ele>324.75</ele><time>2026-05-03T12:05:41.999Z</time></trkpt><trkpt lat="44.85810740599544" lon="9.070450664214851"><ele>324.0</ele><time>2026-05-03T12:05:42.998Z</time></trkpt><trkpt lat="44.858217770119495" lon="9.07034915724113"><ele>324.0</ele><time>2026-05-03T12:05:43.998Z</time></trkpt><trkpt lat="44.85832557635935" lon="9.070248487777011"><ele>324.0</ele><time>2026-05-03T12:05:44.998Z</time></trkpt><trkpt lat="44.85842153189105" lon="9.070124992123423"><ele>324.0</ele><time>2026-05-03T12:05:45.998Z</time></trkpt><trkpt lat="44.85851925558583" lon="9.0700249241396"><ele>324.0</ele><time>2026-05-03T12:05:46.998Z</time></trkpt><trkpt lat="44.85860975069589" lon="9.069948846561571"><ele>323.3333333333333</ele><time>2026-05-03T12:05:47.998Z</time></trkpt><trkpt lat="44.85867887668839" lon="9.069864047909467"><ele>322.6666666666667</ele><time>2026-05-03T12:05:48.998Z</time></trkpt><trkpt lat="44.85871863165909" lon="9.069787155494652"><ele>322.0</ele><time>2026-05-03T12:05:49.998Z</time></trkpt><trkpt lat="44.85876342841156" lon="9.069710405362217"><ele>321.33333333333337</ele><time>2026-05-03T12:05:51.998Z</time></trkpt><trkpt lat="44.85880704247306" lon="9.069614032813655"><ele>320.6666666666667</ele><time>2026-05-03T12:05:55Z</time></trkpt><trkpt lat="44.85885846684807" lon="9.069554512389848"><ele>320.0</ele><time>2026-05-03T12:06:00Z</time></trkpt><trkpt lat="44.85890421858246" lon="9.069446957200666"><ele>320.0</ele><time>2026-05-03T12:06:07Z</time></trkpt><trkpt lat="44.85895331433128" lon="9.069290912733718"><ele>320.0</ele><time>2026-05-03T12:06:09Z</time></trkpt><trkpt lat="44.85899558169357" lon="9.069221964787173"><ele>320.0</ele><time>2026-05-03T12:06:10Z</time></trkpt><trkpt lat="44.85902180505856" lon="9.069136798548616"><ele>320.0</ele><time>2026-05-03T12:06:11Z</time></trkpt><trkpt lat="44.859158546291994" lon="9.069173906013948"><ele>320.0</ele><time>2026-05-03T12:06:14Z</time></trkpt><trkpt lat="44.85922043224528" lon="9.069199976925166"><ele>317.6</ele><time>2026-05-03T12:06:15Z</time></trkpt><trkpt lat="44.85928630126384" lon="9.069223415513866"><ele>315.2</ele><time>2026-05-03T12:06:16Z</time></trkpt><trkpt lat="44.85937095837004" lon="9.069230594308365"><ele>312.8</ele><time>2026-05-03T12:06:17Z</time></trkpt><trkpt lat="44.85945424307651" lon="9.069270299974304"><ele>310.4</ele><time>2026-05-03T12:06:18Z</time></trkpt><trkpt lat="44.85956021307061" lon="9.069252719129567"><ele>308.0</ele><time>2026-05-03T12:06:19Z</time></trkpt><trkpt lat="44.859680985930865" lon="9.069256409516873"><ele>308.0</ele><time>2026-05-03T12:06:20Z</time></trkpt><trkpt lat="44.859788265280066" lon="9.069294538851416"><ele>308.0</ele><time>2026-05-03T12:06:21Z</time></trkpt><trkpt lat="44.85991069503203" lon="9.06928886898246"><ele>308.0</ele><time>2026-05-03T12:06:22Z</time></trkpt><trkpt lat="44.860008146577535" lon="9.069280032617693"><ele>308.0</ele><time>2026-05-03T12:06:23Z</time></trkpt><trkpt lat="44.860195098023915" lon="9.06926998911187"><ele>303.8</ele><time>2026-05-03T12:06:25Z</time></trkpt><trkpt lat="44.8602777729031" lon="9.069252506788608"><ele>299.6</ele><time>2026-05-03T12:06:26Z</time></trkpt><trkpt lat="44.860357754401484" lon="9.069209570360524"><ele>295.4</ele><time>2026-05-03T12:06:27Z</time></trkpt><trkpt lat="44.86048685756602" lon="9.069132034334451"><ele>291.2</ele><time>2026-05-03T12:06:29Z</time></trkpt><trkpt lat="44.86055811371906" lon="9.069074684905127"><ele>287.0</ele><time>2026-05-03T12:06:30Z</time></trkpt><trkpt lat="44.860618818095" lon="9.068995886161899"><ele>287.0</ele><time>2026-05-03T12:06:31Z</time></trkpt><trkpt lat="44.86066718058959" lon="9.068927223773086"><ele>287.0</ele><time>2026-05-03T12:06:32Z</time></trkpt><trkpt lat="44.86071847916908" lon="9.068856146150075"><ele>287.0</ele><time>2026-05-03T12:06:33Z</time></trkpt><trkpt lat="44.860762830345315" lon="9.068760662011092"><ele>287.0</ele><time>2026-05-03T12:06:34Z</time></trkpt><trkpt lat="44.86078605492314" lon="9.068639529022537"><ele>287.0</ele><time>2026-05-03T12:06:35Z</time></trkpt><trkpt lat="44.860794411916594" lon="9.068497415551919"><ele>287.0</ele><time>2026-05-03T12:06:36Z</time></trkpt><trkpt lat="44.86078496622271" lon="9.068383224775289"><ele>287.0</ele><time>2026-05-03T12:06:37Z</time></trkpt><trkpt lat="44.86076975812177" lon="9.068294686745531"><ele>287.0</ele><time>2026-05-03T12:06:38Z</time></trkpt><trkpt lat="44.86074815273997" lon="9.06820954473978"><ele>287.0</ele><time>2026-05-03T12:06:39Z</time></trkpt><trkpt lat="44.86073356498318" lon="9.068122284719157"><ele>287.0</ele><time>2026-05-03T12:06:40Z</time></trkpt><trkpt lat="44.860800389081184" lon="9.067957175472749"><ele>287.0</ele><time>2026-05-03T12:06:42Z</time></trkpt><trkpt lat="44.86088239529334" lon="9.067876803357269"><ele>287.0</ele><time>2026-05-03T12:06:43Z</time></trkpt><trkpt lat="44.86093980928447" lon="9.067800300117979"><ele>282.6666666666667</ele><time>2026-05-03T12:06:44Z</time></trkpt><trkpt lat="44.86096911728772" lon="9.067709107841827"><ele>278.33333333333337</ele><time>2026-05-03T12:06:45Z</time></trkpt><trkpt lat="44.86100036310355" lon="9.067610494210147"><ele>274.0</ele><time>2026-05-03T12:06:46Z</time></trkpt><trkpt lat="44.8610224390626" lon="9.067510175239194"><ele>269.6666666666667</ele><time>2026-05-03T12:06:47Z</time></trkpt><trkpt lat="44.86104140880675" lon="9.067405965196835"><ele>265.3333333333333</ele><time>2026-05-03T12:06:48Z</time></trkpt><trkpt lat="44.86106232673826" lon="9.067299790922764"><ele>261.0</ele><time>2026-05-03T12:06:49Z</time></trkpt><trkpt lat="44.861080100598045" lon="9.067190363327542"><ele>261.0</ele><time>2026-05-03T12:06:50Z</time></trkpt><trkpt lat="44.86109510558508" lon="9.06708032337354"><ele>261.0</ele><time>2026-05-03T12:06:51Z</time></trkpt><trkpt lat="44.86111817794659" lon="9.066981434153732"><ele>261.0</ele><time>2026-05-03T12:06:52Z</time></trkpt><trkpt lat="44.86118715874755" lon="9.066863773922561"><ele>261.0</ele><time>2026-05-03T12:06:54Z</time></trkpt><trkpt lat="44.86124421056552" lon="9.066811112621178"><ele>261.0</ele><time>2026-05-03T12:06:54.999Z</time></trkpt><trkpt lat="44.8613294019919" lon="9.066789585637771"><ele>261.0</ele><time>2026-05-03T12:06:55.999Z</time></trkpt><trkpt lat="44.861421529534134" lon="9.066795318365765"><ele>261.0</ele><time>2026-05-03T12:06:56.999Z</time></trkpt><trkpt lat="44.86149364970444" lon="9.066789954388124"><ele>261.0</ele><time>2026-05-03T12:06:57.999Z</time></trkpt><trkpt lat="44.86155622067503" lon="9.066754131615562"><ele>261.0</ele><time>2026-05-03T12:06:58.999Z</time></trkpt><trkpt lat="44.86161566933319" lon="9.066691487502096"><ele>261.0</ele><time>2026-05-03T12:06:59.999Z</time></trkpt><trkpt lat="44.86167181015935" lon="9.066597862113927"><ele>261.0</ele><time>2026-05-03T12:07:00.999Z</time></trkpt><trkpt lat="44.86172071129717" lon="9.066510519102232"><ele>261.0</ele><time>2026-05-03T12:07:01.999Z</time></trkpt><trkpt lat="44.86178303997196" lon="9.066436163413593"><ele>259.3333333333333</ele><time>2026-05-03T12:07:02.999Z</time></trkpt><trkpt lat="44.86185473551422" lon="9.066375663973897"><ele>257.6666666666667</ele><time>2026-05-03T12:07:03.999Z</time></trkpt><trkpt lat="44.86194134834205" lon="9.066326166761499"><ele>256.0</ele><time>2026-05-03T12:07:04.999Z</time></trkpt><trkpt lat="44.86200468895376" lon="9.066313827156163"><ele>254.33333333333334</ele><time>2026-05-03T12:07:05.999Z</time></trkpt><trkpt lat="44.8621192757454" lon="9.06625268838473"><ele>252.66666666666669</ele><time>2026-05-03T12:07:07.999Z</time></trkpt><trkpt lat="44.862181686961826" lon="9.066214823181335"><ele>251.0</ele><time>2026-05-03T12:07:09.999Z</time></trkpt><trkpt lat="44.86225299904122" lon="9.066146867432582"><ele>251.0</ele><time>2026-05-03T12:07:23.999Z</time></trkpt><trkpt lat="44.86230413274162" lon="9.066068019674137"><ele>251.00000000000003</ele><time>2026-05-03T12:07:24.999Z</time></trkpt><trkpt lat="44.86235933985658" lon="9.065962079576062"><ele>251.00000000000003</ele><time>2026-05-03T12:07:25.999Z</time></trkpt><trkpt lat="44.862427189052916" lon="9.06584204974095"><ele>251.0</ele><time>2026-05-03T12:07:26.999Z</time></trkpt><trkpt lat="44.862505316290544" lon="9.065713699662908"><ele>251.0</ele><time>2026-05-03T12:07:27.999Z</time></trkpt><trkpt lat="44.86257994203194" lon="9.065588350355688"><ele>250.00000000000003</ele><time>2026-05-03T12:07:28.999Z</time></trkpt><trkpt lat="44.8626368244041" lon="9.065479640230476"><ele>249.0</ele><time>2026-05-03T12:07:29.999Z</time></trkpt><trkpt lat="44.862684863513344" lon="9.065388367660844"><ele>248.0</ele><time>2026-05-03T12:07:30.999Z</time></trkpt><trkpt lat="44.86274174742649" lon="9.06532806742927"><ele>247.0</ele><time>2026-05-03T12:07:31.999Z</time></trkpt><trkpt lat="44.86278236893419" lon="9.065248125999872"><ele>246.00000000000003</ele><time>2026-05-03T12:07:32.999Z</time></trkpt><trkpt lat="44.862844900643815" lon="9.065229254137256"><ele>245.0</ele><time>2026-05-03T12:07:33.999Z</time></trkpt><trkpt lat="44.862914246019905" lon="9.065244823565614"><ele>245.0</ele><time>2026-05-03T12:07:34.999Z</time></trkpt><trkpt lat="44.86298654025771" lon="9.065331768738746"><ele>245.0</ele><time>2026-05-03T12:07:35.999Z</time></trkpt><trkpt lat="44.863080699105616" lon="9.065460468556399"><ele>245.0</ele><time>2026-05-03T12:07:36.999Z</time></trkpt><trkpt lat="44.86319692865272" lon="9.065587481040316"><ele>245.0</ele><time>2026-05-03T12:07:37.999Z</time></trkpt><trkpt lat="44.86331104324618" lon="9.065731965178548"><ele>243.66666666666669</ele><time>2026-05-03T12:07:38.999Z</time></trkpt><trkpt lat="44.86343048713761" lon="9.065882156272119"><ele>242.33333333333331</ele><time>2026-05-03T12:07:39.999Z</time></trkpt><trkpt lat="44.86354904890155" lon="9.066036534632168"><ele>241.0</ele><time>2026-05-03T12:07:40.999Z</time></trkpt><trkpt lat="44.86366984362219" lon="9.066189578838637"><ele>240.33333333333331</ele><time>2026-05-03T12:07:41.999Z</time></trkpt><trkpt lat="44.86379447100366" lon="9.066348370418067"><ele>239.66666666666669</ele><time>2026-05-03T12:07:42.999Z</time></trkpt><trkpt lat="44.86392000951901" lon="9.066509111131591"><ele>239.0</ele><time>2026-05-03T12:07:43.999Z</time></trkpt><trkpt lat="44.86404912195499" lon="9.066675708640872"><ele>238.66666666666669</ele><time>2026-05-03T12:07:44.999Z</time></trkpt><trkpt lat="44.86418004890925" lon="9.066855190217025"><ele>238.33333333333331</ele><time>2026-05-03T12:07:45.999Z</time></trkpt><trkpt lat="44.8643034457825" lon="9.067016796896233"><ele>238.0</ele><time>2026-05-03T12:07:46.998Z</time></trkpt><trkpt lat="44.86438878265791" lon="9.067122176456092"><ele>237.66666666666666</ele><time>2026-05-03T12:07:47.998Z</time></trkpt><trkpt lat="44.86445281755066" lon="9.067219640552471"><ele>237.33333333333331</ele><time>2026-05-03T12:07:48.998Z</time></trkpt><trkpt lat="44.864498629546326" lon="9.067286117057234"><ele>237.0</ele><time>2026-05-03T12:07:49.998Z</time></trkpt><trkpt lat="44.864558910163524" lon="9.067361650832709"><ele>236.66666666666669</ele><time>2026-05-03T12:07:51.998Z</time></trkpt><trkpt lat="44.864626900280626" lon="9.067443121929712"><ele>236.33333333333334</ele><time>2026-05-03T12:07:53.998Z</time></trkpt><trkpt lat="44.86470750189754" lon="9.067530397514703"><ele>236.0</ele><time>2026-05-03T12:07:55.998Z</time></trkpt><trkpt lat="44.864777012453445" lon="9.067556811169384"><ele>235.0</ele><time>2026-05-03T12:07:56.998Z</time></trkpt><trkpt lat="44.86484857077608" lon="9.067554402936269"><ele>235.0</ele><time>2026-05-03T12:07:57.998Z</time></trkpt><trkpt lat="44.86491146899004" lon="9.067540854386303"><ele>235.0</ele><time>2026-05-03T12:07:59Z</time></trkpt><trkpt lat="44.865020136954804" lon="9.067502613181778"><ele>235.0</ele><time>2026-05-03T12:08:01Z</time></trkpt><trkpt lat="44.86509744020443" lon="9.067480876815944"><ele>235.0</ele><time>2026-05-03T12:08:03Z</time></trkpt></trkseg></trk></gpx>